<?xml version="1.0" encoding="UTF-8" standalone="no" ?>
<gpx xmlns="http://www.topografix.com/GPX/1/1" xmlns:xsi="http://www.w3.org/2001/XMLSchema-instance" xsi:schemaLocation="http://www.topografix.com/GPX/1/1 http://www.topografix.com/GPX/1/1/gpx.xsd" version="1.1" creator="VisuGPX - https://www.visugpx.com">
  <metadata>
    <name>Boucle langoat, la roche derrien </name>
  </metadata>
  <trk>
    <name><![CDATA[Boucle langoat, la roche derrien _1]]></name>
    <trkseg>
      <trkpt lat="48.75009" lon="-3.28209">
        <ele>33.4</ele>
        <time>2021-03-28T12:07:37Z</time>
      </trkpt>
      <trkpt lat="48.7501" lon="-3.28208">
        <ele>33.4</ele>
        <time>2021-03-28T12:07:38Z</time>
      </trkpt>
      <trkpt lat="48.75011" lon="-3.28205">
        <ele>33.3</ele>
        <time>2021-03-28T12:07:40Z</time>
      </trkpt>
      <trkpt lat="48.75011" lon="-3.28204">
        <ele>33.3</ele>
        <time>2021-03-28T12:07:41Z</time>
      </trkpt>
      <trkpt lat="48.75012" lon="-3.28201">
        <ele>33.2</ele>
        <time>2021-03-28T12:07:43Z</time>
      </trkpt>
      <trkpt lat="48.75011" lon="-3.28197">
        <ele>33.1</ele>
        <time>2021-03-28T12:07:44Z</time>
      </trkpt>
      <trkpt lat="48.75011" lon="-3.28194">
        <ele>33.1</ele>
        <time>2021-03-28T12:07:46Z</time>
      </trkpt>
      <trkpt lat="48.75011" lon="-3.28193">
        <ele>33</ele>
        <time>2021-03-28T12:07:47Z</time>
      </trkpt>
      <trkpt lat="48.75012" lon="-3.28191">
        <ele>33</ele>
        <time>2021-03-28T12:07:48Z</time>
      </trkpt>
      <trkpt lat="48.75013" lon="-3.2819">
        <ele>32.9</ele>
        <time>2021-03-28T12:07:49Z</time>
      </trkpt>
      <trkpt lat="48.75015" lon="-3.2819">
        <ele>32.9</ele>
        <time>2021-03-28T12:07:50Z</time>
      </trkpt>
      <trkpt lat="48.75016" lon="-3.28189">
        <ele>32.8</ele>
        <time>2021-03-28T12:07:51Z</time>
      </trkpt>
      <trkpt lat="48.75017" lon="-3.28187">
        <ele>32.8</ele>
        <time>2021-03-28T12:07:53Z</time>
      </trkpt>
      <trkpt lat="48.75019" lon="-3.28186">
        <ele>32.7</ele>
        <time>2021-03-28T12:07:54Z</time>
      </trkpt>
      <trkpt lat="48.7502" lon="-3.28183">
        <ele>32.7</ele>
        <time>2021-03-28T12:07:56Z</time>
      </trkpt>
      <trkpt lat="48.75021" lon="-3.28181">
        <ele>32.6</ele>
        <time>2021-03-28T12:07:57Z</time>
      </trkpt>
      <trkpt lat="48.75022" lon="-3.2818">
        <ele>32.6</ele>
        <time>2021-03-28T12:07:59Z</time>
      </trkpt>
      <trkpt lat="48.75023" lon="-3.28179">
        <ele>32.6</ele>
        <time>2021-03-28T12:08:00Z</time>
      </trkpt>
      <trkpt lat="48.75025" lon="-3.28178">
        <ele>32.5</ele>
        <time>2021-03-28T12:08:02Z</time>
      </trkpt>
      <trkpt lat="48.75026" lon="-3.28176">
        <ele>32.4</ele>
        <time>2021-03-28T12:08:03Z</time>
      </trkpt>
      <trkpt lat="48.75027" lon="-3.28175">
        <ele>32.4</ele>
        <time>2021-03-28T12:08:04Z</time>
      </trkpt>
      <trkpt lat="48.75027" lon="-3.28172">
        <ele>32.3</ele>
        <time>2021-03-28T12:08:06Z</time>
      </trkpt>
      <trkpt lat="48.75028" lon="-3.2817">
        <ele>32.3</ele>
        <time>2021-03-28T12:08:07Z</time>
      </trkpt>
      <trkpt lat="48.75029" lon="-3.28168">
        <ele>32.2</ele>
        <time>2021-03-28T12:08:08Z</time>
      </trkpt>
      <trkpt lat="48.7503" lon="-3.28165">
        <ele>32.2</ele>
        <time>2021-03-28T12:08:09Z</time>
      </trkpt>
      <trkpt lat="48.75031" lon="-3.28163">
        <ele>32.1</ele>
        <time>2021-03-28T12:08:11Z</time>
      </trkpt>
      <trkpt lat="48.75032" lon="-3.28161">
        <ele>32.1</ele>
        <time>2021-03-28T12:08:13Z</time>
      </trkpt>
      <trkpt lat="48.75033" lon="-3.2816">
        <ele>32</ele>
        <time>2021-03-28T12:08:14Z</time>
      </trkpt>
      <trkpt lat="48.75035" lon="-3.28159">
        <ele>32</ele>
        <time>2021-03-28T12:08:15Z</time>
      </trkpt>
      <trkpt lat="48.75036" lon="-3.2816">
        <ele>31.9</ele>
        <time>2021-03-28T12:08:16Z</time>
      </trkpt>
      <trkpt lat="48.75037" lon="-3.2816">
        <ele>31.9</ele>
        <time>2021-03-28T12:08:18Z</time>
      </trkpt>
      <trkpt lat="48.75037" lon="-3.28161">
        <ele>31.9</ele>
        <time>2021-03-28T12:08:19Z</time>
      </trkpt>
      <trkpt lat="48.75039" lon="-3.28161">
        <ele>31.8</ele>
        <time>2021-03-28T12:08:21Z</time>
      </trkpt>
      <trkpt lat="48.75041" lon="-3.28158">
        <ele>31.8</ele>
        <time>2021-03-28T12:08:23Z</time>
      </trkpt>
      <trkpt lat="48.75043" lon="-3.28157">
        <ele>31.7</ele>
        <time>2021-03-28T12:08:24Z</time>
      </trkpt>
      <trkpt lat="48.75045" lon="-3.28153">
        <ele>31.6</ele>
        <time>2021-03-28T12:08:26Z</time>
      </trkpt>
      <trkpt lat="48.75047" lon="-3.2815">
        <ele>31.6</ele>
        <time>2021-03-28T12:08:27Z</time>
      </trkpt>
      <trkpt lat="48.75048" lon="-3.28149">
        <ele>31.5</ele>
        <time>2021-03-28T12:08:28Z</time>
      </trkpt>
      <trkpt lat="48.75049" lon="-3.28147">
        <ele>31.5</ele>
        <time>2021-03-28T12:08:29Z</time>
      </trkpt>
      <trkpt lat="48.75051" lon="-3.28146">
        <ele>31.4</ele>
        <time>2021-03-28T12:08:31Z</time>
      </trkpt>
      <trkpt lat="48.75052" lon="-3.28145">
        <ele>31.4</ele>
        <time>2021-03-28T12:08:32Z</time>
      </trkpt>
      <trkpt lat="48.75053" lon="-3.28143">
        <ele>31.3</ele>
        <time>2021-03-28T12:08:33Z</time>
      </trkpt>
      <trkpt lat="48.75055" lon="-3.28141">
        <ele>31.2</ele>
        <time>2021-03-28T12:08:34Z</time>
      </trkpt>
      <trkpt lat="48.75056" lon="-3.2814">
        <ele>31.2</ele>
        <time>2021-03-28T12:08:36Z</time>
      </trkpt>
      <trkpt lat="48.75056" lon="-3.2814">
        <ele>31.2</ele>
        <time>2021-03-28T12:08:37Z</time>
      </trkpt>
      <trkpt lat="48.75059" lon="-3.28136">
        <ele>31.1</ele>
        <time>2021-03-28T12:08:38Z</time>
      </trkpt>
      <trkpt lat="48.75059" lon="-3.28135">
        <ele>31</ele>
        <time>2021-03-28T12:08:39Z</time>
      </trkpt>
      <trkpt lat="48.7506" lon="-3.28133">
        <ele>31</ele>
        <time>2021-03-28T12:08:41Z</time>
      </trkpt>
      <trkpt lat="48.75062" lon="-3.28131">
        <ele>30.9</ele>
        <time>2021-03-28T12:08:43Z</time>
      </trkpt>
      <trkpt lat="48.75065" lon="-3.28129">
        <ele>30.7</ele>
        <time>2021-03-28T12:08:45Z</time>
      </trkpt>
      <trkpt lat="48.75067" lon="-3.28129">
        <ele>30.7</ele>
        <time>2021-03-28T12:08:46Z</time>
      </trkpt>
      <trkpt lat="48.75068" lon="-3.28127">
        <ele>30.6</ele>
        <time>2021-03-28T12:08:47Z</time>
      </trkpt>
      <trkpt lat="48.75068" lon="-3.28126">
        <ele>30.6</ele>
        <time>2021-03-28T12:08:48Z</time>
      </trkpt>
      <trkpt lat="48.75071" lon="-3.28126">
        <ele>30.5</ele>
        <time>2021-03-28T12:08:51Z</time>
      </trkpt>
      <trkpt lat="48.75073" lon="-3.28128">
        <ele>30.2</ele>
        <time>2021-03-28T12:08:52Z</time>
      </trkpt>
      <trkpt lat="48.75075" lon="-3.2813">
        <ele>30.2</ele>
        <time>2021-03-28T12:08:54Z</time>
      </trkpt>
      <trkpt lat="48.75078" lon="-3.28133">
        <ele>30.1</ele>
        <time>2021-03-28T12:08:56Z</time>
      </trkpt>
      <trkpt lat="48.7508" lon="-3.28133">
        <ele>30.1</ele>
        <time>2021-03-28T12:08:57Z</time>
      </trkpt>
      <trkpt lat="48.75081" lon="-3.28133">
        <ele>30.1</ele>
        <time>2021-03-28T12:08:58Z</time>
      </trkpt>
      <trkpt lat="48.75082" lon="-3.28135">
        <ele>30</ele>
        <time>2021-03-28T12:09:00Z</time>
      </trkpt>
      <trkpt lat="48.75084" lon="-3.28136">
        <ele>30</ele>
        <time>2021-03-28T12:09:01Z</time>
      </trkpt>
      <trkpt lat="48.75085" lon="-3.28137">
        <ele>29.9</ele>
        <time>2021-03-28T12:09:02Z</time>
      </trkpt>
      <trkpt lat="48.75087" lon="-3.28138">
        <ele>29.9</ele>
        <time>2021-03-28T12:09:04Z</time>
      </trkpt>
      <trkpt lat="48.75089" lon="-3.28138">
        <ele>29.8</ele>
        <time>2021-03-28T12:09:06Z</time>
      </trkpt>
      <trkpt lat="48.7509" lon="-3.28138">
        <ele>29.8</ele>
        <time>2021-03-28T12:09:07Z</time>
      </trkpt>
      <trkpt lat="48.75091" lon="-3.28137">
        <ele>29.7</ele>
        <time>2021-03-28T12:09:08Z</time>
      </trkpt>
      <trkpt lat="48.75093" lon="-3.28139">
        <ele>29.7</ele>
        <time>2021-03-28T12:09:10Z</time>
      </trkpt>
      <trkpt lat="48.75094" lon="-3.28139">
        <ele>29.6</ele>
        <time>2021-03-28T12:09:11Z</time>
      </trkpt>
      <trkpt lat="48.75096" lon="-3.2814">
        <ele>29.6</ele>
        <time>2021-03-28T12:09:12Z</time>
      </trkpt>
      <trkpt lat="48.75097" lon="-3.28141">
        <ele>29.5</ele>
        <time>2021-03-28T12:09:14Z</time>
      </trkpt>
      <trkpt lat="48.75099" lon="-3.28143">
        <ele>29.4</ele>
        <time>2021-03-28T12:09:15Z</time>
      </trkpt>
      <trkpt lat="48.75099" lon="-3.28144">
        <ele>29.4</ele>
        <time>2021-03-28T12:09:16Z</time>
      </trkpt>
      <trkpt lat="48.751" lon="-3.28145">
        <ele>29.4</ele>
        <time>2021-03-28T12:09:17Z</time>
      </trkpt>
      <trkpt lat="48.75101" lon="-3.28146">
        <ele>29.3</ele>
        <time>2021-03-28T12:09:18Z</time>
      </trkpt>
      <trkpt lat="48.75102" lon="-3.28146">
        <ele>29.3</ele>
        <time>2021-03-28T12:09:20Z</time>
      </trkpt>
      <trkpt lat="48.75104" lon="-3.28145">
        <ele>29.2</ele>
        <time>2021-03-28T12:09:21Z</time>
      </trkpt>
      <trkpt lat="48.75105" lon="-3.28146">
        <ele>29.2</ele>
        <time>2021-03-28T12:09:22Z</time>
      </trkpt>
      <trkpt lat="48.75106" lon="-3.28147">
        <ele>29.1</ele>
        <time>2021-03-28T12:09:23Z</time>
      </trkpt>
      <trkpt lat="48.75107" lon="-3.28149">
        <ele>29.1</ele>
        <time>2021-03-28T12:09:25Z</time>
      </trkpt>
      <trkpt lat="48.75108" lon="-3.2815">
        <ele>29</ele>
        <time>2021-03-28T12:09:26Z</time>
      </trkpt>
      <trkpt lat="48.7511" lon="-3.28151">
        <ele>29</ele>
        <time>2021-03-28T12:09:27Z</time>
      </trkpt>
      <trkpt lat="48.75111" lon="-3.28152">
        <ele>29</ele>
        <time>2021-03-28T12:09:28Z</time>
      </trkpt>
      <trkpt lat="48.75112" lon="-3.28155">
        <ele>28.9</ele>
        <time>2021-03-28T12:09:30Z</time>
      </trkpt>
      <trkpt lat="48.75114" lon="-3.28157">
        <ele>28.8</ele>
        <time>2021-03-28T12:09:32Z</time>
      </trkpt>
      <trkpt lat="48.75115" lon="-3.28159">
        <ele>28.7</ele>
        <time>2021-03-28T12:09:34Z</time>
      </trkpt>
      <trkpt lat="48.75116" lon="-3.2816">
        <ele>28.7</ele>
        <time>2021-03-28T12:09:35Z</time>
      </trkpt>
      <trkpt lat="48.75118" lon="-3.28161">
        <ele>28.6</ele>
        <time>2021-03-28T12:09:36Z</time>
      </trkpt>
      <trkpt lat="48.75119" lon="-3.28162">
        <ele>28.6</ele>
        <time>2021-03-28T12:09:37Z</time>
      </trkpt>
      <trkpt lat="48.75121" lon="-3.28163">
        <ele>28.5</ele>
        <time>2021-03-28T12:09:39Z</time>
      </trkpt>
      <trkpt lat="48.75122" lon="-3.28164">
        <ele>28.5</ele>
        <time>2021-03-28T12:09:40Z</time>
      </trkpt>
      <trkpt lat="48.75123" lon="-3.28165">
        <ele>28.4</ele>
        <time>2021-03-28T12:09:41Z</time>
      </trkpt>
      <trkpt lat="48.75124" lon="-3.28165">
        <ele>28.4</ele>
        <time>2021-03-28T12:09:42Z</time>
      </trkpt>
      <trkpt lat="48.75125" lon="-3.28166">
        <ele>28.4</ele>
        <time>2021-03-28T12:09:43Z</time>
      </trkpt>
      <trkpt lat="48.75128" lon="-3.28168">
        <ele>28.3</ele>
        <time>2021-03-28T12:09:45Z</time>
      </trkpt>
      <trkpt lat="48.75129" lon="-3.28169">
        <ele>28.3</ele>
        <time>2021-03-28T12:09:46Z</time>
      </trkpt>
      <trkpt lat="48.75129" lon="-3.28169">
        <ele>28.2</ele>
        <time>2021-03-28T12:09:48Z</time>
      </trkpt>
      <trkpt lat="48.75131" lon="-3.28171">
        <ele>28.2</ele>
        <time>2021-03-28T12:09:49Z</time>
      </trkpt>
      <trkpt lat="48.75133" lon="-3.28172">
        <ele>28.1</ele>
        <time>2021-03-28T12:09:50Z</time>
      </trkpt>
      <trkpt lat="48.75133" lon="-3.28173">
        <ele>28.1</ele>
        <time>2021-03-28T12:09:52Z</time>
      </trkpt>
      <trkpt lat="48.75134" lon="-3.28173">
        <ele>28.1</ele>
        <time>2021-03-28T12:09:53Z</time>
      </trkpt>
      <trkpt lat="48.75135" lon="-3.28174">
        <ele>28</ele>
        <time>2021-03-28T12:09:54Z</time>
      </trkpt>
      <trkpt lat="48.75137" lon="-3.28175">
        <ele>28</ele>
        <time>2021-03-28T12:09:56Z</time>
      </trkpt>
      <trkpt lat="48.75137" lon="-3.28176">
        <ele>28</ele>
        <time>2021-03-28T12:09:57Z</time>
      </trkpt>
      <trkpt lat="48.75139" lon="-3.28177">
        <ele>27.9</ele>
        <time>2021-03-28T12:09:58Z</time>
      </trkpt>
      <trkpt lat="48.7514" lon="-3.28178">
        <ele>27.9</ele>
        <time>2021-03-28T12:09:59Z</time>
      </trkpt>
      <trkpt lat="48.75142" lon="-3.28179">
        <ele>27.8</ele>
        <time>2021-03-28T12:10:01Z</time>
      </trkpt>
      <trkpt lat="48.75143" lon="-3.28181">
        <ele>27.8</ele>
        <time>2021-03-28T12:10:03Z</time>
      </trkpt>
      <trkpt lat="48.75145" lon="-3.28183">
        <ele>27.7</ele>
        <time>2021-03-28T12:10:05Z</time>
      </trkpt>
      <trkpt lat="48.75146" lon="-3.28185">
        <ele>27.7</ele>
        <time>2021-03-28T12:10:06Z</time>
      </trkpt>
      <trkpt lat="48.75148" lon="-3.28185">
        <ele>27.6</ele>
        <time>2021-03-28T12:10:07Z</time>
      </trkpt>
      <trkpt lat="48.75148" lon="-3.28187">
        <ele>27.6</ele>
        <time>2021-03-28T12:10:09Z</time>
      </trkpt>
      <trkpt lat="48.75149" lon="-3.28189">
        <ele>27.5</ele>
        <time>2021-03-28T12:10:10Z</time>
      </trkpt>
      <trkpt lat="48.7515" lon="-3.28191">
        <ele>27.4</ele>
        <time>2021-03-28T12:10:11Z</time>
      </trkpt>
      <trkpt lat="48.75152" lon="-3.28195">
        <ele>27.3</ele>
        <time>2021-03-28T12:10:13Z</time>
      </trkpt>
      <trkpt lat="48.75152" lon="-3.28196">
        <ele>27.3</ele>
        <time>2021-03-28T12:10:14Z</time>
      </trkpt>
      <trkpt lat="48.75153" lon="-3.28198">
        <ele>27.2</ele>
        <time>2021-03-28T12:10:15Z</time>
      </trkpt>
      <trkpt lat="48.75154" lon="-3.282">
        <ele>27.2</ele>
        <time>2021-03-28T12:10:16Z</time>
      </trkpt>
      <trkpt lat="48.75155" lon="-3.28202">
        <ele>27.2</ele>
        <time>2021-03-28T12:10:18Z</time>
      </trkpt>
      <trkpt lat="48.75155" lon="-3.28203">
        <ele>27.1</ele>
        <time>2021-03-28T12:10:19Z</time>
      </trkpt>
      <trkpt lat="48.75156" lon="-3.28206">
        <ele>27.1</ele>
        <time>2021-03-28T12:10:20Z</time>
      </trkpt>
      <trkpt lat="48.75157" lon="-3.28208">
        <ele>27</ele>
        <time>2021-03-28T12:10:22Z</time>
      </trkpt>
      <trkpt lat="48.75158" lon="-3.28209">
        <ele>27</ele>
        <time>2021-03-28T12:10:23Z</time>
      </trkpt>
      <trkpt lat="48.75159" lon="-3.28211">
        <ele>26.9</ele>
        <time>2021-03-28T12:10:24Z</time>
      </trkpt>
      <trkpt lat="48.7516" lon="-3.28212">
        <ele>26.9</ele>
        <time>2021-03-28T12:10:25Z</time>
      </trkpt>
      <trkpt lat="48.75161" lon="-3.28214">
        <ele>26.8</ele>
        <time>2021-03-28T12:10:27Z</time>
      </trkpt>
      <trkpt lat="48.75162" lon="-3.28217">
        <ele>26.8</ele>
        <time>2021-03-28T12:10:28Z</time>
      </trkpt>
      <trkpt lat="48.75162" lon="-3.28218">
        <ele>26.7</ele>
        <time>2021-03-28T12:10:29Z</time>
      </trkpt>
      <trkpt lat="48.75163" lon="-3.2822">
        <ele>26.6</ele>
        <time>2021-03-28T12:10:30Z</time>
      </trkpt>
      <trkpt lat="48.75164" lon="-3.28221">
        <ele>26.6</ele>
        <time>2021-03-28T12:10:32Z</time>
      </trkpt>
      <trkpt lat="48.75168" lon="-3.28219">
        <ele>26.5</ele>
        <time>2021-03-28T12:10:33Z</time>
      </trkpt>
      <trkpt lat="48.75171" lon="-3.28217">
        <ele>26.5</ele>
        <time>2021-03-28T12:10:34Z</time>
      </trkpt>
      <trkpt lat="48.75172" lon="-3.28217">
        <ele>26.4</ele>
        <time>2021-03-28T12:10:35Z</time>
      </trkpt>
      <trkpt lat="48.75174" lon="-3.28215">
        <ele>26.4</ele>
        <time>2021-03-28T12:10:37Z</time>
      </trkpt>
      <trkpt lat="48.75175" lon="-3.28215">
        <ele>26.4</ele>
        <time>2021-03-28T12:10:38Z</time>
      </trkpt>
      <trkpt lat="48.75176" lon="-3.28214">
        <ele>26.4</ele>
        <time>2021-03-28T12:10:39Z</time>
      </trkpt>
      <trkpt lat="48.75178" lon="-3.28215">
        <ele>26.3</ele>
        <time>2021-03-28T12:10:41Z</time>
      </trkpt>
      <trkpt lat="48.75179" lon="-3.28215">
        <ele>26.3</ele>
        <time>2021-03-28T12:10:42Z</time>
      </trkpt>
      <trkpt lat="48.7518" lon="-3.28214">
        <ele>26.3</ele>
        <time>2021-03-28T12:10:43Z</time>
      </trkpt>
      <trkpt lat="48.75183" lon="-3.28212">
        <ele>26.2</ele>
        <time>2021-03-28T12:10:45Z</time>
      </trkpt>
      <trkpt lat="48.75186" lon="-3.28208">
        <ele>26.1</ele>
        <time>2021-03-28T12:10:47Z</time>
      </trkpt>
      <trkpt lat="48.75186" lon="-3.28207">
        <ele>26.1</ele>
        <time>2021-03-28T12:10:48Z</time>
      </trkpt>
      <trkpt lat="48.75188" lon="-3.28206">
        <ele>26</ele>
        <time>2021-03-28T12:10:50Z</time>
      </trkpt>
      <trkpt lat="48.7519" lon="-3.28204">
        <ele>25.9</ele>
        <time>2021-03-28T12:10:52Z</time>
      </trkpt>
      <trkpt lat="48.75191" lon="-3.28202">
        <ele>25.9</ele>
        <time>2021-03-28T12:10:53Z</time>
      </trkpt>
      <trkpt lat="48.75192" lon="-3.282">
        <ele>25.9</ele>
        <time>2021-03-28T12:10:55Z</time>
      </trkpt>
      <trkpt lat="48.75194" lon="-3.28199">
        <ele>25.8</ele>
        <time>2021-03-28T12:10:56Z</time>
      </trkpt>
      <trkpt lat="48.75195" lon="-3.28197">
        <ele>25.8</ele>
        <time>2021-03-28T12:10:57Z</time>
      </trkpt>
      <trkpt lat="48.75197" lon="-3.28195">
        <ele>25.7</ele>
        <time>2021-03-28T12:10:58Z</time>
      </trkpt>
      <trkpt lat="48.75198" lon="-3.28195">
        <ele>25.7</ele>
        <time>2021-03-28T12:11:00Z</time>
      </trkpt>
      <trkpt lat="48.75198" lon="-3.28194">
        <ele>25.7</ele>
        <time>2021-03-28T12:11:01Z</time>
      </trkpt>
      <trkpt lat="48.75201" lon="-3.28191">
        <ele>25.6</ele>
        <time>2021-03-28T12:11:03Z</time>
      </trkpt>
      <trkpt lat="48.75202" lon="-3.2819">
        <ele>25.6</ele>
        <time>2021-03-28T12:11:04Z</time>
      </trkpt>
      <trkpt lat="48.75204" lon="-3.28189">
        <ele>25.6</ele>
        <time>2021-03-28T12:11:06Z</time>
      </trkpt>
      <trkpt lat="48.75205" lon="-3.28188">
        <ele>25.5</ele>
        <time>2021-03-28T12:11:07Z</time>
      </trkpt>
      <trkpt lat="48.75206" lon="-3.28186">
        <ele>25.5</ele>
        <time>2021-03-28T12:11:08Z</time>
      </trkpt>
      <trkpt lat="48.75207" lon="-3.28185">
        <ele>25.5</ele>
        <time>2021-03-28T12:11:10Z</time>
      </trkpt>
      <trkpt lat="48.75209" lon="-3.28183">
        <ele>25.4</ele>
        <time>2021-03-28T12:11:11Z</time>
      </trkpt>
      <trkpt lat="48.7521" lon="-3.28181">
        <ele>25.4</ele>
        <time>2021-03-28T12:11:12Z</time>
      </trkpt>
      <trkpt lat="48.75212" lon="-3.2818">
        <ele>25.3</ele>
        <time>2021-03-28T12:11:13Z</time>
      </trkpt>
      <trkpt lat="48.75212" lon="-3.2818">
        <ele>25.3</ele>
        <time>2021-03-28T12:11:14Z</time>
      </trkpt>
      <trkpt lat="48.75214" lon="-3.28179">
        <ele>25.3</ele>
        <time>2021-03-28T12:11:16Z</time>
      </trkpt>
      <trkpt lat="48.75216" lon="-3.28178">
        <ele>25.3</ele>
        <time>2021-03-28T12:11:17Z</time>
      </trkpt>
      <trkpt lat="48.75217" lon="-3.28176">
        <ele>25.2</ele>
        <time>2021-03-28T12:11:19Z</time>
      </trkpt>
      <trkpt lat="48.75218" lon="-3.28176">
        <ele>25.2</ele>
        <time>2021-03-28T12:11:20Z</time>
      </trkpt>
      <trkpt lat="48.75219" lon="-3.28174">
        <ele>25.2</ele>
        <time>2021-03-28T12:11:21Z</time>
      </trkpt>
      <trkpt lat="48.75221" lon="-3.28172">
        <ele>25.1</ele>
        <time>2021-03-28T12:11:23Z</time>
      </trkpt>
      <trkpt lat="48.75222" lon="-3.28171">
        <ele>25.1</ele>
        <time>2021-03-28T12:11:24Z</time>
      </trkpt>
      <trkpt lat="48.75224" lon="-3.28169">
        <ele>25.1</ele>
        <time>2021-03-28T12:11:26Z</time>
      </trkpt>
      <trkpt lat="48.75225" lon="-3.28167">
        <ele>25.1</ele>
        <time>2021-03-28T12:11:27Z</time>
      </trkpt>
      <trkpt lat="48.75226" lon="-3.28165">
        <ele>25</ele>
        <time>2021-03-28T12:11:29Z</time>
      </trkpt>
      <trkpt lat="48.75227" lon="-3.28164">
        <ele>25</ele>
        <time>2021-03-28T12:11:30Z</time>
      </trkpt>
      <trkpt lat="48.7523" lon="-3.28161">
        <ele>25</ele>
        <time>2021-03-28T12:11:32Z</time>
      </trkpt>
      <trkpt lat="48.75231" lon="-3.2816">
        <ele>24.9</ele>
        <time>2021-03-28T12:11:33Z</time>
      </trkpt>
      <trkpt lat="48.75232" lon="-3.28159">
        <ele>24.9</ele>
        <time>2021-03-28T12:11:34Z</time>
      </trkpt>
      <trkpt lat="48.75233" lon="-3.28157">
        <ele>24.9</ele>
        <time>2021-03-28T12:11:36Z</time>
      </trkpt>
      <trkpt lat="48.75235" lon="-3.28156">
        <ele>24.9</ele>
        <time>2021-03-28T12:11:37Z</time>
      </trkpt>
      <trkpt lat="48.75236" lon="-3.28155">
        <ele>24.9</ele>
        <time>2021-03-28T12:11:38Z</time>
      </trkpt>
      <trkpt lat="48.75237" lon="-3.28154">
        <ele>24.8</ele>
        <time>2021-03-28T12:11:39Z</time>
      </trkpt>
      <trkpt lat="48.75238" lon="-3.28153">
        <ele>24.8</ele>
        <time>2021-03-28T12:11:41Z</time>
      </trkpt>
      <trkpt lat="48.75239" lon="-3.28152">
        <ele>24.8</ele>
        <time>2021-03-28T12:11:42Z</time>
      </trkpt>
      <trkpt lat="48.75241" lon="-3.2815">
        <ele>24.8</ele>
        <time>2021-03-28T12:11:43Z</time>
      </trkpt>
      <trkpt lat="48.75242" lon="-3.28148">
        <ele>24.8</ele>
        <time>2021-03-28T12:11:44Z</time>
      </trkpt>
      <trkpt lat="48.75244" lon="-3.28147">
        <ele>24.7</ele>
        <time>2021-03-28T12:11:46Z</time>
      </trkpt>
      <trkpt lat="48.75245" lon="-3.28146">
        <ele>24.7</ele>
        <time>2021-03-28T12:11:47Z</time>
      </trkpt>
      <trkpt lat="48.75247" lon="-3.28145">
        <ele>24.7</ele>
        <time>2021-03-28T12:11:48Z</time>
      </trkpt>
      <trkpt lat="48.75248" lon="-3.28143">
        <ele>24.7</ele>
        <time>2021-03-28T12:11:49Z</time>
      </trkpt>
      <trkpt lat="48.75249" lon="-3.28141">
        <ele>24.6</ele>
        <time>2021-03-28T12:11:50Z</time>
      </trkpt>
      <trkpt lat="48.7525" lon="-3.28139">
        <ele>24.6</ele>
        <time>2021-03-28T12:11:52Z</time>
      </trkpt>
      <trkpt lat="48.75252" lon="-3.28137">
        <ele>24.6</ele>
        <time>2021-03-28T12:11:54Z</time>
      </trkpt>
      <trkpt lat="48.75254" lon="-3.28135">
        <ele>24.5</ele>
        <time>2021-03-28T12:11:56Z</time>
      </trkpt>
      <trkpt lat="48.75255" lon="-3.28132">
        <ele>24.5</ele>
        <time>2021-03-28T12:11:57Z</time>
      </trkpt>
      <trkpt lat="48.75256" lon="-3.28131">
        <ele>24.5</ele>
        <time>2021-03-28T12:11:59Z</time>
      </trkpt>
      <trkpt lat="48.75257" lon="-3.2813">
        <ele>24.5</ele>
        <time>2021-03-28T12:12:00Z</time>
      </trkpt>
      <trkpt lat="48.75258" lon="-3.28129">
        <ele>24.5</ele>
        <time>2021-03-28T12:12:01Z</time>
      </trkpt>
      <trkpt lat="48.75258" lon="-3.28127">
        <ele>24.5</ele>
        <time>2021-03-28T12:12:02Z</time>
      </trkpt>
      <trkpt lat="48.7526" lon="-3.28125">
        <ele>24.4</ele>
        <time>2021-03-28T12:12:04Z</time>
      </trkpt>
      <trkpt lat="48.75261" lon="-3.28124">
        <ele>24.4</ele>
        <time>2021-03-28T12:12:05Z</time>
      </trkpt>
      <trkpt lat="48.75262" lon="-3.28123">
        <ele>24.4</ele>
        <time>2021-03-28T12:12:06Z</time>
      </trkpt>
      <trkpt lat="48.75264" lon="-3.28121">
        <ele>24.4</ele>
        <time>2021-03-28T12:12:08Z</time>
      </trkpt>
      <trkpt lat="48.75265" lon="-3.28119">
        <ele>24.3</ele>
        <time>2021-03-28T12:12:10Z</time>
      </trkpt>
      <trkpt lat="48.75267" lon="-3.28117">
        <ele>24.3</ele>
        <time>2021-03-28T12:12:11Z</time>
      </trkpt>
      <trkpt lat="48.75268" lon="-3.28115">
        <ele>24.3</ele>
        <time>2021-03-28T12:12:13Z</time>
      </trkpt>
      <trkpt lat="48.7527" lon="-3.28113">
        <ele>24.3</ele>
        <time>2021-03-28T12:12:14Z</time>
      </trkpt>
      <trkpt lat="48.75271" lon="-3.28111">
        <ele>24.2</ele>
        <time>2021-03-28T12:12:15Z</time>
      </trkpt>
      <trkpt lat="48.75272" lon="-3.28109">
        <ele>24.2</ele>
        <time>2021-03-28T12:12:16Z</time>
      </trkpt>
      <trkpt lat="48.75274" lon="-3.28108">
        <ele>24.2</ele>
        <time>2021-03-28T12:12:18Z</time>
      </trkpt>
      <trkpt lat="48.75276" lon="-3.28105">
        <ele>24.1</ele>
        <time>2021-03-28T12:12:20Z</time>
      </trkpt>
      <trkpt lat="48.75277" lon="-3.28103">
        <ele>24.1</ele>
        <time>2021-03-28T12:12:21Z</time>
      </trkpt>
      <trkpt lat="48.75278" lon="-3.28102">
        <ele>24</ele>
        <time>2021-03-28T12:12:22Z</time>
      </trkpt>
      <trkpt lat="48.75279" lon="-3.28101">
        <ele>24</ele>
        <time>2021-03-28T12:12:23Z</time>
      </trkpt>
      <trkpt lat="48.7528" lon="-3.281">
        <ele>24</ele>
        <time>2021-03-28T12:12:25Z</time>
      </trkpt>
      <trkpt lat="48.75282" lon="-3.28098">
        <ele>23.9</ele>
        <time>2021-03-28T12:12:26Z</time>
      </trkpt>
      <trkpt lat="48.75283" lon="-3.28097">
        <ele>23.9</ele>
        <time>2021-03-28T12:12:27Z</time>
      </trkpt>
      <trkpt lat="48.75285" lon="-3.28094">
        <ele>23.8</ele>
        <time>2021-03-28T12:12:29Z</time>
      </trkpt>
      <trkpt lat="48.75286" lon="-3.28093">
        <ele>23.8</ele>
        <time>2021-03-28T12:12:30Z</time>
      </trkpt>
      <trkpt lat="48.75288" lon="-3.28091">
        <ele>23.7</ele>
        <time>2021-03-28T12:12:32Z</time>
      </trkpt>
      <trkpt lat="48.75289" lon="-3.28089">
        <ele>23.6</ele>
        <time>2021-03-28T12:12:34Z</time>
      </trkpt>
      <trkpt lat="48.7529" lon="-3.28088">
        <ele>23.6</ele>
        <time>2021-03-28T12:12:35Z</time>
      </trkpt>
      <trkpt lat="48.75291" lon="-3.28086">
        <ele>23.5</ele>
        <time>2021-03-28T12:12:36Z</time>
      </trkpt>
      <trkpt lat="48.75292" lon="-3.28085">
        <ele>23.5</ele>
        <time>2021-03-28T12:12:37Z</time>
      </trkpt>
      <trkpt lat="48.75293" lon="-3.28083">
        <ele>23.4</ele>
        <time>2021-03-28T12:12:38Z</time>
      </trkpt>
      <trkpt lat="48.75296" lon="-3.28081">
        <ele>23.3</ele>
        <time>2021-03-28T12:12:40Z</time>
      </trkpt>
      <trkpt lat="48.75297" lon="-3.2808">
        <ele>23.3</ele>
        <time>2021-03-28T12:12:41Z</time>
      </trkpt>
      <trkpt lat="48.75299" lon="-3.28077">
        <ele>23.2</ele>
        <time>2021-03-28T12:12:43Z</time>
      </trkpt>
      <trkpt lat="48.753" lon="-3.28075">
        <ele>23.1</ele>
        <time>2021-03-28T12:12:44Z</time>
      </trkpt>
      <trkpt lat="48.75301" lon="-3.28074">
        <ele>23</ele>
        <time>2021-03-28T12:12:45Z</time>
      </trkpt>
      <trkpt lat="48.75302" lon="-3.28072">
        <ele>22.9</ele>
        <time>2021-03-28T12:12:46Z</time>
      </trkpt>
      <trkpt lat="48.75304" lon="-3.28069">
        <ele>22.8</ele>
        <time>2021-03-28T12:12:48Z</time>
      </trkpt>
      <trkpt lat="48.75306" lon="-3.28066">
        <ele>22.7</ele>
        <time>2021-03-28T12:12:49Z</time>
      </trkpt>
      <trkpt lat="48.75307" lon="-3.28065">
        <ele>22.6</ele>
        <time>2021-03-28T12:12:51Z</time>
      </trkpt>
      <trkpt lat="48.75308" lon="-3.28064">
        <ele>22.5</ele>
        <time>2021-03-28T12:12:52Z</time>
      </trkpt>
      <trkpt lat="48.75309" lon="-3.28063">
        <ele>22.5</ele>
        <time>2021-03-28T12:12:53Z</time>
      </trkpt>
      <trkpt lat="48.75312" lon="-3.28059">
        <ele>22.3</ele>
        <time>2021-03-28T12:12:54Z</time>
      </trkpt>
      <trkpt lat="48.75312" lon="-3.28058">
        <ele>22.2</ele>
        <time>2021-03-28T12:12:55Z</time>
      </trkpt>
      <trkpt lat="48.75314" lon="-3.28058">
        <ele>22.2</ele>
        <time>2021-03-28T12:12:57Z</time>
      </trkpt>
      <trkpt lat="48.75315" lon="-3.28055">
        <ele>22</ele>
        <time>2021-03-28T12:12:59Z</time>
      </trkpt>
      <trkpt lat="48.75317" lon="-3.28052">
        <ele>21.9</ele>
        <time>2021-03-28T12:13:00Z</time>
      </trkpt>
      <trkpt lat="48.75318" lon="-3.2805">
        <ele>21.8</ele>
        <time>2021-03-28T12:13:02Z</time>
      </trkpt>
      <trkpt lat="48.7532" lon="-3.28048">
        <ele>21.7</ele>
        <time>2021-03-28T12:13:04Z</time>
      </trkpt>
      <trkpt lat="48.75321" lon="-3.28047">
        <ele>21.6</ele>
        <time>2021-03-28T12:13:05Z</time>
      </trkpt>
      <trkpt lat="48.75323" lon="-3.28045">
        <ele>21.5</ele>
        <time>2021-03-28T12:13:07Z</time>
      </trkpt>
      <trkpt lat="48.75324" lon="-3.28044">
        <ele>21.4</ele>
        <time>2021-03-28T12:13:08Z</time>
      </trkpt>
      <trkpt lat="48.75326" lon="-3.28041">
        <ele>21.3</ele>
        <time>2021-03-28T12:13:10Z</time>
      </trkpt>
      <trkpt lat="48.75328" lon="-3.28038">
        <ele>21.1</ele>
        <time>2021-03-28T12:13:12Z</time>
      </trkpt>
      <trkpt lat="48.75329" lon="-3.28036">
        <ele>21</ele>
        <time>2021-03-28T12:13:13Z</time>
      </trkpt>
      <trkpt lat="48.75331" lon="-3.28033">
        <ele>20.9</ele>
        <time>2021-03-28T12:13:15Z</time>
      </trkpt>
      <trkpt lat="48.75332" lon="-3.28032">
        <ele>20.8</ele>
        <time>2021-03-28T12:13:16Z</time>
      </trkpt>
      <trkpt lat="48.75334" lon="-3.28031">
        <ele>20.7</ele>
        <time>2021-03-28T12:13:18Z</time>
      </trkpt>
      <trkpt lat="48.75335" lon="-3.2803">
        <ele>20.6</ele>
        <time>2021-03-28T12:13:19Z</time>
      </trkpt>
      <trkpt lat="48.75337" lon="-3.28028">
        <ele>20.5</ele>
        <time>2021-03-28T12:13:20Z</time>
      </trkpt>
      <trkpt lat="48.75338" lon="-3.28028">
        <ele>20.4</ele>
        <time>2021-03-28T12:13:21Z</time>
      </trkpt>
      <trkpt lat="48.75339" lon="-3.28027">
        <ele>20.3</ele>
        <time>2021-03-28T12:13:23Z</time>
      </trkpt>
      <trkpt lat="48.7534" lon="-3.28025">
        <ele>20.2</ele>
        <time>2021-03-28T12:13:24Z</time>
      </trkpt>
      <trkpt lat="48.75342" lon="-3.28023">
        <ele>20.1</ele>
        <time>2021-03-28T12:13:25Z</time>
      </trkpt>
      <trkpt lat="48.75344" lon="-3.28021">
        <ele>19.9</ele>
        <time>2021-03-28T12:13:27Z</time>
      </trkpt>
      <trkpt lat="48.75345" lon="-3.2802">
        <ele>19.8</ele>
        <time>2021-03-28T12:13:29Z</time>
      </trkpt>
      <trkpt lat="48.75346" lon="-3.28018">
        <ele>19.7</ele>
        <time>2021-03-28T12:13:31Z</time>
      </trkpt>
      <trkpt lat="48.75347" lon="-3.28017">
        <ele>19.7</ele>
        <time>2021-03-28T12:13:32Z</time>
      </trkpt>
      <trkpt lat="48.75348" lon="-3.28016">
        <ele>19.6</ele>
        <time>2021-03-28T12:13:34Z</time>
      </trkpt>
      <trkpt lat="48.75348" lon="-3.28015">
        <ele>19.5</ele>
        <time>2021-03-28T12:13:35Z</time>
      </trkpt>
      <trkpt lat="48.75349" lon="-3.2801">
        <ele>19.3</ele>
        <time>2021-03-28T12:13:36Z</time>
      </trkpt>
      <trkpt lat="48.75349" lon="-3.28009">
        <ele>19.3</ele>
        <time>2021-03-28T12:13:37Z</time>
      </trkpt>
      <trkpt lat="48.75349" lon="-3.28005">
        <ele>18.4</ele>
        <time>2021-03-28T12:13:39Z</time>
      </trkpt>
      <trkpt lat="48.75349" lon="-3.28003">
        <ele>18.3</ele>
        <time>2021-03-28T12:13:40Z</time>
      </trkpt>
      <trkpt lat="48.75349" lon="-3.28001">
        <ele>18.3</ele>
        <time>2021-03-28T12:13:41Z</time>
      </trkpt>
      <trkpt lat="48.75349" lon="-3.28">
        <ele>18.2</ele>
        <time>2021-03-28T12:13:42Z</time>
      </trkpt>
      <trkpt lat="48.75349" lon="-3.27998">
        <ele>18.2</ele>
        <time>2021-03-28T12:13:44Z</time>
      </trkpt>
      <trkpt lat="48.75349" lon="-3.27996">
        <ele>18.1</ele>
        <time>2021-03-28T12:13:45Z</time>
      </trkpt>
      <trkpt lat="48.7535" lon="-3.27994">
        <ele>18</ele>
        <time>2021-03-28T12:13:46Z</time>
      </trkpt>
      <trkpt lat="48.7535" lon="-3.27993">
        <ele>17.9</ele>
        <time>2021-03-28T12:13:47Z</time>
      </trkpt>
      <trkpt lat="48.7535" lon="-3.2799">
        <ele>17.8</ele>
        <time>2021-03-28T12:13:49Z</time>
      </trkpt>
      <trkpt lat="48.75351" lon="-3.27989">
        <ele>17.8</ele>
        <time>2021-03-28T12:13:50Z</time>
      </trkpt>
      <trkpt lat="48.75352" lon="-3.27987">
        <ele>17.7</ele>
        <time>2021-03-28T12:13:51Z</time>
      </trkpt>
      <trkpt lat="48.75352" lon="-3.27985">
        <ele>17.6</ele>
        <time>2021-03-28T12:13:52Z</time>
      </trkpt>
      <trkpt lat="48.75352" lon="-3.27983">
        <ele>17.5</ele>
        <time>2021-03-28T12:13:53Z</time>
      </trkpt>
      <trkpt lat="48.75352" lon="-3.27981">
        <ele>17.4</ele>
        <time>2021-03-28T12:13:55Z</time>
      </trkpt>
      <trkpt lat="48.75352" lon="-3.27978">
        <ele>17.3</ele>
        <time>2021-03-28T12:13:56Z</time>
      </trkpt>
      <trkpt lat="48.75351" lon="-3.27977">
        <ele>17.3</ele>
        <time>2021-03-28T12:13:57Z</time>
      </trkpt>
      <trkpt lat="48.7535" lon="-3.27975">
        <ele>17.2</ele>
        <time>2021-03-28T12:13:58Z</time>
      </trkpt>
      <trkpt lat="48.75349" lon="-3.27973">
        <ele>17.1</ele>
        <time>2021-03-28T12:14:00Z</time>
      </trkpt>
      <trkpt lat="48.75347" lon="-3.27971">
        <ele>17</ele>
        <time>2021-03-28T12:14:01Z</time>
      </trkpt>
      <trkpt lat="48.75347" lon="-3.2797">
        <ele>16.9</ele>
        <time>2021-03-28T12:14:03Z</time>
      </trkpt>
      <trkpt lat="48.75346" lon="-3.27968">
        <ele>16.8</ele>
        <time>2021-03-28T12:14:04Z</time>
      </trkpt>
      <trkpt lat="48.75344" lon="-3.27966">
        <ele>16.7</ele>
        <time>2021-03-28T12:14:05Z</time>
      </trkpt>
      <trkpt lat="48.75343" lon="-3.27962">
        <ele>16.6</ele>
        <time>2021-03-28T12:14:06Z</time>
      </trkpt>
      <trkpt lat="48.75342" lon="-3.27961">
        <ele>16.5</ele>
        <time>2021-03-28T12:14:07Z</time>
      </trkpt>
      <trkpt lat="48.75342" lon="-3.27957">
        <ele>16.4</ele>
        <time>2021-03-28T12:14:09Z</time>
      </trkpt>
      <trkpt lat="48.75342" lon="-3.27955">
        <ele>16.3</ele>
        <time>2021-03-28T12:14:10Z</time>
      </trkpt>
      <trkpt lat="48.75342" lon="-3.27952">
        <ele>16.3</ele>
        <time>2021-03-28T12:14:11Z</time>
      </trkpt>
      <trkpt lat="48.75341" lon="-3.2795">
        <ele>16.2</ele>
        <time>2021-03-28T12:14:12Z</time>
      </trkpt>
      <trkpt lat="48.75341" lon="-3.27948">
        <ele>16.2</ele>
        <time>2021-03-28T12:14:14Z</time>
      </trkpt>
      <trkpt lat="48.75341" lon="-3.27945">
        <ele>16.1</ele>
        <time>2021-03-28T12:14:15Z</time>
      </trkpt>
      <trkpt lat="48.7534" lon="-3.27942">
        <ele>16</ele>
        <time>2021-03-28T12:14:16Z</time>
      </trkpt>
      <trkpt lat="48.75339" lon="-3.2794">
        <ele>16</ele>
        <time>2021-03-28T12:14:17Z</time>
      </trkpt>
      <trkpt lat="48.75337" lon="-3.27937">
        <ele>15.9</ele>
        <time>2021-03-28T12:14:19Z</time>
      </trkpt>
      <trkpt lat="48.75337" lon="-3.27936">
        <ele>15.9</ele>
        <time>2021-03-28T12:14:20Z</time>
      </trkpt>
      <trkpt lat="48.75336" lon="-3.27934">
        <ele>15.9</ele>
        <time>2021-03-28T12:14:22Z</time>
      </trkpt>
      <trkpt lat="48.75335" lon="-3.27933">
        <ele>15.9</ele>
        <time>2021-03-28T12:14:23Z</time>
      </trkpt>
      <trkpt lat="48.75334" lon="-3.27931">
        <ele>15.8</ele>
        <time>2021-03-28T12:14:24Z</time>
      </trkpt>
      <trkpt lat="48.75333" lon="-3.27929">
        <ele>15.8</ele>
        <time>2021-03-28T12:14:25Z</time>
      </trkpt>
      <trkpt lat="48.75332" lon="-3.27927">
        <ele>15.8</ele>
        <time>2021-03-28T12:14:26Z</time>
      </trkpt>
      <trkpt lat="48.7533" lon="-3.27926">
        <ele>15.8</ele>
        <time>2021-03-28T12:14:28Z</time>
      </trkpt>
      <trkpt lat="48.75328" lon="-3.27923">
        <ele>15.8</ele>
        <time>2021-03-28T12:14:29Z</time>
      </trkpt>
      <trkpt lat="48.75327" lon="-3.27922">
        <ele>15.8</ele>
        <time>2021-03-28T12:14:30Z</time>
      </trkpt>
      <trkpt lat="48.75325" lon="-3.2792">
        <ele>15.8</ele>
        <time>2021-03-28T12:14:31Z</time>
      </trkpt>
      <trkpt lat="48.75325" lon="-3.27919">
        <ele>15.8</ele>
        <time>2021-03-28T12:14:33Z</time>
      </trkpt>
      <trkpt lat="48.75324" lon="-3.27918">
        <ele>15.8</ele>
        <time>2021-03-28T12:14:34Z</time>
      </trkpt>
      <trkpt lat="48.75323" lon="-3.27916">
        <ele>15.8</ele>
        <time>2021-03-28T12:14:35Z</time>
      </trkpt>
      <trkpt lat="48.75322" lon="-3.27915">
        <ele>15.8</ele>
        <time>2021-03-28T12:14:37Z</time>
      </trkpt>
      <trkpt lat="48.75321" lon="-3.27913">
        <ele>15.8</ele>
        <time>2021-03-28T12:14:38Z</time>
      </trkpt>
      <trkpt lat="48.7532" lon="-3.27911">
        <ele>15.9</ele>
        <time>2021-03-28T12:14:39Z</time>
      </trkpt>
      <trkpt lat="48.7532" lon="-3.2791">
        <ele>15.9</ele>
        <time>2021-03-28T12:14:40Z</time>
      </trkpt>
      <trkpt lat="48.75319" lon="-3.27908">
        <ele>15.9</ele>
        <time>2021-03-28T12:14:42Z</time>
      </trkpt>
      <trkpt lat="48.75317" lon="-3.27907">
        <ele>15.9</ele>
        <time>2021-03-28T12:14:44Z</time>
      </trkpt>
      <trkpt lat="48.75316" lon="-3.27905">
        <ele>16</ele>
        <time>2021-03-28T12:14:46Z</time>
      </trkpt>
      <trkpt lat="48.75315" lon="-3.27903">
        <ele>16</ele>
        <time>2021-03-28T12:14:47Z</time>
      </trkpt>
      <trkpt lat="48.75314" lon="-3.27901">
        <ele>16</ele>
        <time>2021-03-28T12:14:48Z</time>
      </trkpt>
      <trkpt lat="48.75313" lon="-3.27899">
        <ele>16.1</ele>
        <time>2021-03-28T12:14:49Z</time>
      </trkpt>
      <trkpt lat="48.75313" lon="-3.27897">
        <ele>16.1</ele>
        <time>2021-03-28T12:14:51Z</time>
      </trkpt>
      <trkpt lat="48.75313" lon="-3.27896">
        <ele>16.1</ele>
        <time>2021-03-28T12:14:52Z</time>
      </trkpt>
      <trkpt lat="48.75312" lon="-3.27894">
        <ele>16.1</ele>
        <time>2021-03-28T12:14:53Z</time>
      </trkpt>
      <trkpt lat="48.75311" lon="-3.2789">
        <ele>16.2</ele>
        <time>2021-03-28T12:14:55Z</time>
      </trkpt>
      <trkpt lat="48.7531" lon="-3.27889">
        <ele>16.2</ele>
        <time>2021-03-28T12:14:56Z</time>
      </trkpt>
      <trkpt lat="48.75309" lon="-3.27887">
        <ele>16.3</ele>
        <time>2021-03-28T12:14:57Z</time>
      </trkpt>
      <trkpt lat="48.75308" lon="-3.27885">
        <ele>16.3</ele>
        <time>2021-03-28T12:14:58Z</time>
      </trkpt>
      <trkpt lat="48.75305" lon="-3.27882">
        <ele>16.5</ele>
        <time>2021-03-28T12:15:00Z</time>
      </trkpt>
      <trkpt lat="48.75303" lon="-3.27878">
        <ele>16.6</ele>
        <time>2021-03-28T12:15:01Z</time>
      </trkpt>
      <trkpt lat="48.75302" lon="-3.27877">
        <ele>16.6</ele>
        <time>2021-03-28T12:15:02Z</time>
      </trkpt>
      <trkpt lat="48.75302" lon="-3.27875">
        <ele>16.7</ele>
        <time>2021-03-28T12:15:04Z</time>
      </trkpt>
      <trkpt lat="48.75301" lon="-3.27873">
        <ele>16.7</ele>
        <time>2021-03-28T12:15:05Z</time>
      </trkpt>
      <trkpt lat="48.75299" lon="-3.27869">
        <ele>16.9</ele>
        <time>2021-03-28T12:15:06Z</time>
      </trkpt>
      <trkpt lat="48.75298" lon="-3.27867">
        <ele>16.9</ele>
        <time>2021-03-28T12:15:08Z</time>
      </trkpt>
      <trkpt lat="48.75298" lon="-3.27866">
        <ele>17</ele>
        <time>2021-03-28T12:15:09Z</time>
      </trkpt>
      <trkpt lat="48.75297" lon="-3.27864">
        <ele>17</ele>
        <time>2021-03-28T12:15:10Z</time>
      </trkpt>
      <trkpt lat="48.75297" lon="-3.27863">
        <ele>17.1</ele>
        <time>2021-03-28T12:15:13Z</time>
      </trkpt>
      <trkpt lat="48.75296" lon="-3.27861">
        <ele>17.1</ele>
        <time>2021-03-28T12:15:14Z</time>
      </trkpt>
      <trkpt lat="48.75295" lon="-3.27859">
        <ele>17.2</ele>
        <time>2021-03-28T12:15:16Z</time>
      </trkpt>
      <trkpt lat="48.75295" lon="-3.27858">
        <ele>17.2</ele>
        <time>2021-03-28T12:15:17Z</time>
      </trkpt>
      <trkpt lat="48.75294" lon="-3.27856">
        <ele>17.3</ele>
        <time>2021-03-28T12:15:18Z</time>
      </trkpt>
      <trkpt lat="48.75294" lon="-3.27855">
        <ele>17.3</ele>
        <time>2021-03-28T12:15:20Z</time>
      </trkpt>
      <trkpt lat="48.75293" lon="-3.27854">
        <ele>17.3</ele>
        <time>2021-03-28T12:15:21Z</time>
      </trkpt>
      <trkpt lat="48.75293" lon="-3.27852">
        <ele>17.3</ele>
        <time>2021-03-28T12:15:22Z</time>
      </trkpt>
      <trkpt lat="48.75293" lon="-3.27852">
        <ele>17.4</ele>
        <time>2021-03-28T12:15:23Z</time>
      </trkpt>
      <trkpt lat="48.75293" lon="-3.2785">
        <ele>17.4</ele>
        <time>2021-03-28T12:15:25Z</time>
      </trkpt>
      <trkpt lat="48.75293" lon="-3.27847">
        <ele>17.4</ele>
        <time>2021-03-28T12:15:27Z</time>
      </trkpt>
      <trkpt lat="48.75292" lon="-3.27846">
        <ele>17.4</ele>
        <time>2021-03-28T12:15:29Z</time>
      </trkpt>
      <trkpt lat="48.75292" lon="-3.27845">
        <ele>17.5</ele>
        <time>2021-03-28T12:15:30Z</time>
      </trkpt>
      <trkpt lat="48.75291" lon="-3.27843">
        <ele>17.5</ele>
        <time>2021-03-28T12:15:31Z</time>
      </trkpt>
      <trkpt lat="48.75291" lon="-3.27841">
        <ele>17.5</ele>
        <time>2021-03-28T12:15:32Z</time>
      </trkpt>
      <trkpt lat="48.7529" lon="-3.2784">
        <ele>17.5</ele>
        <time>2021-03-28T12:15:34Z</time>
      </trkpt>
      <trkpt lat="48.7529" lon="-3.27839">
        <ele>17.5</ele>
        <time>2021-03-28T12:15:35Z</time>
      </trkpt>
      <trkpt lat="48.75288" lon="-3.27836">
        <ele>17.5</ele>
        <time>2021-03-28T12:15:36Z</time>
      </trkpt>
      <trkpt lat="48.75287" lon="-3.27835">
        <ele>17.5</ele>
        <time>2021-03-28T12:15:38Z</time>
      </trkpt>
      <trkpt lat="48.75284" lon="-3.27832">
        <ele>17.4</ele>
        <time>2021-03-28T12:15:39Z</time>
      </trkpt>
      <trkpt lat="48.75282" lon="-3.2783">
        <ele>17.4</ele>
        <time>2021-03-28T12:15:41Z</time>
      </trkpt>
      <trkpt lat="48.7528" lon="-3.27827">
        <ele>17.3</ele>
        <time>2021-03-28T12:15:43Z</time>
      </trkpt>
      <trkpt lat="48.75279" lon="-3.27825">
        <ele>17.3</ele>
        <time>2021-03-28T12:15:44Z</time>
      </trkpt>
      <trkpt lat="48.75278" lon="-3.27823">
        <ele>17.2</ele>
        <time>2021-03-28T12:15:45Z</time>
      </trkpt>
      <trkpt lat="48.75278" lon="-3.27822">
        <ele>17.2</ele>
        <time>2021-03-28T12:15:46Z</time>
      </trkpt>
      <trkpt lat="48.75277" lon="-3.2782">
        <ele>17.1</ele>
        <time>2021-03-28T12:15:48Z</time>
      </trkpt>
      <trkpt lat="48.75276" lon="-3.27819">
        <ele>17.1</ele>
        <time>2021-03-28T12:15:49Z</time>
      </trkpt>
      <trkpt lat="48.75275" lon="-3.27816">
        <ele>17</ele>
        <time>2021-03-28T12:15:50Z</time>
      </trkpt>
      <trkpt lat="48.75275" lon="-3.27814">
        <ele>16.9</ele>
        <time>2021-03-28T12:15:51Z</time>
      </trkpt>
      <trkpt lat="48.75273" lon="-3.27804">
        <ele>16.7</ele>
        <time>2021-03-28T12:15:54Z</time>
      </trkpt>
      <trkpt lat="48.75272" lon="-3.27802">
        <ele>16.6</ele>
        <time>2021-03-28T12:15:56Z</time>
      </trkpt>
      <trkpt lat="48.75271" lon="-3.27799">
        <ele>16.5</ele>
        <time>2021-03-28T12:15:58Z</time>
      </trkpt>
      <trkpt lat="48.7527" lon="-3.27797">
        <ele>16.4</ele>
        <time>2021-03-28T12:15:59Z</time>
      </trkpt>
      <trkpt lat="48.75269" lon="-3.27796">
        <ele>16.3</ele>
        <time>2021-03-28T12:16:00Z</time>
      </trkpt>
      <trkpt lat="48.75268" lon="-3.27792">
        <ele>16.2</ele>
        <time>2021-03-28T12:16:01Z</time>
      </trkpt>
      <trkpt lat="48.75268" lon="-3.27789">
        <ele>16.1</ele>
        <time>2021-03-28T12:16:03Z</time>
      </trkpt>
      <trkpt lat="48.75268" lon="-3.27788">
        <ele>16</ele>
        <time>2021-03-28T12:16:04Z</time>
      </trkpt>
      <trkpt lat="48.75269" lon="-3.27787">
        <ele>16</ele>
        <time>2021-03-28T12:16:05Z</time>
      </trkpt>
      <trkpt lat="48.75269" lon="-3.27785">
        <ele>15.9</ele>
        <time>2021-03-28T12:16:06Z</time>
      </trkpt>
      <trkpt lat="48.75269" lon="-3.27781">
        <ele>15.8</ele>
        <time>2021-03-28T12:16:08Z</time>
      </trkpt>
      <trkpt lat="48.75269" lon="-3.27779">
        <ele>15.7</ele>
        <time>2021-03-28T12:16:09Z</time>
      </trkpt>
      <trkpt lat="48.75268" lon="-3.27776">
        <ele>15.6</ele>
        <time>2021-03-28T12:16:10Z</time>
      </trkpt>
      <trkpt lat="48.75268" lon="-3.27775">
        <ele>15.5</ele>
        <time>2021-03-28T12:16:11Z</time>
      </trkpt>
      <trkpt lat="48.75266" lon="-3.27773">
        <ele>15.4</ele>
        <time>2021-03-28T12:16:12Z</time>
      </trkpt>
      <trkpt lat="48.75263" lon="-3.27773">
        <ele>15.3</ele>
        <time>2021-03-28T12:16:14Z</time>
      </trkpt>
      <trkpt lat="48.7526" lon="-3.27774">
        <ele>15.1</ele>
        <time>2021-03-28T12:16:15Z</time>
      </trkpt>
      <trkpt lat="48.75256" lon="-3.27775">
        <ele>14.8</ele>
        <time>2021-03-28T12:16:16Z</time>
      </trkpt>
      <trkpt lat="48.75255" lon="-3.27775">
        <ele>14.8</ele>
        <time>2021-03-28T12:16:17Z</time>
      </trkpt>
      <trkpt lat="48.75252" lon="-3.27776">
        <ele>14.8</ele>
        <time>2021-03-28T12:16:19Z</time>
      </trkpt>
      <trkpt lat="48.7525" lon="-3.27777">
        <ele>14.9</ele>
        <time>2021-03-28T12:16:20Z</time>
      </trkpt>
      <trkpt lat="48.75248" lon="-3.27777">
        <ele>14.9</ele>
        <time>2021-03-28T12:16:22Z</time>
      </trkpt>
      <trkpt lat="48.75245" lon="-3.27776">
        <ele>14.9</ele>
        <time>2021-03-28T12:16:23Z</time>
      </trkpt>
      <trkpt lat="48.75244" lon="-3.27776">
        <ele>14.9</ele>
        <time>2021-03-28T12:16:24Z</time>
      </trkpt>
      <trkpt lat="48.75242" lon="-3.27776">
        <ele>14.9</ele>
        <time>2021-03-28T12:16:25Z</time>
      </trkpt>
      <trkpt lat="48.75241" lon="-3.27776">
        <ele>14.9</ele>
        <time>2021-03-28T12:16:27Z</time>
      </trkpt>
      <trkpt lat="48.75239" lon="-3.27776">
        <ele>14.9</ele>
        <time>2021-03-28T12:16:28Z</time>
      </trkpt>
      <trkpt lat="48.75237" lon="-3.27777">
        <ele>14.9</ele>
        <time>2021-03-28T12:16:29Z</time>
      </trkpt>
      <trkpt lat="48.75236" lon="-3.27778">
        <ele>14.9</ele>
        <time>2021-03-28T12:16:31Z</time>
      </trkpt>
      <trkpt lat="48.75234" lon="-3.27779">
        <ele>14.9</ele>
        <time>2021-03-28T12:16:32Z</time>
      </trkpt>
      <trkpt lat="48.75232" lon="-3.2778">
        <ele>14.9</ele>
        <time>2021-03-28T12:16:33Z</time>
      </trkpt>
      <trkpt lat="48.75231" lon="-3.27781">
        <ele>14.9</ele>
        <time>2021-03-28T12:16:34Z</time>
      </trkpt>
      <trkpt lat="48.7523" lon="-3.27782">
        <ele>14.9</ele>
        <time>2021-03-28T12:16:36Z</time>
      </trkpt>
      <trkpt lat="48.75228" lon="-3.27783">
        <ele>15</ele>
        <time>2021-03-28T12:16:37Z</time>
      </trkpt>
      <trkpt lat="48.75227" lon="-3.27783">
        <ele>15</ele>
        <time>2021-03-28T12:16:38Z</time>
      </trkpt>
      <trkpt lat="48.75226" lon="-3.27784">
        <ele>15</ele>
        <time>2021-03-28T12:16:39Z</time>
      </trkpt>
      <trkpt lat="48.75223" lon="-3.27787">
        <ele>15.1</ele>
        <time>2021-03-28T12:16:41Z</time>
      </trkpt>
      <trkpt lat="48.75222" lon="-3.27788">
        <ele>15.1</ele>
        <time>2021-03-28T12:16:42Z</time>
      </trkpt>
      <trkpt lat="48.7522" lon="-3.27789">
        <ele>15.2</ele>
        <time>2021-03-28T12:16:44Z</time>
      </trkpt>
      <trkpt lat="48.75219" lon="-3.27789">
        <ele>15.2</ele>
        <time>2021-03-28T12:16:45Z</time>
      </trkpt>
      <trkpt lat="48.75217" lon="-3.2779">
        <ele>15.2</ele>
        <time>2021-03-28T12:16:46Z</time>
      </trkpt>
      <trkpt lat="48.75215" lon="-3.2779">
        <ele>15.3</ele>
        <time>2021-03-28T12:16:48Z</time>
      </trkpt>
      <trkpt lat="48.75213" lon="-3.2779">
        <ele>15.4</ele>
        <time>2021-03-28T12:16:49Z</time>
      </trkpt>
      <trkpt lat="48.75211" lon="-3.2779">
        <ele>15.5</ele>
        <time>2021-03-28T12:16:51Z</time>
      </trkpt>
      <trkpt lat="48.75208" lon="-3.2779">
        <ele>15.6</ele>
        <time>2021-03-28T12:16:53Z</time>
      </trkpt>
      <trkpt lat="48.75207" lon="-3.27789">
        <ele>15.6</ele>
        <time>2021-03-28T12:16:54Z</time>
      </trkpt>
      <trkpt lat="48.75205" lon="-3.27789">
        <ele>15.7</ele>
        <time>2021-03-28T12:16:55Z</time>
      </trkpt>
      <trkpt lat="48.75203" lon="-3.27788">
        <ele>15.8</ele>
        <time>2021-03-28T12:16:57Z</time>
      </trkpt>
      <trkpt lat="48.75202" lon="-3.27788">
        <ele>15.9</ele>
        <time>2021-03-28T12:16:58Z</time>
      </trkpt>
      <trkpt lat="48.75199" lon="-3.27788">
        <ele>16</ele>
        <time>2021-03-28T12:17:00Z</time>
      </trkpt>
      <trkpt lat="48.75197" lon="-3.27787">
        <ele>16.1</ele>
        <time>2021-03-28T12:17:01Z</time>
      </trkpt>
      <trkpt lat="48.75196" lon="-3.27786">
        <ele>16.1</ele>
        <time>2021-03-28T12:17:02Z</time>
      </trkpt>
      <trkpt lat="48.75195" lon="-3.27786">
        <ele>16.2</ele>
        <time>2021-03-28T12:17:03Z</time>
      </trkpt>
      <trkpt lat="48.75193" lon="-3.27786">
        <ele>16.3</ele>
        <time>2021-03-28T12:17:05Z</time>
      </trkpt>
      <trkpt lat="48.75191" lon="-3.27787">
        <ele>16.4</ele>
        <time>2021-03-28T12:17:07Z</time>
      </trkpt>
      <trkpt lat="48.7519" lon="-3.27789">
        <ele>16.5</ele>
        <time>2021-03-28T12:17:08Z</time>
      </trkpt>
      <trkpt lat="48.75189" lon="-3.2779">
        <ele>16.5</ele>
        <time>2021-03-28T12:17:09Z</time>
      </trkpt>
      <trkpt lat="48.75188" lon="-3.2779">
        <ele>16.5</ele>
        <time>2021-03-28T12:17:10Z</time>
      </trkpt>
      <trkpt lat="48.75186" lon="-3.27789">
        <ele>16.5</ele>
        <time>2021-03-28T12:17:12Z</time>
      </trkpt>
      <trkpt lat="48.75186" lon="-3.27787">
        <ele>16.5</ele>
        <time>2021-03-28T12:17:14Z</time>
      </trkpt>
      <trkpt lat="48.75185" lon="-3.27786">
        <ele>16.5</ele>
        <time>2021-03-28T12:17:15Z</time>
      </trkpt>
      <trkpt lat="48.75186" lon="-3.27786">
        <ele>16.5</ele>
        <time>2021-03-28T12:17:16Z</time>
      </trkpt>
      <trkpt lat="48.75189" lon="-3.27785">
        <ele>16.6</ele>
        <time>2021-03-28T12:17:19Z</time>
      </trkpt>
      <trkpt lat="48.7519" lon="-3.27784">
        <ele>16.6</ele>
        <time>2021-03-28T12:17:20Z</time>
      </trkpt>
      <trkpt lat="48.75191" lon="-3.27782">
        <ele>16.6</ele>
        <time>2021-03-28T12:17:21Z</time>
      </trkpt>
      <trkpt lat="48.75191" lon="-3.27776">
        <ele>16.6</ele>
        <time>2021-03-28T12:17:24Z</time>
      </trkpt>
      <trkpt lat="48.75191" lon="-3.27775">
        <ele>16.6</ele>
        <time>2021-03-28T12:17:25Z</time>
      </trkpt>
      <trkpt lat="48.7519" lon="-3.27773">
        <ele>16.6</ele>
        <time>2021-03-28T12:17:27Z</time>
      </trkpt>
      <trkpt lat="48.75189" lon="-3.27771">
        <ele>16.5</ele>
        <time>2021-03-28T12:17:28Z</time>
      </trkpt>
      <trkpt lat="48.75189" lon="-3.2777">
        <ele>16.5</ele>
        <time>2021-03-28T12:17:29Z</time>
      </trkpt>
      <trkpt lat="48.75188" lon="-3.27768">
        <ele>16.5</ele>
        <time>2021-03-28T12:17:30Z</time>
      </trkpt>
      <trkpt lat="48.75188" lon="-3.27764">
        <ele>16.5</ele>
        <time>2021-03-28T12:17:32Z</time>
      </trkpt>
      <trkpt lat="48.75188" lon="-3.27762">
        <ele>16.5</ele>
        <time>2021-03-28T12:17:33Z</time>
      </trkpt>
      <trkpt lat="48.75188" lon="-3.2776">
        <ele>16.5</ele>
        <time>2021-03-28T12:17:35Z</time>
      </trkpt>
      <trkpt lat="48.75188" lon="-3.27756">
        <ele>16.5</ele>
        <time>2021-03-28T12:17:37Z</time>
      </trkpt>
      <trkpt lat="48.75189" lon="-3.27754">
        <ele>16.5</ele>
        <time>2021-03-28T12:17:38Z</time>
      </trkpt>
      <trkpt lat="48.75189" lon="-3.2775">
        <ele>16.5</ele>
        <time>2021-03-28T12:17:40Z</time>
      </trkpt>
      <trkpt lat="48.75188" lon="-3.27748">
        <ele>16.4</ele>
        <time>2021-03-28T12:17:41Z</time>
      </trkpt>
      <trkpt lat="48.75187" lon="-3.27746">
        <ele>16.4</ele>
        <time>2021-03-28T12:17:42Z</time>
      </trkpt>
      <trkpt lat="48.75187" lon="-3.27743">
        <ele>16.4</ele>
        <time>2021-03-28T12:17:43Z</time>
      </trkpt>
      <trkpt lat="48.75186" lon="-3.27741">
        <ele>16.4</ele>
        <time>2021-03-28T12:17:45Z</time>
      </trkpt>
      <trkpt lat="48.75185" lon="-3.27739">
        <ele>16.4</ele>
        <time>2021-03-28T12:17:46Z</time>
      </trkpt>
      <trkpt lat="48.75185" lon="-3.27737">
        <ele>16.3</ele>
        <time>2021-03-28T12:17:47Z</time>
      </trkpt>
      <trkpt lat="48.75184" lon="-3.27732">
        <ele>16.3</ele>
        <time>2021-03-28T12:17:49Z</time>
      </trkpt>
      <trkpt lat="48.75184" lon="-3.27731">
        <ele>16.3</ele>
        <time>2021-03-28T12:17:50Z</time>
      </trkpt>
      <trkpt lat="48.75184" lon="-3.27729">
        <ele>16.2</ele>
        <time>2021-03-28T12:17:51Z</time>
      </trkpt>
      <trkpt lat="48.75184" lon="-3.27727">
        <ele>16.1</ele>
        <time>2021-03-28T12:17:52Z</time>
      </trkpt>
      <trkpt lat="48.75185" lon="-3.27724">
        <ele>16</ele>
        <time>2021-03-28T12:17:54Z</time>
      </trkpt>
      <trkpt lat="48.75185" lon="-3.2772">
        <ele>15.8</ele>
        <time>2021-03-28T12:17:56Z</time>
      </trkpt>
      <trkpt lat="48.75185" lon="-3.27718">
        <ele>15.7</ele>
        <time>2021-03-28T12:17:57Z</time>
      </trkpt>
      <trkpt lat="48.75186" lon="-3.27716">
        <ele>15.6</ele>
        <time>2021-03-28T12:17:58Z</time>
      </trkpt>
      <trkpt lat="48.75186" lon="-3.27713">
        <ele>15.4</ele>
        <time>2021-03-28T12:17:59Z</time>
      </trkpt>
      <trkpt lat="48.75187" lon="-3.27711">
        <ele>15.3</ele>
        <time>2021-03-28T12:18:00Z</time>
      </trkpt>
      <trkpt lat="48.75187" lon="-3.27709">
        <ele>15.2</ele>
        <time>2021-03-28T12:18:02Z</time>
      </trkpt>
      <trkpt lat="48.75188" lon="-3.27707">
        <ele>15.1</ele>
        <time>2021-03-28T12:18:03Z</time>
      </trkpt>
      <trkpt lat="48.75189" lon="-3.27703">
        <ele>14.9</ele>
        <time>2021-03-28T12:18:05Z</time>
      </trkpt>
      <trkpt lat="48.7519" lon="-3.27701">
        <ele>14.8</ele>
        <time>2021-03-28T12:18:06Z</time>
      </trkpt>
      <trkpt lat="48.75192" lon="-3.27699">
        <ele>14.7</ele>
        <time>2021-03-28T12:18:07Z</time>
      </trkpt>
      <trkpt lat="48.75192" lon="-3.27697">
        <ele>14.6</ele>
        <time>2021-03-28T12:18:08Z</time>
      </trkpt>
      <trkpt lat="48.75193" lon="-3.27695">
        <ele>14.4</ele>
        <time>2021-03-28T12:18:09Z</time>
      </trkpt>
      <trkpt lat="48.75194" lon="-3.27693">
        <ele>14.3</ele>
        <time>2021-03-28T12:18:11Z</time>
      </trkpt>
      <trkpt lat="48.75195" lon="-3.27692">
        <ele>14.3</ele>
        <time>2021-03-28T12:18:12Z</time>
      </trkpt>
      <trkpt lat="48.75196" lon="-3.2769">
        <ele>14.2</ele>
        <time>2021-03-28T12:18:13Z</time>
      </trkpt>
      <trkpt lat="48.75197" lon="-3.27688">
        <ele>14.1</ele>
        <time>2021-03-28T12:18:14Z</time>
      </trkpt>
      <trkpt lat="48.75199" lon="-3.27684">
        <ele>14</ele>
        <time>2021-03-28T12:18:16Z</time>
      </trkpt>
      <trkpt lat="48.752" lon="-3.27682">
        <ele>14</ele>
        <time>2021-03-28T12:18:17Z</time>
      </trkpt>
      <trkpt lat="48.75201" lon="-3.2768">
        <ele>14</ele>
        <time>2021-03-28T12:18:19Z</time>
      </trkpt>
      <trkpt lat="48.75202" lon="-3.27678">
        <ele>13.9</ele>
        <time>2021-03-28T12:18:20Z</time>
      </trkpt>
      <trkpt lat="48.75203" lon="-3.27676">
        <ele>13.9</ele>
        <time>2021-03-28T12:18:21Z</time>
      </trkpt>
      <trkpt lat="48.75205" lon="-3.27675">
        <ele>13.9</ele>
        <time>2021-03-28T12:18:23Z</time>
      </trkpt>
      <trkpt lat="48.75206" lon="-3.27673">
        <ele>13.9</ele>
        <time>2021-03-28T12:18:24Z</time>
      </trkpt>
      <trkpt lat="48.75207" lon="-3.27672">
        <ele>13.9</ele>
        <time>2021-03-28T12:18:25Z</time>
      </trkpt>
      <trkpt lat="48.75208" lon="-3.27669">
        <ele>13.9</ele>
        <time>2021-03-28T12:18:27Z</time>
      </trkpt>
      <trkpt lat="48.75208" lon="-3.27668">
        <ele>13.9</ele>
        <time>2021-03-28T12:18:28Z</time>
      </trkpt>
      <trkpt lat="48.75208" lon="-3.27666">
        <ele>13.9</ele>
        <time>2021-03-28T12:18:29Z</time>
      </trkpt>
      <trkpt lat="48.75208" lon="-3.27663">
        <ele>13.9</ele>
        <time>2021-03-28T12:18:30Z</time>
      </trkpt>
      <trkpt lat="48.75208" lon="-3.2766">
        <ele>13.9</ele>
        <time>2021-03-28T12:18:31Z</time>
      </trkpt>
      <trkpt lat="48.75209" lon="-3.27658">
        <ele>13.9</ele>
        <time>2021-03-28T12:18:33Z</time>
      </trkpt>
      <trkpt lat="48.75209" lon="-3.27656">
        <ele>13.9</ele>
        <time>2021-03-28T12:18:34Z</time>
      </trkpt>
      <trkpt lat="48.75209" lon="-3.27654">
        <ele>13.9</ele>
        <time>2021-03-28T12:18:35Z</time>
      </trkpt>
      <trkpt lat="48.75211" lon="-3.27653">
        <ele>13.9</ele>
        <time>2021-03-28T12:18:36Z</time>
      </trkpt>
      <trkpt lat="48.75212" lon="-3.27652">
        <ele>13.9</ele>
        <time>2021-03-28T12:18:38Z</time>
      </trkpt>
      <trkpt lat="48.75213" lon="-3.2765">
        <ele>13.9</ele>
        <time>2021-03-28T12:18:39Z</time>
      </trkpt>
      <trkpt lat="48.75214" lon="-3.27648">
        <ele>13.9</ele>
        <time>2021-03-28T12:18:40Z</time>
      </trkpt>
      <trkpt lat="48.75215" lon="-3.27647">
        <ele>13.9</ele>
        <time>2021-03-28T12:18:41Z</time>
      </trkpt>
      <trkpt lat="48.75216" lon="-3.27645">
        <ele>13.9</ele>
        <time>2021-03-28T12:18:43Z</time>
      </trkpt>
      <trkpt lat="48.75219" lon="-3.27642">
        <ele>14</ele>
        <time>2021-03-28T12:18:44Z</time>
      </trkpt>
      <trkpt lat="48.75221" lon="-3.27641">
        <ele>14</ele>
        <time>2021-03-28T12:18:46Z</time>
      </trkpt>
      <trkpt lat="48.75222" lon="-3.2764">
        <ele>14</ele>
        <time>2021-03-28T12:18:47Z</time>
      </trkpt>
      <trkpt lat="48.75223" lon="-3.27639">
        <ele>14</ele>
        <time>2021-03-28T12:18:48Z</time>
      </trkpt>
      <trkpt lat="48.75225" lon="-3.27636">
        <ele>14.2</ele>
        <time>2021-03-28T12:18:50Z</time>
      </trkpt>
      <trkpt lat="48.75225" lon="-3.27634">
        <ele>14.2</ele>
        <time>2021-03-28T12:18:51Z</time>
      </trkpt>
      <trkpt lat="48.75226" lon="-3.27632">
        <ele>14.2</ele>
        <time>2021-03-28T12:18:53Z</time>
      </trkpt>
      <trkpt lat="48.75227" lon="-3.2763">
        <ele>14.1</ele>
        <time>2021-03-28T12:18:55Z</time>
      </trkpt>
      <trkpt lat="48.75228" lon="-3.27629">
        <ele>14.1</ele>
        <time>2021-03-28T12:18:56Z</time>
      </trkpt>
      <trkpt lat="48.75227" lon="-3.27627">
        <ele>14.1</ele>
        <time>2021-03-28T12:18:58Z</time>
      </trkpt>
      <trkpt lat="48.75225" lon="-3.27624">
        <ele>14.1</ele>
        <time>2021-03-28T12:19:00Z</time>
      </trkpt>
      <trkpt lat="48.75223" lon="-3.27624">
        <ele>14.1</ele>
        <time>2021-03-28T12:19:01Z</time>
      </trkpt>
      <trkpt lat="48.75222" lon="-3.27624">
        <ele>14.1</ele>
        <time>2021-03-28T12:19:02Z</time>
      </trkpt>
      <trkpt lat="48.75219" lon="-3.27622">
        <ele>14.1</ele>
        <time>2021-03-28T12:19:04Z</time>
      </trkpt>
      <trkpt lat="48.75218" lon="-3.27621">
        <ele>14</ele>
        <time>2021-03-28T12:19:05Z</time>
      </trkpt>
      <trkpt lat="48.75216" lon="-3.2762">
        <ele>14</ele>
        <time>2021-03-28T12:19:07Z</time>
      </trkpt>
      <trkpt lat="48.75215" lon="-3.27619">
        <ele>14</ele>
        <time>2021-03-28T12:19:08Z</time>
      </trkpt>
      <trkpt lat="48.75214" lon="-3.27618">
        <ele>14</ele>
        <time>2021-03-28T12:19:09Z</time>
      </trkpt>
      <trkpt lat="48.75212" lon="-3.27616">
        <ele>14</ele>
        <time>2021-03-28T12:19:11Z</time>
      </trkpt>
      <trkpt lat="48.7521" lon="-3.27613">
        <ele>13.9</ele>
        <time>2021-03-28T12:19:13Z</time>
      </trkpt>
      <trkpt lat="48.75208" lon="-3.27609">
        <ele>14</ele>
        <time>2021-03-28T12:19:15Z</time>
      </trkpt>
      <trkpt lat="48.75208" lon="-3.27608">
        <ele>14</ele>
        <time>2021-03-28T12:19:16Z</time>
      </trkpt>
      <trkpt lat="48.75208" lon="-3.27607">
        <ele>14</ele>
        <time>2021-03-28T12:19:17Z</time>
      </trkpt>
      <trkpt lat="48.75209" lon="-3.27606">
        <ele>14</ele>
        <time>2021-03-28T12:19:19Z</time>
      </trkpt>
      <trkpt lat="48.75211" lon="-3.27605">
        <ele>14</ele>
        <time>2021-03-28T12:19:21Z</time>
      </trkpt>
      <trkpt lat="48.75212" lon="-3.27606">
        <ele>14</ele>
        <time>2021-03-28T12:19:23Z</time>
      </trkpt>
      <trkpt lat="48.75213" lon="-3.27608">
        <ele>14</ele>
        <time>2021-03-28T12:19:24Z</time>
      </trkpt>
      <trkpt lat="48.75216" lon="-3.27612">
        <ele>14.1</ele>
        <time>2021-03-28T12:19:25Z</time>
      </trkpt>
      <trkpt lat="48.75217" lon="-3.27613">
        <ele>14.1</ele>
        <time>2021-03-28T12:19:27Z</time>
      </trkpt>
      <trkpt lat="48.75219" lon="-3.27615">
        <ele>14.1</ele>
        <time>2021-03-28T12:19:29Z</time>
      </trkpt>
      <trkpt lat="48.75221" lon="-3.27616">
        <ele>14.1</ele>
        <time>2021-03-28T12:19:31Z</time>
      </trkpt>
      <trkpt lat="48.75222" lon="-3.27616">
        <ele>14.1</ele>
        <time>2021-03-28T12:19:32Z</time>
      </trkpt>
      <trkpt lat="48.75225" lon="-3.27616">
        <ele>14.1</ele>
        <time>2021-03-28T12:19:33Z</time>
      </trkpt>
      <trkpt lat="48.75226" lon="-3.27617">
        <ele>14.1</ele>
        <time>2021-03-28T12:19:35Z</time>
      </trkpt>
      <trkpt lat="48.75228" lon="-3.27616">
        <ele>14.2</ele>
        <time>2021-03-28T12:19:36Z</time>
      </trkpt>
      <trkpt lat="48.75229" lon="-3.27616">
        <ele>14.2</ele>
        <time>2021-03-28T12:19:37Z</time>
      </trkpt>
      <trkpt lat="48.7523" lon="-3.27615">
        <ele>14.2</ele>
        <time>2021-03-28T12:19:38Z</time>
      </trkpt>
      <trkpt lat="48.75231" lon="-3.27613">
        <ele>14.2</ele>
        <time>2021-03-28T12:19:40Z</time>
      </trkpt>
      <trkpt lat="48.75232" lon="-3.27611">
        <ele>14.2</ele>
        <time>2021-03-28T12:19:41Z</time>
      </trkpt>
      <trkpt lat="48.75233" lon="-3.27609">
        <ele>14.2</ele>
        <time>2021-03-28T12:19:42Z</time>
      </trkpt>
      <trkpt lat="48.75234" lon="-3.27608">
        <ele>14.3</ele>
        <time>2021-03-28T12:19:44Z</time>
      </trkpt>
      <trkpt lat="48.75235" lon="-3.27607">
        <ele>14.3</ele>
        <time>2021-03-28T12:19:45Z</time>
      </trkpt>
      <trkpt lat="48.75237" lon="-3.27605">
        <ele>14.3</ele>
        <time>2021-03-28T12:19:46Z</time>
      </trkpt>
      <trkpt lat="48.75239" lon="-3.27603">
        <ele>14.3</ele>
        <time>2021-03-28T12:19:48Z</time>
      </trkpt>
      <trkpt lat="48.75239" lon="-3.27602">
        <ele>14.4</ele>
        <time>2021-03-28T12:19:49Z</time>
      </trkpt>
      <trkpt lat="48.7524" lon="-3.276">
        <ele>14.4</ele>
        <time>2021-03-28T12:19:50Z</time>
      </trkpt>
      <trkpt lat="48.75241" lon="-3.27599">
        <ele>14.4</ele>
        <time>2021-03-28T12:19:52Z</time>
      </trkpt>
      <trkpt lat="48.75243" lon="-3.27596">
        <ele>14.5</ele>
        <time>2021-03-28T12:19:54Z</time>
      </trkpt>
      <trkpt lat="48.75243" lon="-3.27595">
        <ele>14.6</ele>
        <time>2021-03-28T12:19:55Z</time>
      </trkpt>
      <trkpt lat="48.75244" lon="-3.27591">
        <ele>14.7</ele>
        <time>2021-03-28T12:19:57Z</time>
      </trkpt>
      <trkpt lat="48.75245" lon="-3.27588">
        <ele>14.6</ele>
        <time>2021-03-28T12:19:58Z</time>
      </trkpt>
      <trkpt lat="48.75245" lon="-3.27586">
        <ele>14.6</ele>
        <time>2021-03-28T12:20:00Z</time>
      </trkpt>
      <trkpt lat="48.75246" lon="-3.27585">
        <ele>14.6</ele>
        <time>2021-03-28T12:20:01Z</time>
      </trkpt>
      <trkpt lat="48.75245" lon="-3.27585">
        <ele>14.6</ele>
        <time>2021-03-28T12:20:02Z</time>
      </trkpt>
      <trkpt lat="48.75245" lon="-3.27585">
        <ele>14.6</ele>
        <time>2021-03-28T12:20:04Z</time>
      </trkpt>
      <trkpt lat="48.75245" lon="-3.27585">
        <ele>14.6</ele>
        <time>2021-03-28T12:20:06Z</time>
      </trkpt>
      <trkpt lat="48.75245" lon="-3.27585">
        <ele>14.6</ele>
        <time>2021-03-28T12:20:08Z</time>
      </trkpt>
      <trkpt lat="48.75245" lon="-3.27586">
        <ele>14.6</ele>
        <time>2021-03-28T12:20:09Z</time>
      </trkpt>
      <trkpt lat="48.75245" lon="-3.27585">
        <ele>14.6</ele>
        <time>2021-03-28T12:20:11Z</time>
      </trkpt>
      <trkpt lat="48.75245" lon="-3.27585">
        <ele>14.6</ele>
        <time>2021-03-28T12:20:12Z</time>
      </trkpt>
      <trkpt lat="48.75245" lon="-3.27585">
        <ele>14.6</ele>
        <time>2021-03-28T12:20:14Z</time>
      </trkpt>
      <trkpt lat="48.75245" lon="-3.27585">
        <ele>14.6</ele>
        <time>2021-03-28T12:20:16Z</time>
      </trkpt>
      <trkpt lat="48.75245" lon="-3.27585">
        <ele>14.6</ele>
        <time>2021-03-28T12:20:17Z</time>
      </trkpt>
      <trkpt lat="48.75245" lon="-3.27584">
        <ele>14.6</ele>
        <time>2021-03-28T12:20:19Z</time>
      </trkpt>
      <trkpt lat="48.75245" lon="-3.27584">
        <ele>14.6</ele>
        <time>2021-03-28T12:20:21Z</time>
      </trkpt>
      <trkpt lat="48.75244" lon="-3.27584">
        <ele>14.5</ele>
        <time>2021-03-28T12:20:22Z</time>
      </trkpt>
      <trkpt lat="48.75244" lon="-3.27584">
        <ele>14.5</ele>
        <time>2021-03-28T12:20:24Z</time>
      </trkpt>
      <trkpt lat="48.75244" lon="-3.27584">
        <ele>14.5</ele>
        <time>2021-03-28T12:20:26Z</time>
      </trkpt>
      <trkpt lat="48.75244" lon="-3.27584">
        <ele>14.5</ele>
        <time>2021-03-28T12:20:27Z</time>
      </trkpt>
      <trkpt lat="48.75244" lon="-3.27584">
        <ele>14.5</ele>
        <time>2021-03-28T12:20:29Z</time>
      </trkpt>
      <trkpt lat="48.75245" lon="-3.27584">
        <ele>14.5</ele>
        <time>2021-03-28T12:20:31Z</time>
      </trkpt>
      <trkpt lat="48.75245" lon="-3.27584">
        <ele>14.5</ele>
        <time>2021-03-28T12:20:32Z</time>
      </trkpt>
      <trkpt lat="48.75245" lon="-3.27584">
        <ele>14.5</ele>
        <time>2021-03-28T12:20:33Z</time>
      </trkpt>
      <trkpt lat="48.75245" lon="-3.27584">
        <ele>14.5</ele>
        <time>2021-03-28T12:20:35Z</time>
      </trkpt>
      <trkpt lat="48.75245" lon="-3.27584">
        <ele>14.5</ele>
        <time>2021-03-28T12:20:36Z</time>
      </trkpt>
      <trkpt lat="48.75245" lon="-3.27584">
        <ele>14.5</ele>
        <time>2021-03-28T12:20:38Z</time>
      </trkpt>
      <trkpt lat="48.75245" lon="-3.27584">
        <ele>14.5</ele>
        <time>2021-03-28T12:20:40Z</time>
      </trkpt>
      <trkpt lat="48.75245" lon="-3.27584">
        <ele>14.5</ele>
        <time>2021-03-28T12:20:41Z</time>
      </trkpt>
      <trkpt lat="48.75245" lon="-3.27584">
        <ele>14.5</ele>
        <time>2021-03-28T12:20:42Z</time>
      </trkpt>
      <trkpt lat="48.75245" lon="-3.27584">
        <ele>14.5</ele>
        <time>2021-03-28T12:20:44Z</time>
      </trkpt>
      <trkpt lat="48.75243" lon="-3.27585">
        <ele>14.5</ele>
        <time>2021-03-28T12:20:45Z</time>
      </trkpt>
      <trkpt lat="48.7524" lon="-3.27585">
        <ele>14.5</ele>
        <time>2021-03-28T12:20:47Z</time>
      </trkpt>
      <trkpt lat="48.75239" lon="-3.27587">
        <ele>14.4</ele>
        <time>2021-03-28T12:20:48Z</time>
      </trkpt>
      <trkpt lat="48.75238" lon="-3.27588">
        <ele>14.4</ele>
        <time>2021-03-28T12:20:50Z</time>
      </trkpt>
      <trkpt lat="48.75236" lon="-3.27589">
        <ele>14.4</ele>
        <time>2021-03-28T12:20:51Z</time>
      </trkpt>
      <trkpt lat="48.75234" lon="-3.27594">
        <ele>14.3</ele>
        <time>2021-03-28T12:20:53Z</time>
      </trkpt>
      <trkpt lat="48.75233" lon="-3.27597">
        <ele>14.3</ele>
        <time>2021-03-28T12:20:54Z</time>
      </trkpt>
      <trkpt lat="48.75231" lon="-3.27603">
        <ele>14.3</ele>
        <time>2021-03-28T12:20:56Z</time>
      </trkpt>
      <trkpt lat="48.7523" lon="-3.27607">
        <ele>14.2</ele>
        <time>2021-03-28T12:20:58Z</time>
      </trkpt>
      <trkpt lat="48.75229" lon="-3.2761">
        <ele>14.2</ele>
        <time>2021-03-28T12:21:00Z</time>
      </trkpt>
      <trkpt lat="48.75227" lon="-3.27613">
        <ele>14.2</ele>
        <time>2021-03-28T12:21:01Z</time>
      </trkpt>
      <trkpt lat="48.75226" lon="-3.27614">
        <ele>14.2</ele>
        <time>2021-03-28T12:21:03Z</time>
      </trkpt>
      <trkpt lat="48.75226" lon="-3.27615">
        <ele>14.2</ele>
        <time>2021-03-28T12:21:04Z</time>
      </trkpt>
      <trkpt lat="48.75224" lon="-3.27615">
        <ele>14.2</ele>
        <time>2021-03-28T12:21:06Z</time>
      </trkpt>
      <trkpt lat="48.75222" lon="-3.27615">
        <ele>14.2</ele>
        <time>2021-03-28T12:21:08Z</time>
      </trkpt>
      <trkpt lat="48.75219" lon="-3.27613">
        <ele>14</ele>
        <time>2021-03-28T12:21:10Z</time>
      </trkpt>
      <trkpt lat="48.75218" lon="-3.27613">
        <ele>14</ele>
        <time>2021-03-28T12:21:11Z</time>
      </trkpt>
      <trkpt lat="48.75216" lon="-3.2761">
        <ele>14</ele>
        <time>2021-03-28T12:21:13Z</time>
      </trkpt>
      <trkpt lat="48.75215" lon="-3.27609">
        <ele>14</ele>
        <time>2021-03-28T12:21:14Z</time>
      </trkpt>
      <trkpt lat="48.75213" lon="-3.27608">
        <ele>14</ele>
        <time>2021-03-28T12:21:15Z</time>
      </trkpt>
      <trkpt lat="48.75211" lon="-3.27606">
        <ele>13.9</ele>
        <time>2021-03-28T12:21:17Z</time>
      </trkpt>
      <trkpt lat="48.7521" lon="-3.27605">
        <ele>13.9</ele>
        <time>2021-03-28T12:21:18Z</time>
      </trkpt>
      <trkpt lat="48.75207" lon="-3.27602">
        <ele>13.9</ele>
        <time>2021-03-28T12:21:20Z</time>
      </trkpt>
      <trkpt lat="48.75205" lon="-3.276">
        <ele>13.8</ele>
        <time>2021-03-28T12:21:22Z</time>
      </trkpt>
      <trkpt lat="48.75204" lon="-3.27599">
        <ele>13.8</ele>
        <time>2021-03-28T12:21:23Z</time>
      </trkpt>
      <trkpt lat="48.75203" lon="-3.27598">
        <ele>13.8</ele>
        <time>2021-03-28T12:21:24Z</time>
      </trkpt>
      <trkpt lat="48.75202" lon="-3.27595">
        <ele>13.8</ele>
        <time>2021-03-28T12:21:26Z</time>
      </trkpt>
      <trkpt lat="48.752" lon="-3.27591">
        <ele>13.7</ele>
        <time>2021-03-28T12:21:28Z</time>
      </trkpt>
      <trkpt lat="48.752" lon="-3.27591">
        <ele>13.7</ele>
        <time>2021-03-28T12:21:29Z</time>
      </trkpt>
      <trkpt lat="48.75197" lon="-3.27588">
        <ele>13.7</ele>
        <time>2021-03-28T12:21:30Z</time>
      </trkpt>
      <trkpt lat="48.75197" lon="-3.27587">
        <ele>13.7</ele>
        <time>2021-03-28T12:21:31Z</time>
      </trkpt>
      <trkpt lat="48.75195" lon="-3.27587">
        <ele>13.6</ele>
        <time>2021-03-28T12:21:33Z</time>
      </trkpt>
      <trkpt lat="48.75193" lon="-3.27586">
        <ele>13.6</ele>
        <time>2021-03-28T12:21:34Z</time>
      </trkpt>
      <trkpt lat="48.75191" lon="-3.27583">
        <ele>13.6</ele>
        <time>2021-03-28T12:21:35Z</time>
      </trkpt>
      <trkpt lat="48.7519" lon="-3.27581">
        <ele>13.6</ele>
        <time>2021-03-28T12:21:37Z</time>
      </trkpt>
      <trkpt lat="48.7519" lon="-3.27579">
        <ele>13.5</ele>
        <time>2021-03-28T12:21:38Z</time>
      </trkpt>
      <trkpt lat="48.75189" lon="-3.27578">
        <ele>13.5</ele>
        <time>2021-03-28T12:21:39Z</time>
      </trkpt>
      <trkpt lat="48.75188" lon="-3.27575">
        <ele>13.5</ele>
        <time>2021-03-28T12:21:40Z</time>
      </trkpt>
      <trkpt lat="48.75188" lon="-3.27573">
        <ele>13.5</ele>
        <time>2021-03-28T12:21:42Z</time>
      </trkpt>
      <trkpt lat="48.75187" lon="-3.27571">
        <ele>13.5</ele>
        <time>2021-03-28T12:21:43Z</time>
      </trkpt>
      <trkpt lat="48.75187" lon="-3.27568">
        <ele>13.5</ele>
        <time>2021-03-28T12:21:44Z</time>
      </trkpt>
      <trkpt lat="48.75186" lon="-3.27567">
        <ele>13.5</ele>
        <time>2021-03-28T12:21:46Z</time>
      </trkpt>
      <trkpt lat="48.75185" lon="-3.27566">
        <ele>13.5</ele>
        <time>2021-03-28T12:21:47Z</time>
      </trkpt>
      <trkpt lat="48.75184" lon="-3.27564">
        <ele>13.4</ele>
        <time>2021-03-28T12:21:48Z</time>
      </trkpt>
      <trkpt lat="48.75184" lon="-3.27563">
        <ele>13.4</ele>
        <time>2021-03-28T12:21:50Z</time>
      </trkpt>
      <trkpt lat="48.75183" lon="-3.2756">
        <ele>13.4</ele>
        <time>2021-03-28T12:21:52Z</time>
      </trkpt>
      <trkpt lat="48.75183" lon="-3.27559">
        <ele>13.4</ele>
        <time>2021-03-28T12:21:53Z</time>
      </trkpt>
      <trkpt lat="48.75182" lon="-3.27558">
        <ele>13.4</ele>
        <time>2021-03-28T12:21:54Z</time>
      </trkpt>
      <trkpt lat="48.7518" lon="-3.27557">
        <ele>13.4</ele>
        <time>2021-03-28T12:21:56Z</time>
      </trkpt>
      <trkpt lat="48.75179" lon="-3.27555">
        <ele>13.4</ele>
        <time>2021-03-28T12:21:57Z</time>
      </trkpt>
      <trkpt lat="48.75179" lon="-3.27553">
        <ele>13.4</ele>
        <time>2021-03-28T12:21:59Z</time>
      </trkpt>
      <trkpt lat="48.75178" lon="-3.27551">
        <ele>13.4</ele>
        <time>2021-03-28T12:22:00Z</time>
      </trkpt>
      <trkpt lat="48.75178" lon="-3.27549">
        <ele>13.4</ele>
        <time>2021-03-28T12:22:01Z</time>
      </trkpt>
      <trkpt lat="48.75177" lon="-3.27548">
        <ele>13.4</ele>
        <time>2021-03-28T12:22:02Z</time>
      </trkpt>
      <trkpt lat="48.75177" lon="-3.27545">
        <ele>13.4</ele>
        <time>2021-03-28T12:22:04Z</time>
      </trkpt>
      <trkpt lat="48.75176" lon="-3.27544">
        <ele>13.4</ele>
        <time>2021-03-28T12:22:05Z</time>
      </trkpt>
      <trkpt lat="48.75174" lon="-3.27541">
        <ele>13.4</ele>
        <time>2021-03-28T12:22:06Z</time>
      </trkpt>
      <trkpt lat="48.75174" lon="-3.27539">
        <ele>13.4</ele>
        <time>2021-03-28T12:22:08Z</time>
      </trkpt>
      <trkpt lat="48.75173" lon="-3.27538">
        <ele>13.4</ele>
        <time>2021-03-28T12:22:09Z</time>
      </trkpt>
      <trkpt lat="48.75172" lon="-3.27537">
        <ele>13.4</ele>
        <time>2021-03-28T12:22:10Z</time>
      </trkpt>
      <trkpt lat="48.75172" lon="-3.27535">
        <ele>13.4</ele>
        <time>2021-03-28T12:22:11Z</time>
      </trkpt>
      <trkpt lat="48.75171" lon="-3.27532">
        <ele>13.4</ele>
        <time>2021-03-28T12:22:12Z</time>
      </trkpt>
      <trkpt lat="48.7517" lon="-3.27531">
        <ele>13.4</ele>
        <time>2021-03-28T12:22:14Z</time>
      </trkpt>
      <trkpt lat="48.75169" lon="-3.2753">
        <ele>13.4</ele>
        <time>2021-03-28T12:22:15Z</time>
      </trkpt>
      <trkpt lat="48.75167" lon="-3.27528">
        <ele>13.4</ele>
        <time>2021-03-28T12:22:17Z</time>
      </trkpt>
      <trkpt lat="48.75166" lon="-3.27526">
        <ele>13.4</ele>
        <time>2021-03-28T12:22:19Z</time>
      </trkpt>
      <trkpt lat="48.75166" lon="-3.27525">
        <ele>13.4</ele>
        <time>2021-03-28T12:22:20Z</time>
      </trkpt>
      <trkpt lat="48.75165" lon="-3.27524">
        <ele>13.4</ele>
        <time>2021-03-28T12:22:21Z</time>
      </trkpt>
      <trkpt lat="48.75164" lon="-3.27522">
        <ele>13.4</ele>
        <time>2021-03-28T12:22:22Z</time>
      </trkpt>
      <trkpt lat="48.75163" lon="-3.27518">
        <ele>13.4</ele>
        <time>2021-03-28T12:22:24Z</time>
      </trkpt>
      <trkpt lat="48.75162" lon="-3.27517">
        <ele>13.4</ele>
        <time>2021-03-28T12:22:25Z</time>
      </trkpt>
      <trkpt lat="48.75161" lon="-3.27513">
        <ele>13.4</ele>
        <time>2021-03-28T12:22:26Z</time>
      </trkpt>
      <trkpt lat="48.75161" lon="-3.27512">
        <ele>13.4</ele>
        <time>2021-03-28T12:22:28Z</time>
      </trkpt>
      <trkpt lat="48.7516" lon="-3.2751">
        <ele>13.4</ele>
        <time>2021-03-28T12:22:29Z</time>
      </trkpt>
      <trkpt lat="48.75159" lon="-3.27508">
        <ele>13.4</ele>
        <time>2021-03-28T12:22:30Z</time>
      </trkpt>
      <trkpt lat="48.75159" lon="-3.27506">
        <ele>13.4</ele>
        <time>2021-03-28T12:22:32Z</time>
      </trkpt>
      <trkpt lat="48.75157" lon="-3.27504">
        <ele>13.4</ele>
        <time>2021-03-28T12:22:33Z</time>
      </trkpt>
      <trkpt lat="48.75155" lon="-3.275">
        <ele>13.4</ele>
        <time>2021-03-28T12:22:35Z</time>
      </trkpt>
      <trkpt lat="48.75154" lon="-3.27498">
        <ele>13.4</ele>
        <time>2021-03-28T12:22:36Z</time>
      </trkpt>
      <trkpt lat="48.75153" lon="-3.27495">
        <ele>13.4</ele>
        <time>2021-03-28T12:22:38Z</time>
      </trkpt>
      <trkpt lat="48.75152" lon="-3.27493">
        <ele>13.4</ele>
        <time>2021-03-28T12:22:39Z</time>
      </trkpt>
      <trkpt lat="48.75152" lon="-3.27491">
        <ele>13.4</ele>
        <time>2021-03-28T12:22:40Z</time>
      </trkpt>
      <trkpt lat="48.75151" lon="-3.27489">
        <ele>13.4</ele>
        <time>2021-03-28T12:22:42Z</time>
      </trkpt>
      <trkpt lat="48.75151" lon="-3.27488">
        <ele>13.4</ele>
        <time>2021-03-28T12:22:43Z</time>
      </trkpt>
      <trkpt lat="48.7515" lon="-3.27485">
        <ele>13.4</ele>
        <time>2021-03-28T12:22:44Z</time>
      </trkpt>
      <trkpt lat="48.7515" lon="-3.27484">
        <ele>13.4</ele>
        <time>2021-03-28T12:22:45Z</time>
      </trkpt>
      <trkpt lat="48.7515" lon="-3.27482">
        <ele>13.4</ele>
        <time>2021-03-28T12:22:46Z</time>
      </trkpt>
      <trkpt lat="48.7515" lon="-3.27479">
        <ele>13.4</ele>
        <time>2021-03-28T12:22:48Z</time>
      </trkpt>
      <trkpt lat="48.7515" lon="-3.27477">
        <ele>13.4</ele>
        <time>2021-03-28T12:22:49Z</time>
      </trkpt>
      <trkpt lat="48.75149" lon="-3.27475">
        <ele>13.4</ele>
        <time>2021-03-28T12:22:50Z</time>
      </trkpt>
      <trkpt lat="48.75148" lon="-3.27471">
        <ele>13.3</ele>
        <time>2021-03-28T12:22:51Z</time>
      </trkpt>
      <trkpt lat="48.75147" lon="-3.27469">
        <ele>13.3</ele>
        <time>2021-03-28T12:22:53Z</time>
      </trkpt>
      <trkpt lat="48.75147" lon="-3.27468">
        <ele>13.3</ele>
        <time>2021-03-28T12:22:54Z</time>
      </trkpt>
      <trkpt lat="48.75146" lon="-3.27464">
        <ele>13.3</ele>
        <time>2021-03-28T12:22:56Z</time>
      </trkpt>
      <trkpt lat="48.75147" lon="-3.27463">
        <ele>13.3</ele>
        <time>2021-03-28T12:22:57Z</time>
      </trkpt>
      <trkpt lat="48.75146" lon="-3.27459">
        <ele>13.3</ele>
        <time>2021-03-28T12:22:59Z</time>
      </trkpt>
      <trkpt lat="48.75145" lon="-3.27458">
        <ele>13.3</ele>
        <time>2021-03-28T12:23:00Z</time>
      </trkpt>
      <trkpt lat="48.75145" lon="-3.27456">
        <ele>13.3</ele>
        <time>2021-03-28T12:23:01Z</time>
      </trkpt>
      <trkpt lat="48.75145" lon="-3.27454">
        <ele>13.3</ele>
        <time>2021-03-28T12:23:03Z</time>
      </trkpt>
      <trkpt lat="48.75145" lon="-3.27452">
        <ele>13.3</ele>
        <time>2021-03-28T12:23:04Z</time>
      </trkpt>
      <trkpt lat="48.75144" lon="-3.27448">
        <ele>13.3</ele>
        <time>2021-03-28T12:23:05Z</time>
      </trkpt>
      <trkpt lat="48.75144" lon="-3.27447">
        <ele>13.3</ele>
        <time>2021-03-28T12:23:06Z</time>
      </trkpt>
      <trkpt lat="48.75143" lon="-3.27445">
        <ele>13.3</ele>
        <time>2021-03-28T12:23:08Z</time>
      </trkpt>
      <trkpt lat="48.75141" lon="-3.27441">
        <ele>13.3</ele>
        <time>2021-03-28T12:23:10Z</time>
      </trkpt>
      <trkpt lat="48.75139" lon="-3.27437">
        <ele>13.3</ele>
        <time>2021-03-28T12:23:11Z</time>
      </trkpt>
      <trkpt lat="48.75138" lon="-3.27436">
        <ele>13.3</ele>
        <time>2021-03-28T12:23:12Z</time>
      </trkpt>
      <trkpt lat="48.75135" lon="-3.27434">
        <ele>13.3</ele>
        <time>2021-03-28T12:23:14Z</time>
      </trkpt>
      <trkpt lat="48.75134" lon="-3.27432">
        <ele>13.3</ele>
        <time>2021-03-28T12:23:15Z</time>
      </trkpt>
      <trkpt lat="48.75131" lon="-3.27429">
        <ele>13.3</ele>
        <time>2021-03-28T12:23:17Z</time>
      </trkpt>
      <trkpt lat="48.75129" lon="-3.27426">
        <ele>13.3</ele>
        <time>2021-03-28T12:23:18Z</time>
      </trkpt>
      <trkpt lat="48.75129" lon="-3.27425">
        <ele>13.3</ele>
        <time>2021-03-28T12:23:19Z</time>
      </trkpt>
      <trkpt lat="48.75128" lon="-3.27422">
        <ele>13.3</ele>
        <time>2021-03-28T12:23:20Z</time>
      </trkpt>
      <trkpt lat="48.75127" lon="-3.27419">
        <ele>13.3</ele>
        <time>2021-03-28T12:23:22Z</time>
      </trkpt>
      <trkpt lat="48.75126" lon="-3.27417">
        <ele>13.3</ele>
        <time>2021-03-28T12:23:24Z</time>
      </trkpt>
      <trkpt lat="48.75125" lon="-3.27415">
        <ele>13.3</ele>
        <time>2021-03-28T12:23:25Z</time>
      </trkpt>
      <trkpt lat="48.75122" lon="-3.27411">
        <ele>13.2</ele>
        <time>2021-03-28T12:23:28Z</time>
      </trkpt>
      <trkpt lat="48.75121" lon="-3.27411">
        <ele>13.2</ele>
        <time>2021-03-28T12:23:29Z</time>
      </trkpt>
      <trkpt lat="48.75119" lon="-3.2741">
        <ele>13.2</ele>
        <time>2021-03-28T12:23:31Z</time>
      </trkpt>
      <trkpt lat="48.75118" lon="-3.27409">
        <ele>13.2</ele>
        <time>2021-03-28T12:23:32Z</time>
      </trkpt>
      <trkpt lat="48.75116" lon="-3.27409">
        <ele>13.1</ele>
        <time>2021-03-28T12:23:33Z</time>
      </trkpt>
      <trkpt lat="48.75113" lon="-3.27408">
        <ele>13.1</ele>
        <time>2021-03-28T12:23:34Z</time>
      </trkpt>
      <trkpt lat="48.75111" lon="-3.27408">
        <ele>13.1</ele>
        <time>2021-03-28T12:23:36Z</time>
      </trkpt>
      <trkpt lat="48.7511" lon="-3.27407">
        <ele>13</ele>
        <time>2021-03-28T12:23:37Z</time>
      </trkpt>
      <trkpt lat="48.75109" lon="-3.27407">
        <ele>13</ele>
        <time>2021-03-28T12:23:38Z</time>
      </trkpt>
      <trkpt lat="48.75107" lon="-3.27406">
        <ele>13</ele>
        <time>2021-03-28T12:23:39Z</time>
      </trkpt>
      <trkpt lat="48.75106" lon="-3.27405">
        <ele>12.9</ele>
        <time>2021-03-28T12:23:41Z</time>
      </trkpt>
      <trkpt lat="48.75103" lon="-3.27402">
        <ele>12.9</ele>
        <time>2021-03-28T12:23:43Z</time>
      </trkpt>
      <trkpt lat="48.75101" lon="-3.274">
        <ele>12.8</ele>
        <time>2021-03-28T12:23:44Z</time>
      </trkpt>
      <trkpt lat="48.751" lon="-3.27399">
        <ele>12.8</ele>
        <time>2021-03-28T12:23:45Z</time>
      </trkpt>
      <trkpt lat="48.75097" lon="-3.27395">
        <ele>12.7</ele>
        <time>2021-03-28T12:23:48Z</time>
      </trkpt>
      <trkpt lat="48.75096" lon="-3.27393">
        <ele>12.6</ele>
        <time>2021-03-28T12:23:49Z</time>
      </trkpt>
      <trkpt lat="48.75095" lon="-3.27392">
        <ele>12.6</ele>
        <time>2021-03-28T12:23:50Z</time>
      </trkpt>
      <trkpt lat="48.75093" lon="-3.2739">
        <ele>12.5</ele>
        <time>2021-03-28T12:23:52Z</time>
      </trkpt>
      <trkpt lat="48.75092" lon="-3.27388">
        <ele>12.5</ele>
        <time>2021-03-28T12:23:53Z</time>
      </trkpt>
      <trkpt lat="48.75091" lon="-3.27387">
        <ele>12.5</ele>
        <time>2021-03-28T12:23:54Z</time>
      </trkpt>
      <trkpt lat="48.75089" lon="-3.27386">
        <ele>12.4</ele>
        <time>2021-03-28T12:23:55Z</time>
      </trkpt>
      <trkpt lat="48.75087" lon="-3.27385">
        <ele>12.4</ele>
        <time>2021-03-28T12:23:56Z</time>
      </trkpt>
      <trkpt lat="48.75085" lon="-3.27382">
        <ele>12.4</ele>
        <time>2021-03-28T12:23:58Z</time>
      </trkpt>
      <trkpt lat="48.75083" lon="-3.27381">
        <ele>12.3</ele>
        <time>2021-03-28T12:23:59Z</time>
      </trkpt>
      <trkpt lat="48.75082" lon="-3.27379">
        <ele>12.3</ele>
        <time>2021-03-28T12:24:00Z</time>
      </trkpt>
      <trkpt lat="48.75081" lon="-3.27377">
        <ele>12.3</ele>
        <time>2021-03-28T12:24:02Z</time>
      </trkpt>
      <trkpt lat="48.7508" lon="-3.27375">
        <ele>12.3</ele>
        <time>2021-03-28T12:24:03Z</time>
      </trkpt>
      <trkpt lat="48.75079" lon="-3.27372">
        <ele>12.3</ele>
        <time>2021-03-28T12:24:05Z</time>
      </trkpt>
      <trkpt lat="48.75079" lon="-3.27371">
        <ele>12.3</ele>
        <time>2021-03-28T12:24:06Z</time>
      </trkpt>
      <trkpt lat="48.75078" lon="-3.27368">
        <ele>12.3</ele>
        <time>2021-03-28T12:24:07Z</time>
      </trkpt>
      <trkpt lat="48.75078" lon="-3.27367">
        <ele>12.2</ele>
        <time>2021-03-28T12:24:08Z</time>
      </trkpt>
      <trkpt lat="48.75077" lon="-3.27364">
        <ele>12.2</ele>
        <time>2021-03-28T12:24:10Z</time>
      </trkpt>
      <trkpt lat="48.75076" lon="-3.27363">
        <ele>12.2</ele>
        <time>2021-03-28T12:24:11Z</time>
      </trkpt>
      <trkpt lat="48.75075" lon="-3.27359">
        <ele>12.2</ele>
        <time>2021-03-28T12:24:13Z</time>
      </trkpt>
      <trkpt lat="48.75074" lon="-3.27358">
        <ele>12.2</ele>
        <time>2021-03-28T12:24:14Z</time>
      </trkpt>
      <trkpt lat="48.75073" lon="-3.27355">
        <ele>12.2</ele>
        <time>2021-03-28T12:24:15Z</time>
      </trkpt>
      <trkpt lat="48.75072" lon="-3.27354">
        <ele>12.2</ele>
        <time>2021-03-28T12:24:16Z</time>
      </trkpt>
      <trkpt lat="48.75071" lon="-3.27351">
        <ele>12.2</ele>
        <time>2021-03-28T12:24:18Z</time>
      </trkpt>
      <trkpt lat="48.7507" lon="-3.27349">
        <ele>12.2</ele>
        <time>2021-03-28T12:24:19Z</time>
      </trkpt>
      <trkpt lat="48.75069" lon="-3.27346">
        <ele>12.2</ele>
        <time>2021-03-28T12:24:21Z</time>
      </trkpt>
      <trkpt lat="48.75066" lon="-3.27341">
        <ele>12.2</ele>
        <time>2021-03-28T12:24:23Z</time>
      </trkpt>
      <trkpt lat="48.75065" lon="-3.2734">
        <ele>12.2</ele>
        <time>2021-03-28T12:24:24Z</time>
      </trkpt>
      <trkpt lat="48.75065" lon="-3.27338">
        <ele>12.2</ele>
        <time>2021-03-28T12:24:25Z</time>
      </trkpt>
      <trkpt lat="48.75064" lon="-3.27335">
        <ele>12.2</ele>
        <time>2021-03-28T12:24:27Z</time>
      </trkpt>
      <trkpt lat="48.75064" lon="-3.27334">
        <ele>12.2</ele>
        <time>2021-03-28T12:24:28Z</time>
      </trkpt>
      <trkpt lat="48.75063" lon="-3.27332">
        <ele>12.2</ele>
        <time>2021-03-28T12:24:29Z</time>
      </trkpt>
      <trkpt lat="48.75063" lon="-3.2733">
        <ele>12.1</ele>
        <time>2021-03-28T12:24:30Z</time>
      </trkpt>
      <trkpt lat="48.75063" lon="-3.27328">
        <ele>12.1</ele>
        <time>2021-03-28T12:24:31Z</time>
      </trkpt>
      <trkpt lat="48.75062" lon="-3.27325">
        <ele>12.1</ele>
        <time>2021-03-28T12:24:33Z</time>
      </trkpt>
      <trkpt lat="48.75061" lon="-3.27323">
        <ele>12.1</ele>
        <time>2021-03-28T12:24:34Z</time>
      </trkpt>
      <trkpt lat="48.75059" lon="-3.2732">
        <ele>12.1</ele>
        <time>2021-03-28T12:24:36Z</time>
      </trkpt>
      <trkpt lat="48.75057" lon="-3.2732">
        <ele>12.1</ele>
        <time>2021-03-28T12:24:37Z</time>
      </trkpt>
      <trkpt lat="48.75055" lon="-3.27318">
        <ele>12.1</ele>
        <time>2021-03-28T12:24:39Z</time>
      </trkpt>
      <trkpt lat="48.75053" lon="-3.27315">
        <ele>12.1</ele>
        <time>2021-03-28T12:24:40Z</time>
      </trkpt>
      <trkpt lat="48.75053" lon="-3.27314">
        <ele>12</ele>
        <time>2021-03-28T12:24:41Z</time>
      </trkpt>
      <trkpt lat="48.75051" lon="-3.27311">
        <ele>12</ele>
        <time>2021-03-28T12:24:43Z</time>
      </trkpt>
      <trkpt lat="48.7505" lon="-3.2731">
        <ele>12</ele>
        <time>2021-03-28T12:24:44Z</time>
      </trkpt>
      <trkpt lat="48.75049" lon="-3.27306">
        <ele>12</ele>
        <time>2021-03-28T12:24:45Z</time>
      </trkpt>
      <trkpt lat="48.75048" lon="-3.27305">
        <ele>12</ele>
        <time>2021-03-28T12:24:46Z</time>
      </trkpt>
      <trkpt lat="48.75048" lon="-3.27302">
        <ele>11.9</ele>
        <time>2021-03-28T12:24:48Z</time>
      </trkpt>
      <trkpt lat="48.75049" lon="-3.273">
        <ele>11.9</ele>
        <time>2021-03-28T12:24:49Z</time>
      </trkpt>
      <trkpt lat="48.75048" lon="-3.27295">
        <ele>11.9</ele>
        <time>2021-03-28T12:24:50Z</time>
      </trkpt>
      <trkpt lat="48.75048" lon="-3.27294">
        <ele>11.8</ele>
        <time>2021-03-28T12:24:51Z</time>
      </trkpt>
      <trkpt lat="48.75048" lon="-3.2729">
        <ele>11.8</ele>
        <time>2021-03-28T12:24:52Z</time>
      </trkpt>
      <trkpt lat="48.75048" lon="-3.27288">
        <ele>11.8</ele>
        <time>2021-03-28T12:24:54Z</time>
      </trkpt>
      <trkpt lat="48.75048" lon="-3.27285">
        <ele>11.8</ele>
        <time>2021-03-28T12:24:55Z</time>
      </trkpt>
      <trkpt lat="48.75049" lon="-3.27283">
        <ele>11.7</ele>
        <time>2021-03-28T12:24:56Z</time>
      </trkpt>
      <trkpt lat="48.75048" lon="-3.2728">
        <ele>11.7</ele>
        <time>2021-03-28T12:24:57Z</time>
      </trkpt>
      <trkpt lat="48.75047" lon="-3.27278">
        <ele>11.7</ele>
        <time>2021-03-28T12:24:59Z</time>
      </trkpt>
      <trkpt lat="48.75047" lon="-3.27277">
        <ele>11.7</ele>
        <time>2021-03-28T12:25:00Z</time>
      </trkpt>
      <trkpt lat="48.75046" lon="-3.27276">
        <ele>11.6</ele>
        <time>2021-03-28T12:25:01Z</time>
      </trkpt>
      <trkpt lat="48.75046" lon="-3.27274">
        <ele>11.6</ele>
        <time>2021-03-28T12:25:02Z</time>
      </trkpt>
      <trkpt lat="48.75044" lon="-3.2727">
        <ele>11.6</ele>
        <time>2021-03-28T12:25:04Z</time>
      </trkpt>
      <trkpt lat="48.75043" lon="-3.27269">
        <ele>11.6</ele>
        <time>2021-03-28T12:25:05Z</time>
      </trkpt>
      <trkpt lat="48.75041" lon="-3.27267">
        <ele>11.5</ele>
        <time>2021-03-28T12:25:06Z</time>
      </trkpt>
      <trkpt lat="48.7504" lon="-3.27266">
        <ele>11.5</ele>
        <time>2021-03-28T12:25:07Z</time>
      </trkpt>
      <trkpt lat="48.75038" lon="-3.27265">
        <ele>11.5</ele>
        <time>2021-03-28T12:25:09Z</time>
      </trkpt>
      <trkpt lat="48.75037" lon="-3.27262">
        <ele>11.5</ele>
        <time>2021-03-28T12:25:10Z</time>
      </trkpt>
      <trkpt lat="48.75036" lon="-3.27261">
        <ele>11.4</ele>
        <time>2021-03-28T12:25:11Z</time>
      </trkpt>
      <trkpt lat="48.75034" lon="-3.27258">
        <ele>11.4</ele>
        <time>2021-03-28T12:25:12Z</time>
      </trkpt>
      <trkpt lat="48.75034" lon="-3.27256">
        <ele>11.4</ele>
        <time>2021-03-28T12:25:14Z</time>
      </trkpt>
      <trkpt lat="48.75033" lon="-3.27255">
        <ele>11.4</ele>
        <time>2021-03-28T12:25:15Z</time>
      </trkpt>
      <trkpt lat="48.75032" lon="-3.27253">
        <ele>11.4</ele>
        <time>2021-03-28T12:25:16Z</time>
      </trkpt>
      <trkpt lat="48.7503" lon="-3.27252">
        <ele>11.4</ele>
        <time>2021-03-28T12:25:17Z</time>
      </trkpt>
      <trkpt lat="48.75028" lon="-3.27251">
        <ele>11.4</ele>
        <time>2021-03-28T12:25:19Z</time>
      </trkpt>
      <trkpt lat="48.75025" lon="-3.27249">
        <ele>11.4</ele>
        <time>2021-03-28T12:25:20Z</time>
      </trkpt>
      <trkpt lat="48.75024" lon="-3.27249">
        <ele>11.4</ele>
        <time>2021-03-28T12:25:21Z</time>
      </trkpt>
      <trkpt lat="48.75023" lon="-3.27248">
        <ele>11.4</ele>
        <time>2021-03-28T12:25:23Z</time>
      </trkpt>
      <trkpt lat="48.75022" lon="-3.27246">
        <ele>11.4</ele>
        <time>2021-03-28T12:25:24Z</time>
      </trkpt>
      <trkpt lat="48.75021" lon="-3.27245">
        <ele>11.4</ele>
        <time>2021-03-28T12:25:25Z</time>
      </trkpt>
      <trkpt lat="48.7502" lon="-3.27243">
        <ele>11.4</ele>
        <time>2021-03-28T12:25:26Z</time>
      </trkpt>
      <trkpt lat="48.7502" lon="-3.2724">
        <ele>11.4</ele>
        <time>2021-03-28T12:25:27Z</time>
      </trkpt>
      <trkpt lat="48.75019" lon="-3.27236">
        <ele>11.4</ele>
        <time>2021-03-28T12:25:29Z</time>
      </trkpt>
      <trkpt lat="48.75018" lon="-3.27233">
        <ele>11.4</ele>
        <time>2021-03-28T12:25:30Z</time>
      </trkpt>
      <trkpt lat="48.75017" lon="-3.27231">
        <ele>11.4</ele>
        <time>2021-03-28T12:25:31Z</time>
      </trkpt>
      <trkpt lat="48.75017" lon="-3.27229">
        <ele>11.4</ele>
        <time>2021-03-28T12:25:33Z</time>
      </trkpt>
      <trkpt lat="48.75016" lon="-3.27228">
        <ele>11.4</ele>
        <time>2021-03-28T12:25:34Z</time>
      </trkpt>
      <trkpt lat="48.75016" lon="-3.27226">
        <ele>11.4</ele>
        <time>2021-03-28T12:25:35Z</time>
      </trkpt>
      <trkpt lat="48.75014" lon="-3.27224">
        <ele>11.4</ele>
        <time>2021-03-28T12:25:36Z</time>
      </trkpt>
      <trkpt lat="48.75013" lon="-3.27222">
        <ele>11.4</ele>
        <time>2021-03-28T12:25:38Z</time>
      </trkpt>
      <trkpt lat="48.75012" lon="-3.27221">
        <ele>11.4</ele>
        <time>2021-03-28T12:25:39Z</time>
      </trkpt>
      <trkpt lat="48.75012" lon="-3.27218">
        <ele>11.4</ele>
        <time>2021-03-28T12:25:40Z</time>
      </trkpt>
      <trkpt lat="48.75011" lon="-3.27216">
        <ele>11.3</ele>
        <time>2021-03-28T12:25:41Z</time>
      </trkpt>
      <trkpt lat="48.75009" lon="-3.27214">
        <ele>11.3</ele>
        <time>2021-03-28T12:25:43Z</time>
      </trkpt>
      <trkpt lat="48.75009" lon="-3.27211">
        <ele>11.3</ele>
        <time>2021-03-28T12:25:44Z</time>
      </trkpt>
      <trkpt lat="48.75008" lon="-3.27208">
        <ele>11.3</ele>
        <time>2021-03-28T12:25:45Z</time>
      </trkpt>
      <trkpt lat="48.75007" lon="-3.27206">
        <ele>11.3</ele>
        <time>2021-03-28T12:25:46Z</time>
      </trkpt>
      <trkpt lat="48.75007" lon="-3.27203">
        <ele>11.3</ele>
        <time>2021-03-28T12:25:48Z</time>
      </trkpt>
      <trkpt lat="48.75006" lon="-3.27199">
        <ele>11.3</ele>
        <time>2021-03-28T12:25:50Z</time>
      </trkpt>
      <trkpt lat="48.75005" lon="-3.27195">
        <ele>11.3</ele>
        <time>2021-03-28T12:25:51Z</time>
      </trkpt>
      <trkpt lat="48.75004" lon="-3.27194">
        <ele>11.3</ele>
        <time>2021-03-28T12:25:52Z</time>
      </trkpt>
      <trkpt lat="48.75004" lon="-3.27193">
        <ele>11.3</ele>
        <time>2021-03-28T12:25:54Z</time>
      </trkpt>
      <trkpt lat="48.75004" lon="-3.27191">
        <ele>11.3</ele>
        <time>2021-03-28T12:25:55Z</time>
      </trkpt>
      <trkpt lat="48.75003" lon="-3.27186">
        <ele>11.2</ele>
        <time>2021-03-28T12:25:57Z</time>
      </trkpt>
      <trkpt lat="48.75002" lon="-3.27183">
        <ele>11.2</ele>
        <time>2021-03-28T12:25:59Z</time>
      </trkpt>
      <trkpt lat="48.75002" lon="-3.27182">
        <ele>11.2</ele>
        <time>2021-03-28T12:26:00Z</time>
      </trkpt>
      <trkpt lat="48.75002" lon="-3.2718">
        <ele>11.2</ele>
        <time>2021-03-28T12:26:01Z</time>
      </trkpt>
      <trkpt lat="48.75002" lon="-3.27178">
        <ele>11.2</ele>
        <time>2021-03-28T12:26:02Z</time>
      </trkpt>
      <trkpt lat="48.75001" lon="-3.27175">
        <ele>11.2</ele>
        <time>2021-03-28T12:26:03Z</time>
      </trkpt>
      <trkpt lat="48.75001" lon="-3.27173">
        <ele>11.2</ele>
        <time>2021-03-28T12:26:05Z</time>
      </trkpt>
      <trkpt lat="48.75001" lon="-3.27171">
        <ele>11.2</ele>
        <time>2021-03-28T12:26:06Z</time>
      </trkpt>
      <trkpt lat="48.75001" lon="-3.27169">
        <ele>11.1</ele>
        <time>2021-03-28T12:26:07Z</time>
      </trkpt>
      <trkpt lat="48.75" lon="-3.27164">
        <ele>11.1</ele>
        <time>2021-03-28T12:26:09Z</time>
      </trkpt>
      <trkpt lat="48.74999" lon="-3.27163">
        <ele>11.1</ele>
        <time>2021-03-28T12:26:10Z</time>
      </trkpt>
      <trkpt lat="48.75" lon="-3.27159">
        <ele>11.1</ele>
        <time>2021-03-28T12:26:11Z</time>
      </trkpt>
      <trkpt lat="48.75" lon="-3.27158">
        <ele>11.1</ele>
        <time>2021-03-28T12:26:12Z</time>
      </trkpt>
      <trkpt lat="48.75" lon="-3.27155">
        <ele>11.1</ele>
        <time>2021-03-28T12:26:14Z</time>
      </trkpt>
      <trkpt lat="48.75" lon="-3.27151">
        <ele>11</ele>
        <time>2021-03-28T12:26:16Z</time>
      </trkpt>
      <trkpt lat="48.75" lon="-3.27148">
        <ele>11</ele>
        <time>2021-03-28T12:26:17Z</time>
      </trkpt>
      <trkpt lat="48.75" lon="-3.27145">
        <ele>11</ele>
        <time>2021-03-28T12:26:19Z</time>
      </trkpt>
      <trkpt lat="48.75001" lon="-3.27141">
        <ele>11</ele>
        <time>2021-03-28T12:26:21Z</time>
      </trkpt>
      <trkpt lat="48.75001" lon="-3.2714">
        <ele>11</ele>
        <time>2021-03-28T12:26:22Z</time>
      </trkpt>
      <trkpt lat="48.75002" lon="-3.27137">
        <ele>10.9</ele>
        <time>2021-03-28T12:26:24Z</time>
      </trkpt>
      <trkpt lat="48.75001" lon="-3.27132">
        <ele>10.9</ele>
        <time>2021-03-28T12:26:26Z</time>
      </trkpt>
      <trkpt lat="48.75" lon="-3.27129">
        <ele>10.9</ele>
        <time>2021-03-28T12:26:27Z</time>
      </trkpt>
      <trkpt lat="48.75" lon="-3.27128">
        <ele>10.9</ele>
        <time>2021-03-28T12:26:29Z</time>
      </trkpt>
      <trkpt lat="48.75002" lon="-3.27127">
        <ele>10.9</ele>
        <time>2021-03-28T12:26:30Z</time>
      </trkpt>
      <trkpt lat="48.75002" lon="-3.27122">
        <ele>10.9</ele>
        <time>2021-03-28T12:26:32Z</time>
      </trkpt>
      <trkpt lat="48.75001" lon="-3.2712">
        <ele>10.9</ele>
        <time>2021-03-28T12:26:34Z</time>
      </trkpt>
      <trkpt lat="48.75001" lon="-3.27118">
        <ele>10.8</ele>
        <time>2021-03-28T12:26:35Z</time>
      </trkpt>
      <trkpt lat="48.74999" lon="-3.27114">
        <ele>10.8</ele>
        <time>2021-03-28T12:26:36Z</time>
      </trkpt>
      <trkpt lat="48.74999" lon="-3.27113">
        <ele>10.8</ele>
        <time>2021-03-28T12:26:37Z</time>
      </trkpt>
      <trkpt lat="48.74998" lon="-3.27111">
        <ele>10.8</ele>
        <time>2021-03-28T12:26:39Z</time>
      </trkpt>
      <trkpt lat="48.74997" lon="-3.2711">
        <ele>10.8</ele>
        <time>2021-03-28T12:26:40Z</time>
      </trkpt>
      <trkpt lat="48.74997" lon="-3.27108">
        <ele>10.8</ele>
        <time>2021-03-28T12:26:41Z</time>
      </trkpt>
      <trkpt lat="48.74995" lon="-3.27105">
        <ele>10.7</ele>
        <time>2021-03-28T12:26:42Z</time>
      </trkpt>
      <trkpt lat="48.74994" lon="-3.27104">
        <ele>10.7</ele>
        <time>2021-03-28T12:26:43Z</time>
      </trkpt>
      <trkpt lat="48.74993" lon="-3.27103">
        <ele>10.7</ele>
        <time>2021-03-28T12:26:45Z</time>
      </trkpt>
      <trkpt lat="48.74992" lon="-3.27101">
        <ele>10.7</ele>
        <time>2021-03-28T12:26:46Z</time>
      </trkpt>
      <trkpt lat="48.74989" lon="-3.27097">
        <ele>10.6</ele>
        <time>2021-03-28T12:26:48Z</time>
      </trkpt>
      <trkpt lat="48.74989" lon="-3.27097">
        <ele>10.6</ele>
        <time>2021-03-28T12:26:49Z</time>
      </trkpt>
      <trkpt lat="48.74988" lon="-3.27094">
        <ele>10.5</ele>
        <time>2021-03-28T12:26:50Z</time>
      </trkpt>
      <trkpt lat="48.74987" lon="-3.27091">
        <ele>10.5</ele>
        <time>2021-03-28T12:26:52Z</time>
      </trkpt>
      <trkpt lat="48.74986" lon="-3.27089">
        <ele>10.4</ele>
        <time>2021-03-28T12:26:53Z</time>
      </trkpt>
      <trkpt lat="48.74986" lon="-3.27087">
        <ele>10.4</ele>
        <time>2021-03-28T12:26:54Z</time>
      </trkpt>
      <trkpt lat="48.74985" lon="-3.27083">
        <ele>10.4</ele>
        <time>2021-03-28T12:26:56Z</time>
      </trkpt>
      <trkpt lat="48.74985" lon="-3.2708">
        <ele>10.3</ele>
        <time>2021-03-28T12:26:57Z</time>
      </trkpt>
      <trkpt lat="48.74985" lon="-3.27078">
        <ele>10.3</ele>
        <time>2021-03-28T12:26:58Z</time>
      </trkpt>
      <trkpt lat="48.74984" lon="-3.27073">
        <ele>10.2</ele>
        <time>2021-03-28T12:27:00Z</time>
      </trkpt>
      <trkpt lat="48.74983" lon="-3.27072">
        <ele>10.2</ele>
        <time>2021-03-28T12:27:01Z</time>
      </trkpt>
      <trkpt lat="48.74983" lon="-3.27071">
        <ele>10.1</ele>
        <time>2021-03-28T12:27:02Z</time>
      </trkpt>
      <trkpt lat="48.74982" lon="-3.27069">
        <ele>10.1</ele>
        <time>2021-03-28T12:27:03Z</time>
      </trkpt>
      <trkpt lat="48.74982" lon="-3.27068">
        <ele>10.1</ele>
        <time>2021-03-28T12:27:05Z</time>
      </trkpt>
      <trkpt lat="48.74981" lon="-3.27066">
        <ele>10.1</ele>
        <time>2021-03-28T12:27:06Z</time>
      </trkpt>
      <trkpt lat="48.7498" lon="-3.27063">
        <ele>10</ele>
        <time>2021-03-28T12:27:07Z</time>
      </trkpt>
      <trkpt lat="48.74979" lon="-3.2706">
        <ele>9.9</ele>
        <time>2021-03-28T12:27:08Z</time>
      </trkpt>
      <trkpt lat="48.74977" lon="-3.27056">
        <ele>9.9</ele>
        <time>2021-03-28T12:27:10Z</time>
      </trkpt>
      <trkpt lat="48.74976" lon="-3.27055">
        <ele>9.8</ele>
        <time>2021-03-28T12:27:11Z</time>
      </trkpt>
      <trkpt lat="48.74976" lon="-3.27053">
        <ele>9.8</ele>
        <time>2021-03-28T12:27:12Z</time>
      </trkpt>
      <trkpt lat="48.74976" lon="-3.27051">
        <ele>9.8</ele>
        <time>2021-03-28T12:27:14Z</time>
      </trkpt>
      <trkpt lat="48.74975" lon="-3.27049">
        <ele>9.7</ele>
        <time>2021-03-28T12:27:15Z</time>
      </trkpt>
      <trkpt lat="48.74975" lon="-3.27047">
        <ele>9.7</ele>
        <time>2021-03-28T12:27:16Z</time>
      </trkpt>
      <trkpt lat="48.74974" lon="-3.27042">
        <ele>9.7</ele>
        <time>2021-03-28T12:27:18Z</time>
      </trkpt>
      <trkpt lat="48.74974" lon="-3.2704">
        <ele>9.6</ele>
        <time>2021-03-28T12:27:19Z</time>
      </trkpt>
      <trkpt lat="48.74974" lon="-3.27037">
        <ele>9.6</ele>
        <time>2021-03-28T12:27:21Z</time>
      </trkpt>
      <trkpt lat="48.74974" lon="-3.27035">
        <ele>9.6</ele>
        <time>2021-03-28T12:27:22Z</time>
      </trkpt>
      <trkpt lat="48.74973" lon="-3.27031">
        <ele>9.5</ele>
        <time>2021-03-28T12:27:23Z</time>
      </trkpt>
      <trkpt lat="48.74973" lon="-3.27029">
        <ele>9.5</ele>
        <time>2021-03-28T12:27:24Z</time>
      </trkpt>
      <trkpt lat="48.74972" lon="-3.27026">
        <ele>9.5</ele>
        <time>2021-03-28T12:27:26Z</time>
      </trkpt>
      <trkpt lat="48.74971" lon="-3.27022">
        <ele>9.5</ele>
        <time>2021-03-28T12:27:28Z</time>
      </trkpt>
      <trkpt lat="48.74971" lon="-3.2702">
        <ele>9.4</ele>
        <time>2021-03-28T12:27:29Z</time>
      </trkpt>
      <trkpt lat="48.74971" lon="-3.27015">
        <ele>9.4</ele>
        <time>2021-03-28T12:27:31Z</time>
      </trkpt>
      <trkpt lat="48.7497" lon="-3.27011">
        <ele>9.4</ele>
        <time>2021-03-28T12:27:33Z</time>
      </trkpt>
      <trkpt lat="48.74971" lon="-3.27009">
        <ele>9.4</ele>
        <time>2021-03-28T12:27:34Z</time>
      </trkpt>
      <trkpt lat="48.7497" lon="-3.27007">
        <ele>9.3</ele>
        <time>2021-03-28T12:27:36Z</time>
      </trkpt>
      <trkpt lat="48.74971" lon="-3.27004">
        <ele>9.3</ele>
        <time>2021-03-28T12:27:38Z</time>
      </trkpt>
      <trkpt lat="48.74971" lon="-3.27002">
        <ele>9.3</ele>
        <time>2021-03-28T12:27:39Z</time>
      </trkpt>
      <trkpt lat="48.74971" lon="-3.27">
        <ele>9.3</ele>
        <time>2021-03-28T12:27:40Z</time>
      </trkpt>
      <trkpt lat="48.7497" lon="-3.26996">
        <ele>9.3</ele>
        <time>2021-03-28T12:27:42Z</time>
      </trkpt>
      <trkpt lat="48.7497" lon="-3.26993">
        <ele>9.3</ele>
        <time>2021-03-28T12:27:43Z</time>
      </trkpt>
      <trkpt lat="48.74969" lon="-3.26991">
        <ele>9.3</ele>
        <time>2021-03-28T12:27:44Z</time>
      </trkpt>
      <trkpt lat="48.74969" lon="-3.26988">
        <ele>9.3</ele>
        <time>2021-03-28T12:27:46Z</time>
      </trkpt>
      <trkpt lat="48.74968" lon="-3.26986">
        <ele>9.3</ele>
        <time>2021-03-28T12:27:47Z</time>
      </trkpt>
      <trkpt lat="48.74968" lon="-3.26985">
        <ele>9.3</ele>
        <time>2021-03-28T12:27:48Z</time>
      </trkpt>
      <trkpt lat="48.74967" lon="-3.26984">
        <ele>9.3</ele>
        <time>2021-03-28T12:27:50Z</time>
      </trkpt>
      <trkpt lat="48.74967" lon="-3.26982">
        <ele>9.4</ele>
        <time>2021-03-28T12:27:51Z</time>
      </trkpt>
      <trkpt lat="48.74968" lon="-3.26979">
        <ele>9.4</ele>
        <time>2021-03-28T12:27:53Z</time>
      </trkpt>
      <trkpt lat="48.74968" lon="-3.26978">
        <ele>9.5</ele>
        <time>2021-03-28T12:27:54Z</time>
      </trkpt>
      <trkpt lat="48.74969" lon="-3.26977">
        <ele>9.5</ele>
        <time>2021-03-28T12:27:55Z</time>
      </trkpt>
      <trkpt lat="48.7497" lon="-3.26974">
        <ele>9.6</ele>
        <time>2021-03-28T12:27:57Z</time>
      </trkpt>
      <trkpt lat="48.74971" lon="-3.26972">
        <ele>9.6</ele>
        <time>2021-03-28T12:27:58Z</time>
      </trkpt>
      <trkpt lat="48.74972" lon="-3.2697">
        <ele>9.7</ele>
        <time>2021-03-28T12:28:00Z</time>
      </trkpt>
      <trkpt lat="48.74973" lon="-3.26968">
        <ele>9.7</ele>
        <time>2021-03-28T12:28:01Z</time>
      </trkpt>
      <trkpt lat="48.74973" lon="-3.26964">
        <ele>9.9</ele>
        <time>2021-03-28T12:28:03Z</time>
      </trkpt>
      <trkpt lat="48.74973" lon="-3.26961">
        <ele>9.9</ele>
        <time>2021-03-28T12:28:05Z</time>
      </trkpt>
      <trkpt lat="48.74973" lon="-3.26959">
        <ele>10</ele>
        <time>2021-03-28T12:28:06Z</time>
      </trkpt>
      <trkpt lat="48.74973" lon="-3.26955">
        <ele>10</ele>
        <time>2021-03-28T12:28:07Z</time>
      </trkpt>
      <trkpt lat="48.74972" lon="-3.26954">
        <ele>9.9</ele>
        <time>2021-03-28T12:28:08Z</time>
      </trkpt>
      <trkpt lat="48.74972" lon="-3.26953">
        <ele>9.9</ele>
        <time>2021-03-28T12:28:09Z</time>
      </trkpt>
      <trkpt lat="48.74971" lon="-3.26951">
        <ele>9.8</ele>
        <time>2021-03-28T12:28:11Z</time>
      </trkpt>
      <trkpt lat="48.7497" lon="-3.26949">
        <ele>9.7</ele>
        <time>2021-03-28T12:28:13Z</time>
      </trkpt>
      <trkpt lat="48.74968" lon="-3.26947">
        <ele>9.6</ele>
        <time>2021-03-28T12:28:14Z</time>
      </trkpt>
      <trkpt lat="48.74967" lon="-3.26945">
        <ele>9.5</ele>
        <time>2021-03-28T12:28:16Z</time>
      </trkpt>
      <trkpt lat="48.74967" lon="-3.26944">
        <ele>9.5</ele>
        <time>2021-03-28T12:28:17Z</time>
      </trkpt>
      <trkpt lat="48.74966" lon="-3.26943">
        <ele>9.4</ele>
        <time>2021-03-28T12:28:18Z</time>
      </trkpt>
      <trkpt lat="48.74965" lon="-3.2694">
        <ele>9.3</ele>
        <time>2021-03-28T12:28:20Z</time>
      </trkpt>
      <trkpt lat="48.74964" lon="-3.26938">
        <ele>9.2</ele>
        <time>2021-03-28T12:28:21Z</time>
      </trkpt>
      <trkpt lat="48.74963" lon="-3.26936">
        <ele>9.1</ele>
        <time>2021-03-28T12:28:22Z</time>
      </trkpt>
      <trkpt lat="48.74962" lon="-3.26934">
        <ele>9</ele>
        <time>2021-03-28T12:28:24Z</time>
      </trkpt>
      <trkpt lat="48.74961" lon="-3.26932">
        <ele>8.9</ele>
        <time>2021-03-28T12:28:25Z</time>
      </trkpt>
      <trkpt lat="48.7496" lon="-3.26931">
        <ele>8.8</ele>
        <time>2021-03-28T12:28:26Z</time>
      </trkpt>
      <trkpt lat="48.74959" lon="-3.26929">
        <ele>8.7</ele>
        <time>2021-03-28T12:28:27Z</time>
      </trkpt>
      <trkpt lat="48.74958" lon="-3.26927">
        <ele>8.6</ele>
        <time>2021-03-28T12:28:29Z</time>
      </trkpt>
      <trkpt lat="48.74957" lon="-3.26925">
        <ele>8.5</ele>
        <time>2021-03-28T12:28:30Z</time>
      </trkpt>
      <trkpt lat="48.74956" lon="-3.26922">
        <ele>8.4</ele>
        <time>2021-03-28T12:28:31Z</time>
      </trkpt>
      <trkpt lat="48.74955" lon="-3.26921">
        <ele>8.3</ele>
        <time>2021-03-28T12:28:33Z</time>
      </trkpt>
      <trkpt lat="48.74955" lon="-3.2692">
        <ele>8.2</ele>
        <time>2021-03-28T12:28:34Z</time>
      </trkpt>
      <trkpt lat="48.74954" lon="-3.26918">
        <ele>8.1</ele>
        <time>2021-03-28T12:28:35Z</time>
      </trkpt>
      <trkpt lat="48.74953" lon="-3.26916">
        <ele>8</ele>
        <time>2021-03-28T12:28:36Z</time>
      </trkpt>
      <trkpt lat="48.74952" lon="-3.26914">
        <ele>7.9</ele>
        <time>2021-03-28T12:28:38Z</time>
      </trkpt>
      <trkpt lat="48.7495" lon="-3.2691">
        <ele>7.7</ele>
        <time>2021-03-28T12:28:39Z</time>
      </trkpt>
      <trkpt lat="48.74949" lon="-3.26909">
        <ele>7.6</ele>
        <time>2021-03-28T12:28:40Z</time>
      </trkpt>
      <trkpt lat="48.74948" lon="-3.26907">
        <ele>7.5</ele>
        <time>2021-03-28T12:28:41Z</time>
      </trkpt>
      <trkpt lat="48.74947" lon="-3.26906">
        <ele>7.4</ele>
        <time>2021-03-28T12:28:43Z</time>
      </trkpt>
      <trkpt lat="48.74945" lon="-3.26903">
        <ele>7.2</ele>
        <time>2021-03-28T12:28:45Z</time>
      </trkpt>
      <trkpt lat="48.74943" lon="-3.26901">
        <ele>7</ele>
        <time>2021-03-28T12:28:47Z</time>
      </trkpt>
      <trkpt lat="48.74942" lon="-3.269">
        <ele>7</ele>
        <time>2021-03-28T12:28:48Z</time>
      </trkpt>
      <trkpt lat="48.74942" lon="-3.26899">
        <ele>6.9</ele>
        <time>2021-03-28T12:28:49Z</time>
      </trkpt>
      <trkpt lat="48.7494" lon="-3.26898">
        <ele>6.8</ele>
        <time>2021-03-28T12:28:50Z</time>
      </trkpt>
      <trkpt lat="48.74939" lon="-3.26897">
        <ele>6.8</ele>
        <time>2021-03-28T12:28:51Z</time>
      </trkpt>
      <trkpt lat="48.74939" lon="-3.26895">
        <ele>6.7</ele>
        <time>2021-03-28T12:28:53Z</time>
      </trkpt>
      <trkpt lat="48.74938" lon="-3.26894">
        <ele>6.6</ele>
        <time>2021-03-28T12:28:54Z</time>
      </trkpt>
      <trkpt lat="48.74936" lon="-3.26892">
        <ele>6.5</ele>
        <time>2021-03-28T12:28:56Z</time>
      </trkpt>
      <trkpt lat="48.74934" lon="-3.26888">
        <ele>6.4</ele>
        <time>2021-03-28T12:28:58Z</time>
      </trkpt>
      <trkpt lat="48.74934" lon="-3.26887">
        <ele>6.4</ele>
        <time>2021-03-28T12:28:59Z</time>
      </trkpt>
      <trkpt lat="48.74933" lon="-3.26884">
        <ele>6.3</ele>
        <time>2021-03-28T12:29:00Z</time>
      </trkpt>
      <trkpt lat="48.74932" lon="-3.26881">
        <ele>6.2</ele>
        <time>2021-03-28T12:29:02Z</time>
      </trkpt>
      <trkpt lat="48.74932" lon="-3.2688">
        <ele>6.2</ele>
        <time>2021-03-28T12:29:03Z</time>
      </trkpt>
      <trkpt lat="48.74932" lon="-3.26876">
        <ele>6.2</ele>
        <time>2021-03-28T12:29:04Z</time>
      </trkpt>
      <trkpt lat="48.74932" lon="-3.26874">
        <ele>6.1</ele>
        <time>2021-03-28T12:29:06Z</time>
      </trkpt>
      <trkpt lat="48.74932" lon="-3.26873">
        <ele>6.1</ele>
        <time>2021-03-28T12:29:07Z</time>
      </trkpt>
      <trkpt lat="48.74931" lon="-3.26869">
        <ele>6.1</ele>
        <time>2021-03-28T12:29:09Z</time>
      </trkpt>
      <trkpt lat="48.74929" lon="-3.26869">
        <ele>6.1</ele>
        <time>2021-03-28T12:29:10Z</time>
      </trkpt>
      <trkpt lat="48.74927" lon="-3.26868">
        <ele>6.1</ele>
        <time>2021-03-28T12:29:11Z</time>
      </trkpt>
      <trkpt lat="48.74925" lon="-3.26866">
        <ele>6.1</ele>
        <time>2021-03-28T12:29:13Z</time>
      </trkpt>
      <trkpt lat="48.74924" lon="-3.26863">
        <ele>6.1</ele>
        <time>2021-03-28T12:29:15Z</time>
      </trkpt>
      <trkpt lat="48.74925" lon="-3.26856">
        <ele>6.1</ele>
        <time>2021-03-28T12:29:17Z</time>
      </trkpt>
      <trkpt lat="48.74925" lon="-3.26854">
        <ele>6.1</ele>
        <time>2021-03-28T12:29:18Z</time>
      </trkpt>
      <trkpt lat="48.74925" lon="-3.26853">
        <ele>6.1</ele>
        <time>2021-03-28T12:29:19Z</time>
      </trkpt>
      <trkpt lat="48.74926" lon="-3.26849">
        <ele>6.1</ele>
        <time>2021-03-28T12:29:21Z</time>
      </trkpt>
      <trkpt lat="48.74927" lon="-3.26845">
        <ele>6.1</ele>
        <time>2021-03-28T12:29:22Z</time>
      </trkpt>
      <trkpt lat="48.74927" lon="-3.26844">
        <ele>6.1</ele>
        <time>2021-03-28T12:29:23Z</time>
      </trkpt>
      <trkpt lat="48.74928" lon="-3.26842">
        <ele>6.1</ele>
        <time>2021-03-28T12:29:25Z</time>
      </trkpt>
      <trkpt lat="48.74929" lon="-3.2684">
        <ele>6.1</ele>
        <time>2021-03-28T12:29:26Z</time>
      </trkpt>
      <trkpt lat="48.74929" lon="-3.26838">
        <ele>6.1</ele>
        <time>2021-03-28T12:29:27Z</time>
      </trkpt>
      <trkpt lat="48.7493" lon="-3.26837">
        <ele>6.1</ele>
        <time>2021-03-28T12:29:28Z</time>
      </trkpt>
      <trkpt lat="48.74931" lon="-3.26834">
        <ele>6.2</ele>
        <time>2021-03-28T12:29:30Z</time>
      </trkpt>
      <trkpt lat="48.74932" lon="-3.2683">
        <ele>6.2</ele>
        <time>2021-03-28T12:29:32Z</time>
      </trkpt>
      <trkpt lat="48.74932" lon="-3.26828">
        <ele>6.2</ele>
        <time>2021-03-28T12:29:34Z</time>
      </trkpt>
      <trkpt lat="48.74933" lon="-3.26825">
        <ele>6.2</ele>
        <time>2021-03-28T12:29:35Z</time>
      </trkpt>
      <trkpt lat="48.74934" lon="-3.26824">
        <ele>6.2</ele>
        <time>2021-03-28T12:29:36Z</time>
      </trkpt>
      <trkpt lat="48.74934" lon="-3.26822">
        <ele>6.2</ele>
        <time>2021-03-28T12:29:37Z</time>
      </trkpt>
      <trkpt lat="48.74936" lon="-3.26819">
        <ele>6.3</ele>
        <time>2021-03-28T12:29:39Z</time>
      </trkpt>
      <trkpt lat="48.74938" lon="-3.26817">
        <ele>6.3</ele>
        <time>2021-03-28T12:29:40Z</time>
      </trkpt>
      <trkpt lat="48.74939" lon="-3.26816">
        <ele>6.3</ele>
        <time>2021-03-28T12:29:41Z</time>
      </trkpt>
      <trkpt lat="48.7494" lon="-3.26814">
        <ele>6.3</ele>
        <time>2021-03-28T12:29:43Z</time>
      </trkpt>
      <trkpt lat="48.7494" lon="-3.26812">
        <ele>6.3</ele>
        <time>2021-03-28T12:29:44Z</time>
      </trkpt>
      <trkpt lat="48.74942" lon="-3.26811">
        <ele>6.3</ele>
        <time>2021-03-28T12:29:45Z</time>
      </trkpt>
      <trkpt lat="48.74943" lon="-3.26809">
        <ele>6.4</ele>
        <time>2021-03-28T12:29:46Z</time>
      </trkpt>
      <trkpt lat="48.74945" lon="-3.26808">
        <ele>6.4</ele>
        <time>2021-03-28T12:29:47Z</time>
      </trkpt>
      <trkpt lat="48.74946" lon="-3.26807">
        <ele>6.4</ele>
        <time>2021-03-28T12:29:49Z</time>
      </trkpt>
      <trkpt lat="48.74949" lon="-3.26805">
        <ele>6.5</ele>
        <time>2021-03-28T12:29:51Z</time>
      </trkpt>
      <trkpt lat="48.74951" lon="-3.26804">
        <ele>6.5</ele>
        <time>2021-03-28T12:29:52Z</time>
      </trkpt>
      <trkpt lat="48.74953" lon="-3.26803">
        <ele>6.5</ele>
        <time>2021-03-28T12:29:54Z</time>
      </trkpt>
      <trkpt lat="48.74955" lon="-3.26801">
        <ele>6.5</ele>
        <time>2021-03-28T12:29:56Z</time>
      </trkpt>
      <trkpt lat="48.74956" lon="-3.26799">
        <ele>6.6</ele>
        <time>2021-03-28T12:29:58Z</time>
      </trkpt>
      <trkpt lat="48.74958" lon="-3.26798">
        <ele>6.6</ele>
        <time>2021-03-28T12:29:59Z</time>
      </trkpt>
      <trkpt lat="48.74959" lon="-3.26796">
        <ele>6.6</ele>
        <time>2021-03-28T12:30:00Z</time>
      </trkpt>
      <trkpt lat="48.74961" lon="-3.26795">
        <ele>6.6</ele>
        <time>2021-03-28T12:30:02Z</time>
      </trkpt>
      <trkpt lat="48.74962" lon="-3.26794">
        <ele>6.7</ele>
        <time>2021-03-28T12:30:03Z</time>
      </trkpt>
      <trkpt lat="48.74965" lon="-3.26793">
        <ele>6.7</ele>
        <time>2021-03-28T12:30:05Z</time>
      </trkpt>
      <trkpt lat="48.74966" lon="-3.26792">
        <ele>6.7</ele>
        <time>2021-03-28T12:30:06Z</time>
      </trkpt>
      <trkpt lat="48.74967" lon="-3.26791">
        <ele>6.7</ele>
        <time>2021-03-28T12:30:07Z</time>
      </trkpt>
      <trkpt lat="48.7497" lon="-3.2679">
        <ele>6.8</ele>
        <time>2021-03-28T12:30:09Z</time>
      </trkpt>
      <trkpt lat="48.74972" lon="-3.26788">
        <ele>6.8</ele>
        <time>2021-03-28T12:30:10Z</time>
      </trkpt>
      <trkpt lat="48.74973" lon="-3.26787">
        <ele>6.8</ele>
        <time>2021-03-28T12:30:12Z</time>
      </trkpt>
      <trkpt lat="48.74973" lon="-3.26787">
        <ele>6.8</ele>
        <time>2021-03-28T12:30:13Z</time>
      </trkpt>
      <trkpt lat="48.74975" lon="-3.26785">
        <ele>6.8</ele>
        <time>2021-03-28T12:30:15Z</time>
      </trkpt>
      <trkpt lat="48.74976" lon="-3.26784">
        <ele>6.8</ele>
        <time>2021-03-28T12:30:16Z</time>
      </trkpt>
      <trkpt lat="48.74976" lon="-3.26783">
        <ele>6.8</ele>
        <time>2021-03-28T12:30:17Z</time>
      </trkpt>
      <trkpt lat="48.74978" lon="-3.26782">
        <ele>6.9</ele>
        <time>2021-03-28T12:30:19Z</time>
      </trkpt>
      <trkpt lat="48.74978" lon="-3.26781">
        <ele>6.9</ele>
        <time>2021-03-28T12:30:20Z</time>
      </trkpt>
      <trkpt lat="48.74979" lon="-3.2678">
        <ele>6.9</ele>
        <time>2021-03-28T12:30:21Z</time>
      </trkpt>
      <trkpt lat="48.7498" lon="-3.26778">
        <ele>6.9</ele>
        <time>2021-03-28T12:30:22Z</time>
      </trkpt>
      <trkpt lat="48.7498" lon="-3.26776">
        <ele>6.9</ele>
        <time>2021-03-28T12:30:24Z</time>
      </trkpt>
      <trkpt lat="48.74982" lon="-3.26774">
        <ele>6.9</ele>
        <time>2021-03-28T12:30:25Z</time>
      </trkpt>
      <trkpt lat="48.74983" lon="-3.26772">
        <ele>6.9</ele>
        <time>2021-03-28T12:30:26Z</time>
      </trkpt>
      <trkpt lat="48.74984" lon="-3.2677">
        <ele>6.9</ele>
        <time>2021-03-28T12:30:28Z</time>
      </trkpt>
      <trkpt lat="48.74985" lon="-3.26767">
        <ele>7</ele>
        <time>2021-03-28T12:30:29Z</time>
      </trkpt>
      <trkpt lat="48.74986" lon="-3.26764">
        <ele>7</ele>
        <time>2021-03-28T12:30:30Z</time>
      </trkpt>
      <trkpt lat="48.74987" lon="-3.26761">
        <ele>7.1</ele>
        <time>2021-03-28T12:30:32Z</time>
      </trkpt>
      <trkpt lat="48.74987" lon="-3.26759">
        <ele>7.1</ele>
        <time>2021-03-28T12:30:33Z</time>
      </trkpt>
      <trkpt lat="48.74988" lon="-3.26755">
        <ele>7.1</ele>
        <time>2021-03-28T12:30:35Z</time>
      </trkpt>
      <trkpt lat="48.74988" lon="-3.26751">
        <ele>7.2</ele>
        <time>2021-03-28T12:30:36Z</time>
      </trkpt>
      <trkpt lat="48.74988" lon="-3.26749">
        <ele>7.2</ele>
        <time>2021-03-28T12:30:38Z</time>
      </trkpt>
      <trkpt lat="48.74988" lon="-3.26745">
        <ele>7.3</ele>
        <time>2021-03-28T12:30:39Z</time>
      </trkpt>
      <trkpt lat="48.74987" lon="-3.26743">
        <ele>7.3</ele>
        <time>2021-03-28T12:30:40Z</time>
      </trkpt>
      <trkpt lat="48.74987" lon="-3.26742">
        <ele>7.3</ele>
        <time>2021-03-28T12:30:41Z</time>
      </trkpt>
      <trkpt lat="48.74986" lon="-3.26739">
        <ele>7.3</ele>
        <time>2021-03-28T12:30:43Z</time>
      </trkpt>
      <trkpt lat="48.74986" lon="-3.26737">
        <ele>7.4</ele>
        <time>2021-03-28T12:30:44Z</time>
      </trkpt>
      <trkpt lat="48.74985" lon="-3.26735">
        <ele>7.4</ele>
        <time>2021-03-28T12:30:45Z</time>
      </trkpt>
      <trkpt lat="48.74985" lon="-3.26733">
        <ele>7.4</ele>
        <time>2021-03-28T12:30:46Z</time>
      </trkpt>
      <trkpt lat="48.74984" lon="-3.2673">
        <ele>7.5</ele>
        <time>2021-03-28T12:30:47Z</time>
      </trkpt>
      <trkpt lat="48.74983" lon="-3.26728">
        <ele>7.5</ele>
        <time>2021-03-28T12:30:49Z</time>
      </trkpt>
      <trkpt lat="48.74982" lon="-3.26725">
        <ele>7.5</ele>
        <time>2021-03-28T12:30:50Z</time>
      </trkpt>
      <trkpt lat="48.74982" lon="-3.26723">
        <ele>7.6</ele>
        <time>2021-03-28T12:30:51Z</time>
      </trkpt>
      <trkpt lat="48.74981" lon="-3.26721">
        <ele>7.6</ele>
        <time>2021-03-28T12:30:53Z</time>
      </trkpt>
      <trkpt lat="48.7498" lon="-3.26719">
        <ele>7.6</ele>
        <time>2021-03-28T12:30:54Z</time>
      </trkpt>
      <trkpt lat="48.74979" lon="-3.26717">
        <ele>7.6</ele>
        <time>2021-03-28T12:30:55Z</time>
      </trkpt>
      <trkpt lat="48.74978" lon="-3.26714">
        <ele>7.7</ele>
        <time>2021-03-28T12:30:56Z</time>
      </trkpt>
      <trkpt lat="48.74978" lon="-3.26712">
        <ele>7.7</ele>
        <time>2021-03-28T12:30:58Z</time>
      </trkpt>
      <trkpt lat="48.74977" lon="-3.26708">
        <ele>7.7</ele>
        <time>2021-03-28T12:31:00Z</time>
      </trkpt>
      <trkpt lat="48.74976" lon="-3.26704">
        <ele>7.8</ele>
        <time>2021-03-28T12:31:02Z</time>
      </trkpt>
      <trkpt lat="48.74976" lon="-3.26703">
        <ele>7.8</ele>
        <time>2021-03-28T12:31:03Z</time>
      </trkpt>
      <trkpt lat="48.74975" lon="-3.267">
        <ele>7.8</ele>
        <time>2021-03-28T12:31:05Z</time>
      </trkpt>
      <trkpt lat="48.74975" lon="-3.26698">
        <ele>7.8</ele>
        <time>2021-03-28T12:31:06Z</time>
      </trkpt>
      <trkpt lat="48.74974" lon="-3.26695">
        <ele>7.9</ele>
        <time>2021-03-28T12:31:07Z</time>
      </trkpt>
      <trkpt lat="48.74973" lon="-3.26693">
        <ele>7.9</ele>
        <time>2021-03-28T12:31:09Z</time>
      </trkpt>
      <trkpt lat="48.74972" lon="-3.26691">
        <ele>7.9</ele>
        <time>2021-03-28T12:31:10Z</time>
      </trkpt>
      <trkpt lat="48.74971" lon="-3.26689">
        <ele>7.9</ele>
        <time>2021-03-28T12:31:12Z</time>
      </trkpt>
      <trkpt lat="48.74971" lon="-3.26687">
        <ele>7.9</ele>
        <time>2021-03-28T12:31:14Z</time>
      </trkpt>
      <trkpt lat="48.7497" lon="-3.26685">
        <ele>7.9</ele>
        <time>2021-03-28T12:31:15Z</time>
      </trkpt>
      <trkpt lat="48.74969" lon="-3.26682">
        <ele>7.7</ele>
        <time>2021-03-28T12:31:17Z</time>
      </trkpt>
      <trkpt lat="48.74969" lon="-3.26681">
        <ele>7.7</ele>
        <time>2021-03-28T12:31:18Z</time>
      </trkpt>
      <trkpt lat="48.74968" lon="-3.26682">
        <ele>7.6</ele>
        <time>2021-03-28T12:31:20Z</time>
      </trkpt>
      <trkpt lat="48.74966" lon="-3.26683">
        <ele>7.5</ele>
        <time>2021-03-28T12:31:21Z</time>
      </trkpt>
      <trkpt lat="48.74965" lon="-3.26683">
        <ele>7.4</ele>
        <time>2021-03-28T12:31:22Z</time>
      </trkpt>
      <trkpt lat="48.74963" lon="-3.26684">
        <ele>7.3</ele>
        <time>2021-03-28T12:31:23Z</time>
      </trkpt>
      <trkpt lat="48.74962" lon="-3.26685">
        <ele>7.2</ele>
        <time>2021-03-28T12:31:24Z</time>
      </trkpt>
      <trkpt lat="48.7496" lon="-3.26685">
        <ele>7.1</ele>
        <time>2021-03-28T12:31:26Z</time>
      </trkpt>
      <trkpt lat="48.74959" lon="-3.26686">
        <ele>7.1</ele>
        <time>2021-03-28T12:31:27Z</time>
      </trkpt>
      <trkpt lat="48.74957" lon="-3.26688">
        <ele>6.9</ele>
        <time>2021-03-28T12:31:29Z</time>
      </trkpt>
      <trkpt lat="48.74956" lon="-3.26689">
        <ele>6.8</ele>
        <time>2021-03-28T12:31:30Z</time>
      </trkpt>
      <trkpt lat="48.74954" lon="-3.26689">
        <ele>6.7</ele>
        <time>2021-03-28T12:31:31Z</time>
      </trkpt>
      <trkpt lat="48.74952" lon="-3.26689">
        <ele>6.6</ele>
        <time>2021-03-28T12:31:33Z</time>
      </trkpt>
      <trkpt lat="48.7495" lon="-3.26685">
        <ele>6.5</ele>
        <time>2021-03-28T12:31:35Z</time>
      </trkpt>
      <trkpt lat="48.74949" lon="-3.26684">
        <ele>6.4</ele>
        <time>2021-03-28T12:31:36Z</time>
      </trkpt>
      <trkpt lat="48.74948" lon="-3.26684">
        <ele>6.3</ele>
        <time>2021-03-28T12:31:37Z</time>
      </trkpt>
      <trkpt lat="48.74945" lon="-3.26685">
        <ele>6.2</ele>
        <time>2021-03-28T12:31:38Z</time>
      </trkpt>
      <trkpt lat="48.74944" lon="-3.26686">
        <ele>6.2</ele>
        <time>2021-03-28T12:31:39Z</time>
      </trkpt>
      <trkpt lat="48.7494" lon="-3.26687">
        <ele>6.1</ele>
        <time>2021-03-28T12:31:41Z</time>
      </trkpt>
      <trkpt lat="48.74939" lon="-3.26688">
        <ele>6</ele>
        <time>2021-03-28T12:31:42Z</time>
      </trkpt>
      <trkpt lat="48.74938" lon="-3.26688">
        <ele>6</ele>
        <time>2021-03-28T12:31:43Z</time>
      </trkpt>
      <trkpt lat="48.74936" lon="-3.26687">
        <ele>5.9</ele>
        <time>2021-03-28T12:31:44Z</time>
      </trkpt>
      <trkpt lat="48.74935" lon="-3.26686">
        <ele>5.9</ele>
        <time>2021-03-28T12:31:46Z</time>
      </trkpt>
      <trkpt lat="48.74933" lon="-3.26687">
        <ele>5.8</ele>
        <time>2021-03-28T12:31:48Z</time>
      </trkpt>
      <trkpt lat="48.74934" lon="-3.26688">
        <ele>5.8</ele>
        <time>2021-03-28T12:31:50Z</time>
      </trkpt>
      <trkpt lat="48.74934" lon="-3.26688">
        <ele>5.8</ele>
        <time>2021-03-28T12:31:51Z</time>
      </trkpt>
      <trkpt lat="48.74933" lon="-3.26688">
        <ele>5.8</ele>
        <time>2021-03-28T12:31:52Z</time>
      </trkpt>
      <trkpt lat="48.74932" lon="-3.26688">
        <ele>5.8</ele>
        <time>2021-03-28T12:31:54Z</time>
      </trkpt>
      <trkpt lat="48.7493" lon="-3.26687">
        <ele>5.7</ele>
        <time>2021-03-28T12:31:55Z</time>
      </trkpt>
      <trkpt lat="48.74929" lon="-3.26685">
        <ele>5.7</ele>
        <time>2021-03-28T12:31:56Z</time>
      </trkpt>
      <trkpt lat="48.74927" lon="-3.26682">
        <ele>5.6</ele>
        <time>2021-03-28T12:31:58Z</time>
      </trkpt>
      <trkpt lat="48.74924" lon="-3.26681">
        <ele>5.6</ele>
        <time>2021-03-28T12:31:59Z</time>
      </trkpt>
      <trkpt lat="48.74923" lon="-3.26681">
        <ele>5.6</ele>
        <time>2021-03-28T12:32:00Z</time>
      </trkpt>
      <trkpt lat="48.74922" lon="-3.26681">
        <ele>5.6</ele>
        <time>2021-03-28T12:32:01Z</time>
      </trkpt>
      <trkpt lat="48.7492" lon="-3.26681">
        <ele>5.5</ele>
        <time>2021-03-28T12:32:03Z</time>
      </trkpt>
      <trkpt lat="48.74919" lon="-3.26681">
        <ele>5.5</ele>
        <time>2021-03-28T12:32:04Z</time>
      </trkpt>
      <trkpt lat="48.74917" lon="-3.26681">
        <ele>5.5</ele>
        <time>2021-03-28T12:32:05Z</time>
      </trkpt>
      <trkpt lat="48.74915" lon="-3.26681">
        <ele>5.5</ele>
        <time>2021-03-28T12:32:06Z</time>
      </trkpt>
      <trkpt lat="48.74913" lon="-3.2668">
        <ele>5.5</ele>
        <time>2021-03-28T12:32:08Z</time>
      </trkpt>
      <trkpt lat="48.74911" lon="-3.2668">
        <ele>5.5</ele>
        <time>2021-03-28T12:32:09Z</time>
      </trkpt>
      <trkpt lat="48.7491" lon="-3.2668">
        <ele>5.5</ele>
        <time>2021-03-28T12:32:10Z</time>
      </trkpt>
      <trkpt lat="48.74908" lon="-3.26681">
        <ele>5.4</ele>
        <time>2021-03-28T12:32:11Z</time>
      </trkpt>
      <trkpt lat="48.74907" lon="-3.26681">
        <ele>5.4</ele>
        <time>2021-03-28T12:32:13Z</time>
      </trkpt>
      <trkpt lat="48.74905" lon="-3.26681">
        <ele>5.4</ele>
        <time>2021-03-28T12:32:14Z</time>
      </trkpt>
      <trkpt lat="48.74902" lon="-3.26682">
        <ele>5.4</ele>
        <time>2021-03-28T12:32:16Z</time>
      </trkpt>
      <trkpt lat="48.749" lon="-3.2668">
        <ele>5.4</ele>
        <time>2021-03-28T12:32:17Z</time>
      </trkpt>
      <trkpt lat="48.74898" lon="-3.26679">
        <ele>5.4</ele>
        <time>2021-03-28T12:32:19Z</time>
      </trkpt>
      <trkpt lat="48.74895" lon="-3.26678">
        <ele>5.4</ele>
        <time>2021-03-28T12:32:21Z</time>
      </trkpt>
      <trkpt lat="48.74894" lon="-3.26678">
        <ele>5.4</ele>
        <time>2021-03-28T12:32:22Z</time>
      </trkpt>
      <trkpt lat="48.74892" lon="-3.26678">
        <ele>5.4</ele>
        <time>2021-03-28T12:32:23Z</time>
      </trkpt>
      <trkpt lat="48.7489" lon="-3.26677">
        <ele>5.3</ele>
        <time>2021-03-28T12:32:24Z</time>
      </trkpt>
      <trkpt lat="48.74889" lon="-3.26677">
        <ele>5.3</ele>
        <time>2021-03-28T12:32:26Z</time>
      </trkpt>
      <trkpt lat="48.74887" lon="-3.26676">
        <ele>5.3</ele>
        <time>2021-03-28T12:32:27Z</time>
      </trkpt>
      <trkpt lat="48.74886" lon="-3.26675">
        <ele>5.3</ele>
        <time>2021-03-28T12:32:28Z</time>
      </trkpt>
      <trkpt lat="48.74883" lon="-3.26673">
        <ele>5.3</ele>
        <time>2021-03-28T12:32:30Z</time>
      </trkpt>
      <trkpt lat="48.74882" lon="-3.26673">
        <ele>5.3</ele>
        <time>2021-03-28T12:32:31Z</time>
      </trkpt>
      <trkpt lat="48.74881" lon="-3.26672">
        <ele>5.3</ele>
        <time>2021-03-28T12:32:32Z</time>
      </trkpt>
      <trkpt lat="48.74879" lon="-3.26671">
        <ele>5.3</ele>
        <time>2021-03-28T12:32:34Z</time>
      </trkpt>
      <trkpt lat="48.74878" lon="-3.2667">
        <ele>5.3</ele>
        <time>2021-03-28T12:32:35Z</time>
      </trkpt>
      <trkpt lat="48.74875" lon="-3.26669">
        <ele>5.3</ele>
        <time>2021-03-28T12:32:37Z</time>
      </trkpt>
      <trkpt lat="48.74872" lon="-3.26667">
        <ele>5.2</ele>
        <time>2021-03-28T12:32:39Z</time>
      </trkpt>
      <trkpt lat="48.74871" lon="-3.26667">
        <ele>5.2</ele>
        <time>2021-03-28T12:32:40Z</time>
      </trkpt>
      <trkpt lat="48.74867" lon="-3.26664">
        <ele>5.2</ele>
        <time>2021-03-28T12:32:42Z</time>
      </trkpt>
      <trkpt lat="48.74866" lon="-3.26663">
        <ele>5.2</ele>
        <time>2021-03-28T12:32:43Z</time>
      </trkpt>
      <trkpt lat="48.74865" lon="-3.26663">
        <ele>5.2</ele>
        <time>2021-03-28T12:32:45Z</time>
      </trkpt>
      <trkpt lat="48.74864" lon="-3.26662">
        <ele>5.2</ele>
        <time>2021-03-28T12:32:46Z</time>
      </trkpt>
      <trkpt lat="48.74862" lon="-3.26661">
        <ele>5.2</ele>
        <time>2021-03-28T12:32:47Z</time>
      </trkpt>
      <trkpt lat="48.7486" lon="-3.2666">
        <ele>5.2</ele>
        <time>2021-03-28T12:32:49Z</time>
      </trkpt>
      <trkpt lat="48.74859" lon="-3.26659">
        <ele>5.2</ele>
        <time>2021-03-28T12:32:50Z</time>
      </trkpt>
      <trkpt lat="48.74857" lon="-3.26658">
        <ele>5.2</ele>
        <time>2021-03-28T12:32:51Z</time>
      </trkpt>
      <trkpt lat="48.74856" lon="-3.26656">
        <ele>5.2</ele>
        <time>2021-03-28T12:32:52Z</time>
      </trkpt>
      <trkpt lat="48.74855" lon="-3.26655">
        <ele>5.2</ele>
        <time>2021-03-28T12:32:53Z</time>
      </trkpt>
      <trkpt lat="48.74852" lon="-3.26655">
        <ele>5.2</ele>
        <time>2021-03-28T12:32:55Z</time>
      </trkpt>
      <trkpt lat="48.74851" lon="-3.26654">
        <ele>5.2</ele>
        <time>2021-03-28T12:32:56Z</time>
      </trkpt>
      <trkpt lat="48.7485" lon="-3.26653">
        <ele>5.2</ele>
        <time>2021-03-28T12:32:57Z</time>
      </trkpt>
      <trkpt lat="48.74848" lon="-3.26653">
        <ele>5.1</ele>
        <time>2021-03-28T12:32:59Z</time>
      </trkpt>
      <trkpt lat="48.74847" lon="-3.26652">
        <ele>5.1</ele>
        <time>2021-03-28T12:33:00Z</time>
      </trkpt>
      <trkpt lat="48.74845" lon="-3.2665">
        <ele>5.1</ele>
        <time>2021-03-28T12:33:02Z</time>
      </trkpt>
      <trkpt lat="48.74841" lon="-3.26651">
        <ele>5.1</ele>
        <time>2021-03-28T12:33:04Z</time>
      </trkpt>
      <trkpt lat="48.7484" lon="-3.2665">
        <ele>5.1</ele>
        <time>2021-03-28T12:33:05Z</time>
      </trkpt>
      <trkpt lat="48.74838" lon="-3.26649">
        <ele>5.1</ele>
        <time>2021-03-28T12:33:07Z</time>
      </trkpt>
      <trkpt lat="48.74837" lon="-3.26648">
        <ele>5.1</ele>
        <time>2021-03-28T12:33:08Z</time>
      </trkpt>
      <trkpt lat="48.74836" lon="-3.26646">
        <ele>5.1</ele>
        <time>2021-03-28T12:33:09Z</time>
      </trkpt>
      <trkpt lat="48.74833" lon="-3.26645">
        <ele>5.1</ele>
        <time>2021-03-28T12:33:10Z</time>
      </trkpt>
      <trkpt lat="48.74832" lon="-3.26643">
        <ele>5.1</ele>
        <time>2021-03-28T12:33:12Z</time>
      </trkpt>
      <trkpt lat="48.7483" lon="-3.26642">
        <ele>5.1</ele>
        <time>2021-03-28T12:33:13Z</time>
      </trkpt>
      <trkpt lat="48.74828" lon="-3.2664">
        <ele>5</ele>
        <time>2021-03-28T12:33:15Z</time>
      </trkpt>
      <trkpt lat="48.74828" lon="-3.26639">
        <ele>5</ele>
        <time>2021-03-28T12:33:16Z</time>
      </trkpt>
      <trkpt lat="48.74827" lon="-3.26636">
        <ele>5</ele>
        <time>2021-03-28T12:33:18Z</time>
      </trkpt>
      <trkpt lat="48.74826" lon="-3.26634">
        <ele>5</ele>
        <time>2021-03-28T12:33:19Z</time>
      </trkpt>
      <trkpt lat="48.74825" lon="-3.26632">
        <ele>5</ele>
        <time>2021-03-28T12:33:20Z</time>
      </trkpt>
      <trkpt lat="48.74824" lon="-3.26631">
        <ele>5</ele>
        <time>2021-03-28T12:33:22Z</time>
      </trkpt>
      <trkpt lat="48.74822" lon="-3.26631">
        <ele>5</ele>
        <time>2021-03-28T12:33:23Z</time>
      </trkpt>
      <trkpt lat="48.7482" lon="-3.2663">
        <ele>5</ele>
        <time>2021-03-28T12:33:24Z</time>
      </trkpt>
      <trkpt lat="48.74819" lon="-3.26629">
        <ele>5</ele>
        <time>2021-03-28T12:33:26Z</time>
      </trkpt>
      <trkpt lat="48.74818" lon="-3.26628">
        <ele>5</ele>
        <time>2021-03-28T12:33:27Z</time>
      </trkpt>
      <trkpt lat="48.74816" lon="-3.26626">
        <ele>5</ele>
        <time>2021-03-28T12:33:29Z</time>
      </trkpt>
      <trkpt lat="48.74814" lon="-3.26625">
        <ele>5</ele>
        <time>2021-03-28T12:33:31Z</time>
      </trkpt>
      <trkpt lat="48.74811" lon="-3.26626">
        <ele>5</ele>
        <time>2021-03-28T12:33:33Z</time>
      </trkpt>
      <trkpt lat="48.7481" lon="-3.26626">
        <ele>5</ele>
        <time>2021-03-28T12:33:34Z</time>
      </trkpt>
      <trkpt lat="48.74808" lon="-3.26626">
        <ele>5</ele>
        <time>2021-03-28T12:33:36Z</time>
      </trkpt>
      <trkpt lat="48.74806" lon="-3.26625">
        <ele>5</ele>
        <time>2021-03-28T12:33:37Z</time>
      </trkpt>
      <trkpt lat="48.74804" lon="-3.26624">
        <ele>5</ele>
        <time>2021-03-28T12:33:38Z</time>
      </trkpt>
      <trkpt lat="48.74802" lon="-3.26622">
        <ele>5</ele>
        <time>2021-03-28T12:33:39Z</time>
      </trkpt>
      <trkpt lat="48.74801" lon="-3.26622">
        <ele>5</ele>
        <time>2021-03-28T12:33:41Z</time>
      </trkpt>
      <trkpt lat="48.74801" lon="-3.26622">
        <ele>5</ele>
        <time>2021-03-28T12:33:42Z</time>
      </trkpt>
      <trkpt lat="48.74799" lon="-3.26621">
        <ele>5</ele>
        <time>2021-03-28T12:33:43Z</time>
      </trkpt>
      <trkpt lat="48.74797" lon="-3.26621">
        <ele>5</ele>
        <time>2021-03-28T12:33:44Z</time>
      </trkpt>
      <trkpt lat="48.74796" lon="-3.2662">
        <ele>5</ele>
        <time>2021-03-28T12:33:46Z</time>
      </trkpt>
      <trkpt lat="48.74793" lon="-3.26619">
        <ele>5</ele>
        <time>2021-03-28T12:33:48Z</time>
      </trkpt>
      <trkpt lat="48.7479" lon="-3.26619">
        <ele>5</ele>
        <time>2021-03-28T12:33:50Z</time>
      </trkpt>
      <trkpt lat="48.74789" lon="-3.26619">
        <ele>5</ele>
        <time>2021-03-28T12:33:51Z</time>
      </trkpt>
      <trkpt lat="48.74787" lon="-3.26619">
        <ele>5</ele>
        <time>2021-03-28T12:33:52Z</time>
      </trkpt>
      <trkpt lat="48.74786" lon="-3.26618">
        <ele>5</ele>
        <time>2021-03-28T12:33:53Z</time>
      </trkpt>
      <trkpt lat="48.74785" lon="-3.26618">
        <ele>5</ele>
        <time>2021-03-28T12:33:55Z</time>
      </trkpt>
      <trkpt lat="48.74783" lon="-3.26618">
        <ele>5</ele>
        <time>2021-03-28T12:33:56Z</time>
      </trkpt>
      <trkpt lat="48.74782" lon="-3.26618">
        <ele>5</ele>
        <time>2021-03-28T12:33:57Z</time>
      </trkpt>
      <trkpt lat="48.7478" lon="-3.26617">
        <ele>5</ele>
        <time>2021-03-28T12:33:58Z</time>
      </trkpt>
      <trkpt lat="48.74778" lon="-3.26616">
        <ele>5</ele>
        <time>2021-03-28T12:33:59Z</time>
      </trkpt>
      <trkpt lat="48.74777" lon="-3.26616">
        <ele>5</ele>
        <time>2021-03-28T12:34:01Z</time>
      </trkpt>
      <trkpt lat="48.74777" lon="-3.26616">
        <ele>5</ele>
        <time>2021-03-28T12:34:02Z</time>
      </trkpt>
      <trkpt lat="48.74776" lon="-3.26615">
        <ele>5</ele>
        <time>2021-03-28T12:34:03Z</time>
      </trkpt>
      <trkpt lat="48.74775" lon="-3.26615">
        <ele>5</ele>
        <time>2021-03-28T12:34:04Z</time>
      </trkpt>
      <trkpt lat="48.74772" lon="-3.26614">
        <ele>5</ele>
        <time>2021-03-28T12:34:06Z</time>
      </trkpt>
      <trkpt lat="48.7477" lon="-3.26612">
        <ele>5</ele>
        <time>2021-03-28T12:34:07Z</time>
      </trkpt>
      <trkpt lat="48.74769" lon="-3.26612">
        <ele>5</ele>
        <time>2021-03-28T12:34:08Z</time>
      </trkpt>
      <trkpt lat="48.74767" lon="-3.26611">
        <ele>5</ele>
        <time>2021-03-28T12:34:09Z</time>
      </trkpt>
      <trkpt lat="48.74765" lon="-3.2661">
        <ele>5</ele>
        <time>2021-03-28T12:34:11Z</time>
      </trkpt>
      <trkpt lat="48.74763" lon="-3.26608">
        <ele>4.9</ele>
        <time>2021-03-28T12:34:12Z</time>
      </trkpt>
      <trkpt lat="48.74762" lon="-3.26608">
        <ele>4.9</ele>
        <time>2021-03-28T12:34:13Z</time>
      </trkpt>
      <trkpt lat="48.74759" lon="-3.26605">
        <ele>4.9</ele>
        <time>2021-03-28T12:34:14Z</time>
      </trkpt>
      <trkpt lat="48.74758" lon="-3.26604">
        <ele>4.9</ele>
        <time>2021-03-28T12:34:16Z</time>
      </trkpt>
      <trkpt lat="48.74757" lon="-3.26603">
        <ele>4.9</ele>
        <time>2021-03-28T12:34:17Z</time>
      </trkpt>
      <trkpt lat="48.74755" lon="-3.26602">
        <ele>4.9</ele>
        <time>2021-03-28T12:34:18Z</time>
      </trkpt>
      <trkpt lat="48.74754" lon="-3.26601">
        <ele>4.9</ele>
        <time>2021-03-28T12:34:20Z</time>
      </trkpt>
      <trkpt lat="48.74752" lon="-3.26601">
        <ele>4.9</ele>
        <time>2021-03-28T12:34:21Z</time>
      </trkpt>
      <trkpt lat="48.74751" lon="-3.266">
        <ele>4.9</ele>
        <time>2021-03-28T12:34:22Z</time>
      </trkpt>
      <trkpt lat="48.74749" lon="-3.26599">
        <ele>4.9</ele>
        <time>2021-03-28T12:34:23Z</time>
      </trkpt>
      <trkpt lat="48.74748" lon="-3.26598">
        <ele>4.9</ele>
        <time>2021-03-28T12:34:24Z</time>
      </trkpt>
      <trkpt lat="48.74746" lon="-3.26596">
        <ele>4.8</ele>
        <time>2021-03-28T12:34:26Z</time>
      </trkpt>
      <trkpt lat="48.74744" lon="-3.26595">
        <ele>4.8</ele>
        <time>2021-03-28T12:34:27Z</time>
      </trkpt>
      <trkpt lat="48.74742" lon="-3.26593">
        <ele>4.8</ele>
        <time>2021-03-28T12:34:29Z</time>
      </trkpt>
      <trkpt lat="48.74741" lon="-3.26593">
        <ele>4.8</ele>
        <time>2021-03-28T12:34:30Z</time>
      </trkpt>
      <trkpt lat="48.74739" lon="-3.26591">
        <ele>4.8</ele>
        <time>2021-03-28T12:34:32Z</time>
      </trkpt>
      <trkpt lat="48.74736" lon="-3.26588">
        <ele>4.8</ele>
        <time>2021-03-28T12:34:33Z</time>
      </trkpt>
      <trkpt lat="48.74735" lon="-3.26588">
        <ele>4.8</ele>
        <time>2021-03-28T12:34:34Z</time>
      </trkpt>
      <trkpt lat="48.74733" lon="-3.26586">
        <ele>4.8</ele>
        <time>2021-03-28T12:34:35Z</time>
      </trkpt>
      <trkpt lat="48.74732" lon="-3.26585">
        <ele>4.8</ele>
        <time>2021-03-28T12:34:37Z</time>
      </trkpt>
      <trkpt lat="48.74731" lon="-3.26584">
        <ele>4.8</ele>
        <time>2021-03-28T12:34:38Z</time>
      </trkpt>
      <trkpt lat="48.7473" lon="-3.26583">
        <ele>4.8</ele>
        <time>2021-03-28T12:34:39Z</time>
      </trkpt>
      <trkpt lat="48.74729" lon="-3.26581">
        <ele>4.8</ele>
        <time>2021-03-28T12:34:40Z</time>
      </trkpt>
      <trkpt lat="48.74727" lon="-3.2658">
        <ele>4.7</ele>
        <time>2021-03-28T12:34:42Z</time>
      </trkpt>
      <trkpt lat="48.74726" lon="-3.26579">
        <ele>4.7</ele>
        <time>2021-03-28T12:34:43Z</time>
      </trkpt>
      <trkpt lat="48.74725" lon="-3.26578">
        <ele>4.7</ele>
        <time>2021-03-28T12:34:44Z</time>
      </trkpt>
      <trkpt lat="48.74724" lon="-3.26576">
        <ele>4.7</ele>
        <time>2021-03-28T12:34:45Z</time>
      </trkpt>
      <trkpt lat="48.74723" lon="-3.26574">
        <ele>4.7</ele>
        <time>2021-03-28T12:34:46Z</time>
      </trkpt>
      <trkpt lat="48.7472" lon="-3.26573">
        <ele>4.7</ele>
        <time>2021-03-28T12:34:48Z</time>
      </trkpt>
      <trkpt lat="48.74719" lon="-3.26571">
        <ele>4.7</ele>
        <time>2021-03-28T12:34:49Z</time>
      </trkpt>
      <trkpt lat="48.74718" lon="-3.2657">
        <ele>4.7</ele>
        <time>2021-03-28T12:34:50Z</time>
      </trkpt>
      <trkpt lat="48.74715" lon="-3.26569">
        <ele>4.7</ele>
        <time>2021-03-28T12:34:51Z</time>
      </trkpt>
      <trkpt lat="48.74714" lon="-3.26567">
        <ele>4.6</ele>
        <time>2021-03-28T12:34:53Z</time>
      </trkpt>
      <trkpt lat="48.74713" lon="-3.26566">
        <ele>4.6</ele>
        <time>2021-03-28T12:34:54Z</time>
      </trkpt>
      <trkpt lat="48.74711" lon="-3.26565">
        <ele>4.6</ele>
        <time>2021-03-28T12:34:55Z</time>
      </trkpt>
      <trkpt lat="48.7471" lon="-3.26563">
        <ele>4.6</ele>
        <time>2021-03-28T12:34:57Z</time>
      </trkpt>
      <trkpt lat="48.74709" lon="-3.26562">
        <ele>4.6</ele>
        <time>2021-03-28T12:34:58Z</time>
      </trkpt>
      <trkpt lat="48.74708" lon="-3.26561">
        <ele>4.6</ele>
        <time>2021-03-28T12:34:59Z</time>
      </trkpt>
      <trkpt lat="48.74707" lon="-3.2656">
        <ele>4.6</ele>
        <time>2021-03-28T12:35:00Z</time>
      </trkpt>
      <trkpt lat="48.74706" lon="-3.26559">
        <ele>4.6</ele>
        <time>2021-03-28T12:35:01Z</time>
      </trkpt>
      <trkpt lat="48.74705" lon="-3.26558">
        <ele>4.6</ele>
        <time>2021-03-28T12:35:03Z</time>
      </trkpt>
      <trkpt lat="48.74703" lon="-3.26557">
        <ele>4.5</ele>
        <time>2021-03-28T12:35:04Z</time>
      </trkpt>
      <trkpt lat="48.74701" lon="-3.26555">
        <ele>4.5</ele>
        <time>2021-03-28T12:35:06Z</time>
      </trkpt>
      <trkpt lat="48.747" lon="-3.26554">
        <ele>4.5</ele>
        <time>2021-03-28T12:35:07Z</time>
      </trkpt>
      <trkpt lat="48.74699" lon="-3.2655">
        <ele>4.5</ele>
        <time>2021-03-28T12:35:08Z</time>
      </trkpt>
      <trkpt lat="48.74698" lon="-3.26548">
        <ele>4.5</ele>
        <time>2021-03-28T12:35:10Z</time>
      </trkpt>
      <trkpt lat="48.74697" lon="-3.26546">
        <ele>4.5</ele>
        <time>2021-03-28T12:35:11Z</time>
      </trkpt>
      <trkpt lat="48.74695" lon="-3.26543">
        <ele>4.5</ele>
        <time>2021-03-28T12:35:13Z</time>
      </trkpt>
      <trkpt lat="48.74694" lon="-3.26542">
        <ele>4.4</ele>
        <time>2021-03-28T12:35:14Z</time>
      </trkpt>
      <trkpt lat="48.74692" lon="-3.26541">
        <ele>4.4</ele>
        <time>2021-03-28T12:35:15Z</time>
      </trkpt>
      <trkpt lat="48.7469" lon="-3.2654">
        <ele>4.4</ele>
        <time>2021-03-28T12:35:17Z</time>
      </trkpt>
      <trkpt lat="48.74689" lon="-3.2654">
        <ele>4.4</ele>
        <time>2021-03-28T12:35:18Z</time>
      </trkpt>
      <trkpt lat="48.74687" lon="-3.26539">
        <ele>4.4</ele>
        <time>2021-03-28T12:35:20Z</time>
      </trkpt>
      <trkpt lat="48.74686" lon="-3.26539">
        <ele>4.4</ele>
        <time>2021-03-28T12:35:21Z</time>
      </trkpt>
      <trkpt lat="48.74684" lon="-3.26537">
        <ele>4.4</ele>
        <time>2021-03-28T12:35:22Z</time>
      </trkpt>
      <trkpt lat="48.74683" lon="-3.26536">
        <ele>4.4</ele>
        <time>2021-03-28T12:35:23Z</time>
      </trkpt>
      <trkpt lat="48.74682" lon="-3.26534">
        <ele>4.4</ele>
        <time>2021-03-28T12:35:25Z</time>
      </trkpt>
      <trkpt lat="48.74681" lon="-3.26533">
        <ele>4.4</ele>
        <time>2021-03-28T12:35:26Z</time>
      </trkpt>
      <trkpt lat="48.74678" lon="-3.26531">
        <ele>4.4</ele>
        <time>2021-03-28T12:35:28Z</time>
      </trkpt>
      <trkpt lat="48.74677" lon="-3.26529">
        <ele>4.4</ele>
        <time>2021-03-28T12:35:30Z</time>
      </trkpt>
      <trkpt lat="48.74676" lon="-3.26528">
        <ele>4.3</ele>
        <time>2021-03-28T12:35:31Z</time>
      </trkpt>
      <trkpt lat="48.74673" lon="-3.26526">
        <ele>4.3</ele>
        <time>2021-03-28T12:35:32Z</time>
      </trkpt>
      <trkpt lat="48.74672" lon="-3.26525">
        <ele>4.3</ele>
        <time>2021-03-28T12:35:33Z</time>
      </trkpt>
      <trkpt lat="48.74671" lon="-3.26524">
        <ele>4.3</ele>
        <time>2021-03-28T12:35:35Z</time>
      </trkpt>
      <trkpt lat="48.74669" lon="-3.26523">
        <ele>4.3</ele>
        <time>2021-03-28T12:35:36Z</time>
      </trkpt>
      <trkpt lat="48.74668" lon="-3.26521">
        <ele>4.3</ele>
        <time>2021-03-28T12:35:37Z</time>
      </trkpt>
      <trkpt lat="48.74667" lon="-3.2652">
        <ele>4.3</ele>
        <time>2021-03-28T12:35:39Z</time>
      </trkpt>
      <trkpt lat="48.74666" lon="-3.26519">
        <ele>4.3</ele>
        <time>2021-03-28T12:35:40Z</time>
      </trkpt>
      <trkpt lat="48.74664" lon="-3.26516">
        <ele>4.3</ele>
        <time>2021-03-28T12:35:41Z</time>
      </trkpt>
      <trkpt lat="48.74663" lon="-3.26516">
        <ele>4.3</ele>
        <time>2021-03-28T12:35:42Z</time>
      </trkpt>
      <trkpt lat="48.74662" lon="-3.26514">
        <ele>4.2</ele>
        <time>2021-03-28T12:35:44Z</time>
      </trkpt>
      <trkpt lat="48.7466" lon="-3.26513">
        <ele>4.2</ele>
        <time>2021-03-28T12:35:45Z</time>
      </trkpt>
      <trkpt lat="48.74659" lon="-3.26511">
        <ele>4.2</ele>
        <time>2021-03-28T12:35:46Z</time>
      </trkpt>
      <trkpt lat="48.74658" lon="-3.2651">
        <ele>4.2</ele>
        <time>2021-03-28T12:35:47Z</time>
      </trkpt>
      <trkpt lat="48.74657" lon="-3.26509">
        <ele>4.2</ele>
        <time>2021-03-28T12:35:48Z</time>
      </trkpt>
      <trkpt lat="48.74656" lon="-3.26507">
        <ele>4.2</ele>
        <time>2021-03-28T12:35:50Z</time>
      </trkpt>
      <trkpt lat="48.74655" lon="-3.26505">
        <ele>4.2</ele>
        <time>2021-03-28T12:35:51Z</time>
      </trkpt>
      <trkpt lat="48.74652" lon="-3.26503">
        <ele>4.2</ele>
        <time>2021-03-28T12:35:53Z</time>
      </trkpt>
      <trkpt lat="48.74651" lon="-3.26501">
        <ele>4.2</ele>
        <time>2021-03-28T12:35:54Z</time>
      </trkpt>
      <trkpt lat="48.7465" lon="-3.265">
        <ele>4.2</ele>
        <time>2021-03-28T12:35:55Z</time>
      </trkpt>
      <trkpt lat="48.74648" lon="-3.265">
        <ele>4.1</ele>
        <time>2021-03-28T12:35:56Z</time>
      </trkpt>
      <trkpt lat="48.74647" lon="-3.26498">
        <ele>4.1</ele>
        <time>2021-03-28T12:35:58Z</time>
      </trkpt>
      <trkpt lat="48.74645" lon="-3.26497">
        <ele>4.1</ele>
        <time>2021-03-28T12:35:59Z</time>
      </trkpt>
      <trkpt lat="48.74644" lon="-3.26496">
        <ele>4.1</ele>
        <time>2021-03-28T12:36:00Z</time>
      </trkpt>
      <trkpt lat="48.74643" lon="-3.26495">
        <ele>4.1</ele>
        <time>2021-03-28T12:36:01Z</time>
      </trkpt>
      <trkpt lat="48.74641" lon="-3.26494">
        <ele>4.1</ele>
        <time>2021-03-28T12:36:02Z</time>
      </trkpt>
      <trkpt lat="48.7464" lon="-3.26493">
        <ele>4.1</ele>
        <time>2021-03-28T12:36:03Z</time>
      </trkpt>
      <trkpt lat="48.74638" lon="-3.26492">
        <ele>4.1</ele>
        <time>2021-03-28T12:36:05Z</time>
      </trkpt>
      <trkpt lat="48.74637" lon="-3.26491">
        <ele>4.1</ele>
        <time>2021-03-28T12:36:06Z</time>
      </trkpt>
      <trkpt lat="48.74635" lon="-3.2649">
        <ele>4.1</ele>
        <time>2021-03-28T12:36:07Z</time>
      </trkpt>
      <trkpt lat="48.74633" lon="-3.26489">
        <ele>4.1</ele>
        <time>2021-03-28T12:36:09Z</time>
      </trkpt>
      <trkpt lat="48.74631" lon="-3.26488">
        <ele>4.1</ele>
        <time>2021-03-28T12:36:11Z</time>
      </trkpt>
      <trkpt lat="48.7463" lon="-3.26488">
        <ele>4.1</ele>
        <time>2021-03-28T12:36:12Z</time>
      </trkpt>
      <trkpt lat="48.74627" lon="-3.26486">
        <ele>4.2</ele>
        <time>2021-03-28T12:36:14Z</time>
      </trkpt>
      <trkpt lat="48.74626" lon="-3.26485">
        <ele>4.2</ele>
        <time>2021-03-28T12:36:16Z</time>
      </trkpt>
      <trkpt lat="48.74625" lon="-3.26484">
        <ele>4.2</ele>
        <time>2021-03-28T12:36:17Z</time>
      </trkpt>
      <trkpt lat="48.74623" lon="-3.26483">
        <ele>4.2</ele>
        <time>2021-03-28T12:36:18Z</time>
      </trkpt>
      <trkpt lat="48.74621" lon="-3.26482">
        <ele>4.2</ele>
        <time>2021-03-28T12:36:20Z</time>
      </trkpt>
      <trkpt lat="48.7462" lon="-3.26481">
        <ele>4.2</ele>
        <time>2021-03-28T12:36:22Z</time>
      </trkpt>
      <trkpt lat="48.74618" lon="-3.2648">
        <ele>4.2</ele>
        <time>2021-03-28T12:36:23Z</time>
      </trkpt>
      <trkpt lat="48.74617" lon="-3.26478">
        <ele>4.2</ele>
        <time>2021-03-28T12:36:24Z</time>
      </trkpt>
      <trkpt lat="48.74615" lon="-3.26477">
        <ele>4.2</ele>
        <time>2021-03-28T12:36:26Z</time>
      </trkpt>
      <trkpt lat="48.74613" lon="-3.26476">
        <ele>4.2</ele>
        <time>2021-03-28T12:36:27Z</time>
      </trkpt>
      <trkpt lat="48.74611" lon="-3.26474">
        <ele>4.2</ele>
        <time>2021-03-28T12:36:29Z</time>
      </trkpt>
      <trkpt lat="48.7461" lon="-3.26473">
        <ele>4.2</ele>
        <time>2021-03-28T12:36:30Z</time>
      </trkpt>
      <trkpt lat="48.74608" lon="-3.26471">
        <ele>4.2</ele>
        <time>2021-03-28T12:36:31Z</time>
      </trkpt>
      <trkpt lat="48.74607" lon="-3.2647">
        <ele>4.2</ele>
        <time>2021-03-28T12:36:32Z</time>
      </trkpt>
      <trkpt lat="48.74606" lon="-3.26469">
        <ele>4.2</ele>
        <time>2021-03-28T12:36:34Z</time>
      </trkpt>
      <trkpt lat="48.74605" lon="-3.26468">
        <ele>4.2</ele>
        <time>2021-03-28T12:36:35Z</time>
      </trkpt>
      <trkpt lat="48.74604" lon="-3.26467">
        <ele>4.2</ele>
        <time>2021-03-28T12:36:36Z</time>
      </trkpt>
      <trkpt lat="48.74601" lon="-3.26466">
        <ele>4.2</ele>
        <time>2021-03-28T12:36:38Z</time>
      </trkpt>
      <trkpt lat="48.746" lon="-3.26465">
        <ele>4.3</ele>
        <time>2021-03-28T12:36:39Z</time>
      </trkpt>
      <trkpt lat="48.74598" lon="-3.26465">
        <ele>4.3</ele>
        <time>2021-03-28T12:36:40Z</time>
      </trkpt>
      <trkpt lat="48.74597" lon="-3.26465">
        <ele>4.3</ele>
        <time>2021-03-28T12:36:41Z</time>
      </trkpt>
      <trkpt lat="48.74595" lon="-3.26465">
        <ele>4.3</ele>
        <time>2021-03-28T12:36:42Z</time>
      </trkpt>
      <trkpt lat="48.74594" lon="-3.26464">
        <ele>4.3</ele>
        <time>2021-03-28T12:36:44Z</time>
      </trkpt>
      <trkpt lat="48.74593" lon="-3.26463">
        <ele>4.3</ele>
        <time>2021-03-28T12:36:45Z</time>
      </trkpt>
      <trkpt lat="48.74591" lon="-3.26462">
        <ele>4.3</ele>
        <time>2021-03-28T12:36:47Z</time>
      </trkpt>
      <trkpt lat="48.74589" lon="-3.2646">
        <ele>4.4</ele>
        <time>2021-03-28T12:36:48Z</time>
      </trkpt>
      <trkpt lat="48.74587" lon="-3.26459">
        <ele>4.4</ele>
        <time>2021-03-28T12:36:49Z</time>
      </trkpt>
      <trkpt lat="48.74586" lon="-3.26459">
        <ele>4.4</ele>
        <time>2021-03-28T12:36:50Z</time>
      </trkpt>
      <trkpt lat="48.74585" lon="-3.26457">
        <ele>4.4</ele>
        <time>2021-03-28T12:36:52Z</time>
      </trkpt>
      <trkpt lat="48.74583" lon="-3.26456">
        <ele>4.4</ele>
        <time>2021-03-28T12:36:53Z</time>
      </trkpt>
      <trkpt lat="48.74581" lon="-3.26455">
        <ele>4.4</ele>
        <time>2021-03-28T12:36:54Z</time>
      </trkpt>
      <trkpt lat="48.7458" lon="-3.26453">
        <ele>4.5</ele>
        <time>2021-03-28T12:36:55Z</time>
      </trkpt>
      <trkpt lat="48.74578" lon="-3.26452">
        <ele>4.5</ele>
        <time>2021-03-28T12:36:57Z</time>
      </trkpt>
      <trkpt lat="48.74576" lon="-3.2645">
        <ele>4.5</ele>
        <time>2021-03-28T12:36:59Z</time>
      </trkpt>
      <trkpt lat="48.74575" lon="-3.26449">
        <ele>4.5</ele>
        <time>2021-03-28T12:37:00Z</time>
      </trkpt>
      <trkpt lat="48.74573" lon="-3.26447">
        <ele>4.6</ele>
        <time>2021-03-28T12:37:02Z</time>
      </trkpt>
      <trkpt lat="48.74571" lon="-3.26445">
        <ele>4.6</ele>
        <time>2021-03-28T12:37:04Z</time>
      </trkpt>
      <trkpt lat="48.74571" lon="-3.26444">
        <ele>4.6</ele>
        <time>2021-03-28T12:37:05Z</time>
      </trkpt>
      <trkpt lat="48.7457" lon="-3.26443">
        <ele>4.6</ele>
        <time>2021-03-28T12:37:06Z</time>
      </trkpt>
      <trkpt lat="48.74569" lon="-3.2644">
        <ele>4.7</ele>
        <time>2021-03-28T12:37:08Z</time>
      </trkpt>
      <trkpt lat="48.74568" lon="-3.26438">
        <ele>4.7</ele>
        <time>2021-03-28T12:37:09Z</time>
      </trkpt>
      <trkpt lat="48.74567" lon="-3.26436">
        <ele>4.7</ele>
        <time>2021-03-28T12:37:10Z</time>
      </trkpt>
      <trkpt lat="48.74566" lon="-3.26434">
        <ele>4.8</ele>
        <time>2021-03-28T12:37:12Z</time>
      </trkpt>
      <trkpt lat="48.74565" lon="-3.2643">
        <ele>4.8</ele>
        <time>2021-03-28T12:37:13Z</time>
      </trkpt>
      <trkpt lat="48.74564" lon="-3.26428">
        <ele>4.9</ele>
        <time>2021-03-28T12:37:14Z</time>
      </trkpt>
      <trkpt lat="48.74564" lon="-3.26426">
        <ele>4.9</ele>
        <time>2021-03-28T12:37:16Z</time>
      </trkpt>
      <trkpt lat="48.74562" lon="-3.26422">
        <ele>4.9</ele>
        <time>2021-03-28T12:37:18Z</time>
      </trkpt>
      <trkpt lat="48.74562" lon="-3.2642">
        <ele>4.9</ele>
        <time>2021-03-28T12:37:19Z</time>
      </trkpt>
      <trkpt lat="48.74561" lon="-3.26418">
        <ele>5</ele>
        <time>2021-03-28T12:37:20Z</time>
      </trkpt>
      <trkpt lat="48.7456" lon="-3.26415">
        <ele>5</ele>
        <time>2021-03-28T12:37:22Z</time>
      </trkpt>
      <trkpt lat="48.7456" lon="-3.26414">
        <ele>5</ele>
        <time>2021-03-28T12:37:23Z</time>
      </trkpt>
      <trkpt lat="48.74559" lon="-3.26411">
        <ele>5.1</ele>
        <time>2021-03-28T12:37:25Z</time>
      </trkpt>
      <trkpt lat="48.74559" lon="-3.26409">
        <ele>5.1</ele>
        <time>2021-03-28T12:37:26Z</time>
      </trkpt>
      <trkpt lat="48.74557" lon="-3.26406">
        <ele>5.1</ele>
        <time>2021-03-28T12:37:28Z</time>
      </trkpt>
      <trkpt lat="48.74556" lon="-3.26405">
        <ele>5.2</ele>
        <time>2021-03-28T12:37:29Z</time>
      </trkpt>
      <trkpt lat="48.74556" lon="-3.26404">
        <ele>5.2</ele>
        <time>2021-03-28T12:37:30Z</time>
      </trkpt>
      <trkpt lat="48.74555" lon="-3.26403">
        <ele>5.2</ele>
        <time>2021-03-28T12:37:31Z</time>
      </trkpt>
      <trkpt lat="48.74554" lon="-3.26401">
        <ele>5.3</ele>
        <time>2021-03-28T12:37:32Z</time>
      </trkpt>
      <trkpt lat="48.74553" lon="-3.26399">
        <ele>5.3</ele>
        <time>2021-03-28T12:37:33Z</time>
      </trkpt>
      <trkpt lat="48.74552" lon="-3.26396">
        <ele>5.3</ele>
        <time>2021-03-28T12:37:35Z</time>
      </trkpt>
      <trkpt lat="48.74552" lon="-3.26394">
        <ele>5.4</ele>
        <time>2021-03-28T12:37:36Z</time>
      </trkpt>
      <trkpt lat="48.7455" lon="-3.2639">
        <ele>5.4</ele>
        <time>2021-03-28T12:37:38Z</time>
      </trkpt>
      <trkpt lat="48.74549" lon="-3.26388">
        <ele>5.5</ele>
        <time>2021-03-28T12:37:39Z</time>
      </trkpt>
      <trkpt lat="48.74549" lon="-3.26385">
        <ele>5.5</ele>
        <time>2021-03-28T12:37:41Z</time>
      </trkpt>
      <trkpt lat="48.74549" lon="-3.26382">
        <ele>5.5</ele>
        <time>2021-03-28T12:37:43Z</time>
      </trkpt>
      <trkpt lat="48.7455" lon="-3.2638">
        <ele>5.5</ele>
        <time>2021-03-28T12:37:44Z</time>
      </trkpt>
      <trkpt lat="48.7455" lon="-3.26378">
        <ele>5.5</ele>
        <time>2021-03-28T12:37:45Z</time>
      </trkpt>
      <trkpt lat="48.74549" lon="-3.26376">
        <ele>5.5</ele>
        <time>2021-03-28T12:37:47Z</time>
      </trkpt>
      <trkpt lat="48.74547" lon="-3.26375">
        <ele>5.5</ele>
        <time>2021-03-28T12:37:48Z</time>
      </trkpt>
      <trkpt lat="48.74546" lon="-3.26374">
        <ele>5.5</ele>
        <time>2021-03-28T12:37:49Z</time>
      </trkpt>
      <trkpt lat="48.74545" lon="-3.26373">
        <ele>5.5</ele>
        <time>2021-03-28T12:37:50Z</time>
      </trkpt>
      <trkpt lat="48.74544" lon="-3.26371">
        <ele>5.5</ele>
        <time>2021-03-28T12:37:52Z</time>
      </trkpt>
      <trkpt lat="48.74543" lon="-3.26369">
        <ele>5.4</ele>
        <time>2021-03-28T12:37:53Z</time>
      </trkpt>
      <trkpt lat="48.7454" lon="-3.26367">
        <ele>5.4</ele>
        <time>2021-03-28T12:37:55Z</time>
      </trkpt>
      <trkpt lat="48.7454" lon="-3.26366">
        <ele>5.4</ele>
        <time>2021-03-28T12:37:56Z</time>
      </trkpt>
      <trkpt lat="48.74538" lon="-3.26365">
        <ele>5.4</ele>
        <time>2021-03-28T12:37:57Z</time>
      </trkpt>
      <trkpt lat="48.74537" lon="-3.26364">
        <ele>5.4</ele>
        <time>2021-03-28T12:37:59Z</time>
      </trkpt>
      <trkpt lat="48.74536" lon="-3.26363">
        <ele>5.4</ele>
        <time>2021-03-28T12:38:00Z</time>
      </trkpt>
      <trkpt lat="48.74534" lon="-3.26362">
        <ele>5.4</ele>
        <time>2021-03-28T12:38:01Z</time>
      </trkpt>
      <trkpt lat="48.74531" lon="-3.26359">
        <ele>5.5</ele>
        <time>2021-03-28T12:38:02Z</time>
      </trkpt>
      <trkpt lat="48.7453" lon="-3.26358">
        <ele>5.5</ele>
        <time>2021-03-28T12:38:04Z</time>
      </trkpt>
      <trkpt lat="48.74529" lon="-3.26357">
        <ele>5.5</ele>
        <time>2021-03-28T12:38:06Z</time>
      </trkpt>
      <trkpt lat="48.74528" lon="-3.26356">
        <ele>5.5</ele>
        <time>2021-03-28T12:38:07Z</time>
      </trkpt>
      <trkpt lat="48.74527" lon="-3.26354">
        <ele>5.5</ele>
        <time>2021-03-28T12:38:08Z</time>
      </trkpt>
      <trkpt lat="48.74526" lon="-3.26353">
        <ele>5.5</ele>
        <time>2021-03-28T12:38:09Z</time>
      </trkpt>
      <trkpt lat="48.74525" lon="-3.26351">
        <ele>5.5</ele>
        <time>2021-03-28T12:38:11Z</time>
      </trkpt>
      <trkpt lat="48.74524" lon="-3.2635">
        <ele>5.6</ele>
        <time>2021-03-28T12:38:12Z</time>
      </trkpt>
      <trkpt lat="48.74522" lon="-3.26348">
        <ele>5.6</ele>
        <time>2021-03-28T12:38:14Z</time>
      </trkpt>
      <trkpt lat="48.74521" lon="-3.26346">
        <ele>5.6</ele>
        <time>2021-03-28T12:38:15Z</time>
      </trkpt>
      <trkpt lat="48.74519" lon="-3.26344">
        <ele>5.7</ele>
        <time>2021-03-28T12:38:16Z</time>
      </trkpt>
      <trkpt lat="48.74518" lon="-3.26343">
        <ele>5.7</ele>
        <time>2021-03-28T12:38:18Z</time>
      </trkpt>
      <trkpt lat="48.74516" lon="-3.26341">
        <ele>5.7</ele>
        <time>2021-03-28T12:38:19Z</time>
      </trkpt>
      <trkpt lat="48.74515" lon="-3.26339">
        <ele>5.7</ele>
        <time>2021-03-28T12:38:21Z</time>
      </trkpt>
      <trkpt lat="48.74513" lon="-3.26337">
        <ele>5.8</ele>
        <time>2021-03-28T12:38:23Z</time>
      </trkpt>
      <trkpt lat="48.74512" lon="-3.26334">
        <ele>5.8</ele>
        <time>2021-03-28T12:38:24Z</time>
      </trkpt>
      <trkpt lat="48.74512" lon="-3.26331">
        <ele>5.8</ele>
        <time>2021-03-28T12:38:26Z</time>
      </trkpt>
      <trkpt lat="48.74512" lon="-3.26327">
        <ele>5.8</ele>
        <time>2021-03-28T12:38:28Z</time>
      </trkpt>
      <trkpt lat="48.74511" lon="-3.26325">
        <ele>5.9</ele>
        <time>2021-03-28T12:38:29Z</time>
      </trkpt>
      <trkpt lat="48.7451" lon="-3.26323">
        <ele>5.9</ele>
        <time>2021-03-28T12:38:31Z</time>
      </trkpt>
      <trkpt lat="48.7451" lon="-3.26321">
        <ele>5.9</ele>
        <time>2021-03-28T12:38:32Z</time>
      </trkpt>
      <trkpt lat="48.74509" lon="-3.26319">
        <ele>5.9</ele>
        <time>2021-03-28T12:38:33Z</time>
      </trkpt>
      <trkpt lat="48.74509" lon="-3.26316">
        <ele>5.9</ele>
        <time>2021-03-28T12:38:34Z</time>
      </trkpt>
      <trkpt lat="48.74508" lon="-3.26313">
        <ele>5.9</ele>
        <time>2021-03-28T12:38:36Z</time>
      </trkpt>
      <trkpt lat="48.74507" lon="-3.26312">
        <ele>5.9</ele>
        <time>2021-03-28T12:38:37Z</time>
      </trkpt>
      <trkpt lat="48.74506" lon="-3.2631">
        <ele>5.9</ele>
        <time>2021-03-28T12:38:38Z</time>
      </trkpt>
      <trkpt lat="48.74504" lon="-3.26307">
        <ele>5.9</ele>
        <time>2021-03-28T12:38:40Z</time>
      </trkpt>
      <trkpt lat="48.74503" lon="-3.26304">
        <ele>6</ele>
        <time>2021-03-28T12:38:42Z</time>
      </trkpt>
      <trkpt lat="48.74503" lon="-3.26301">
        <ele>6</ele>
        <time>2021-03-28T12:38:43Z</time>
      </trkpt>
      <trkpt lat="48.74502" lon="-3.26299">
        <ele>6</ele>
        <time>2021-03-28T12:38:44Z</time>
      </trkpt>
      <trkpt lat="48.74501" lon="-3.26297">
        <ele>6</ele>
        <time>2021-03-28T12:38:45Z</time>
      </trkpt>
      <trkpt lat="48.74501" lon="-3.26294">
        <ele>6</ele>
        <time>2021-03-28T12:38:47Z</time>
      </trkpt>
      <trkpt lat="48.745" lon="-3.26292">
        <ele>6</ele>
        <time>2021-03-28T12:38:48Z</time>
      </trkpt>
      <trkpt lat="48.74498" lon="-3.26289">
        <ele>6</ele>
        <time>2021-03-28T12:38:50Z</time>
      </trkpt>
      <trkpt lat="48.74498" lon="-3.26287">
        <ele>6</ele>
        <time>2021-03-28T12:38:51Z</time>
      </trkpt>
      <trkpt lat="48.74497" lon="-3.26285">
        <ele>6</ele>
        <time>2021-03-28T12:38:52Z</time>
      </trkpt>
      <trkpt lat="48.74496" lon="-3.26283">
        <ele>6</ele>
        <time>2021-03-28T12:38:53Z</time>
      </trkpt>
      <trkpt lat="48.74496" lon="-3.26281">
        <ele>6</ele>
        <time>2021-03-28T12:38:55Z</time>
      </trkpt>
      <trkpt lat="48.74495" lon="-3.26278">
        <ele>6</ele>
        <time>2021-03-28T12:38:56Z</time>
      </trkpt>
      <trkpt lat="48.74494" lon="-3.26276">
        <ele>6</ele>
        <time>2021-03-28T12:38:57Z</time>
      </trkpt>
      <trkpt lat="48.74493" lon="-3.26272">
        <ele>6.1</ele>
        <time>2021-03-28T12:38:58Z</time>
      </trkpt>
      <trkpt lat="48.74493" lon="-3.26271">
        <ele>6.1</ele>
        <time>2021-03-28T12:38:59Z</time>
      </trkpt>
      <trkpt lat="48.74491" lon="-3.2627">
        <ele>6.1</ele>
        <time>2021-03-28T12:39:01Z</time>
      </trkpt>
      <trkpt lat="48.7449" lon="-3.26267">
        <ele>6.1</ele>
        <time>2021-03-28T12:39:03Z</time>
      </trkpt>
      <trkpt lat="48.74489" lon="-3.26263">
        <ele>6.1</ele>
        <time>2021-03-28T12:39:04Z</time>
      </trkpt>
      <trkpt lat="48.74489" lon="-3.26262">
        <ele>6.1</ele>
        <time>2021-03-28T12:39:05Z</time>
      </trkpt>
      <trkpt lat="48.74488" lon="-3.26261">
        <ele>6.1</ele>
        <time>2021-03-28T12:39:06Z</time>
      </trkpt>
      <trkpt lat="48.74487" lon="-3.2626">
        <ele>6.1</ele>
        <time>2021-03-28T12:39:08Z</time>
      </trkpt>
      <trkpt lat="48.74486" lon="-3.26256">
        <ele>6.3</ele>
        <time>2021-03-28T12:39:10Z</time>
      </trkpt>
      <trkpt lat="48.74486" lon="-3.26255">
        <ele>6.4</ele>
        <time>2021-03-28T12:39:11Z</time>
      </trkpt>
      <trkpt lat="48.74486" lon="-3.26252">
        <ele>6.4</ele>
        <time>2021-03-28T12:39:13Z</time>
      </trkpt>
      <trkpt lat="48.74486" lon="-3.26252">
        <ele>6.4</ele>
        <time>2021-03-28T12:39:15Z</time>
      </trkpt>
      <trkpt lat="48.74486" lon="-3.26251">
        <ele>6.4</ele>
        <time>2021-03-28T12:39:16Z</time>
      </trkpt>
      <trkpt lat="48.74486" lon="-3.26252">
        <ele>6.4</ele>
        <time>2021-03-28T12:39:18Z</time>
      </trkpt>
      <trkpt lat="48.74486" lon="-3.26252">
        <ele>6.4</ele>
        <time>2021-03-28T12:39:19Z</time>
      </trkpt>
      <trkpt lat="48.74487" lon="-3.26254">
        <ele>6.5</ele>
        <time>2021-03-28T12:39:21Z</time>
      </trkpt>
      <trkpt lat="48.74487" lon="-3.26254">
        <ele>6.5</ele>
        <time>2021-03-28T12:39:23Z</time>
      </trkpt>
      <trkpt lat="48.74487" lon="-3.26254">
        <ele>6.5</ele>
        <time>2021-03-28T12:39:25Z</time>
      </trkpt>
      <trkpt lat="48.74487" lon="-3.26253">
        <ele>6.5</ele>
        <time>2021-03-28T12:39:26Z</time>
      </trkpt>
      <trkpt lat="48.74488" lon="-3.26252">
        <ele>6.6</ele>
        <time>2021-03-28T12:39:28Z</time>
      </trkpt>
      <trkpt lat="48.7449" lon="-3.2625">
        <ele>6.6</ele>
        <time>2021-03-28T12:39:30Z</time>
      </trkpt>
      <trkpt lat="48.74492" lon="-3.26247">
        <ele>6.7</ele>
        <time>2021-03-28T12:39:31Z</time>
      </trkpt>
      <trkpt lat="48.74493" lon="-3.26246">
        <ele>6.8</ele>
        <time>2021-03-28T12:39:32Z</time>
      </trkpt>
      <trkpt lat="48.74494" lon="-3.26244">
        <ele>6.9</ele>
        <time>2021-03-28T12:39:34Z</time>
      </trkpt>
      <trkpt lat="48.74495" lon="-3.26243">
        <ele>6.9</ele>
        <time>2021-03-28T12:39:35Z</time>
      </trkpt>
      <trkpt lat="48.74496" lon="-3.26242">
        <ele>7</ele>
        <time>2021-03-28T12:39:36Z</time>
      </trkpt>
      <trkpt lat="48.74498" lon="-3.2624">
        <ele>7.1</ele>
        <time>2021-03-28T12:39:38Z</time>
      </trkpt>
      <trkpt lat="48.74499" lon="-3.26239">
        <ele>7.2</ele>
        <time>2021-03-28T12:39:39Z</time>
      </trkpt>
      <trkpt lat="48.745" lon="-3.26238">
        <ele>7.3</ele>
        <time>2021-03-28T12:39:40Z</time>
      </trkpt>
      <trkpt lat="48.74501" lon="-3.26236">
        <ele>7.4</ele>
        <time>2021-03-28T12:39:41Z</time>
      </trkpt>
      <trkpt lat="48.74502" lon="-3.26235">
        <ele>7.4</ele>
        <time>2021-03-28T12:39:43Z</time>
      </trkpt>
      <trkpt lat="48.74503" lon="-3.26233">
        <ele>7.5</ele>
        <time>2021-03-28T12:39:44Z</time>
      </trkpt>
      <trkpt lat="48.74504" lon="-3.26232">
        <ele>7.6</ele>
        <time>2021-03-28T12:39:45Z</time>
      </trkpt>
      <trkpt lat="48.74505" lon="-3.2623">
        <ele>7.7</ele>
        <time>2021-03-28T12:39:47Z</time>
      </trkpt>
      <trkpt lat="48.74506" lon="-3.26229">
        <ele>7.8</ele>
        <time>2021-03-28T12:39:48Z</time>
      </trkpt>
      <trkpt lat="48.74507" lon="-3.26227">
        <ele>8</ele>
        <time>2021-03-28T12:39:49Z</time>
      </trkpt>
      <trkpt lat="48.74508" lon="-3.26226">
        <ele>8.1</ele>
        <time>2021-03-28T12:39:51Z</time>
      </trkpt>
      <trkpt lat="48.74509" lon="-3.26224">
        <ele>8.1</ele>
        <time>2021-03-28T12:39:52Z</time>
      </trkpt>
      <trkpt lat="48.74509" lon="-3.26223">
        <ele>8.3</ele>
        <time>2021-03-28T12:39:53Z</time>
      </trkpt>
      <trkpt lat="48.7451" lon="-3.26222">
        <ele>8.4</ele>
        <time>2021-03-28T12:39:55Z</time>
      </trkpt>
      <trkpt lat="48.74511" lon="-3.2622">
        <ele>8.4</ele>
        <time>2021-03-28T12:39:56Z</time>
      </trkpt>
      <trkpt lat="48.74512" lon="-3.26219">
        <ele>8.6</ele>
        <time>2021-03-28T12:39:57Z</time>
      </trkpt>
      <trkpt lat="48.74512" lon="-3.26217">
        <ele>8.7</ele>
        <time>2021-03-28T12:39:58Z</time>
      </trkpt>
      <trkpt lat="48.74513" lon="-3.26215">
        <ele>8.8</ele>
        <time>2021-03-28T12:40:00Z</time>
      </trkpt>
      <trkpt lat="48.74514" lon="-3.26214">
        <ele>8.9</ele>
        <time>2021-03-28T12:40:01Z</time>
      </trkpt>
      <trkpt lat="48.74514" lon="-3.26213">
        <ele>9</ele>
        <time>2021-03-28T12:40:02Z</time>
      </trkpt>
      <trkpt lat="48.74516" lon="-3.26212">
        <ele>9.2</ele>
        <time>2021-03-28T12:40:04Z</time>
      </trkpt>
      <trkpt lat="48.74517" lon="-3.26212">
        <ele>9.3</ele>
        <time>2021-03-28T12:40:05Z</time>
      </trkpt>
      <trkpt lat="48.74519" lon="-3.2621">
        <ele>9.5</ele>
        <time>2021-03-28T12:40:06Z</time>
      </trkpt>
      <trkpt lat="48.7452" lon="-3.26208">
        <ele>9.8</ele>
        <time>2021-03-28T12:40:08Z</time>
      </trkpt>
      <trkpt lat="48.7452" lon="-3.26206">
        <ele>9.9</ele>
        <time>2021-03-28T12:40:09Z</time>
      </trkpt>
      <trkpt lat="48.7452" lon="-3.26205">
        <ele>10</ele>
        <time>2021-03-28T12:40:10Z</time>
      </trkpt>
      <trkpt lat="48.74521" lon="-3.26202">
        <ele>10.2</ele>
        <time>2021-03-28T12:40:12Z</time>
      </trkpt>
      <trkpt lat="48.74521" lon="-3.262">
        <ele>10.4</ele>
        <time>2021-03-28T12:40:13Z</time>
      </trkpt>
      <trkpt lat="48.74522" lon="-3.26199">
        <ele>10.5</ele>
        <time>2021-03-28T12:40:14Z</time>
      </trkpt>
      <trkpt lat="48.74523" lon="-3.26197">
        <ele>10.7</ele>
        <time>2021-03-28T12:40:15Z</time>
      </trkpt>
      <trkpt lat="48.74524" lon="-3.26196">
        <ele>10.9</ele>
        <time>2021-03-28T12:40:17Z</time>
      </trkpt>
      <trkpt lat="48.74527" lon="-3.26193">
        <ele>11.2</ele>
        <time>2021-03-28T12:40:19Z</time>
      </trkpt>
      <trkpt lat="48.74527" lon="-3.26192">
        <ele>12.6</ele>
        <time>2021-03-28T12:40:20Z</time>
      </trkpt>
      <trkpt lat="48.74527" lon="-3.26189">
        <ele>13</ele>
        <time>2021-03-28T12:40:21Z</time>
      </trkpt>
      <trkpt lat="48.74526" lon="-3.26187">
        <ele>13.3</ele>
        <time>2021-03-28T12:40:23Z</time>
      </trkpt>
      <trkpt lat="48.74525" lon="-3.26185">
        <ele>13.7</ele>
        <time>2021-03-28T12:40:24Z</time>
      </trkpt>
      <trkpt lat="48.74525" lon="-3.26183">
        <ele>13.9</ele>
        <time>2021-03-28T12:40:26Z</time>
      </trkpt>
      <trkpt lat="48.74523" lon="-3.26182">
        <ele>14.3</ele>
        <time>2021-03-28T12:40:27Z</time>
      </trkpt>
      <trkpt lat="48.74522" lon="-3.2618">
        <ele>14.6</ele>
        <time>2021-03-28T12:40:28Z</time>
      </trkpt>
      <trkpt lat="48.74521" lon="-3.26179">
        <ele>14.9</ele>
        <time>2021-03-28T12:40:29Z</time>
      </trkpt>
      <trkpt lat="48.7452" lon="-3.26177">
        <ele>15.1</ele>
        <time>2021-03-28T12:40:31Z</time>
      </trkpt>
      <trkpt lat="48.7452" lon="-3.26175">
        <ele>15.5</ele>
        <time>2021-03-28T12:40:32Z</time>
      </trkpt>
      <trkpt lat="48.74519" lon="-3.26172">
        <ele>15.9</ele>
        <time>2021-03-28T12:40:33Z</time>
      </trkpt>
      <trkpt lat="48.74518" lon="-3.26171">
        <ele>16.1</ele>
        <time>2021-03-28T12:40:35Z</time>
      </trkpt>
      <trkpt lat="48.74518" lon="-3.2617">
        <ele>16.3</ele>
        <time>2021-03-28T12:40:36Z</time>
      </trkpt>
      <trkpt lat="48.74517" lon="-3.26168">
        <ele>16.5</ele>
        <time>2021-03-28T12:40:37Z</time>
      </trkpt>
      <trkpt lat="48.74517" lon="-3.26167">
        <ele>16.7</ele>
        <time>2021-03-28T12:40:39Z</time>
      </trkpt>
      <trkpt lat="48.74516" lon="-3.26165">
        <ele>17</ele>
        <time>2021-03-28T12:40:40Z</time>
      </trkpt>
      <trkpt lat="48.74515" lon="-3.26164">
        <ele>17.2</ele>
        <time>2021-03-28T12:40:41Z</time>
      </trkpt>
      <trkpt lat="48.74515" lon="-3.26162">
        <ele>17.4</ele>
        <time>2021-03-28T12:40:42Z</time>
      </trkpt>
      <trkpt lat="48.74514" lon="-3.2616">
        <ele>17.7</ele>
        <time>2021-03-28T12:40:44Z</time>
      </trkpt>
      <trkpt lat="48.74513" lon="-3.26159">
        <ele>17.9</ele>
        <time>2021-03-28T12:40:45Z</time>
      </trkpt>
      <trkpt lat="48.74513" lon="-3.26157">
        <ele>18.1</ele>
        <time>2021-03-28T12:40:47Z</time>
      </trkpt>
      <trkpt lat="48.74512" lon="-3.26156">
        <ele>18.3</ele>
        <time>2021-03-28T12:40:48Z</time>
      </trkpt>
      <trkpt lat="48.74511" lon="-3.26154">
        <ele>18.6</ele>
        <time>2021-03-28T12:40:50Z</time>
      </trkpt>
      <trkpt lat="48.74511" lon="-3.26153">
        <ele>18.8</ele>
        <time>2021-03-28T12:40:51Z</time>
      </trkpt>
      <trkpt lat="48.7451" lon="-3.26152">
        <ele>18.9</ele>
        <time>2021-03-28T12:40:52Z</time>
      </trkpt>
      <trkpt lat="48.74509" lon="-3.26148">
        <ele>19.5</ele>
        <time>2021-03-28T12:40:54Z</time>
      </trkpt>
      <trkpt lat="48.74508" lon="-3.26147">
        <ele>19.7</ele>
        <time>2021-03-28T12:40:55Z</time>
      </trkpt>
      <trkpt lat="48.74505" lon="-3.26144">
        <ele>20.3</ele>
        <time>2021-03-28T12:40:57Z</time>
      </trkpt>
      <trkpt lat="48.74504" lon="-3.26143">
        <ele>20.4</ele>
        <time>2021-03-28T12:40:58Z</time>
      </trkpt>
      <trkpt lat="48.74503" lon="-3.26142">
        <ele>20.5</ele>
        <time>2021-03-28T12:40:59Z</time>
      </trkpt>
      <trkpt lat="48.74501" lon="-3.26141">
        <ele>20.6</ele>
        <time>2021-03-28T12:41:01Z</time>
      </trkpt>
      <trkpt lat="48.745" lon="-3.26139">
        <ele>20.7</ele>
        <time>2021-03-28T12:41:02Z</time>
      </trkpt>
      <trkpt lat="48.74497" lon="-3.26138">
        <ele>20.9</ele>
        <time>2021-03-28T12:41:04Z</time>
      </trkpt>
      <trkpt lat="48.74494" lon="-3.26136">
        <ele>21.2</ele>
        <time>2021-03-28T12:41:06Z</time>
      </trkpt>
      <trkpt lat="48.74493" lon="-3.26134">
        <ele>21.2</ele>
        <time>2021-03-28T12:41:07Z</time>
      </trkpt>
      <trkpt lat="48.74492" lon="-3.26133">
        <ele>21.3</ele>
        <time>2021-03-28T12:41:09Z</time>
      </trkpt>
      <trkpt lat="48.74491" lon="-3.26131">
        <ele>21.4</ele>
        <time>2021-03-28T12:41:10Z</time>
      </trkpt>
      <trkpt lat="48.74489" lon="-3.26128">
        <ele>21.6</ele>
        <time>2021-03-28T12:41:11Z</time>
      </trkpt>
      <trkpt lat="48.74488" lon="-3.26127">
        <ele>21.6</ele>
        <time>2021-03-28T12:41:13Z</time>
      </trkpt>
      <trkpt lat="48.74488" lon="-3.26127">
        <ele>21.7</ele>
        <time>2021-03-28T12:41:14Z</time>
      </trkpt>
      <trkpt lat="48.74487" lon="-3.26126">
        <ele>21.7</ele>
        <time>2021-03-28T12:41:15Z</time>
      </trkpt>
      <trkpt lat="48.74486" lon="-3.26125">
        <ele>21.8</ele>
        <time>2021-03-28T12:41:16Z</time>
      </trkpt>
      <trkpt lat="48.74486" lon="-3.26124">
        <ele>21.8</ele>
        <time>2021-03-28T12:41:17Z</time>
      </trkpt>
      <trkpt lat="48.74485" lon="-3.26122">
        <ele>21.9</ele>
        <time>2021-03-28T12:41:19Z</time>
      </trkpt>
      <trkpt lat="48.74484" lon="-3.26121">
        <ele>22</ele>
        <time>2021-03-28T12:41:20Z</time>
      </trkpt>
      <trkpt lat="48.74482" lon="-3.26118">
        <ele>22.2</ele>
        <time>2021-03-28T12:41:21Z</time>
      </trkpt>
      <trkpt lat="48.74481" lon="-3.26116">
        <ele>22.3</ele>
        <time>2021-03-28T12:41:23Z</time>
      </trkpt>
      <trkpt lat="48.74481" lon="-3.26114">
        <ele>22.4</ele>
        <time>2021-03-28T12:41:24Z</time>
      </trkpt>
      <trkpt lat="48.7448" lon="-3.26112">
        <ele>22.4</ele>
        <time>2021-03-28T12:41:25Z</time>
      </trkpt>
      <trkpt lat="48.74478" lon="-3.2611">
        <ele>22.6</ele>
        <time>2021-03-28T12:41:27Z</time>
      </trkpt>
      <trkpt lat="48.74478" lon="-3.26109">
        <ele>22.6</ele>
        <time>2021-03-28T12:41:28Z</time>
      </trkpt>
      <trkpt lat="48.74476" lon="-3.26107">
        <ele>22.7</ele>
        <time>2021-03-28T12:41:29Z</time>
      </trkpt>
      <trkpt lat="48.74475" lon="-3.26106">
        <ele>22.8</ele>
        <time>2021-03-28T12:41:31Z</time>
      </trkpt>
      <trkpt lat="48.74474" lon="-3.26105">
        <ele>22.9</ele>
        <time>2021-03-28T12:41:32Z</time>
      </trkpt>
      <trkpt lat="48.74472" lon="-3.26103">
        <ele>23</ele>
        <time>2021-03-28T12:41:33Z</time>
      </trkpt>
      <trkpt lat="48.74471" lon="-3.26102">
        <ele>23.1</ele>
        <time>2021-03-28T12:41:35Z</time>
      </trkpt>
      <trkpt lat="48.7447" lon="-3.26101">
        <ele>23.1</ele>
        <time>2021-03-28T12:41:36Z</time>
      </trkpt>
      <trkpt lat="48.74468" lon="-3.261">
        <ele>23.3</ele>
        <time>2021-03-28T12:41:37Z</time>
      </trkpt>
      <trkpt lat="48.74467" lon="-3.26099">
        <ele>23.3</ele>
        <time>2021-03-28T12:41:38Z</time>
      </trkpt>
      <trkpt lat="48.74466" lon="-3.26099">
        <ele>23.4</ele>
        <time>2021-03-28T12:41:39Z</time>
      </trkpt>
      <trkpt lat="48.74464" lon="-3.26098">
        <ele>23.5</ele>
        <time>2021-03-28T12:41:41Z</time>
      </trkpt>
      <trkpt lat="48.74463" lon="-3.26097">
        <ele>23.6</ele>
        <time>2021-03-28T12:41:42Z</time>
      </trkpt>
      <trkpt lat="48.74462" lon="-3.26097">
        <ele>23.6</ele>
        <time>2021-03-28T12:41:43Z</time>
      </trkpt>
      <trkpt lat="48.7446" lon="-3.26096">
        <ele>23.7</ele>
        <time>2021-03-28T12:41:45Z</time>
      </trkpt>
      <trkpt lat="48.74459" lon="-3.26095">
        <ele>23.8</ele>
        <time>2021-03-28T12:41:46Z</time>
      </trkpt>
      <trkpt lat="48.74457" lon="-3.26093">
        <ele>23.9</ele>
        <time>2021-03-28T12:41:47Z</time>
      </trkpt>
      <trkpt lat="48.74455" lon="-3.26092">
        <ele>24</ele>
        <time>2021-03-28T12:41:49Z</time>
      </trkpt>
      <trkpt lat="48.74453" lon="-3.2609">
        <ele>24.1</ele>
        <time>2021-03-28T12:41:50Z</time>
      </trkpt>
      <trkpt lat="48.74452" lon="-3.26089">
        <ele>24.2</ele>
        <time>2021-03-28T12:41:51Z</time>
      </trkpt>
      <trkpt lat="48.74451" lon="-3.26088">
        <ele>24.3</ele>
        <time>2021-03-28T12:41:53Z</time>
      </trkpt>
      <trkpt lat="48.74449" lon="-3.26088">
        <ele>24.4</ele>
        <time>2021-03-28T12:41:54Z</time>
      </trkpt>
      <trkpt lat="48.74447" lon="-3.26087">
        <ele>24.4</ele>
        <time>2021-03-28T12:41:55Z</time>
      </trkpt>
      <trkpt lat="48.74446" lon="-3.26087">
        <ele>24.5</ele>
        <time>2021-03-28T12:41:57Z</time>
      </trkpt>
      <trkpt lat="48.74444" lon="-3.26087">
        <ele>24.6</ele>
        <time>2021-03-28T12:41:58Z</time>
      </trkpt>
      <trkpt lat="48.74443" lon="-3.26086">
        <ele>24.6</ele>
        <time>2021-03-28T12:41:59Z</time>
      </trkpt>
      <trkpt lat="48.74442" lon="-3.26086">
        <ele>24.7</ele>
        <time>2021-03-28T12:42:01Z</time>
      </trkpt>
      <trkpt lat="48.74441" lon="-3.26086">
        <ele>24.7</ele>
        <time>2021-03-28T12:42:02Z</time>
      </trkpt>
      <trkpt lat="48.74439" lon="-3.26086">
        <ele>24.8</ele>
        <time>2021-03-28T12:42:03Z</time>
      </trkpt>
      <trkpt lat="48.74438" lon="-3.26086">
        <ele>24.8</ele>
        <time>2021-03-28T12:42:05Z</time>
      </trkpt>
      <trkpt lat="48.74436" lon="-3.26086">
        <ele>24.9</ele>
        <time>2021-03-28T12:42:06Z</time>
      </trkpt>
      <trkpt lat="48.74434" lon="-3.26086">
        <ele>24.9</ele>
        <time>2021-03-28T12:42:08Z</time>
      </trkpt>
      <trkpt lat="48.74432" lon="-3.26087">
        <ele>25</ele>
        <time>2021-03-28T12:42:10Z</time>
      </trkpt>
      <trkpt lat="48.7443" lon="-3.26087">
        <ele>25</ele>
        <time>2021-03-28T12:42:11Z</time>
      </trkpt>
      <trkpt lat="48.74429" lon="-3.26088">
        <ele>25.1</ele>
        <time>2021-03-28T12:42:12Z</time>
      </trkpt>
      <trkpt lat="48.74427" lon="-3.26088">
        <ele>25.1</ele>
        <time>2021-03-28T12:42:14Z</time>
      </trkpt>
      <trkpt lat="48.74425" lon="-3.26087">
        <ele>25.2</ele>
        <time>2021-03-28T12:42:16Z</time>
      </trkpt>
      <trkpt lat="48.74424" lon="-3.26087">
        <ele>25.2</ele>
        <time>2021-03-28T12:42:17Z</time>
      </trkpt>
      <trkpt lat="48.74423" lon="-3.26087">
        <ele>25.2</ele>
        <time>2021-03-28T12:42:18Z</time>
      </trkpt>
      <trkpt lat="48.74421" lon="-3.26087">
        <ele>25.2</ele>
        <time>2021-03-28T12:42:20Z</time>
      </trkpt>
      <trkpt lat="48.74419" lon="-3.26086">
        <ele>25.2</ele>
        <time>2021-03-28T12:42:21Z</time>
      </trkpt>
      <trkpt lat="48.74417" lon="-3.26086">
        <ele>25.2</ele>
        <time>2021-03-28T12:42:23Z</time>
      </trkpt>
      <trkpt lat="48.74416" lon="-3.26086">
        <ele>25.2</ele>
        <time>2021-03-28T12:42:24Z</time>
      </trkpt>
      <trkpt lat="48.74415" lon="-3.26086">
        <ele>25.2</ele>
        <time>2021-03-28T12:42:25Z</time>
      </trkpt>
      <trkpt lat="48.74414" lon="-3.26086">
        <ele>25.2</ele>
        <time>2021-03-28T12:42:26Z</time>
      </trkpt>
      <trkpt lat="48.74413" lon="-3.26086">
        <ele>25.2</ele>
        <time>2021-03-28T12:42:28Z</time>
      </trkpt>
      <trkpt lat="48.74411" lon="-3.26085">
        <ele>25.2</ele>
        <time>2021-03-28T12:42:30Z</time>
      </trkpt>
      <trkpt lat="48.74411" lon="-3.26085">
        <ele>25.2</ele>
        <time>2021-03-28T12:42:31Z</time>
      </trkpt>
      <trkpt lat="48.74411" lon="-3.26086">
        <ele>25.2</ele>
        <time>2021-03-28T12:42:33Z</time>
      </trkpt>
      <trkpt lat="48.74411" lon="-3.26086">
        <ele>25.2</ele>
        <time>2021-03-28T12:42:34Z</time>
      </trkpt>
      <trkpt lat="48.74411" lon="-3.26087">
        <ele>25.2</ele>
        <time>2021-03-28T12:42:35Z</time>
      </trkpt>
      <trkpt lat="48.74411" lon="-3.26087">
        <ele>25.2</ele>
        <time>2021-03-28T12:42:36Z</time>
      </trkpt>
      <trkpt lat="48.74412" lon="-3.26087">
        <ele>25.2</ele>
        <time>2021-03-28T12:42:38Z</time>
      </trkpt>
      <trkpt lat="48.74412" lon="-3.26087">
        <ele>25.2</ele>
        <time>2021-03-28T12:42:40Z</time>
      </trkpt>
      <trkpt lat="48.74412" lon="-3.26087">
        <ele>25.2</ele>
        <time>2021-03-28T12:42:41Z</time>
      </trkpt>
      <trkpt lat="48.74412" lon="-3.26088">
        <ele>25.2</ele>
        <time>2021-03-28T12:42:43Z</time>
      </trkpt>
      <trkpt lat="48.74412" lon="-3.26088">
        <ele>25.2</ele>
        <time>2021-03-28T12:42:44Z</time>
      </trkpt>
      <trkpt lat="48.74412" lon="-3.26088">
        <ele>25.2</ele>
        <time>2021-03-28T12:42:46Z</time>
      </trkpt>
      <trkpt lat="48.74412" lon="-3.26088">
        <ele>25.2</ele>
        <time>2021-03-28T12:42:48Z</time>
      </trkpt>
      <trkpt lat="48.74412" lon="-3.26088">
        <ele>25.2</ele>
        <time>2021-03-28T12:42:49Z</time>
      </trkpt>
      <trkpt lat="48.74412" lon="-3.26087">
        <ele>25.2</ele>
        <time>2021-03-28T12:42:50Z</time>
      </trkpt>
      <trkpt lat="48.74411" lon="-3.26087">
        <ele>25.2</ele>
        <time>2021-03-28T12:42:53Z</time>
      </trkpt>
      <trkpt lat="48.74411" lon="-3.26087">
        <ele>25.2</ele>
        <time>2021-03-28T12:42:57Z</time>
      </trkpt>
      <trkpt lat="48.74411" lon="-3.26087">
        <ele>25.2</ele>
        <time>2021-03-28T12:42:59Z</time>
      </trkpt>
      <trkpt lat="48.74411" lon="-3.26087">
        <ele>25.2</ele>
        <time>2021-03-28T12:43:01Z</time>
      </trkpt>
      <trkpt lat="48.74411" lon="-3.26087">
        <ele>25.2</ele>
        <time>2021-03-28T12:43:03Z</time>
      </trkpt>
      <trkpt lat="48.74411" lon="-3.26087">
        <ele>25.2</ele>
        <time>2021-03-28T12:43:05Z</time>
      </trkpt>
      <trkpt lat="48.74412" lon="-3.26087">
        <ele>25.2</ele>
        <time>2021-03-28T12:43:07Z</time>
      </trkpt>
      <trkpt lat="48.74412" lon="-3.26087">
        <ele>25.2</ele>
        <time>2021-03-28T12:43:08Z</time>
      </trkpt>
      <trkpt lat="48.74412" lon="-3.26087">
        <ele>25.2</ele>
        <time>2021-03-28T12:43:10Z</time>
      </trkpt>
      <trkpt lat="48.74412" lon="-3.26087">
        <ele>25.2</ele>
        <time>2021-03-28T12:43:12Z</time>
      </trkpt>
      <trkpt lat="48.74412" lon="-3.26087">
        <ele>25.2</ele>
        <time>2021-03-28T12:43:14Z</time>
      </trkpt>
      <trkpt lat="48.74412" lon="-3.26087">
        <ele>25.2</ele>
        <time>2021-03-28T12:43:15Z</time>
      </trkpt>
      <trkpt lat="48.74412" lon="-3.26087">
        <ele>25.2</ele>
        <time>2021-03-28T12:43:16Z</time>
      </trkpt>
      <trkpt lat="48.74412" lon="-3.26087">
        <ele>25.2</ele>
        <time>2021-03-28T12:43:18Z</time>
      </trkpt>
      <trkpt lat="48.74412" lon="-3.26087">
        <ele>25.2</ele>
        <time>2021-03-28T12:43:19Z</time>
      </trkpt>
      <trkpt lat="48.74412" lon="-3.26087">
        <ele>25.2</ele>
        <time>2021-03-28T12:43:21Z</time>
      </trkpt>
      <trkpt lat="48.74412" lon="-3.26087">
        <ele>25.2</ele>
        <time>2021-03-28T12:43:22Z</time>
      </trkpt>
      <trkpt lat="48.74412" lon="-3.26087">
        <ele>25.2</ele>
        <time>2021-03-28T12:43:23Z</time>
      </trkpt>
      <trkpt lat="48.74412" lon="-3.26087">
        <ele>25.2</ele>
        <time>2021-03-28T12:43:25Z</time>
      </trkpt>
      <trkpt lat="48.74412" lon="-3.26087">
        <ele>25.2</ele>
        <time>2021-03-28T12:43:27Z</time>
      </trkpt>
      <trkpt lat="48.74412" lon="-3.26087">
        <ele>25.2</ele>
        <time>2021-03-28T12:43:28Z</time>
      </trkpt>
      <trkpt lat="48.74412" lon="-3.26087">
        <ele>25.2</ele>
        <time>2021-03-28T12:43:30Z</time>
      </trkpt>
      <trkpt lat="48.74412" lon="-3.26087">
        <ele>25.2</ele>
        <time>2021-03-28T12:43:32Z</time>
      </trkpt>
      <trkpt lat="48.74412" lon="-3.26087">
        <ele>25.2</ele>
        <time>2021-03-28T12:43:33Z</time>
      </trkpt>
      <trkpt lat="48.74411" lon="-3.26087">
        <ele>25.2</ele>
        <time>2021-03-28T12:43:35Z</time>
      </trkpt>
      <trkpt lat="48.74411" lon="-3.26087">
        <ele>25.2</ele>
        <time>2021-03-28T12:43:36Z</time>
      </trkpt>
      <trkpt lat="48.74411" lon="-3.26087">
        <ele>25.2</ele>
        <time>2021-03-28T12:43:37Z</time>
      </trkpt>
      <trkpt lat="48.7441" lon="-3.26087">
        <ele>25.2</ele>
        <time>2021-03-28T12:43:38Z</time>
      </trkpt>
      <trkpt lat="48.7441" lon="-3.26087">
        <ele>25.2</ele>
        <time>2021-03-28T12:43:40Z</time>
      </trkpt>
      <trkpt lat="48.7441" lon="-3.26087">
        <ele>25.2</ele>
        <time>2021-03-28T12:43:41Z</time>
      </trkpt>
      <trkpt lat="48.7441" lon="-3.26087">
        <ele>25.2</ele>
        <time>2021-03-28T12:43:42Z</time>
      </trkpt>
      <trkpt lat="48.7441" lon="-3.26087">
        <ele>25.2</ele>
        <time>2021-03-28T12:43:44Z</time>
      </trkpt>
      <trkpt lat="48.7441" lon="-3.26087">
        <ele>25.2</ele>
        <time>2021-03-28T12:43:45Z</time>
      </trkpt>
      <trkpt lat="48.7441" lon="-3.26087">
        <ele>25.2</ele>
        <time>2021-03-28T12:43:47Z</time>
      </trkpt>
      <trkpt lat="48.7441" lon="-3.26087">
        <ele>25.2</ele>
        <time>2021-03-28T12:43:49Z</time>
      </trkpt>
      <trkpt lat="48.7441" lon="-3.26087">
        <ele>25.2</ele>
        <time>2021-03-28T12:43:51Z</time>
      </trkpt>
      <trkpt lat="48.7441" lon="-3.26087">
        <ele>25.2</ele>
        <time>2021-03-28T12:43:52Z</time>
      </trkpt>
      <trkpt lat="48.7441" lon="-3.26087">
        <ele>25.2</ele>
        <time>2021-03-28T12:43:54Z</time>
      </trkpt>
      <trkpt lat="48.7441" lon="-3.26087">
        <ele>25.2</ele>
        <time>2021-03-28T12:43:56Z</time>
      </trkpt>
      <trkpt lat="48.7441" lon="-3.26087">
        <ele>25.2</ele>
        <time>2021-03-28T12:43:57Z</time>
      </trkpt>
      <trkpt lat="48.7441" lon="-3.26087">
        <ele>25.2</ele>
        <time>2021-03-28T12:43:59Z</time>
      </trkpt>
      <trkpt lat="48.7441" lon="-3.26087">
        <ele>25.2</ele>
        <time>2021-03-28T12:44:01Z</time>
      </trkpt>
      <trkpt lat="48.7441" lon="-3.26087">
        <ele>25.2</ele>
        <time>2021-03-28T12:44:02Z</time>
      </trkpt>
      <trkpt lat="48.7441" lon="-3.26087">
        <ele>25.2</ele>
        <time>2021-03-28T12:44:03Z</time>
      </trkpt>
      <trkpt lat="48.7441" lon="-3.26087">
        <ele>25.2</ele>
        <time>2021-03-28T12:44:04Z</time>
      </trkpt>
      <trkpt lat="48.7441" lon="-3.26087">
        <ele>25.2</ele>
        <time>2021-03-28T12:44:05Z</time>
      </trkpt>
      <trkpt lat="48.7441" lon="-3.26088">
        <ele>25.2</ele>
        <time>2021-03-28T12:44:07Z</time>
      </trkpt>
      <trkpt lat="48.7441" lon="-3.26088">
        <ele>25.2</ele>
        <time>2021-03-28T12:44:09Z</time>
      </trkpt>
      <trkpt lat="48.7441" lon="-3.26088">
        <ele>25.2</ele>
        <time>2021-03-28T12:44:11Z</time>
      </trkpt>
      <trkpt lat="48.7441" lon="-3.26088">
        <ele>25.2</ele>
        <time>2021-03-28T12:44:12Z</time>
      </trkpt>
      <trkpt lat="48.7441" lon="-3.26088">
        <ele>25.2</ele>
        <time>2021-03-28T12:44:14Z</time>
      </trkpt>
      <trkpt lat="48.7441" lon="-3.26088">
        <ele>25.2</ele>
        <time>2021-03-28T12:44:15Z</time>
      </trkpt>
      <trkpt lat="48.7441" lon="-3.26087">
        <ele>25.2</ele>
        <time>2021-03-28T12:44:16Z</time>
      </trkpt>
      <trkpt lat="48.7441" lon="-3.26087">
        <ele>25.2</ele>
        <time>2021-03-28T12:44:18Z</time>
      </trkpt>
      <trkpt lat="48.7441" lon="-3.26087">
        <ele>25.2</ele>
        <time>2021-03-28T12:44:19Z</time>
      </trkpt>
      <trkpt lat="48.7441" lon="-3.26087">
        <ele>25.2</ele>
        <time>2021-03-28T12:44:20Z</time>
      </trkpt>
      <trkpt lat="48.7441" lon="-3.26087">
        <ele>25.2</ele>
        <time>2021-03-28T12:44:21Z</time>
      </trkpt>
      <trkpt lat="48.7441" lon="-3.26087">
        <ele>25.2</ele>
        <time>2021-03-28T12:44:23Z</time>
      </trkpt>
      <trkpt lat="48.7441" lon="-3.26087">
        <ele>25.2</ele>
        <time>2021-03-28T12:44:25Z</time>
      </trkpt>
      <trkpt lat="48.74411" lon="-3.26087">
        <ele>25.2</ele>
        <time>2021-03-28T12:44:26Z</time>
      </trkpt>
      <trkpt lat="48.74411" lon="-3.26087">
        <ele>25.2</ele>
        <time>2021-03-28T12:44:28Z</time>
      </trkpt>
      <trkpt lat="48.74411" lon="-3.26087">
        <ele>25.2</ele>
        <time>2021-03-28T12:44:29Z</time>
      </trkpt>
      <trkpt lat="48.74411" lon="-3.26087">
        <ele>25.2</ele>
        <time>2021-03-28T12:44:30Z</time>
      </trkpt>
      <trkpt lat="48.74411" lon="-3.26087">
        <ele>25.2</ele>
        <time>2021-03-28T12:44:31Z</time>
      </trkpt>
      <trkpt lat="48.74411" lon="-3.26087">
        <ele>25.2</ele>
        <time>2021-03-28T12:44:33Z</time>
      </trkpt>
      <trkpt lat="48.74411" lon="-3.26087">
        <ele>25.2</ele>
        <time>2021-03-28T12:44:34Z</time>
      </trkpt>
      <trkpt lat="48.74411" lon="-3.26087">
        <ele>25.2</ele>
        <time>2021-03-28T12:44:35Z</time>
      </trkpt>
      <trkpt lat="48.74411" lon="-3.26087">
        <ele>25.2</ele>
        <time>2021-03-28T12:44:37Z</time>
      </trkpt>
      <trkpt lat="48.74411" lon="-3.26086">
        <ele>25.2</ele>
        <time>2021-03-28T12:44:38Z</time>
      </trkpt>
      <trkpt lat="48.74411" lon="-3.26086">
        <ele>25.2</ele>
        <time>2021-03-28T12:44:40Z</time>
      </trkpt>
      <trkpt lat="48.74411" lon="-3.26086">
        <ele>25.2</ele>
        <time>2021-03-28T12:44:42Z</time>
      </trkpt>
      <trkpt lat="48.74411" lon="-3.26086">
        <ele>25.2</ele>
        <time>2021-03-28T12:44:43Z</time>
      </trkpt>
      <trkpt lat="48.74411" lon="-3.26086">
        <ele>25.2</ele>
        <time>2021-03-28T12:44:45Z</time>
      </trkpt>
      <trkpt lat="48.74411" lon="-3.26086">
        <ele>25.2</ele>
        <time>2021-03-28T12:44:46Z</time>
      </trkpt>
      <trkpt lat="48.74411" lon="-3.26086">
        <ele>25.2</ele>
        <time>2021-03-28T12:44:47Z</time>
      </trkpt>
      <trkpt lat="48.74411" lon="-3.26086">
        <ele>25.2</ele>
        <time>2021-03-28T12:44:49Z</time>
      </trkpt>
      <trkpt lat="48.74411" lon="-3.26086">
        <ele>25.2</ele>
        <time>2021-03-28T12:44:51Z</time>
      </trkpt>
      <trkpt lat="48.7441" lon="-3.26086">
        <ele>25.2</ele>
        <time>2021-03-28T12:44:53Z</time>
      </trkpt>
      <trkpt lat="48.7441" lon="-3.26085">
        <ele>25.2</ele>
        <time>2021-03-28T12:44:55Z</time>
      </trkpt>
      <trkpt lat="48.7441" lon="-3.26085">
        <ele>25.2</ele>
        <time>2021-03-28T12:44:56Z</time>
      </trkpt>
      <trkpt lat="48.7441" lon="-3.26085">
        <ele>25.2</ele>
        <time>2021-03-28T12:44:58Z</time>
      </trkpt>
      <trkpt lat="48.7441" lon="-3.26085">
        <ele>25.2</ele>
        <time>2021-03-28T12:44:59Z</time>
      </trkpt>
      <trkpt lat="48.7441" lon="-3.26085">
        <ele>25.2</ele>
        <time>2021-03-28T12:45:01Z</time>
      </trkpt>
      <trkpt lat="48.7441" lon="-3.26085">
        <ele>25.2</ele>
        <time>2021-03-28T12:45:02Z</time>
      </trkpt>
      <trkpt lat="48.7441" lon="-3.26085">
        <ele>25.2</ele>
        <time>2021-03-28T12:45:04Z</time>
      </trkpt>
      <trkpt lat="48.7441" lon="-3.26086">
        <ele>25.2</ele>
        <time>2021-03-28T12:45:05Z</time>
      </trkpt>
      <trkpt lat="48.7441" lon="-3.26086">
        <ele>25.2</ele>
        <time>2021-03-28T12:45:07Z</time>
      </trkpt>
      <trkpt lat="48.7441" lon="-3.26086">
        <ele>25.2</ele>
        <time>2021-03-28T12:45:08Z</time>
      </trkpt>
      <trkpt lat="48.7441" lon="-3.26086">
        <ele>25.2</ele>
        <time>2021-03-28T12:45:09Z</time>
      </trkpt>
      <trkpt lat="48.7441" lon="-3.26086">
        <ele>25.2</ele>
        <time>2021-03-28T12:45:11Z</time>
      </trkpt>
      <trkpt lat="48.7441" lon="-3.26086">
        <ele>25.2</ele>
        <time>2021-03-28T12:45:12Z</time>
      </trkpt>
      <trkpt lat="48.7441" lon="-3.26086">
        <ele>25.2</ele>
        <time>2021-03-28T12:45:14Z</time>
      </trkpt>
      <trkpt lat="48.7441" lon="-3.26086">
        <ele>25.2</ele>
        <time>2021-03-28T12:45:15Z</time>
      </trkpt>
      <trkpt lat="48.7441" lon="-3.26086">
        <ele>25.2</ele>
        <time>2021-03-28T12:45:17Z</time>
      </trkpt>
      <trkpt lat="48.7441" lon="-3.26086">
        <ele>25.2</ele>
        <time>2021-03-28T12:45:18Z</time>
      </trkpt>
      <trkpt lat="48.7441" lon="-3.26086">
        <ele>25.2</ele>
        <time>2021-03-28T12:45:20Z</time>
      </trkpt>
      <trkpt lat="48.7441" lon="-3.26086">
        <ele>25.2</ele>
        <time>2021-03-28T12:45:22Z</time>
      </trkpt>
      <trkpt lat="48.7441" lon="-3.26086">
        <ele>25.2</ele>
        <time>2021-03-28T12:45:24Z</time>
      </trkpt>
      <trkpt lat="48.7441" lon="-3.26087">
        <ele>25.2</ele>
        <time>2021-03-28T12:45:25Z</time>
      </trkpt>
      <trkpt lat="48.7441" lon="-3.26087">
        <ele>25.2</ele>
        <time>2021-03-28T12:45:27Z</time>
      </trkpt>
      <trkpt lat="48.7441" lon="-3.26087">
        <ele>25.2</ele>
        <time>2021-03-28T12:45:28Z</time>
      </trkpt>
      <trkpt lat="48.7441" lon="-3.26087">
        <ele>25.2</ele>
        <time>2021-03-28T12:45:30Z</time>
      </trkpt>
      <trkpt lat="48.7441" lon="-3.26087">
        <ele>25.2</ele>
        <time>2021-03-28T12:45:31Z</time>
      </trkpt>
      <trkpt lat="48.7441" lon="-3.26087">
        <ele>25.2</ele>
        <time>2021-03-28T12:45:32Z</time>
      </trkpt>
      <trkpt lat="48.7441" lon="-3.26087">
        <ele>25.2</ele>
        <time>2021-03-28T12:45:34Z</time>
      </trkpt>
      <trkpt lat="48.7441" lon="-3.26087">
        <ele>25.2</ele>
        <time>2021-03-28T12:45:35Z</time>
      </trkpt>
      <trkpt lat="48.7441" lon="-3.26087">
        <ele>25.2</ele>
        <time>2021-03-28T12:45:37Z</time>
      </trkpt>
      <trkpt lat="48.7441" lon="-3.26087">
        <ele>25.2</ele>
        <time>2021-03-28T12:45:39Z</time>
      </trkpt>
      <trkpt lat="48.74409" lon="-3.26087">
        <ele>25.2</ele>
        <time>2021-03-28T12:45:40Z</time>
      </trkpt>
      <trkpt lat="48.74408" lon="-3.26088">
        <ele>25.2</ele>
        <time>2021-03-28T12:45:42Z</time>
      </trkpt>
      <trkpt lat="48.74408" lon="-3.26089">
        <ele>25.2</ele>
        <time>2021-03-28T12:45:44Z</time>
      </trkpt>
      <trkpt lat="48.74408" lon="-3.26089">
        <ele>25.2</ele>
        <time>2021-03-28T12:45:45Z</time>
      </trkpt>
      <trkpt lat="48.74408" lon="-3.26089">
        <ele>25.2</ele>
        <time>2021-03-28T12:45:47Z</time>
      </trkpt>
      <trkpt lat="48.74408" lon="-3.26089">
        <ele>25.2</ele>
        <time>2021-03-28T12:45:49Z</time>
      </trkpt>
      <trkpt lat="48.74408" lon="-3.26089">
        <ele>25.2</ele>
        <time>2021-03-28T12:45:51Z</time>
      </trkpt>
      <trkpt lat="48.74408" lon="-3.26089">
        <ele>25.2</ele>
        <time>2021-03-28T12:45:52Z</time>
      </trkpt>
      <trkpt lat="48.74408" lon="-3.26089">
        <ele>25.2</ele>
        <time>2021-03-28T12:45:53Z</time>
      </trkpt>
      <trkpt lat="48.74408" lon="-3.26089">
        <ele>25.2</ele>
        <time>2021-03-28T12:45:55Z</time>
      </trkpt>
      <trkpt lat="48.74408" lon="-3.26089">
        <ele>25.2</ele>
        <time>2021-03-28T12:45:56Z</time>
      </trkpt>
      <trkpt lat="48.74408" lon="-3.26089">
        <ele>25.2</ele>
        <time>2021-03-28T12:45:58Z</time>
      </trkpt>
      <trkpt lat="48.74408" lon="-3.26089">
        <ele>25.2</ele>
        <time>2021-03-28T12:45:59Z</time>
      </trkpt>
      <trkpt lat="48.74408" lon="-3.26089">
        <ele>25.2</ele>
        <time>2021-03-28T12:46:01Z</time>
      </trkpt>
      <trkpt lat="48.74408" lon="-3.26089">
        <ele>25.2</ele>
        <time>2021-03-28T12:46:02Z</time>
      </trkpt>
      <trkpt lat="48.74408" lon="-3.26089">
        <ele>25.2</ele>
        <time>2021-03-28T12:46:04Z</time>
      </trkpt>
      <trkpt lat="48.74408" lon="-3.26089">
        <ele>25.2</ele>
        <time>2021-03-28T12:46:05Z</time>
      </trkpt>
      <trkpt lat="48.74408" lon="-3.26088">
        <ele>25.2</ele>
        <time>2021-03-28T12:46:07Z</time>
      </trkpt>
      <trkpt lat="48.74408" lon="-3.26089">
        <ele>25.2</ele>
        <time>2021-03-28T12:46:09Z</time>
      </trkpt>
      <trkpt lat="48.74408" lon="-3.26089">
        <ele>25.2</ele>
        <time>2021-03-28T12:46:11Z</time>
      </trkpt>
      <trkpt lat="48.74408" lon="-3.26089">
        <ele>25.2</ele>
        <time>2021-03-28T12:46:12Z</time>
      </trkpt>
      <trkpt lat="48.74408" lon="-3.26088">
        <ele>25.2</ele>
        <time>2021-03-28T12:46:13Z</time>
      </trkpt>
      <trkpt lat="48.74407" lon="-3.26088">
        <ele>25.2</ele>
        <time>2021-03-28T12:46:15Z</time>
      </trkpt>
      <trkpt lat="48.74407" lon="-3.26086">
        <ele>25.2</ele>
        <time>2021-03-28T12:46:16Z</time>
      </trkpt>
      <trkpt lat="48.74405" lon="-3.26086">
        <ele>25.2</ele>
        <time>2021-03-28T12:46:18Z</time>
      </trkpt>
      <trkpt lat="48.74404" lon="-3.26086">
        <ele>25.2</ele>
        <time>2021-03-28T12:46:19Z</time>
      </trkpt>
      <trkpt lat="48.74402" lon="-3.26088">
        <ele>25.2</ele>
        <time>2021-03-28T12:46:21Z</time>
      </trkpt>
      <trkpt lat="48.74401" lon="-3.26088">
        <ele>25.2</ele>
        <time>2021-03-28T12:46:22Z</time>
      </trkpt>
      <trkpt lat="48.74401" lon="-3.26089">
        <ele>25.2</ele>
        <time>2021-03-28T12:46:23Z</time>
      </trkpt>
      <trkpt lat="48.74399" lon="-3.26089">
        <ele>25.2</ele>
        <time>2021-03-28T12:46:25Z</time>
      </trkpt>
      <trkpt lat="48.74397" lon="-3.26089">
        <ele>25.2</ele>
        <time>2021-03-28T12:46:27Z</time>
      </trkpt>
      <trkpt lat="48.74396" lon="-3.26087">
        <ele>25.2</ele>
        <time>2021-03-28T12:46:28Z</time>
      </trkpt>
      <trkpt lat="48.74395" lon="-3.26086">
        <ele>25.2</ele>
        <time>2021-03-28T12:46:30Z</time>
      </trkpt>
      <trkpt lat="48.74394" lon="-3.26086">
        <ele>25.2</ele>
        <time>2021-03-28T12:46:32Z</time>
      </trkpt>
      <trkpt lat="48.74392" lon="-3.26085">
        <ele>25.2</ele>
        <time>2021-03-28T12:46:34Z</time>
      </trkpt>
      <trkpt lat="48.7439" lon="-3.26085">
        <ele>25.2</ele>
        <time>2021-03-28T12:46:35Z</time>
      </trkpt>
      <trkpt lat="48.74389" lon="-3.26085">
        <ele>25.2</ele>
        <time>2021-03-28T12:46:36Z</time>
      </trkpt>
      <trkpt lat="48.74388" lon="-3.26085">
        <ele>25.2</ele>
        <time>2021-03-28T12:46:37Z</time>
      </trkpt>
      <trkpt lat="48.74386" lon="-3.26085">
        <ele>25.2</ele>
        <time>2021-03-28T12:46:38Z</time>
      </trkpt>
      <trkpt lat="48.74385" lon="-3.26085">
        <ele>25.2</ele>
        <time>2021-03-28T12:46:39Z</time>
      </trkpt>
      <trkpt lat="48.74383" lon="-3.26085">
        <ele>25.3</ele>
        <time>2021-03-28T12:46:41Z</time>
      </trkpt>
      <trkpt lat="48.7438" lon="-3.26086">
        <ele>25.3</ele>
        <time>2021-03-28T12:46:43Z</time>
      </trkpt>
      <trkpt lat="48.74378" lon="-3.26088">
        <ele>25.3</ele>
        <time>2021-03-28T12:46:44Z</time>
      </trkpt>
      <trkpt lat="48.74377" lon="-3.26089">
        <ele>25.3</ele>
        <time>2021-03-28T12:46:45Z</time>
      </trkpt>
      <trkpt lat="48.74376" lon="-3.26089">
        <ele>25.3</ele>
        <time>2021-03-28T12:46:46Z</time>
      </trkpt>
      <trkpt lat="48.74373" lon="-3.26089">
        <ele>25.3</ele>
        <time>2021-03-28T12:46:48Z</time>
      </trkpt>
      <trkpt lat="48.74372" lon="-3.2609">
        <ele>25.3</ele>
        <time>2021-03-28T12:46:49Z</time>
      </trkpt>
      <trkpt lat="48.7437" lon="-3.2609">
        <ele>25.4</ele>
        <time>2021-03-28T12:46:50Z</time>
      </trkpt>
      <trkpt lat="48.74368" lon="-3.26091">
        <ele>25.4</ele>
        <time>2021-03-28T12:46:51Z</time>
      </trkpt>
      <trkpt lat="48.74367" lon="-3.26091">
        <ele>25.4</ele>
        <time>2021-03-28T12:46:53Z</time>
      </trkpt>
      <trkpt lat="48.74365" lon="-3.26091">
        <ele>25.4</ele>
        <time>2021-03-28T12:46:54Z</time>
      </trkpt>
      <trkpt lat="48.74363" lon="-3.26093">
        <ele>25.5</ele>
        <time>2021-03-28T12:46:55Z</time>
      </trkpt>
      <trkpt lat="48.74362" lon="-3.26093">
        <ele>25.5</ele>
        <time>2021-03-28T12:46:57Z</time>
      </trkpt>
      <trkpt lat="48.7436" lon="-3.26094">
        <ele>25.5</ele>
        <time>2021-03-28T12:46:58Z</time>
      </trkpt>
      <trkpt lat="48.74357" lon="-3.26095">
        <ele>25.6</ele>
        <time>2021-03-28T12:47:00Z</time>
      </trkpt>
      <trkpt lat="48.74356" lon="-3.26096">
        <ele>25.6</ele>
        <time>2021-03-28T12:47:01Z</time>
      </trkpt>
      <trkpt lat="48.74355" lon="-3.26097">
        <ele>25.7</ele>
        <time>2021-03-28T12:47:02Z</time>
      </trkpt>
      <trkpt lat="48.74352" lon="-3.26099">
        <ele>25.8</ele>
        <time>2021-03-28T12:47:04Z</time>
      </trkpt>
      <trkpt lat="48.74352" lon="-3.261">
        <ele>25.8</ele>
        <time>2021-03-28T12:47:06Z</time>
      </trkpt>
      <trkpt lat="48.74351" lon="-3.26101">
        <ele>25.8</ele>
        <time>2021-03-28T12:47:07Z</time>
      </trkpt>
      <trkpt lat="48.7435" lon="-3.26102">
        <ele>25.9</ele>
        <time>2021-03-28T12:47:08Z</time>
      </trkpt>
      <trkpt lat="48.74347" lon="-3.26103">
        <ele>26</ele>
        <time>2021-03-28T12:47:10Z</time>
      </trkpt>
      <trkpt lat="48.74346" lon="-3.26103">
        <ele>26</ele>
        <time>2021-03-28T12:47:11Z</time>
      </trkpt>
      <trkpt lat="48.74342" lon="-3.26105">
        <ele>26.2</ele>
        <time>2021-03-28T12:47:13Z</time>
      </trkpt>
      <trkpt lat="48.74341" lon="-3.26106">
        <ele>26.2</ele>
        <time>2021-03-28T12:47:15Z</time>
      </trkpt>
      <trkpt lat="48.7434" lon="-3.26106">
        <ele>26.2</ele>
        <time>2021-03-28T12:47:16Z</time>
      </trkpt>
      <trkpt lat="48.74339" lon="-3.26107">
        <ele>26.3</ele>
        <time>2021-03-28T12:47:17Z</time>
      </trkpt>
      <trkpt lat="48.74337" lon="-3.26108">
        <ele>26.4</ele>
        <time>2021-03-28T12:47:19Z</time>
      </trkpt>
      <trkpt lat="48.74335" lon="-3.26109">
        <ele>26.4</ele>
        <time>2021-03-28T12:47:21Z</time>
      </trkpt>
      <trkpt lat="48.74334" lon="-3.26109">
        <ele>26.5</ele>
        <time>2021-03-28T12:47:22Z</time>
      </trkpt>
      <trkpt lat="48.74332" lon="-3.2611">
        <ele>26.5</ele>
        <time>2021-03-28T12:47:23Z</time>
      </trkpt>
      <trkpt lat="48.7433" lon="-3.26112">
        <ele>26.6</ele>
        <time>2021-03-28T12:47:25Z</time>
      </trkpt>
      <trkpt lat="48.74327" lon="-3.26113">
        <ele>26.7</ele>
        <time>2021-03-28T12:47:26Z</time>
      </trkpt>
      <trkpt lat="48.74326" lon="-3.26114">
        <ele>26.7</ele>
        <time>2021-03-28T12:47:28Z</time>
      </trkpt>
      <trkpt lat="48.74325" lon="-3.26114">
        <ele>26.8</ele>
        <time>2021-03-28T12:47:30Z</time>
      </trkpt>
      <trkpt lat="48.74323" lon="-3.26115">
        <ele>26.8</ele>
        <time>2021-03-28T12:47:31Z</time>
      </trkpt>
      <trkpt lat="48.74322" lon="-3.26115">
        <ele>26.9</ele>
        <time>2021-03-28T12:47:32Z</time>
      </trkpt>
      <trkpt lat="48.7432" lon="-3.26116">
        <ele>27</ele>
        <time>2021-03-28T12:47:34Z</time>
      </trkpt>
      <trkpt lat="48.74319" lon="-3.26116">
        <ele>27</ele>
        <time>2021-03-28T12:47:35Z</time>
      </trkpt>
      <trkpt lat="48.74317" lon="-3.26116">
        <ele>27.1</ele>
        <time>2021-03-28T12:47:36Z</time>
      </trkpt>
      <trkpt lat="48.74316" lon="-3.26117">
        <ele>27.1</ele>
        <time>2021-03-28T12:47:38Z</time>
      </trkpt>
      <trkpt lat="48.74315" lon="-3.26118">
        <ele>27.2</ele>
        <time>2021-03-28T12:47:39Z</time>
      </trkpt>
      <trkpt lat="48.74313" lon="-3.26119">
        <ele>27.2</ele>
        <time>2021-03-28T12:47:40Z</time>
      </trkpt>
      <trkpt lat="48.74312" lon="-3.26119">
        <ele>27.3</ele>
        <time>2021-03-28T12:47:42Z</time>
      </trkpt>
      <trkpt lat="48.7431" lon="-3.2612">
        <ele>27.3</ele>
        <time>2021-03-28T12:47:43Z</time>
      </trkpt>
      <trkpt lat="48.74309" lon="-3.2612">
        <ele>27.4</ele>
        <time>2021-03-28T12:47:44Z</time>
      </trkpt>
      <trkpt lat="48.74307" lon="-3.26121">
        <ele>27.4</ele>
        <time>2021-03-28T12:47:45Z</time>
      </trkpt>
      <trkpt lat="48.74306" lon="-3.26122">
        <ele>27.5</ele>
        <time>2021-03-28T12:47:47Z</time>
      </trkpt>
      <trkpt lat="48.74305" lon="-3.26122">
        <ele>27.5</ele>
        <time>2021-03-28T12:47:48Z</time>
      </trkpt>
      <trkpt lat="48.74303" lon="-3.26123">
        <ele>27.6</ele>
        <time>2021-03-28T12:47:49Z</time>
      </trkpt>
      <trkpt lat="48.74301" lon="-3.26124">
        <ele>27.7</ele>
        <time>2021-03-28T12:47:51Z</time>
      </trkpt>
      <trkpt lat="48.743" lon="-3.26125">
        <ele>27.7</ele>
        <time>2021-03-28T12:47:52Z</time>
      </trkpt>
      <trkpt lat="48.74299" lon="-3.26125">
        <ele>27.8</ele>
        <time>2021-03-28T12:47:53Z</time>
      </trkpt>
      <trkpt lat="48.74298" lon="-3.26126">
        <ele>27.8</ele>
        <time>2021-03-28T12:47:54Z</time>
      </trkpt>
      <trkpt lat="48.74296" lon="-3.26127">
        <ele>27.9</ele>
        <time>2021-03-28T12:47:56Z</time>
      </trkpt>
      <trkpt lat="48.74294" lon="-3.26128">
        <ele>28</ele>
        <time>2021-03-28T12:47:57Z</time>
      </trkpt>
      <trkpt lat="48.74293" lon="-3.26129">
        <ele>28</ele>
        <time>2021-03-28T12:47:58Z</time>
      </trkpt>
      <trkpt lat="48.74291" lon="-3.2613">
        <ele>28.1</ele>
        <time>2021-03-28T12:47:59Z</time>
      </trkpt>
      <trkpt lat="48.7429" lon="-3.26131">
        <ele>28.2</ele>
        <time>2021-03-28T12:48:01Z</time>
      </trkpt>
      <trkpt lat="48.74288" lon="-3.26132">
        <ele>28.2</ele>
        <time>2021-03-28T12:48:02Z</time>
      </trkpt>
      <trkpt lat="48.74285" lon="-3.26132">
        <ele>28.3</ele>
        <time>2021-03-28T12:48:04Z</time>
      </trkpt>
      <trkpt lat="48.74282" lon="-3.2613">
        <ele>28.4</ele>
        <time>2021-03-28T12:48:06Z</time>
      </trkpt>
      <trkpt lat="48.74281" lon="-3.2613">
        <ele>28.5</ele>
        <time>2021-03-28T12:48:07Z</time>
      </trkpt>
      <trkpt lat="48.74279" lon="-3.2613">
        <ele>28.6</ele>
        <time>2021-03-28T12:48:08Z</time>
      </trkpt>
      <trkpt lat="48.74277" lon="-3.2613">
        <ele>28.6</ele>
        <time>2021-03-28T12:48:09Z</time>
      </trkpt>
      <trkpt lat="48.74276" lon="-3.2613">
        <ele>28.7</ele>
        <time>2021-03-28T12:48:11Z</time>
      </trkpt>
      <trkpt lat="48.74275" lon="-3.2613">
        <ele>28.7</ele>
        <time>2021-03-28T12:48:12Z</time>
      </trkpt>
      <trkpt lat="48.74272" lon="-3.26131">
        <ele>28.8</ele>
        <time>2021-03-28T12:48:14Z</time>
      </trkpt>
      <trkpt lat="48.74271" lon="-3.26132">
        <ele>28.8</ele>
        <time>2021-03-28T12:48:15Z</time>
      </trkpt>
      <trkpt lat="48.74269" lon="-3.26134">
        <ele>28.9</ele>
        <time>2021-03-28T12:48:17Z</time>
      </trkpt>
      <trkpt lat="48.74267" lon="-3.26134">
        <ele>29</ele>
        <time>2021-03-28T12:48:19Z</time>
      </trkpt>
      <trkpt lat="48.74264" lon="-3.26135">
        <ele>29</ele>
        <time>2021-03-28T12:48:21Z</time>
      </trkpt>
      <trkpt lat="48.74261" lon="-3.26135">
        <ele>29.1</ele>
        <time>2021-03-28T12:48:22Z</time>
      </trkpt>
      <trkpt lat="48.7426" lon="-3.26135">
        <ele>29.1</ele>
        <time>2021-03-28T12:48:23Z</time>
      </trkpt>
      <trkpt lat="48.74259" lon="-3.26135">
        <ele>29.2</ele>
        <time>2021-03-28T12:48:25Z</time>
      </trkpt>
      <trkpt lat="48.74257" lon="-3.26135">
        <ele>29.2</ele>
        <time>2021-03-28T12:48:26Z</time>
      </trkpt>
      <trkpt lat="48.74256" lon="-3.26135">
        <ele>29.3</ele>
        <time>2021-03-28T12:48:27Z</time>
      </trkpt>
      <trkpt lat="48.74254" lon="-3.26135">
        <ele>29.3</ele>
        <time>2021-03-28T12:48:28Z</time>
      </trkpt>
      <trkpt lat="48.74252" lon="-3.26136">
        <ele>29.4</ele>
        <time>2021-03-28T12:48:30Z</time>
      </trkpt>
      <trkpt lat="48.74251" lon="-3.26136">
        <ele>29.4</ele>
        <time>2021-03-28T12:48:31Z</time>
      </trkpt>
      <trkpt lat="48.7425" lon="-3.26137">
        <ele>29.5</ele>
        <time>2021-03-28T12:48:32Z</time>
      </trkpt>
      <trkpt lat="48.74247" lon="-3.26137">
        <ele>29.5</ele>
        <time>2021-03-28T12:48:34Z</time>
      </trkpt>
      <trkpt lat="48.74245" lon="-3.26139">
        <ele>29.6</ele>
        <time>2021-03-28T12:48:35Z</time>
      </trkpt>
      <trkpt lat="48.74244" lon="-3.2614">
        <ele>29.7</ele>
        <time>2021-03-28T12:48:36Z</time>
      </trkpt>
      <trkpt lat="48.74243" lon="-3.26141">
        <ele>29.7</ele>
        <time>2021-03-28T12:48:38Z</time>
      </trkpt>
      <trkpt lat="48.74242" lon="-3.26142">
        <ele>29.7</ele>
        <time>2021-03-28T12:48:39Z</time>
      </trkpt>
      <trkpt lat="48.74238" lon="-3.26141">
        <ele>29.8</ele>
        <time>2021-03-28T12:48:41Z</time>
      </trkpt>
      <trkpt lat="48.74237" lon="-3.26141">
        <ele>29.8</ele>
        <time>2021-03-28T12:48:42Z</time>
      </trkpt>
      <trkpt lat="48.74235" lon="-3.26139">
        <ele>29.8</ele>
        <time>2021-03-28T12:48:43Z</time>
      </trkpt>
      <trkpt lat="48.74233" lon="-3.26137">
        <ele>29.9</ele>
        <time>2021-03-28T12:48:45Z</time>
      </trkpt>
      <trkpt lat="48.7423" lon="-3.26136">
        <ele>29.9</ele>
        <time>2021-03-28T12:48:47Z</time>
      </trkpt>
      <trkpt lat="48.74228" lon="-3.26136">
        <ele>30</ele>
        <time>2021-03-28T12:48:48Z</time>
      </trkpt>
      <trkpt lat="48.74227" lon="-3.26135">
        <ele>30</ele>
        <time>2021-03-28T12:48:50Z</time>
      </trkpt>
      <trkpt lat="48.74224" lon="-3.26135">
        <ele>30</ele>
        <time>2021-03-28T12:48:52Z</time>
      </trkpt>
      <trkpt lat="48.74223" lon="-3.26135">
        <ele>30</ele>
        <time>2021-03-28T12:48:53Z</time>
      </trkpt>
      <trkpt lat="48.7422" lon="-3.26134">
        <ele>30.1</ele>
        <time>2021-03-28T12:48:55Z</time>
      </trkpt>
      <trkpt lat="48.74218" lon="-3.26134">
        <ele>30.2</ele>
        <time>2021-03-28T12:48:56Z</time>
      </trkpt>
      <trkpt lat="48.74217" lon="-3.26134">
        <ele>30.2</ele>
        <time>2021-03-28T12:48:58Z</time>
      </trkpt>
      <trkpt lat="48.74215" lon="-3.26134">
        <ele>30.3</ele>
        <time>2021-03-28T12:48:59Z</time>
      </trkpt>
      <trkpt lat="48.74213" lon="-3.26133">
        <ele>30.4</ele>
        <time>2021-03-28T12:49:01Z</time>
      </trkpt>
      <trkpt lat="48.74212" lon="-3.26133">
        <ele>30.5</ele>
        <time>2021-03-28T12:49:02Z</time>
      </trkpt>
      <trkpt lat="48.7421" lon="-3.26132">
        <ele>30.6</ele>
        <time>2021-03-28T12:49:03Z</time>
      </trkpt>
      <trkpt lat="48.74208" lon="-3.26131">
        <ele>30.7</ele>
        <time>2021-03-28T12:49:04Z</time>
      </trkpt>
      <trkpt lat="48.74207" lon="-3.2613">
        <ele>30.8</ele>
        <time>2021-03-28T12:49:06Z</time>
      </trkpt>
      <trkpt lat="48.74206" lon="-3.2613">
        <ele>30.8</ele>
        <time>2021-03-28T12:49:07Z</time>
      </trkpt>
      <trkpt lat="48.74204" lon="-3.26129">
        <ele>30.9</ele>
        <time>2021-03-28T12:49:08Z</time>
      </trkpt>
      <trkpt lat="48.74203" lon="-3.26128">
        <ele>31</ele>
        <time>2021-03-28T12:49:10Z</time>
      </trkpt>
      <trkpt lat="48.74202" lon="-3.26128">
        <ele>31.1</ele>
        <time>2021-03-28T12:49:11Z</time>
      </trkpt>
      <trkpt lat="48.74199" lon="-3.26127">
        <ele>31.2</ele>
        <time>2021-03-28T12:49:13Z</time>
      </trkpt>
      <trkpt lat="48.74196" lon="-3.26126">
        <ele>31.4</ele>
        <time>2021-03-28T12:49:15Z</time>
      </trkpt>
      <trkpt lat="48.74195" lon="-3.26126">
        <ele>31.4</ele>
        <time>2021-03-28T12:49:16Z</time>
      </trkpt>
      <trkpt lat="48.74193" lon="-3.26127">
        <ele>31.5</ele>
        <time>2021-03-28T12:49:18Z</time>
      </trkpt>
      <trkpt lat="48.7419" lon="-3.26126">
        <ele>31.6</ele>
        <time>2021-03-28T12:49:20Z</time>
      </trkpt>
      <trkpt lat="48.74188" lon="-3.26125">
        <ele>31.7</ele>
        <time>2021-03-28T12:49:22Z</time>
      </trkpt>
      <trkpt lat="48.74185" lon="-3.26125">
        <ele>31.8</ele>
        <time>2021-03-28T12:49:24Z</time>
      </trkpt>
      <trkpt lat="48.74182" lon="-3.26125">
        <ele>32</ele>
        <time>2021-03-28T12:49:26Z</time>
      </trkpt>
      <trkpt lat="48.74181" lon="-3.26124">
        <ele>32.1</ele>
        <time>2021-03-28T12:49:27Z</time>
      </trkpt>
      <trkpt lat="48.74178" lon="-3.26123">
        <ele>32.2</ele>
        <time>2021-03-28T12:49:29Z</time>
      </trkpt>
      <trkpt lat="48.74176" lon="-3.26122">
        <ele>32.5</ele>
        <time>2021-03-28T12:49:30Z</time>
      </trkpt>
      <trkpt lat="48.74174" lon="-3.26123">
        <ele>32.5</ele>
        <time>2021-03-28T12:49:32Z</time>
      </trkpt>
      <trkpt lat="48.74173" lon="-3.26125">
        <ele>32.4</ele>
        <time>2021-03-28T12:49:33Z</time>
      </trkpt>
      <trkpt lat="48.74173" lon="-3.26127">
        <ele>32.3</ele>
        <time>2021-03-28T12:49:34Z</time>
      </trkpt>
      <trkpt lat="48.74172" lon="-3.2613">
        <ele>32.3</ele>
        <time>2021-03-28T12:49:36Z</time>
      </trkpt>
      <trkpt lat="48.74172" lon="-3.26132">
        <ele>32.2</ele>
        <time>2021-03-28T12:49:37Z</time>
      </trkpt>
      <trkpt lat="48.74173" lon="-3.26136">
        <ele>32.1</ele>
        <time>2021-03-28T12:49:38Z</time>
      </trkpt>
      <trkpt lat="48.74173" lon="-3.26138">
        <ele>32.1</ele>
        <time>2021-03-28T12:49:40Z</time>
      </trkpt>
      <trkpt lat="48.74174" lon="-3.2614">
        <ele>32</ele>
        <time>2021-03-28T12:49:41Z</time>
      </trkpt>
      <trkpt lat="48.74174" lon="-3.26142">
        <ele>31.9</ele>
        <time>2021-03-28T12:49:42Z</time>
      </trkpt>
      <trkpt lat="48.74175" lon="-3.26146">
        <ele>31.8</ele>
        <time>2021-03-28T12:49:43Z</time>
      </trkpt>
      <trkpt lat="48.74175" lon="-3.26147">
        <ele>31.8</ele>
        <time>2021-03-28T12:49:45Z</time>
      </trkpt>
      <trkpt lat="48.74176" lon="-3.26149">
        <ele>31.7</ele>
        <time>2021-03-28T12:49:46Z</time>
      </trkpt>
      <trkpt lat="48.74176" lon="-3.26151">
        <ele>31.6</ele>
        <time>2021-03-28T12:49:47Z</time>
      </trkpt>
      <trkpt lat="48.74176" lon="-3.26154">
        <ele>31.6</ele>
        <time>2021-03-28T12:49:49Z</time>
      </trkpt>
      <trkpt lat="48.74177" lon="-3.26155">
        <ele>31.5</ele>
        <time>2021-03-28T12:49:50Z</time>
      </trkpt>
      <trkpt lat="48.74177" lon="-3.26157">
        <ele>31.4</ele>
        <time>2021-03-28T12:49:51Z</time>
      </trkpt>
      <trkpt lat="48.74177" lon="-3.26161">
        <ele>31.3</ele>
        <time>2021-03-28T12:49:52Z</time>
      </trkpt>
      <trkpt lat="48.74177" lon="-3.26162">
        <ele>31.3</ele>
        <time>2021-03-28T12:49:54Z</time>
      </trkpt>
      <trkpt lat="48.74178" lon="-3.26164">
        <ele>31.2</ele>
        <time>2021-03-28T12:49:55Z</time>
      </trkpt>
      <trkpt lat="48.74178" lon="-3.26166">
        <ele>31.1</ele>
        <time>2021-03-28T12:49:56Z</time>
      </trkpt>
      <trkpt lat="48.74178" lon="-3.26169">
        <ele>31.1</ele>
        <time>2021-03-28T12:49:58Z</time>
      </trkpt>
      <trkpt lat="48.74178" lon="-3.26171">
        <ele>31</ele>
        <time>2021-03-28T12:49:59Z</time>
      </trkpt>
      <trkpt lat="48.74178" lon="-3.26175">
        <ele>30.8</ele>
        <time>2021-03-28T12:50:01Z</time>
      </trkpt>
      <trkpt lat="48.74178" lon="-3.2618">
        <ele>30.7</ele>
        <time>2021-03-28T12:50:03Z</time>
      </trkpt>
      <trkpt lat="48.74178" lon="-3.26181">
        <ele>30.6</ele>
        <time>2021-03-28T12:50:04Z</time>
      </trkpt>
      <trkpt lat="48.74178" lon="-3.26186">
        <ele>30.4</ele>
        <time>2021-03-28T12:50:06Z</time>
      </trkpt>
      <trkpt lat="48.74178" lon="-3.26187">
        <ele>30.4</ele>
        <time>2021-03-28T12:50:07Z</time>
      </trkpt>
      <trkpt lat="48.74179" lon="-3.2619">
        <ele>30.3</ele>
        <time>2021-03-28T12:50:08Z</time>
      </trkpt>
      <trkpt lat="48.74178" lon="-3.26192">
        <ele>30.2</ele>
        <time>2021-03-28T12:50:10Z</time>
      </trkpt>
      <trkpt lat="48.74177" lon="-3.26195">
        <ele>30.1</ele>
        <time>2021-03-28T12:50:11Z</time>
      </trkpt>
      <trkpt lat="48.74176" lon="-3.26196">
        <ele>30</ele>
        <time>2021-03-28T12:50:12Z</time>
      </trkpt>
      <trkpt lat="48.74174" lon="-3.26199">
        <ele>29.8</ele>
        <time>2021-03-28T12:50:14Z</time>
      </trkpt>
      <trkpt lat="48.74172" lon="-3.26202">
        <ele>29.7</ele>
        <time>2021-03-28T12:50:16Z</time>
      </trkpt>
      <trkpt lat="48.74171" lon="-3.26205">
        <ele>29.6</ele>
        <time>2021-03-28T12:50:18Z</time>
      </trkpt>
      <trkpt lat="48.7417" lon="-3.26209">
        <ele>29.4</ele>
        <time>2021-03-28T12:50:19Z</time>
      </trkpt>
      <trkpt lat="48.7417" lon="-3.26211">
        <ele>29.4</ele>
        <time>2021-03-28T12:50:20Z</time>
      </trkpt>
      <trkpt lat="48.74168" lon="-3.26215">
        <ele>29.2</ele>
        <time>2021-03-28T12:50:21Z</time>
      </trkpt>
      <trkpt lat="48.74168" lon="-3.26216">
        <ele>29.1</ele>
        <time>2021-03-28T12:50:23Z</time>
      </trkpt>
      <trkpt lat="48.74167" lon="-3.26218">
        <ele>29.1</ele>
        <time>2021-03-28T12:50:24Z</time>
      </trkpt>
      <trkpt lat="48.74166" lon="-3.2622">
        <ele>29</ele>
        <time>2021-03-28T12:50:25Z</time>
      </trkpt>
      <trkpt lat="48.74165" lon="-3.26221">
        <ele>28.9</ele>
        <time>2021-03-28T12:50:27Z</time>
      </trkpt>
      <trkpt lat="48.74165" lon="-3.26222">
        <ele>28.9</ele>
        <time>2021-03-28T12:50:28Z</time>
      </trkpt>
      <trkpt lat="48.74164" lon="-3.26224">
        <ele>28.8</ele>
        <time>2021-03-28T12:50:29Z</time>
      </trkpt>
      <trkpt lat="48.74162" lon="-3.26228">
        <ele>28.7</ele>
        <time>2021-03-28T12:50:31Z</time>
      </trkpt>
      <trkpt lat="48.74162" lon="-3.26229">
        <ele>28.7</ele>
        <time>2021-03-28T12:50:32Z</time>
      </trkpt>
      <trkpt lat="48.74161" lon="-3.26233">
        <ele>28.5</ele>
        <time>2021-03-28T12:50:34Z</time>
      </trkpt>
      <trkpt lat="48.7416" lon="-3.26235">
        <ele>28.5</ele>
        <time>2021-03-28T12:50:35Z</time>
      </trkpt>
      <trkpt lat="48.7416" lon="-3.26238">
        <ele>28.4</ele>
        <time>2021-03-28T12:50:37Z</time>
      </trkpt>
      <trkpt lat="48.74159" lon="-3.2624">
        <ele>28.3</ele>
        <time>2021-03-28T12:50:38Z</time>
      </trkpt>
      <trkpt lat="48.74159" lon="-3.26244">
        <ele>28.2</ele>
        <time>2021-03-28T12:50:40Z</time>
      </trkpt>
      <trkpt lat="48.74157" lon="-3.26247">
        <ele>28.1</ele>
        <time>2021-03-28T12:50:42Z</time>
      </trkpt>
      <trkpt lat="48.74156" lon="-3.26248">
        <ele>28.1</ele>
        <time>2021-03-28T12:50:43Z</time>
      </trkpt>
      <trkpt lat="48.74155" lon="-3.2625">
        <ele>28</ele>
        <time>2021-03-28T12:50:44Z</time>
      </trkpt>
      <trkpt lat="48.74153" lon="-3.26252">
        <ele>28</ele>
        <time>2021-03-28T12:50:45Z</time>
      </trkpt>
      <trkpt lat="48.74152" lon="-3.26254">
        <ele>27.9</ele>
        <time>2021-03-28T12:50:46Z</time>
      </trkpt>
      <trkpt lat="48.7415" lon="-3.26256">
        <ele>27.9</ele>
        <time>2021-03-28T12:50:48Z</time>
      </trkpt>
      <trkpt lat="48.74149" lon="-3.26256">
        <ele>27.8</ele>
        <time>2021-03-28T12:50:49Z</time>
      </trkpt>
      <trkpt lat="48.74146" lon="-3.26259">
        <ele>27.8</ele>
        <time>2021-03-28T12:50:50Z</time>
      </trkpt>
      <trkpt lat="48.74145" lon="-3.26261">
        <ele>27.7</ele>
        <time>2021-03-28T12:50:52Z</time>
      </trkpt>
      <trkpt lat="48.74144" lon="-3.26262">
        <ele>27.7</ele>
        <time>2021-03-28T12:50:53Z</time>
      </trkpt>
      <trkpt lat="48.74143" lon="-3.26263">
        <ele>27.7</ele>
        <time>2021-03-28T12:50:54Z</time>
      </trkpt>
      <trkpt lat="48.74142" lon="-3.26264">
        <ele>27.7</ele>
        <time>2021-03-28T12:50:55Z</time>
      </trkpt>
      <trkpt lat="48.74141" lon="-3.26265">
        <ele>27.6</ele>
        <time>2021-03-28T12:50:57Z</time>
      </trkpt>
      <trkpt lat="48.74139" lon="-3.26266">
        <ele>27.6</ele>
        <time>2021-03-28T12:50:58Z</time>
      </trkpt>
      <trkpt lat="48.74138" lon="-3.26268">
        <ele>27.6</ele>
        <time>2021-03-28T12:50:59Z</time>
      </trkpt>
      <trkpt lat="48.74137" lon="-3.2627">
        <ele>27.6</ele>
        <time>2021-03-28T12:51:00Z</time>
      </trkpt>
      <trkpt lat="48.74135" lon="-3.26271">
        <ele>27.5</ele>
        <time>2021-03-28T12:51:02Z</time>
      </trkpt>
      <trkpt lat="48.74133" lon="-3.26274">
        <ele>27.5</ele>
        <time>2021-03-28T12:51:04Z</time>
      </trkpt>
      <trkpt lat="48.74131" lon="-3.26276">
        <ele>27.5</ele>
        <time>2021-03-28T12:51:06Z</time>
      </trkpt>
      <trkpt lat="48.7413" lon="-3.26277">
        <ele>27.4</ele>
        <time>2021-03-28T12:51:07Z</time>
      </trkpt>
      <trkpt lat="48.74128" lon="-3.2628">
        <ele>27.4</ele>
        <time>2021-03-28T12:51:09Z</time>
      </trkpt>
      <trkpt lat="48.74127" lon="-3.26281">
        <ele>27.4</ele>
        <time>2021-03-28T12:51:10Z</time>
      </trkpt>
      <trkpt lat="48.74126" lon="-3.26283">
        <ele>27.4</ele>
        <time>2021-03-28T12:51:11Z</time>
      </trkpt>
      <trkpt lat="48.74126" lon="-3.26286">
        <ele>27.3</ele>
        <time>2021-03-28T12:51:13Z</time>
      </trkpt>
      <trkpt lat="48.74126" lon="-3.26288">
        <ele>27.3</ele>
        <time>2021-03-28T12:51:14Z</time>
      </trkpt>
      <trkpt lat="48.74125" lon="-3.2629">
        <ele>27.3</ele>
        <time>2021-03-28T12:51:15Z</time>
      </trkpt>
      <trkpt lat="48.74122" lon="-3.26291">
        <ele>27.2</ele>
        <time>2021-03-28T12:51:17Z</time>
      </trkpt>
      <trkpt lat="48.74121" lon="-3.26291">
        <ele>27.2</ele>
        <time>2021-03-28T12:51:18Z</time>
      </trkpt>
      <trkpt lat="48.7412" lon="-3.26292">
        <ele>27.2</ele>
        <time>2021-03-28T12:51:19Z</time>
      </trkpt>
      <trkpt lat="48.74117" lon="-3.26292">
        <ele>27.2</ele>
        <time>2021-03-28T12:51:21Z</time>
      </trkpt>
      <trkpt lat="48.74115" lon="-3.26293">
        <ele>27.1</ele>
        <time>2021-03-28T12:51:22Z</time>
      </trkpt>
      <trkpt lat="48.74114" lon="-3.26295">
        <ele>27.1</ele>
        <time>2021-03-28T12:51:23Z</time>
      </trkpt>
      <trkpt lat="48.74113" lon="-3.26295">
        <ele>27.1</ele>
        <time>2021-03-28T12:51:24Z</time>
      </trkpt>
      <trkpt lat="48.74111" lon="-3.26295">
        <ele>27</ele>
        <time>2021-03-28T12:51:26Z</time>
      </trkpt>
      <trkpt lat="48.74109" lon="-3.26295">
        <ele>27</ele>
        <time>2021-03-28T12:51:27Z</time>
      </trkpt>
      <trkpt lat="48.74107" lon="-3.26296">
        <ele>26.9</ele>
        <time>2021-03-28T12:51:29Z</time>
      </trkpt>
      <trkpt lat="48.74106" lon="-3.26301">
        <ele>26.9</ele>
        <time>2021-03-28T12:51:31Z</time>
      </trkpt>
      <trkpt lat="48.74106" lon="-3.26302">
        <ele>26.8</ele>
        <time>2021-03-28T12:51:32Z</time>
      </trkpt>
      <trkpt lat="48.74102" lon="-3.26305">
        <ele>26.8</ele>
        <time>2021-03-28T12:51:35Z</time>
      </trkpt>
      <trkpt lat="48.74101" lon="-3.26306">
        <ele>26.7</ele>
        <time>2021-03-28T12:51:36Z</time>
      </trkpt>
      <trkpt lat="48.741" lon="-3.26306">
        <ele>26.7</ele>
        <time>2021-03-28T12:51:37Z</time>
      </trkpt>
      <trkpt lat="48.74097" lon="-3.26305">
        <ele>26.6</ele>
        <time>2021-03-28T12:51:38Z</time>
      </trkpt>
      <trkpt lat="48.74096" lon="-3.26305">
        <ele>26.6</ele>
        <time>2021-03-28T12:51:39Z</time>
      </trkpt>
      <trkpt lat="48.74094" lon="-3.26304">
        <ele>26.6</ele>
        <time>2021-03-28T12:51:41Z</time>
      </trkpt>
      <trkpt lat="48.74093" lon="-3.26306">
        <ele>26.5</ele>
        <time>2021-03-28T12:51:42Z</time>
      </trkpt>
      <trkpt lat="48.74091" lon="-3.26308">
        <ele>26.5</ele>
        <time>2021-03-28T12:51:44Z</time>
      </trkpt>
      <trkpt lat="48.74089" lon="-3.26313">
        <ele>26.4</ele>
        <time>2021-03-28T12:51:45Z</time>
      </trkpt>
      <trkpt lat="48.74088" lon="-3.26315">
        <ele>26.3</ele>
        <time>2021-03-28T12:51:46Z</time>
      </trkpt>
      <trkpt lat="48.74086" lon="-3.26316">
        <ele>26.3</ele>
        <time>2021-03-28T12:51:48Z</time>
      </trkpt>
      <trkpt lat="48.74085" lon="-3.26318">
        <ele>26.3</ele>
        <time>2021-03-28T12:51:49Z</time>
      </trkpt>
      <trkpt lat="48.74083" lon="-3.26321">
        <ele>26.2</ele>
        <time>2021-03-28T12:51:51Z</time>
      </trkpt>
      <trkpt lat="48.74082" lon="-3.26323">
        <ele>26.2</ele>
        <time>2021-03-28T12:51:52Z</time>
      </trkpt>
      <trkpt lat="48.7408" lon="-3.26324">
        <ele>26.1</ele>
        <time>2021-03-28T12:51:53Z</time>
      </trkpt>
      <trkpt lat="48.74078" lon="-3.26326">
        <ele>26</ele>
        <time>2021-03-28T12:51:55Z</time>
      </trkpt>
      <trkpt lat="48.74077" lon="-3.26327">
        <ele>26</ele>
        <time>2021-03-28T12:51:56Z</time>
      </trkpt>
      <trkpt lat="48.74076" lon="-3.26327">
        <ele>26</ele>
        <time>2021-03-28T12:51:57Z</time>
      </trkpt>
      <trkpt lat="48.74074" lon="-3.26328">
        <ele>25.9</ele>
        <time>2021-03-28T12:51:59Z</time>
      </trkpt>
      <trkpt lat="48.74073" lon="-3.26329">
        <ele>25.9</ele>
        <time>2021-03-28T12:52:00Z</time>
      </trkpt>
      <trkpt lat="48.74071" lon="-3.26331">
        <ele>25.8</ele>
        <time>2021-03-28T12:52:02Z</time>
      </trkpt>
      <trkpt lat="48.74068" lon="-3.26334">
        <ele>25.8</ele>
        <time>2021-03-28T12:52:03Z</time>
      </trkpt>
      <trkpt lat="48.74067" lon="-3.26335">
        <ele>25.7</ele>
        <time>2021-03-28T12:52:05Z</time>
      </trkpt>
      <trkpt lat="48.74066" lon="-3.26337">
        <ele>25.7</ele>
        <time>2021-03-28T12:52:07Z</time>
      </trkpt>
      <trkpt lat="48.74064" lon="-3.26339">
        <ele>25.6</ele>
        <time>2021-03-28T12:52:09Z</time>
      </trkpt>
      <trkpt lat="48.74063" lon="-3.2634">
        <ele>25.6</ele>
        <time>2021-03-28T12:52:10Z</time>
      </trkpt>
      <trkpt lat="48.74061" lon="-3.26343">
        <ele>25.5</ele>
        <time>2021-03-28T12:52:11Z</time>
      </trkpt>
      <trkpt lat="48.74059" lon="-3.26344">
        <ele>25.4</ele>
        <time>2021-03-28T12:52:13Z</time>
      </trkpt>
      <trkpt lat="48.74058" lon="-3.26345">
        <ele>25.4</ele>
        <time>2021-03-28T12:52:15Z</time>
      </trkpt>
      <trkpt lat="48.74056" lon="-3.26346">
        <ele>25.3</ele>
        <time>2021-03-28T12:52:16Z</time>
      </trkpt>
      <trkpt lat="48.74054" lon="-3.26348">
        <ele>25.2</ele>
        <time>2021-03-28T12:52:18Z</time>
      </trkpt>
      <trkpt lat="48.74053" lon="-3.26349">
        <ele>25.2</ele>
        <time>2021-03-28T12:52:19Z</time>
      </trkpt>
      <trkpt lat="48.74053" lon="-3.2635">
        <ele>25.2</ele>
        <time>2021-03-28T12:52:20Z</time>
      </trkpt>
      <trkpt lat="48.74052" lon="-3.26352">
        <ele>25.1</ele>
        <time>2021-03-28T12:52:21Z</time>
      </trkpt>
      <trkpt lat="48.74051" lon="-3.26354">
        <ele>25</ele>
        <time>2021-03-28T12:52:23Z</time>
      </trkpt>
      <trkpt lat="48.7405" lon="-3.26355">
        <ele>25</ele>
        <time>2021-03-28T12:52:24Z</time>
      </trkpt>
      <trkpt lat="48.74048" lon="-3.26356">
        <ele>24.9</ele>
        <time>2021-03-28T12:52:25Z</time>
      </trkpt>
      <trkpt lat="48.74047" lon="-3.26358">
        <ele>24.8</ele>
        <time>2021-03-28T12:52:26Z</time>
      </trkpt>
      <trkpt lat="48.74046" lon="-3.2636">
        <ele>24.8</ele>
        <time>2021-03-28T12:52:27Z</time>
      </trkpt>
      <trkpt lat="48.74044" lon="-3.26362">
        <ele>24.7</ele>
        <time>2021-03-28T12:52:29Z</time>
      </trkpt>
      <trkpt lat="48.74043" lon="-3.26363">
        <ele>24.6</ele>
        <time>2021-03-28T12:52:30Z</time>
      </trkpt>
      <trkpt lat="48.74041" lon="-3.26369">
        <ele>24.4</ele>
        <time>2021-03-28T12:52:32Z</time>
      </trkpt>
      <trkpt lat="48.7404" lon="-3.2637">
        <ele>24.3</ele>
        <time>2021-03-28T12:52:33Z</time>
      </trkpt>
      <trkpt lat="48.7404" lon="-3.26372">
        <ele>24.2</ele>
        <time>2021-03-28T12:52:35Z</time>
      </trkpt>
      <trkpt lat="48.74039" lon="-3.26374">
        <ele>24.1</ele>
        <time>2021-03-28T12:52:37Z</time>
      </trkpt>
      <trkpt lat="48.74038" lon="-3.26376">
        <ele>24</ele>
        <time>2021-03-28T12:52:38Z</time>
      </trkpt>
      <trkpt lat="48.74037" lon="-3.26378">
        <ele>23.9</ele>
        <time>2021-03-28T12:52:39Z</time>
      </trkpt>
      <trkpt lat="48.74035" lon="-3.26382">
        <ele>23.8</ele>
        <time>2021-03-28T12:52:41Z</time>
      </trkpt>
      <trkpt lat="48.74034" lon="-3.26382">
        <ele>23.6</ele>
        <time>2021-03-28T12:52:42Z</time>
      </trkpt>
      <trkpt lat="48.74033" lon="-3.26381">
        <ele>23.6</ele>
        <time>2021-03-28T12:52:43Z</time>
      </trkpt>
      <trkpt lat="48.74031" lon="-3.26381">
        <ele>23.4</ele>
        <time>2021-03-28T12:52:45Z</time>
      </trkpt>
      <trkpt lat="48.74029" lon="-3.26382">
        <ele>23.3</ele>
        <time>2021-03-28T12:52:46Z</time>
      </trkpt>
      <trkpt lat="48.74028" lon="-3.26383">
        <ele>23.2</ele>
        <time>2021-03-28T12:52:47Z</time>
      </trkpt>
      <trkpt lat="48.74028" lon="-3.26384">
        <ele>23.1</ele>
        <time>2021-03-28T12:52:48Z</time>
      </trkpt>
      <trkpt lat="48.74026" lon="-3.26386">
        <ele>23</ele>
        <time>2021-03-28T12:52:50Z</time>
      </trkpt>
      <trkpt lat="48.74025" lon="-3.26387">
        <ele>22.9</ele>
        <time>2021-03-28T12:52:51Z</time>
      </trkpt>
      <trkpt lat="48.74024" lon="-3.26389">
        <ele>22.7</ele>
        <time>2021-03-28T12:52:52Z</time>
      </trkpt>
      <trkpt lat="48.74024" lon="-3.26391">
        <ele>22.6</ele>
        <time>2021-03-28T12:52:53Z</time>
      </trkpt>
      <trkpt lat="48.74022" lon="-3.26394">
        <ele>22.4</ele>
        <time>2021-03-28T12:52:55Z</time>
      </trkpt>
      <trkpt lat="48.74021" lon="-3.26399">
        <ele>22.1</ele>
        <time>2021-03-28T12:52:57Z</time>
      </trkpt>
      <trkpt lat="48.74019" lon="-3.26402">
        <ele>21.9</ele>
        <time>2021-03-28T12:52:59Z</time>
      </trkpt>
      <trkpt lat="48.74018" lon="-3.26403">
        <ele>21.8</ele>
        <time>2021-03-28T12:53:00Z</time>
      </trkpt>
      <trkpt lat="48.74018" lon="-3.26405">
        <ele>21.7</ele>
        <time>2021-03-28T12:53:01Z</time>
      </trkpt>
      <trkpt lat="48.74017" lon="-3.26407">
        <ele>21.6</ele>
        <time>2021-03-28T12:53:02Z</time>
      </trkpt>
      <trkpt lat="48.74016" lon="-3.26409">
        <ele>21.4</ele>
        <time>2021-03-28T12:53:03Z</time>
      </trkpt>
      <trkpt lat="48.74015" lon="-3.26411">
        <ele>21.3</ele>
        <time>2021-03-28T12:53:04Z</time>
      </trkpt>
      <trkpt lat="48.74014" lon="-3.26413">
        <ele>21.1</ele>
        <time>2021-03-28T12:53:05Z</time>
      </trkpt>
      <trkpt lat="48.74013" lon="-3.26417">
        <ele>20.9</ele>
        <time>2021-03-28T12:53:07Z</time>
      </trkpt>
      <trkpt lat="48.74012" lon="-3.26419">
        <ele>20.7</ele>
        <time>2021-03-28T12:53:08Z</time>
      </trkpt>
      <trkpt lat="48.74011" lon="-3.26421">
        <ele>20.6</ele>
        <time>2021-03-28T12:53:09Z</time>
      </trkpt>
      <trkpt lat="48.7401" lon="-3.26426">
        <ele>20.4</ele>
        <time>2021-03-28T12:53:11Z</time>
      </trkpt>
      <trkpt lat="48.7401" lon="-3.26427">
        <ele>20.3</ele>
        <time>2021-03-28T12:53:12Z</time>
      </trkpt>
      <trkpt lat="48.74009" lon="-3.2643">
        <ele>20.1</ele>
        <time>2021-03-28T12:53:13Z</time>
      </trkpt>
      <trkpt lat="48.74007" lon="-3.26433">
        <ele>19.9</ele>
        <time>2021-03-28T12:53:15Z</time>
      </trkpt>
      <trkpt lat="48.74006" lon="-3.26435">
        <ele>19.8</ele>
        <time>2021-03-28T12:53:16Z</time>
      </trkpt>
      <trkpt lat="48.74005" lon="-3.26439">
        <ele>19.5</ele>
        <time>2021-03-28T12:53:18Z</time>
      </trkpt>
      <trkpt lat="48.74004" lon="-3.26441">
        <ele>19.4</ele>
        <time>2021-03-28T12:53:19Z</time>
      </trkpt>
      <trkpt lat="48.74004" lon="-3.26442">
        <ele>19.4</ele>
        <time>2021-03-28T12:53:20Z</time>
      </trkpt>
      <trkpt lat="48.74003" lon="-3.26444">
        <ele>19.3</ele>
        <time>2021-03-28T12:53:21Z</time>
      </trkpt>
      <trkpt lat="48.74002" lon="-3.26445">
        <ele>19.2</ele>
        <time>2021-03-28T12:53:22Z</time>
      </trkpt>
      <trkpt lat="48.74002" lon="-3.26447">
        <ele>19</ele>
        <time>2021-03-28T12:53:23Z</time>
      </trkpt>
      <trkpt lat="48.74001" lon="-3.2645">
        <ele>18.9</ele>
        <time>2021-03-28T12:53:24Z</time>
      </trkpt>
      <trkpt lat="48.74001" lon="-3.26452">
        <ele>18.8</ele>
        <time>2021-03-28T12:53:26Z</time>
      </trkpt>
      <trkpt lat="48.74" lon="-3.26454">
        <ele>18.7</ele>
        <time>2021-03-28T12:53:27Z</time>
      </trkpt>
      <trkpt lat="48.73999" lon="-3.26456">
        <ele>18.6</ele>
        <time>2021-03-28T12:53:28Z</time>
      </trkpt>
      <trkpt lat="48.73999" lon="-3.26457">
        <ele>18.5</ele>
        <time>2021-03-28T12:53:29Z</time>
      </trkpt>
      <trkpt lat="48.73998" lon="-3.2646">
        <ele>18.4</ele>
        <time>2021-03-28T12:53:30Z</time>
      </trkpt>
      <trkpt lat="48.73997" lon="-3.26465">
        <ele>18.1</ele>
        <time>2021-03-28T12:53:32Z</time>
      </trkpt>
      <trkpt lat="48.73996" lon="-3.26466">
        <ele>18.1</ele>
        <time>2021-03-28T12:53:33Z</time>
      </trkpt>
      <trkpt lat="48.73996" lon="-3.26469">
        <ele>18</ele>
        <time>2021-03-28T12:53:34Z</time>
      </trkpt>
      <trkpt lat="48.73995" lon="-3.2647">
        <ele>17.9</ele>
        <time>2021-03-28T12:53:36Z</time>
      </trkpt>
      <trkpt lat="48.73995" lon="-3.26473">
        <ele>17.8</ele>
        <time>2021-03-28T12:53:37Z</time>
      </trkpt>
      <trkpt lat="48.73994" lon="-3.26475">
        <ele>17.6</ele>
        <time>2021-03-28T12:53:38Z</time>
      </trkpt>
      <trkpt lat="48.73994" lon="-3.26477">
        <ele>17.5</ele>
        <time>2021-03-28T12:53:39Z</time>
      </trkpt>
      <trkpt lat="48.73993" lon="-3.26479">
        <ele>17.5</ele>
        <time>2021-03-28T12:53:40Z</time>
      </trkpt>
      <trkpt lat="48.73993" lon="-3.26483">
        <ele>17.2</ele>
        <time>2021-03-28T12:53:42Z</time>
      </trkpt>
      <trkpt lat="48.73993" lon="-3.26485">
        <ele>17.2</ele>
        <time>2021-03-28T12:53:43Z</time>
      </trkpt>
      <trkpt lat="48.73993" lon="-3.26487">
        <ele>17.1</ele>
        <time>2021-03-28T12:53:44Z</time>
      </trkpt>
      <trkpt lat="48.73992" lon="-3.26491">
        <ele>16.9</ele>
        <time>2021-03-28T12:53:46Z</time>
      </trkpt>
      <trkpt lat="48.73992" lon="-3.26493">
        <ele>16.8</ele>
        <time>2021-03-28T12:53:47Z</time>
      </trkpt>
      <trkpt lat="48.73992" lon="-3.26495">
        <ele>16.7</ele>
        <time>2021-03-28T12:53:48Z</time>
      </trkpt>
      <trkpt lat="48.73991" lon="-3.26498">
        <ele>16.5</ele>
        <time>2021-03-28T12:53:49Z</time>
      </trkpt>
      <trkpt lat="48.7399" lon="-3.265">
        <ele>16.4</ele>
        <time>2021-03-28T12:53:50Z</time>
      </trkpt>
      <trkpt lat="48.73989" lon="-3.26503">
        <ele>16.2</ele>
        <time>2021-03-28T12:53:52Z</time>
      </trkpt>
      <trkpt lat="48.73989" lon="-3.26505">
        <ele>16.1</ele>
        <time>2021-03-28T12:53:53Z</time>
      </trkpt>
      <trkpt lat="48.73988" lon="-3.26509">
        <ele>15.9</ele>
        <time>2021-03-28T12:53:55Z</time>
      </trkpt>
      <trkpt lat="48.73988" lon="-3.26511">
        <ele>15.8</ele>
        <time>2021-03-28T12:53:56Z</time>
      </trkpt>
      <trkpt lat="48.73987" lon="-3.26515">
        <ele>15.6</ele>
        <time>2021-03-28T12:53:58Z</time>
      </trkpt>
      <trkpt lat="48.73987" lon="-3.26517">
        <ele>15.5</ele>
        <time>2021-03-28T12:53:59Z</time>
      </trkpt>
      <trkpt lat="48.73987" lon="-3.26519">
        <ele>15.4</ele>
        <time>2021-03-28T12:54:00Z</time>
      </trkpt>
      <trkpt lat="48.73987" lon="-3.26522">
        <ele>15.2</ele>
        <time>2021-03-28T12:54:02Z</time>
      </trkpt>
      <trkpt lat="48.73987" lon="-3.26524">
        <ele>15.1</ele>
        <time>2021-03-28T12:54:03Z</time>
      </trkpt>
      <trkpt lat="48.73987" lon="-3.26527">
        <ele>14.9</ele>
        <time>2021-03-28T12:54:04Z</time>
      </trkpt>
      <trkpt lat="48.73987" lon="-3.2653">
        <ele>14.8</ele>
        <time>2021-03-28T12:54:05Z</time>
      </trkpt>
      <trkpt lat="48.73987" lon="-3.26532">
        <ele>14.7</ele>
        <time>2021-03-28T12:54:07Z</time>
      </trkpt>
      <trkpt lat="48.73987" lon="-3.26535">
        <ele>14.5</ele>
        <time>2021-03-28T12:54:08Z</time>
      </trkpt>
      <trkpt lat="48.73986" lon="-3.26538">
        <ele>14.4</ele>
        <time>2021-03-28T12:54:09Z</time>
      </trkpt>
      <trkpt lat="48.73986" lon="-3.2654">
        <ele>14.2</ele>
        <time>2021-03-28T12:54:10Z</time>
      </trkpt>
      <trkpt lat="48.73985" lon="-3.26543">
        <ele>14.1</ele>
        <time>2021-03-28T12:54:12Z</time>
      </trkpt>
      <trkpt lat="48.73985" lon="-3.26544">
        <ele>14</ele>
        <time>2021-03-28T12:54:13Z</time>
      </trkpt>
      <trkpt lat="48.73985" lon="-3.26549">
        <ele>13.7</ele>
        <time>2021-03-28T12:54:15Z</time>
      </trkpt>
      <trkpt lat="48.73984" lon="-3.26553">
        <ele>13.5</ele>
        <time>2021-03-28T12:54:16Z</time>
      </trkpt>
      <trkpt lat="48.73984" lon="-3.26555">
        <ele>13.3</ele>
        <time>2021-03-28T12:54:18Z</time>
      </trkpt>
      <trkpt lat="48.73983" lon="-3.26557">
        <ele>13.2</ele>
        <time>2021-03-28T12:54:19Z</time>
      </trkpt>
      <trkpt lat="48.73983" lon="-3.26559">
        <ele>13.1</ele>
        <time>2021-03-28T12:54:20Z</time>
      </trkpt>
      <trkpt lat="48.73984" lon="-3.26562">
        <ele>12.9</ele>
        <time>2021-03-28T12:54:22Z</time>
      </trkpt>
      <trkpt lat="48.73985" lon="-3.26565">
        <ele>12.7</ele>
        <time>2021-03-28T12:54:24Z</time>
      </trkpt>
      <trkpt lat="48.73985" lon="-3.26567">
        <ele>12.5</ele>
        <time>2021-03-28T12:54:25Z</time>
      </trkpt>
      <trkpt lat="48.73985" lon="-3.2657">
        <ele>12.4</ele>
        <time>2021-03-28T12:54:26Z</time>
      </trkpt>
      <trkpt lat="48.73985" lon="-3.26572">
        <ele>12.2</ele>
        <time>2021-03-28T12:54:28Z</time>
      </trkpt>
      <trkpt lat="48.73984" lon="-3.26574">
        <ele>12.1</ele>
        <time>2021-03-28T12:54:29Z</time>
      </trkpt>
      <trkpt lat="48.73983" lon="-3.26579">
        <ele>11.8</ele>
        <time>2021-03-28T12:54:31Z</time>
      </trkpt>
      <trkpt lat="48.73983" lon="-3.26582">
        <ele>11.6</ele>
        <time>2021-03-28T12:54:32Z</time>
      </trkpt>
      <trkpt lat="48.73983" lon="-3.26584">
        <ele>11.4</ele>
        <time>2021-03-28T12:54:33Z</time>
      </trkpt>
      <trkpt lat="48.73982" lon="-3.26587">
        <ele>11.2</ele>
        <time>2021-03-28T12:54:35Z</time>
      </trkpt>
      <trkpt lat="48.73982" lon="-3.26589">
        <ele>11.1</ele>
        <time>2021-03-28T12:54:36Z</time>
      </trkpt>
      <trkpt lat="48.73982" lon="-3.26591">
        <ele>10.9</ele>
        <time>2021-03-28T12:54:37Z</time>
      </trkpt>
      <trkpt lat="48.73982" lon="-3.26593">
        <ele>10.8</ele>
        <time>2021-03-28T12:54:38Z</time>
      </trkpt>
      <trkpt lat="48.73983" lon="-3.266">
        <ele>10.4</ele>
        <time>2021-03-28T12:54:40Z</time>
      </trkpt>
      <trkpt lat="48.73983" lon="-3.26602">
        <ele>10.2</ele>
        <time>2021-03-28T12:54:41Z</time>
      </trkpt>
      <trkpt lat="48.73983" lon="-3.26604">
        <ele>10.2</ele>
        <time>2021-03-28T12:54:42Z</time>
      </trkpt>
      <trkpt lat="48.73983" lon="-3.26607">
        <ele>10.2</ele>
        <time>2021-03-28T12:54:43Z</time>
      </trkpt>
      <trkpt lat="48.73983" lon="-3.2661">
        <ele>10.1</ele>
        <time>2021-03-28T12:54:45Z</time>
      </trkpt>
      <trkpt lat="48.73983" lon="-3.26612">
        <ele>10.1</ele>
        <time>2021-03-28T12:54:46Z</time>
      </trkpt>
      <trkpt lat="48.73983" lon="-3.26615">
        <ele>9.8</ele>
        <time>2021-03-28T12:54:47Z</time>
      </trkpt>
      <trkpt lat="48.73984" lon="-3.26617">
        <ele>9.5</ele>
        <time>2021-03-28T12:54:48Z</time>
      </trkpt>
      <trkpt lat="48.73985" lon="-3.26618">
        <ele>9.4</ele>
        <time>2021-03-28T12:54:50Z</time>
      </trkpt>
      <trkpt lat="48.73986" lon="-3.26619">
        <ele>9.2</ele>
        <time>2021-03-28T12:54:51Z</time>
      </trkpt>
      <trkpt lat="48.73988" lon="-3.26622">
        <ele>8.6</ele>
        <time>2021-03-28T12:54:52Z</time>
      </trkpt>
      <trkpt lat="48.73988" lon="-3.26623">
        <ele>8.5</ele>
        <time>2021-03-28T12:54:53Z</time>
      </trkpt>
      <trkpt lat="48.7399" lon="-3.26624">
        <ele>8.2</ele>
        <time>2021-03-28T12:54:55Z</time>
      </trkpt>
      <trkpt lat="48.73991" lon="-3.26624">
        <ele>8</ele>
        <time>2021-03-28T12:54:56Z</time>
      </trkpt>
      <trkpt lat="48.73993" lon="-3.26623">
        <ele>7.7</ele>
        <time>2021-03-28T12:54:57Z</time>
      </trkpt>
      <trkpt lat="48.73994" lon="-3.26623">
        <ele>7.5</ele>
        <time>2021-03-28T12:54:58Z</time>
      </trkpt>
      <trkpt lat="48.73997" lon="-3.26623">
        <ele>7.4</ele>
        <time>2021-03-28T12:54:59Z</time>
      </trkpt>
      <trkpt lat="48.73998" lon="-3.26623">
        <ele>7.3</ele>
        <time>2021-03-28T12:55:01Z</time>
      </trkpt>
      <trkpt lat="48.73999" lon="-3.26623">
        <ele>7.3</ele>
        <time>2021-03-28T12:55:02Z</time>
      </trkpt>
      <trkpt lat="48.74" lon="-3.26624">
        <ele>7.3</ele>
        <time>2021-03-28T12:55:03Z</time>
      </trkpt>
      <trkpt lat="48.74002" lon="-3.26624">
        <ele>7.3</ele>
        <time>2021-03-28T12:55:04Z</time>
      </trkpt>
      <trkpt lat="48.74004" lon="-3.26625">
        <ele>7.2</ele>
        <time>2021-03-28T12:55:06Z</time>
      </trkpt>
      <trkpt lat="48.74005" lon="-3.26625">
        <ele>7.2</ele>
        <time>2021-03-28T12:55:07Z</time>
      </trkpt>
      <trkpt lat="48.74005" lon="-3.26625">
        <ele>7.2</ele>
        <time>2021-03-28T12:55:08Z</time>
      </trkpt>
      <trkpt lat="48.74006" lon="-3.26625">
        <ele>7.2</ele>
        <time>2021-03-28T12:55:09Z</time>
      </trkpt>
      <trkpt lat="48.74008" lon="-3.26625">
        <ele>7.2</ele>
        <time>2021-03-28T12:55:10Z</time>
      </trkpt>
      <trkpt lat="48.74011" lon="-3.26625">
        <ele>7.1</ele>
        <time>2021-03-28T12:55:11Z</time>
      </trkpt>
      <trkpt lat="48.74012" lon="-3.26624">
        <ele>7.1</ele>
        <time>2021-03-28T12:55:13Z</time>
      </trkpt>
      <trkpt lat="48.74013" lon="-3.26624">
        <ele>7.1</ele>
        <time>2021-03-28T12:55:14Z</time>
      </trkpt>
      <trkpt lat="48.74014" lon="-3.26624">
        <ele>7</ele>
        <time>2021-03-28T12:55:15Z</time>
      </trkpt>
      <trkpt lat="48.74015" lon="-3.26623">
        <ele>7</ele>
        <time>2021-03-28T12:55:16Z</time>
      </trkpt>
      <trkpt lat="48.74017" lon="-3.26622">
        <ele>7</ele>
        <time>2021-03-28T12:55:18Z</time>
      </trkpt>
      <trkpt lat="48.74017" lon="-3.26621">
        <ele>6.9</ele>
        <time>2021-03-28T12:55:19Z</time>
      </trkpt>
      <trkpt lat="48.74018" lon="-3.2662">
        <ele>6.9</ele>
        <time>2021-03-28T12:55:20Z</time>
      </trkpt>
      <trkpt lat="48.7402" lon="-3.26619">
        <ele>6.9</ele>
        <time>2021-03-28T12:55:22Z</time>
      </trkpt>
      <trkpt lat="48.74021" lon="-3.26618">
        <ele>6.8</ele>
        <time>2021-03-28T12:55:23Z</time>
      </trkpt>
      <trkpt lat="48.74022" lon="-3.26614">
        <ele>6.7</ele>
        <time>2021-03-28T12:55:24Z</time>
      </trkpt>
      <trkpt lat="48.74024" lon="-3.26611">
        <ele>6.7</ele>
        <time>2021-03-28T12:55:26Z</time>
      </trkpt>
      <trkpt lat="48.74024" lon="-3.2661">
        <ele>6.7</ele>
        <time>2021-03-28T12:55:27Z</time>
      </trkpt>
      <trkpt lat="48.74025" lon="-3.26609">
        <ele>6.6</ele>
        <time>2021-03-28T12:55:28Z</time>
      </trkpt>
      <trkpt lat="48.74027" lon="-3.26607">
        <ele>6.6</ele>
        <time>2021-03-28T12:55:30Z</time>
      </trkpt>
      <trkpt lat="48.74028" lon="-3.26606">
        <ele>6.6</ele>
        <time>2021-03-28T12:55:31Z</time>
      </trkpt>
      <trkpt lat="48.74029" lon="-3.26606">
        <ele>6.5</ele>
        <time>2021-03-28T12:55:32Z</time>
      </trkpt>
      <trkpt lat="48.7403" lon="-3.26605">
        <ele>6.5</ele>
        <time>2021-03-28T12:55:33Z</time>
      </trkpt>
      <trkpt lat="48.74032" lon="-3.26604">
        <ele>6.5</ele>
        <time>2021-03-28T12:55:35Z</time>
      </trkpt>
      <trkpt lat="48.74033" lon="-3.26604">
        <ele>6.4</ele>
        <time>2021-03-28T12:55:36Z</time>
      </trkpt>
      <trkpt lat="48.74035" lon="-3.26604">
        <ele>6.4</ele>
        <time>2021-03-28T12:55:37Z</time>
      </trkpt>
      <trkpt lat="48.74037" lon="-3.26605">
        <ele>6.4</ele>
        <time>2021-03-28T12:55:38Z</time>
      </trkpt>
      <trkpt lat="48.74038" lon="-3.26605">
        <ele>6.3</ele>
        <time>2021-03-28T12:55:40Z</time>
      </trkpt>
      <trkpt lat="48.74039" lon="-3.26606">
        <ele>6.3</ele>
        <time>2021-03-28T12:55:41Z</time>
      </trkpt>
      <trkpt lat="48.7404" lon="-3.26606">
        <ele>6.3</ele>
        <time>2021-03-28T12:55:42Z</time>
      </trkpt>
      <trkpt lat="48.74042" lon="-3.26607">
        <ele>6.2</ele>
        <time>2021-03-28T12:55:43Z</time>
      </trkpt>
      <trkpt lat="48.74044" lon="-3.26608">
        <ele>6.2</ele>
        <time>2021-03-28T12:55:45Z</time>
      </trkpt>
      <trkpt lat="48.74045" lon="-3.26608">
        <ele>6.2</ele>
        <time>2021-03-28T12:55:46Z</time>
      </trkpt>
      <trkpt lat="48.74049" lon="-3.26608">
        <ele>6.1</ele>
        <time>2021-03-28T12:55:47Z</time>
      </trkpt>
      <trkpt lat="48.74049" lon="-3.26608">
        <ele>6.1</ele>
        <time>2021-03-28T12:55:49Z</time>
      </trkpt>
      <trkpt lat="48.7405" lon="-3.26608">
        <ele>6.1</ele>
        <time>2021-03-28T12:55:50Z</time>
      </trkpt>
      <trkpt lat="48.74051" lon="-3.26607">
        <ele>6</ele>
        <time>2021-03-28T12:55:51Z</time>
      </trkpt>
      <trkpt lat="48.74052" lon="-3.26607">
        <ele>6</ele>
        <time>2021-03-28T12:55:52Z</time>
      </trkpt>
      <trkpt lat="48.74054" lon="-3.26606">
        <ele>6</ele>
        <time>2021-03-28T12:55:54Z</time>
      </trkpt>
      <trkpt lat="48.74056" lon="-3.26606">
        <ele>5.9</ele>
        <time>2021-03-28T12:55:55Z</time>
      </trkpt>
      <trkpt lat="48.74058" lon="-3.26605">
        <ele>5.9</ele>
        <time>2021-03-28T12:55:57Z</time>
      </trkpt>
      <trkpt lat="48.74059" lon="-3.26602">
        <ele>5.9</ele>
        <time>2021-03-28T12:55:59Z</time>
      </trkpt>
      <trkpt lat="48.74062" lon="-3.26601">
        <ele>5.8</ele>
        <time>2021-03-28T12:56:00Z</time>
      </trkpt>
      <trkpt lat="48.74063" lon="-3.266">
        <ele>5.8</ele>
        <time>2021-03-28T12:56:01Z</time>
      </trkpt>
      <trkpt lat="48.74064" lon="-3.26599">
        <ele>5.8</ele>
        <time>2021-03-28T12:56:03Z</time>
      </trkpt>
      <trkpt lat="48.74065" lon="-3.26598">
        <ele>5.8</ele>
        <time>2021-03-28T12:56:04Z</time>
      </trkpt>
      <trkpt lat="48.74067" lon="-3.26597">
        <ele>5.8</ele>
        <time>2021-03-28T12:56:05Z</time>
      </trkpt>
      <trkpt lat="48.74068" lon="-3.26597">
        <ele>5.8</ele>
        <time>2021-03-28T12:56:06Z</time>
      </trkpt>
      <trkpt lat="48.74069" lon="-3.26596">
        <ele>5.7</ele>
        <time>2021-03-28T12:56:08Z</time>
      </trkpt>
      <trkpt lat="48.7407" lon="-3.26595">
        <ele>5.7</ele>
        <time>2021-03-28T12:56:09Z</time>
      </trkpt>
      <trkpt lat="48.74071" lon="-3.26595">
        <ele>5.7</ele>
        <time>2021-03-28T12:56:10Z</time>
      </trkpt>
      <trkpt lat="48.74074" lon="-3.26593">
        <ele>5.7</ele>
        <time>2021-03-28T12:56:12Z</time>
      </trkpt>
      <trkpt lat="48.74075" lon="-3.26592">
        <ele>5.7</ele>
        <time>2021-03-28T12:56:13Z</time>
      </trkpt>
      <trkpt lat="48.74075" lon="-3.2659">
        <ele>5.7</ele>
        <time>2021-03-28T12:56:14Z</time>
      </trkpt>
      <trkpt lat="48.74076" lon="-3.26589">
        <ele>5.7</ele>
        <time>2021-03-28T12:56:16Z</time>
      </trkpt>
      <trkpt lat="48.74077" lon="-3.26587">
        <ele>5.6</ele>
        <time>2021-03-28T12:56:17Z</time>
      </trkpt>
      <trkpt lat="48.74078" lon="-3.26586">
        <ele>5.6</ele>
        <time>2021-03-28T12:56:19Z</time>
      </trkpt>
      <trkpt lat="48.7408" lon="-3.26585">
        <ele>5.6</ele>
        <time>2021-03-28T12:56:21Z</time>
      </trkpt>
      <trkpt lat="48.74081" lon="-3.26584">
        <ele>5.6</ele>
        <time>2021-03-28T12:56:22Z</time>
      </trkpt>
      <trkpt lat="48.74082" lon="-3.26584">
        <ele>5.6</ele>
        <time>2021-03-28T12:56:23Z</time>
      </trkpt>
      <trkpt lat="48.74083" lon="-3.26583">
        <ele>5.6</ele>
        <time>2021-03-28T12:56:25Z</time>
      </trkpt>
      <trkpt lat="48.74085" lon="-3.26582">
        <ele>5.6</ele>
        <time>2021-03-28T12:56:26Z</time>
      </trkpt>
      <trkpt lat="48.74087" lon="-3.26579">
        <ele>5.5</ele>
        <time>2021-03-28T12:56:28Z</time>
      </trkpt>
      <trkpt lat="48.74087" lon="-3.26578">
        <ele>5.5</ele>
        <time>2021-03-28T12:56:29Z</time>
      </trkpt>
      <trkpt lat="48.74088" lon="-3.26575">
        <ele>5.5</ele>
        <time>2021-03-28T12:56:30Z</time>
      </trkpt>
      <trkpt lat="48.74089" lon="-3.26573">
        <ele>5.5</ele>
        <time>2021-03-28T12:56:31Z</time>
      </trkpt>
      <trkpt lat="48.74089" lon="-3.26572">
        <ele>5.5</ele>
        <time>2021-03-28T12:56:33Z</time>
      </trkpt>
      <trkpt lat="48.7409" lon="-3.2657">
        <ele>5.5</ele>
        <time>2021-03-28T12:56:34Z</time>
      </trkpt>
      <trkpt lat="48.74091" lon="-3.26568">
        <ele>5.5</ele>
        <time>2021-03-28T12:56:35Z</time>
      </trkpt>
      <trkpt lat="48.74092" lon="-3.26567">
        <ele>5.4</ele>
        <time>2021-03-28T12:56:37Z</time>
      </trkpt>
      <trkpt lat="48.74094" lon="-3.26565">
        <ele>5.4</ele>
        <time>2021-03-28T12:56:38Z</time>
      </trkpt>
      <trkpt lat="48.74096" lon="-3.26562">
        <ele>5.4</ele>
        <time>2021-03-28T12:56:39Z</time>
      </trkpt>
      <trkpt lat="48.74096" lon="-3.26561">
        <ele>5.4</ele>
        <time>2021-03-28T12:56:41Z</time>
      </trkpt>
      <trkpt lat="48.74097" lon="-3.26559">
        <ele>5.4</ele>
        <time>2021-03-28T12:56:42Z</time>
      </trkpt>
      <trkpt lat="48.74098" lon="-3.26558">
        <ele>5.4</ele>
        <time>2021-03-28T12:56:44Z</time>
      </trkpt>
      <trkpt lat="48.74099" lon="-3.26556">
        <ele>5.4</ele>
        <time>2021-03-28T12:56:45Z</time>
      </trkpt>
      <trkpt lat="48.741" lon="-3.26555">
        <ele>5.4</ele>
        <time>2021-03-28T12:56:46Z</time>
      </trkpt>
      <trkpt lat="48.74101" lon="-3.26554">
        <ele>5.4</ele>
        <time>2021-03-28T12:56:47Z</time>
      </trkpt>
      <trkpt lat="48.74102" lon="-3.26551">
        <ele>5.4</ele>
        <time>2021-03-28T12:56:49Z</time>
      </trkpt>
      <trkpt lat="48.74103" lon="-3.2655">
        <ele>5.4</ele>
        <time>2021-03-28T12:56:50Z</time>
      </trkpt>
      <trkpt lat="48.74104" lon="-3.26547">
        <ele>5.4</ele>
        <time>2021-03-28T12:56:51Z</time>
      </trkpt>
      <trkpt lat="48.74104" lon="-3.26545">
        <ele>5.4</ele>
        <time>2021-03-28T12:56:53Z</time>
      </trkpt>
      <trkpt lat="48.74105" lon="-3.26544">
        <ele>5.4</ele>
        <time>2021-03-28T12:56:54Z</time>
      </trkpt>
      <trkpt lat="48.74107" lon="-3.26541">
        <ele>5.4</ele>
        <time>2021-03-28T12:56:56Z</time>
      </trkpt>
      <trkpt lat="48.74109" lon="-3.2654">
        <ele>5.4</ele>
        <time>2021-03-28T12:56:58Z</time>
      </trkpt>
      <trkpt lat="48.7411" lon="-3.26539">
        <ele>5.4</ele>
        <time>2021-03-28T12:56:59Z</time>
      </trkpt>
      <trkpt lat="48.7411" lon="-3.26539">
        <ele>5.4</ele>
        <time>2021-03-28T12:57:00Z</time>
      </trkpt>
      <trkpt lat="48.74112" lon="-3.26537">
        <ele>5.4</ele>
        <time>2021-03-28T12:57:01Z</time>
      </trkpt>
      <trkpt lat="48.74113" lon="-3.26536">
        <ele>5.4</ele>
        <time>2021-03-28T12:57:03Z</time>
      </trkpt>
      <trkpt lat="48.74115" lon="-3.26533">
        <ele>5.4</ele>
        <time>2021-03-28T12:57:05Z</time>
      </trkpt>
      <trkpt lat="48.74116" lon="-3.26531">
        <ele>5.4</ele>
        <time>2021-03-28T12:57:07Z</time>
      </trkpt>
      <trkpt lat="48.74117" lon="-3.26529">
        <ele>5.4</ele>
        <time>2021-03-28T12:57:08Z</time>
      </trkpt>
      <trkpt lat="48.74118" lon="-3.26526">
        <ele>5.4</ele>
        <time>2021-03-28T12:57:09Z</time>
      </trkpt>
      <trkpt lat="48.74118" lon="-3.26523">
        <ele>5.4</ele>
        <time>2021-03-28T12:57:11Z</time>
      </trkpt>
      <trkpt lat="48.74118" lon="-3.26522">
        <ele>5.4</ele>
        <time>2021-03-28T12:57:12Z</time>
      </trkpt>
      <trkpt lat="48.74119" lon="-3.26521">
        <ele>5.4</ele>
        <time>2021-03-28T12:57:13Z</time>
      </trkpt>
      <trkpt lat="48.74119" lon="-3.26519">
        <ele>5.4</ele>
        <time>2021-03-28T12:57:14Z</time>
      </trkpt>
      <trkpt lat="48.7412" lon="-3.26518">
        <ele>5.4</ele>
        <time>2021-03-28T12:57:15Z</time>
      </trkpt>
      <trkpt lat="48.74121" lon="-3.26516">
        <ele>5.4</ele>
        <time>2021-03-28T12:57:17Z</time>
      </trkpt>
      <trkpt lat="48.74122" lon="-3.26514">
        <ele>5.4</ele>
        <time>2021-03-28T12:57:19Z</time>
      </trkpt>
      <trkpt lat="48.74123" lon="-3.26512">
        <ele>5.4</ele>
        <time>2021-03-28T12:57:20Z</time>
      </trkpt>
      <trkpt lat="48.74124" lon="-3.26511">
        <ele>5.4</ele>
        <time>2021-03-28T12:57:21Z</time>
      </trkpt>
      <trkpt lat="48.74125" lon="-3.26509">
        <ele>5.4</ele>
        <time>2021-03-28T12:57:23Z</time>
      </trkpt>
      <trkpt lat="48.74127" lon="-3.26507">
        <ele>5.4</ele>
        <time>2021-03-28T12:57:24Z</time>
      </trkpt>
      <trkpt lat="48.74128" lon="-3.26505">
        <ele>5.4</ele>
        <time>2021-03-28T12:57:26Z</time>
      </trkpt>
      <trkpt lat="48.74129" lon="-3.26504">
        <ele>5.4</ele>
        <time>2021-03-28T12:57:27Z</time>
      </trkpt>
      <trkpt lat="48.7413" lon="-3.26502">
        <ele>5.4</ele>
        <time>2021-03-28T12:57:28Z</time>
      </trkpt>
      <trkpt lat="48.74131" lon="-3.26499">
        <ele>5.4</ele>
        <time>2021-03-28T12:57:29Z</time>
      </trkpt>
      <trkpt lat="48.74131" lon="-3.26498">
        <ele>5.4</ele>
        <time>2021-03-28T12:57:31Z</time>
      </trkpt>
      <trkpt lat="48.74132" lon="-3.26496">
        <ele>5.4</ele>
        <time>2021-03-28T12:57:32Z</time>
      </trkpt>
      <trkpt lat="48.74133" lon="-3.26494">
        <ele>5.4</ele>
        <time>2021-03-28T12:57:33Z</time>
      </trkpt>
      <trkpt lat="48.74135" lon="-3.26492">
        <ele>5.4</ele>
        <time>2021-03-28T12:57:35Z</time>
      </trkpt>
      <trkpt lat="48.74135" lon="-3.26491">
        <ele>5.4</ele>
        <time>2021-03-28T12:57:36Z</time>
      </trkpt>
      <trkpt lat="48.74137" lon="-3.26488">
        <ele>5.4</ele>
        <time>2021-03-28T12:57:37Z</time>
      </trkpt>
      <trkpt lat="48.74138" lon="-3.26487">
        <ele>5.4</ele>
        <time>2021-03-28T12:57:39Z</time>
      </trkpt>
      <trkpt lat="48.74139" lon="-3.26487">
        <ele>5.4</ele>
        <time>2021-03-28T12:57:40Z</time>
      </trkpt>
      <trkpt lat="48.74141" lon="-3.26485">
        <ele>5.4</ele>
        <time>2021-03-28T12:57:41Z</time>
      </trkpt>
      <trkpt lat="48.74142" lon="-3.26484">
        <ele>5.4</ele>
        <time>2021-03-28T12:57:43Z</time>
      </trkpt>
      <trkpt lat="48.74143" lon="-3.26483">
        <ele>5.4</ele>
        <time>2021-03-28T12:57:44Z</time>
      </trkpt>
      <trkpt lat="48.74145" lon="-3.26481">
        <ele>5.3</ele>
        <time>2021-03-28T12:57:45Z</time>
      </trkpt>
      <trkpt lat="48.74146" lon="-3.26479">
        <ele>5.3</ele>
        <time>2021-03-28T12:57:47Z</time>
      </trkpt>
      <trkpt lat="48.74147" lon="-3.26478">
        <ele>5.3</ele>
        <time>2021-03-28T12:57:48Z</time>
      </trkpt>
      <trkpt lat="48.74149" lon="-3.26476">
        <ele>5.3</ele>
        <time>2021-03-28T12:57:49Z</time>
      </trkpt>
      <trkpt lat="48.7415" lon="-3.26474">
        <ele>5.3</ele>
        <time>2021-03-28T12:57:51Z</time>
      </trkpt>
      <trkpt lat="48.74151" lon="-3.26472">
        <ele>5.3</ele>
        <time>2021-03-28T12:57:52Z</time>
      </trkpt>
      <trkpt lat="48.74152" lon="-3.2647">
        <ele>5.3</ele>
        <time>2021-03-28T12:57:53Z</time>
      </trkpt>
      <trkpt lat="48.74153" lon="-3.26468">
        <ele>5.3</ele>
        <time>2021-03-28T12:57:54Z</time>
      </trkpt>
      <trkpt lat="48.74153" lon="-3.26467">
        <ele>5.3</ele>
        <time>2021-03-28T12:57:56Z</time>
      </trkpt>
      <trkpt lat="48.74155" lon="-3.26464">
        <ele>5.2</ele>
        <time>2021-03-28T12:57:57Z</time>
      </trkpt>
      <trkpt lat="48.74157" lon="-3.26462">
        <ele>5.2</ele>
        <time>2021-03-28T12:57:58Z</time>
      </trkpt>
      <trkpt lat="48.74157" lon="-3.26461">
        <ele>5.2</ele>
        <time>2021-03-28T12:58:00Z</time>
      </trkpt>
      <trkpt lat="48.74158" lon="-3.2646">
        <ele>5.2</ele>
        <time>2021-03-28T12:58:01Z</time>
      </trkpt>
      <trkpt lat="48.7416" lon="-3.26458">
        <ele>5.2</ele>
        <time>2021-03-28T12:58:02Z</time>
      </trkpt>
      <trkpt lat="48.74161" lon="-3.26457">
        <ele>5.2</ele>
        <time>2021-03-28T12:58:04Z</time>
      </trkpt>
      <trkpt lat="48.74162" lon="-3.26456">
        <ele>5.2</ele>
        <time>2021-03-28T12:58:05Z</time>
      </trkpt>
      <trkpt lat="48.74163" lon="-3.26454">
        <ele>5.2</ele>
        <time>2021-03-28T12:58:06Z</time>
      </trkpt>
      <trkpt lat="48.74165" lon="-3.26452">
        <ele>5.1</ele>
        <time>2021-03-28T12:58:08Z</time>
      </trkpt>
      <trkpt lat="48.74166" lon="-3.26451">
        <ele>5.1</ele>
        <time>2021-03-28T12:58:09Z</time>
      </trkpt>
      <trkpt lat="48.74169" lon="-3.26447">
        <ele>5.1</ele>
        <time>2021-03-28T12:58:11Z</time>
      </trkpt>
      <trkpt lat="48.74169" lon="-3.26445">
        <ele>5.1</ele>
        <time>2021-03-28T12:58:13Z</time>
      </trkpt>
      <trkpt lat="48.7417" lon="-3.26444">
        <ele>5.1</ele>
        <time>2021-03-28T12:58:14Z</time>
      </trkpt>
      <trkpt lat="48.74172" lon="-3.26441">
        <ele>5.1</ele>
        <time>2021-03-28T12:58:15Z</time>
      </trkpt>
      <trkpt lat="48.74173" lon="-3.26439">
        <ele>5.1</ele>
        <time>2021-03-28T12:58:17Z</time>
      </trkpt>
      <trkpt lat="48.74173" lon="-3.26438">
        <ele>5.1</ele>
        <time>2021-03-28T12:58:18Z</time>
      </trkpt>
      <trkpt lat="48.74175" lon="-3.26435">
        <ele>5.1</ele>
        <time>2021-03-28T12:58:20Z</time>
      </trkpt>
      <trkpt lat="48.74176" lon="-3.26433">
        <ele>5.1</ele>
        <time>2021-03-28T12:58:21Z</time>
      </trkpt>
      <trkpt lat="48.74177" lon="-3.26431">
        <ele>5.1</ele>
        <time>2021-03-28T12:58:23Z</time>
      </trkpt>
      <trkpt lat="48.74179" lon="-3.2643">
        <ele>5.1</ele>
        <time>2021-03-28T12:58:24Z</time>
      </trkpt>
      <trkpt lat="48.74179" lon="-3.26429">
        <ele>5.1</ele>
        <time>2021-03-28T12:58:26Z</time>
      </trkpt>
      <trkpt lat="48.74181" lon="-3.26425">
        <ele>5.1</ele>
        <time>2021-03-28T12:58:28Z</time>
      </trkpt>
      <trkpt lat="48.74182" lon="-3.26423">
        <ele>5</ele>
        <time>2021-03-28T12:58:29Z</time>
      </trkpt>
      <trkpt lat="48.74184" lon="-3.2642">
        <ele>5</ele>
        <time>2021-03-28T12:58:31Z</time>
      </trkpt>
      <trkpt lat="48.74186" lon="-3.26414">
        <ele>5</ele>
        <time>2021-03-28T12:58:33Z</time>
      </trkpt>
      <trkpt lat="48.74187" lon="-3.26413">
        <ele>5</ele>
        <time>2021-03-28T12:58:34Z</time>
      </trkpt>
      <trkpt lat="48.74187" lon="-3.26411">
        <ele>5</ele>
        <time>2021-03-28T12:58:36Z</time>
      </trkpt>
      <trkpt lat="48.74188" lon="-3.26409">
        <ele>5</ele>
        <time>2021-03-28T12:58:37Z</time>
      </trkpt>
      <trkpt lat="48.74189" lon="-3.26408">
        <ele>5</ele>
        <time>2021-03-28T12:58:39Z</time>
      </trkpt>
      <trkpt lat="48.74189" lon="-3.26406">
        <ele>5</ele>
        <time>2021-03-28T12:58:40Z</time>
      </trkpt>
      <trkpt lat="48.7419" lon="-3.26405">
        <ele>5</ele>
        <time>2021-03-28T12:58:41Z</time>
      </trkpt>
      <trkpt lat="48.74191" lon="-3.26403">
        <ele>5</ele>
        <time>2021-03-28T12:58:42Z</time>
      </trkpt>
      <trkpt lat="48.74193" lon="-3.264">
        <ele>5</ele>
        <time>2021-03-28T12:58:44Z</time>
      </trkpt>
      <trkpt lat="48.74194" lon="-3.26397">
        <ele>5</ele>
        <time>2021-03-28T12:58:46Z</time>
      </trkpt>
      <trkpt lat="48.74195" lon="-3.26396">
        <ele>5</ele>
        <time>2021-03-28T12:58:47Z</time>
      </trkpt>
      <trkpt lat="48.74196" lon="-3.26392">
        <ele>5</ele>
        <time>2021-03-28T12:58:49Z</time>
      </trkpt>
      <trkpt lat="48.74196" lon="-3.26391">
        <ele>5</ele>
        <time>2021-03-28T12:58:50Z</time>
      </trkpt>
      <trkpt lat="48.74196" lon="-3.26389">
        <ele>5</ele>
        <time>2021-03-28T12:58:51Z</time>
      </trkpt>
      <trkpt lat="48.74196" lon="-3.26388">
        <ele>5</ele>
        <time>2021-03-28T12:58:53Z</time>
      </trkpt>
      <trkpt lat="48.74196" lon="-3.26387">
        <ele>5</ele>
        <time>2021-03-28T12:58:54Z</time>
      </trkpt>
      <trkpt lat="48.74196" lon="-3.26385">
        <ele>5</ele>
        <time>2021-03-28T12:58:55Z</time>
      </trkpt>
      <trkpt lat="48.74198" lon="-3.26382">
        <ele>5</ele>
        <time>2021-03-28T12:58:56Z</time>
      </trkpt>
      <trkpt lat="48.74199" lon="-3.26381">
        <ele>5</ele>
        <time>2021-03-28T12:58:58Z</time>
      </trkpt>
      <trkpt lat="48.742" lon="-3.26379">
        <ele>5</ele>
        <time>2021-03-28T12:58:59Z</time>
      </trkpt>
      <trkpt lat="48.74202" lon="-3.26375">
        <ele>5</ele>
        <time>2021-03-28T12:59:00Z</time>
      </trkpt>
      <trkpt lat="48.74202" lon="-3.26374">
        <ele>5</ele>
        <time>2021-03-28T12:59:01Z</time>
      </trkpt>
      <trkpt lat="48.74205" lon="-3.26371">
        <ele>5</ele>
        <time>2021-03-28T12:59:03Z</time>
      </trkpt>
      <trkpt lat="48.74206" lon="-3.2637">
        <ele>5</ele>
        <time>2021-03-28T12:59:04Z</time>
      </trkpt>
      <trkpt lat="48.74207" lon="-3.26368">
        <ele>5</ele>
        <time>2021-03-28T12:59:05Z</time>
      </trkpt>
      <trkpt lat="48.74207" lon="-3.26366">
        <ele>5</ele>
        <time>2021-03-28T12:59:07Z</time>
      </trkpt>
      <trkpt lat="48.74208" lon="-3.26365">
        <ele>5</ele>
        <time>2021-03-28T12:59:08Z</time>
      </trkpt>
      <trkpt lat="48.74211" lon="-3.2636">
        <ele>5</ele>
        <time>2021-03-28T12:59:10Z</time>
      </trkpt>
      <trkpt lat="48.74212" lon="-3.26358">
        <ele>5</ele>
        <time>2021-03-28T12:59:11Z</time>
      </trkpt>
      <trkpt lat="48.74213" lon="-3.26357">
        <ele>5</ele>
        <time>2021-03-28T12:59:13Z</time>
      </trkpt>
      <trkpt lat="48.74213" lon="-3.26355">
        <ele>5</ele>
        <time>2021-03-28T12:59:14Z</time>
      </trkpt>
      <trkpt lat="48.74214" lon="-3.26354">
        <ele>5</ele>
        <time>2021-03-28T12:59:16Z</time>
      </trkpt>
      <trkpt lat="48.74215" lon="-3.26352">
        <ele>5</ele>
        <time>2021-03-28T12:59:17Z</time>
      </trkpt>
      <trkpt lat="48.74217" lon="-3.2635">
        <ele>5</ele>
        <time>2021-03-28T12:59:18Z</time>
      </trkpt>
      <trkpt lat="48.74217" lon="-3.26348">
        <ele>5</ele>
        <time>2021-03-28T12:59:20Z</time>
      </trkpt>
      <trkpt lat="48.74219" lon="-3.26347">
        <ele>5</ele>
        <time>2021-03-28T12:59:21Z</time>
      </trkpt>
      <trkpt lat="48.7422" lon="-3.26346">
        <ele>5</ele>
        <time>2021-03-28T12:59:22Z</time>
      </trkpt>
      <trkpt lat="48.74222" lon="-3.26342">
        <ele>5</ele>
        <time>2021-03-28T12:59:23Z</time>
      </trkpt>
      <trkpt lat="48.74223" lon="-3.26341">
        <ele>5</ele>
        <time>2021-03-28T12:59:25Z</time>
      </trkpt>
      <trkpt lat="48.74224" lon="-3.26339">
        <ele>5</ele>
        <time>2021-03-28T12:59:26Z</time>
      </trkpt>
      <trkpt lat="48.74224" lon="-3.26338">
        <ele>5</ele>
        <time>2021-03-28T12:59:27Z</time>
      </trkpt>
      <trkpt lat="48.74226" lon="-3.26335">
        <ele>5</ele>
        <time>2021-03-28T12:59:28Z</time>
      </trkpt>
      <trkpt lat="48.74226" lon="-3.26334">
        <ele>5</ele>
        <time>2021-03-28T12:59:30Z</time>
      </trkpt>
      <trkpt lat="48.74227" lon="-3.26333">
        <ele>5</ele>
        <time>2021-03-28T12:59:31Z</time>
      </trkpt>
      <trkpt lat="48.74228" lon="-3.2633">
        <ele>5</ele>
        <time>2021-03-28T12:59:32Z</time>
      </trkpt>
      <trkpt lat="48.74231" lon="-3.26328">
        <ele>5</ele>
        <time>2021-03-28T12:59:34Z</time>
      </trkpt>
      <trkpt lat="48.74232" lon="-3.26327">
        <ele>5.1</ele>
        <time>2021-03-28T12:59:35Z</time>
      </trkpt>
      <trkpt lat="48.74234" lon="-3.26325">
        <ele>5.1</ele>
        <time>2021-03-28T12:59:36Z</time>
      </trkpt>
      <trkpt lat="48.74235" lon="-3.26322">
        <ele>5.1</ele>
        <time>2021-03-28T12:59:37Z</time>
      </trkpt>
      <trkpt lat="48.74235" lon="-3.2632">
        <ele>5.1</ele>
        <time>2021-03-28T12:59:39Z</time>
      </trkpt>
      <trkpt lat="48.74238" lon="-3.26318">
        <ele>5.1</ele>
        <time>2021-03-28T12:59:40Z</time>
      </trkpt>
      <trkpt lat="48.74239" lon="-3.26317">
        <ele>5.1</ele>
        <time>2021-03-28T12:59:41Z</time>
      </trkpt>
      <trkpt lat="48.7424" lon="-3.26315">
        <ele>5.1</ele>
        <time>2021-03-28T12:59:42Z</time>
      </trkpt>
      <trkpt lat="48.74241" lon="-3.26313">
        <ele>5.2</ele>
        <time>2021-03-28T12:59:44Z</time>
      </trkpt>
      <trkpt lat="48.74243" lon="-3.26311">
        <ele>5.2</ele>
        <time>2021-03-28T12:59:45Z</time>
      </trkpt>
      <trkpt lat="48.74244" lon="-3.26311">
        <ele>5.2</ele>
        <time>2021-03-28T12:59:46Z</time>
      </trkpt>
      <trkpt lat="48.74244" lon="-3.2631">
        <ele>5.2</ele>
        <time>2021-03-28T12:59:47Z</time>
      </trkpt>
      <trkpt lat="48.74246" lon="-3.26309">
        <ele>5.2</ele>
        <time>2021-03-28T12:59:49Z</time>
      </trkpt>
      <trkpt lat="48.74247" lon="-3.26307">
        <ele>5.3</ele>
        <time>2021-03-28T12:59:50Z</time>
      </trkpt>
      <trkpt lat="48.74248" lon="-3.26306">
        <ele>5.3</ele>
        <time>2021-03-28T12:59:51Z</time>
      </trkpt>
      <trkpt lat="48.74249" lon="-3.26304">
        <ele>5.3</ele>
        <time>2021-03-28T12:59:52Z</time>
      </trkpt>
      <trkpt lat="48.7425" lon="-3.26303">
        <ele>5.3</ele>
        <time>2021-03-28T12:59:54Z</time>
      </trkpt>
      <trkpt lat="48.74252" lon="-3.26302">
        <ele>5.8</ele>
        <time>2021-03-28T12:59:55Z</time>
      </trkpt>
      <trkpt lat="48.74254" lon="-3.26303">
        <ele>6.5</ele>
        <time>2021-03-28T12:59:57Z</time>
      </trkpt>
      <trkpt lat="48.74254" lon="-3.26304">
        <ele>6.9</ele>
        <time>2021-03-28T12:59:58Z</time>
      </trkpt>
      <trkpt lat="48.74254" lon="-3.26306">
        <ele>7.3</ele>
        <time>2021-03-28T12:59:59Z</time>
      </trkpt>
      <trkpt lat="48.74255" lon="-3.26308">
        <ele>8</ele>
        <time>2021-03-28T13:00:00Z</time>
      </trkpt>
      <trkpt lat="48.74257" lon="-3.26311">
        <ele>8.9</ele>
        <time>2021-03-28T13:00:02Z</time>
      </trkpt>
      <trkpt lat="48.74257" lon="-3.26312">
        <ele>9.2</ele>
        <time>2021-03-28T13:00:03Z</time>
      </trkpt>
      <trkpt lat="48.74258" lon="-3.26314">
        <ele>9.7</ele>
        <time>2021-03-28T13:00:04Z</time>
      </trkpt>
      <trkpt lat="48.7426" lon="-3.26316">
        <ele>10.5</ele>
        <time>2021-03-28T13:00:06Z</time>
      </trkpt>
      <trkpt lat="48.74262" lon="-3.26319">
        <ele>11.7</ele>
        <time>2021-03-28T13:00:08Z</time>
      </trkpt>
      <trkpt lat="48.74262" lon="-3.2632">
        <ele>12</ele>
        <time>2021-03-28T13:00:09Z</time>
      </trkpt>
      <trkpt lat="48.74263" lon="-3.26321">
        <ele>12.4</ele>
        <time>2021-03-28T13:00:10Z</time>
      </trkpt>
      <trkpt lat="48.74264" lon="-3.26323">
        <ele>12.6</ele>
        <time>2021-03-28T13:00:12Z</time>
      </trkpt>
      <trkpt lat="48.74266" lon="-3.26324">
        <ele>12.5</ele>
        <time>2021-03-28T13:00:14Z</time>
      </trkpt>
      <trkpt lat="48.74266" lon="-3.26324">
        <ele>12.5</ele>
        <time>2021-03-28T13:00:15Z</time>
      </trkpt>
      <trkpt lat="48.74268" lon="-3.26324">
        <ele>12.4</ele>
        <time>2021-03-28T13:00:16Z</time>
      </trkpt>
      <trkpt lat="48.7427" lon="-3.26321">
        <ele>12.3</ele>
        <time>2021-03-28T13:00:17Z</time>
      </trkpt>
      <trkpt lat="48.7427" lon="-3.2632">
        <ele>12.3</ele>
        <time>2021-03-28T13:00:18Z</time>
      </trkpt>
      <trkpt lat="48.74272" lon="-3.26315">
        <ele>12.2</ele>
        <time>2021-03-28T13:00:20Z</time>
      </trkpt>
      <trkpt lat="48.74272" lon="-3.26313">
        <ele>12.1</ele>
        <time>2021-03-28T13:00:21Z</time>
      </trkpt>
      <trkpt lat="48.74272" lon="-3.26311">
        <ele>12.1</ele>
        <time>2021-03-28T13:00:22Z</time>
      </trkpt>
      <trkpt lat="48.74273" lon="-3.26307">
        <ele>12</ele>
        <time>2021-03-28T13:00:24Z</time>
      </trkpt>
      <trkpt lat="48.74274" lon="-3.26302">
        <ele>11.9</ele>
        <time>2021-03-28T13:00:25Z</time>
      </trkpt>
      <trkpt lat="48.74274" lon="-3.26301">
        <ele>11.9</ele>
        <time>2021-03-28T13:00:26Z</time>
      </trkpt>
      <trkpt lat="48.74274" lon="-3.26299">
        <ele>11.8</ele>
        <time>2021-03-28T13:00:27Z</time>
      </trkpt>
      <trkpt lat="48.74275" lon="-3.26297">
        <ele>11.8</ele>
        <time>2021-03-28T13:00:29Z</time>
      </trkpt>
      <trkpt lat="48.74276" lon="-3.26295">
        <ele>11.8</ele>
        <time>2021-03-28T13:00:30Z</time>
      </trkpt>
      <trkpt lat="48.74277" lon="-3.26293">
        <ele>11.7</ele>
        <time>2021-03-28T13:00:31Z</time>
      </trkpt>
      <trkpt lat="48.74278" lon="-3.26291">
        <ele>11.7</ele>
        <time>2021-03-28T13:00:32Z</time>
      </trkpt>
      <trkpt lat="48.74279" lon="-3.26289">
        <ele>11.7</ele>
        <time>2021-03-28T13:00:34Z</time>
      </trkpt>
      <trkpt lat="48.74281" lon="-3.26287">
        <ele>11.6</ele>
        <time>2021-03-28T13:00:36Z</time>
      </trkpt>
      <trkpt lat="48.74283" lon="-3.26285">
        <ele>11.6</ele>
        <time>2021-03-28T13:00:37Z</time>
      </trkpt>
      <trkpt lat="48.74284" lon="-3.26284">
        <ele>11.5</ele>
        <time>2021-03-28T13:00:38Z</time>
      </trkpt>
      <trkpt lat="48.74286" lon="-3.26281">
        <ele>11.5</ele>
        <time>2021-03-28T13:00:40Z</time>
      </trkpt>
      <trkpt lat="48.74287" lon="-3.2628">
        <ele>11.4</ele>
        <time>2021-03-28T13:00:41Z</time>
      </trkpt>
      <trkpt lat="48.74289" lon="-3.2628">
        <ele>11.4</ele>
        <time>2021-03-28T13:00:42Z</time>
      </trkpt>
      <trkpt lat="48.7429" lon="-3.26279">
        <ele>11.3</ele>
        <time>2021-03-28T13:00:44Z</time>
      </trkpt>
      <trkpt lat="48.74292" lon="-3.26277">
        <ele>11.3</ele>
        <time>2021-03-28T13:00:46Z</time>
      </trkpt>
      <trkpt lat="48.74293" lon="-3.26274">
        <ele>11.2</ele>
        <time>2021-03-28T13:00:48Z</time>
      </trkpt>
      <trkpt lat="48.74294" lon="-3.26273">
        <ele>11.2</ele>
        <time>2021-03-28T13:00:49Z</time>
      </trkpt>
      <trkpt lat="48.74295" lon="-3.26271">
        <ele>11.1</ele>
        <time>2021-03-28T13:00:50Z</time>
      </trkpt>
      <trkpt lat="48.74296" lon="-3.26269">
        <ele>11.1</ele>
        <time>2021-03-28T13:00:52Z</time>
      </trkpt>
      <trkpt lat="48.74297" lon="-3.26267">
        <ele>11.1</ele>
        <time>2021-03-28T13:00:53Z</time>
      </trkpt>
      <trkpt lat="48.74298" lon="-3.26264">
        <ele>11</ele>
        <time>2021-03-28T13:00:54Z</time>
      </trkpt>
      <trkpt lat="48.74299" lon="-3.26259">
        <ele>10.9</ele>
        <time>2021-03-28T13:00:56Z</time>
      </trkpt>
      <trkpt lat="48.74299" lon="-3.26258">
        <ele>10.9</ele>
        <time>2021-03-28T13:00:57Z</time>
      </trkpt>
      <trkpt lat="48.743" lon="-3.26256">
        <ele>10.9</ele>
        <time>2021-03-28T13:00:59Z</time>
      </trkpt>
      <trkpt lat="48.743" lon="-3.26254">
        <ele>10.9</ele>
        <time>2021-03-28T13:01:00Z</time>
      </trkpt>
      <trkpt lat="48.74303" lon="-3.26251">
        <ele>10.8</ele>
        <time>2021-03-28T13:01:01Z</time>
      </trkpt>
      <trkpt lat="48.74304" lon="-3.26249">
        <ele>10.8</ele>
        <time>2021-03-28T13:01:03Z</time>
      </trkpt>
      <trkpt lat="48.74305" lon="-3.26249">
        <ele>10.8</ele>
        <time>2021-03-28T13:01:04Z</time>
      </trkpt>
      <trkpt lat="48.74306" lon="-3.26248">
        <ele>10.8</ele>
        <time>2021-03-28T13:01:05Z</time>
      </trkpt>
      <trkpt lat="48.74308" lon="-3.26246">
        <ele>10.8</ele>
        <time>2021-03-28T13:01:07Z</time>
      </trkpt>
      <trkpt lat="48.74309" lon="-3.26245">
        <ele>10.8</ele>
        <time>2021-03-28T13:01:08Z</time>
      </trkpt>
      <trkpt lat="48.7431" lon="-3.26244">
        <ele>10.8</ele>
        <time>2021-03-28T13:01:10Z</time>
      </trkpt>
      <trkpt lat="48.74311" lon="-3.26243">
        <ele>10.8</ele>
        <time>2021-03-28T13:01:11Z</time>
      </trkpt>
      <trkpt lat="48.74314" lon="-3.26241">
        <ele>10.8</ele>
        <time>2021-03-28T13:01:13Z</time>
      </trkpt>
      <trkpt lat="48.74316" lon="-3.26239">
        <ele>10.8</ele>
        <time>2021-03-28T13:01:15Z</time>
      </trkpt>
      <trkpt lat="48.74318" lon="-3.26236">
        <ele>10.8</ele>
        <time>2021-03-28T13:01:16Z</time>
      </trkpt>
      <trkpt lat="48.74319" lon="-3.26235">
        <ele>10.8</ele>
        <time>2021-03-28T13:01:18Z</time>
      </trkpt>
      <trkpt lat="48.74321" lon="-3.26234">
        <ele>10.8</ele>
        <time>2021-03-28T13:01:19Z</time>
      </trkpt>
      <trkpt lat="48.74322" lon="-3.26232">
        <ele>10.8</ele>
        <time>2021-03-28T13:01:21Z</time>
      </trkpt>
      <trkpt lat="48.74323" lon="-3.26231">
        <ele>10.8</ele>
        <time>2021-03-28T13:01:22Z</time>
      </trkpt>
      <trkpt lat="48.74324" lon="-3.2623">
        <ele>10.8</ele>
        <time>2021-03-28T13:01:23Z</time>
      </trkpt>
      <trkpt lat="48.74326" lon="-3.26228">
        <ele>10.8</ele>
        <time>2021-03-28T13:01:24Z</time>
      </trkpt>
      <trkpt lat="48.74328" lon="-3.26227">
        <ele>10.8</ele>
        <time>2021-03-28T13:01:26Z</time>
      </trkpt>
      <trkpt lat="48.74329" lon="-3.26226">
        <ele>10.8</ele>
        <time>2021-03-28T13:01:27Z</time>
      </trkpt>
      <trkpt lat="48.7433" lon="-3.26225">
        <ele>10.8</ele>
        <time>2021-03-28T13:01:28Z</time>
      </trkpt>
      <trkpt lat="48.74331" lon="-3.26224">
        <ele>10.8</ele>
        <time>2021-03-28T13:01:30Z</time>
      </trkpt>
      <trkpt lat="48.74332" lon="-3.26223">
        <ele>10.8</ele>
        <time>2021-03-28T13:01:31Z</time>
      </trkpt>
      <trkpt lat="48.74334" lon="-3.26222">
        <ele>10.8</ele>
        <time>2021-03-28T13:01:32Z</time>
      </trkpt>
      <trkpt lat="48.74335" lon="-3.2622">
        <ele>10.8</ele>
        <time>2021-03-28T13:01:34Z</time>
      </trkpt>
      <trkpt lat="48.74336" lon="-3.26219">
        <ele>10.8</ele>
        <time>2021-03-28T13:01:35Z</time>
      </trkpt>
      <trkpt lat="48.74338" lon="-3.26218">
        <ele>10.8</ele>
        <time>2021-03-28T13:01:36Z</time>
      </trkpt>
      <trkpt lat="48.7434" lon="-3.26217">
        <ele>10.8</ele>
        <time>2021-03-28T13:01:37Z</time>
      </trkpt>
      <trkpt lat="48.74342" lon="-3.26217">
        <ele>10.7</ele>
        <time>2021-03-28T13:01:39Z</time>
      </trkpt>
      <trkpt lat="48.74344" lon="-3.26217">
        <ele>10.7</ele>
        <time>2021-03-28T13:01:40Z</time>
      </trkpt>
      <trkpt lat="48.74345" lon="-3.26216">
        <ele>10.7</ele>
        <time>2021-03-28T13:01:41Z</time>
      </trkpt>
      <trkpt lat="48.74347" lon="-3.26216">
        <ele>10.7</ele>
        <time>2021-03-28T13:01:43Z</time>
      </trkpt>
      <trkpt lat="48.74348" lon="-3.26214">
        <ele>10.7</ele>
        <time>2021-03-28T13:01:44Z</time>
      </trkpt>
      <trkpt lat="48.7435" lon="-3.26214">
        <ele>10.7</ele>
        <time>2021-03-28T13:01:45Z</time>
      </trkpt>
      <trkpt lat="48.74351" lon="-3.26214">
        <ele>10.7</ele>
        <time>2021-03-28T13:01:46Z</time>
      </trkpt>
      <trkpt lat="48.74353" lon="-3.26214">
        <ele>10.6</ele>
        <time>2021-03-28T13:01:48Z</time>
      </trkpt>
      <trkpt lat="48.74354" lon="-3.26214">
        <ele>10.6</ele>
        <time>2021-03-28T13:01:49Z</time>
      </trkpt>
      <trkpt lat="48.74357" lon="-3.26215">
        <ele>10.6</ele>
        <time>2021-03-28T13:01:51Z</time>
      </trkpt>
      <trkpt lat="48.74359" lon="-3.26215">
        <ele>10.6</ele>
        <time>2021-03-28T13:01:53Z</time>
      </trkpt>
      <trkpt lat="48.74361" lon="-3.26215">
        <ele>10.6</ele>
        <time>2021-03-28T13:01:54Z</time>
      </trkpt>
      <trkpt lat="48.74363" lon="-3.26215">
        <ele>10.6</ele>
        <time>2021-03-28T13:01:55Z</time>
      </trkpt>
      <trkpt lat="48.74364" lon="-3.26216">
        <ele>10.5</ele>
        <time>2021-03-28T13:01:57Z</time>
      </trkpt>
      <trkpt lat="48.74366" lon="-3.26215">
        <ele>10.5</ele>
        <time>2021-03-28T13:01:58Z</time>
      </trkpt>
      <trkpt lat="48.74368" lon="-3.26214">
        <ele>10.5</ele>
        <time>2021-03-28T13:01:59Z</time>
      </trkpt>
      <trkpt lat="48.74369" lon="-3.26214">
        <ele>10.5</ele>
        <time>2021-03-28T13:02:00Z</time>
      </trkpt>
      <trkpt lat="48.7437" lon="-3.26214">
        <ele>10.5</ele>
        <time>2021-03-28T13:02:02Z</time>
      </trkpt>
      <trkpt lat="48.74372" lon="-3.26214">
        <ele>10.5</ele>
        <time>2021-03-28T13:02:04Z</time>
      </trkpt>
      <trkpt lat="48.74374" lon="-3.26214">
        <ele>10.5</ele>
        <time>2021-03-28T13:02:06Z</time>
      </trkpt>
      <trkpt lat="48.74375" lon="-3.26214">
        <ele>10.5</ele>
        <time>2021-03-28T13:02:07Z</time>
      </trkpt>
      <trkpt lat="48.74377" lon="-3.26213">
        <ele>10.5</ele>
        <time>2021-03-28T13:02:08Z</time>
      </trkpt>
      <trkpt lat="48.74378" lon="-3.26213">
        <ele>10.5</ele>
        <time>2021-03-28T13:02:09Z</time>
      </trkpt>
      <trkpt lat="48.7438" lon="-3.26213">
        <ele>10.4</ele>
        <time>2021-03-28T13:02:10Z</time>
      </trkpt>
      <trkpt lat="48.74382" lon="-3.26213">
        <ele>10.4</ele>
        <time>2021-03-28T13:02:11Z</time>
      </trkpt>
      <trkpt lat="48.74385" lon="-3.26212">
        <ele>10.4</ele>
        <time>2021-03-28T13:02:13Z</time>
      </trkpt>
      <trkpt lat="48.74386" lon="-3.26212">
        <ele>10.4</ele>
        <time>2021-03-28T13:02:14Z</time>
      </trkpt>
      <trkpt lat="48.74388" lon="-3.26211">
        <ele>10.4</ele>
        <time>2021-03-28T13:02:15Z</time>
      </trkpt>
      <trkpt lat="48.74389" lon="-3.26211">
        <ele>10.4</ele>
        <time>2021-03-28T13:02:17Z</time>
      </trkpt>
      <trkpt lat="48.7439" lon="-3.2621">
        <ele>10.4</ele>
        <time>2021-03-28T13:02:18Z</time>
      </trkpt>
      <trkpt lat="48.74392" lon="-3.2621">
        <ele>10.4</ele>
        <time>2021-03-28T13:02:20Z</time>
      </trkpt>
      <trkpt lat="48.74395" lon="-3.2621">
        <ele>10.4</ele>
        <time>2021-03-28T13:02:22Z</time>
      </trkpt>
      <trkpt lat="48.74396" lon="-3.26208">
        <ele>10.4</ele>
        <time>2021-03-28T13:02:23Z</time>
      </trkpt>
      <trkpt lat="48.74398" lon="-3.26207">
        <ele>10.5</ele>
        <time>2021-03-28T13:02:25Z</time>
      </trkpt>
      <trkpt lat="48.74399" lon="-3.26206">
        <ele>10.5</ele>
        <time>2021-03-28T13:02:26Z</time>
      </trkpt>
      <trkpt lat="48.74402" lon="-3.26207">
        <ele>10.5</ele>
        <time>2021-03-28T13:02:28Z</time>
      </trkpt>
      <trkpt lat="48.74405" lon="-3.26208">
        <ele>10.5</ele>
        <time>2021-03-28T13:02:30Z</time>
      </trkpt>
      <trkpt lat="48.74405" lon="-3.26209">
        <ele>10.5</ele>
        <time>2021-03-28T13:02:31Z</time>
      </trkpt>
      <trkpt lat="48.74407" lon="-3.2621">
        <ele>10.5</ele>
        <time>2021-03-28T13:02:32Z</time>
      </trkpt>
      <trkpt lat="48.74408" lon="-3.26211">
        <ele>10.5</ele>
        <time>2021-03-28T13:02:34Z</time>
      </trkpt>
      <trkpt lat="48.7441" lon="-3.26212">
        <ele>10.5</ele>
        <time>2021-03-28T13:02:35Z</time>
      </trkpt>
      <trkpt lat="48.74411" lon="-3.26211">
        <ele>10.5</ele>
        <time>2021-03-28T13:02:36Z</time>
      </trkpt>
      <trkpt lat="48.74412" lon="-3.2621">
        <ele>10.5</ele>
        <time>2021-03-28T13:02:37Z</time>
      </trkpt>
      <trkpt lat="48.74416" lon="-3.26205">
        <ele>10.6</ele>
        <time>2021-03-28T13:02:39Z</time>
      </trkpt>
      <trkpt lat="48.74416" lon="-3.26204">
        <ele>10.6</ele>
        <time>2021-03-28T13:02:40Z</time>
      </trkpt>
      <trkpt lat="48.74419" lon="-3.26204">
        <ele>10.6</ele>
        <time>2021-03-28T13:02:41Z</time>
      </trkpt>
      <trkpt lat="48.74421" lon="-3.26205">
        <ele>10.6</ele>
        <time>2021-03-28T13:02:43Z</time>
      </trkpt>
      <trkpt lat="48.74422" lon="-3.26205">
        <ele>10.6</ele>
        <time>2021-03-28T13:02:44Z</time>
      </trkpt>
      <trkpt lat="48.74423" lon="-3.26205">
        <ele>10.6</ele>
        <time>2021-03-28T13:02:45Z</time>
      </trkpt>
      <trkpt lat="48.74424" lon="-3.26206">
        <ele>10.6</ele>
        <time>2021-03-28T13:02:47Z</time>
      </trkpt>
      <trkpt lat="48.74425" lon="-3.26206">
        <ele>10.6</ele>
        <time>2021-03-28T13:02:48Z</time>
      </trkpt>
      <trkpt lat="48.74426" lon="-3.26206">
        <ele>10.6</ele>
        <time>2021-03-28T13:02:49Z</time>
      </trkpt>
      <trkpt lat="48.74428" lon="-3.26207">
        <ele>10.6</ele>
        <time>2021-03-28T13:02:50Z</time>
      </trkpt>
      <trkpt lat="48.74429" lon="-3.26207">
        <ele>10.7</ele>
        <time>2021-03-28T13:02:52Z</time>
      </trkpt>
      <trkpt lat="48.74431" lon="-3.26207">
        <ele>10.7</ele>
        <time>2021-03-28T13:02:53Z</time>
      </trkpt>
      <trkpt lat="48.74431" lon="-3.26206">
        <ele>10.7</ele>
        <time>2021-03-28T13:02:54Z</time>
      </trkpt>
      <trkpt lat="48.74432" lon="-3.26206">
        <ele>10.7</ele>
        <time>2021-03-28T13:02:56Z</time>
      </trkpt>
      <trkpt lat="48.74432" lon="-3.26206">
        <ele>10.7</ele>
        <time>2021-03-28T13:02:57Z</time>
      </trkpt>
      <trkpt lat="48.74433" lon="-3.26205">
        <ele>10.7</ele>
        <time>2021-03-28T13:02:58Z</time>
      </trkpt>
      <trkpt lat="48.74434" lon="-3.26203">
        <ele>10.6</ele>
        <time>2021-03-28T13:02:59Z</time>
      </trkpt>
      <trkpt lat="48.74435" lon="-3.26201">
        <ele>11.4</ele>
        <time>2021-03-28T13:03:01Z</time>
      </trkpt>
      <trkpt lat="48.74436" lon="-3.26199">
        <ele>11.6</ele>
        <time>2021-03-28T13:03:02Z</time>
      </trkpt>
      <trkpt lat="48.74437" lon="-3.26198">
        <ele>11.8</ele>
        <time>2021-03-28T13:03:04Z</time>
      </trkpt>
      <trkpt lat="48.74437" lon="-3.26196">
        <ele>11.9</ele>
        <time>2021-03-28T13:03:05Z</time>
      </trkpt>
      <trkpt lat="48.74438" lon="-3.26195">
        <ele>12.1</ele>
        <time>2021-03-28T13:03:06Z</time>
      </trkpt>
      <trkpt lat="48.74438" lon="-3.26193">
        <ele>12.3</ele>
        <time>2021-03-28T13:03:07Z</time>
      </trkpt>
      <trkpt lat="48.74439" lon="-3.26192">
        <ele>12.5</ele>
        <time>2021-03-28T13:03:09Z</time>
      </trkpt>
      <trkpt lat="48.7444" lon="-3.26189">
        <ele>12.8</ele>
        <time>2021-03-28T13:03:10Z</time>
      </trkpt>
      <trkpt lat="48.74441" lon="-3.26187">
        <ele>13.1</ele>
        <time>2021-03-28T13:03:12Z</time>
      </trkpt>
      <trkpt lat="48.74443" lon="-3.26185">
        <ele>13.2</ele>
        <time>2021-03-28T13:03:13Z</time>
      </trkpt>
      <trkpt lat="48.74444" lon="-3.26185">
        <ele>13.2</ele>
        <time>2021-03-28T13:03:15Z</time>
      </trkpt>
      <trkpt lat="48.74445" lon="-3.26184">
        <ele>13.2</ele>
        <time>2021-03-28T13:03:16Z</time>
      </trkpt>
      <trkpt lat="48.74446" lon="-3.26184">
        <ele>13.2</ele>
        <time>2021-03-28T13:03:17Z</time>
      </trkpt>
      <trkpt lat="48.74447" lon="-3.26185">
        <ele>13.2</ele>
        <time>2021-03-28T13:03:19Z</time>
      </trkpt>
      <trkpt lat="48.74449" lon="-3.26186">
        <ele>13.2</ele>
        <time>2021-03-28T13:03:21Z</time>
      </trkpt>
      <trkpt lat="48.74451" lon="-3.26189">
        <ele>12.9</ele>
        <time>2021-03-28T13:03:22Z</time>
      </trkpt>
      <trkpt lat="48.74452" lon="-3.2619">
        <ele>12.8</ele>
        <time>2021-03-28T13:03:23Z</time>
      </trkpt>
      <trkpt lat="48.74453" lon="-3.26192">
        <ele>12.6</ele>
        <time>2021-03-28T13:03:25Z</time>
      </trkpt>
      <trkpt lat="48.74454" lon="-3.26193">
        <ele>12.5</ele>
        <time>2021-03-28T13:03:26Z</time>
      </trkpt>
      <trkpt lat="48.74456" lon="-3.26194">
        <ele>12.2</ele>
        <time>2021-03-28T13:03:27Z</time>
      </trkpt>
      <trkpt lat="48.74458" lon="-3.26195">
        <ele>12</ele>
        <time>2021-03-28T13:03:29Z</time>
      </trkpt>
      <trkpt lat="48.74461" lon="-3.26198">
        <ele>11.6</ele>
        <time>2021-03-28T13:03:30Z</time>
      </trkpt>
      <trkpt lat="48.74462" lon="-3.26199">
        <ele>11.4</ele>
        <time>2021-03-28T13:03:31Z</time>
      </trkpt>
      <trkpt lat="48.74463" lon="-3.26201">
        <ele>11.2</ele>
        <time>2021-03-28T13:03:33Z</time>
      </trkpt>
      <trkpt lat="48.74464" lon="-3.26204">
        <ele>11</ele>
        <time>2021-03-28T13:03:34Z</time>
      </trkpt>
      <trkpt lat="48.74466" lon="-3.26207">
        <ele>10.6</ele>
        <time>2021-03-28T13:03:35Z</time>
      </trkpt>
      <trkpt lat="48.74467" lon="-3.26209">
        <ele>10.4</ele>
        <time>2021-03-28T13:03:37Z</time>
      </trkpt>
      <trkpt lat="48.74468" lon="-3.26211">
        <ele>10.2</ele>
        <time>2021-03-28T13:03:38Z</time>
      </trkpt>
      <trkpt lat="48.74469" lon="-3.26213">
        <ele>10</ele>
        <time>2021-03-28T13:03:39Z</time>
      </trkpt>
      <trkpt lat="48.7447" lon="-3.26216">
        <ele>9.7</ele>
        <time>2021-03-28T13:03:41Z</time>
      </trkpt>
      <trkpt lat="48.74471" lon="-3.26218">
        <ele>9.5</ele>
        <time>2021-03-28T13:03:42Z</time>
      </trkpt>
      <trkpt lat="48.74471" lon="-3.2622">
        <ele>9.3</ele>
        <time>2021-03-28T13:03:43Z</time>
      </trkpt>
      <trkpt lat="48.74472" lon="-3.26221">
        <ele>9.2</ele>
        <time>2021-03-28T13:03:44Z</time>
      </trkpt>
      <trkpt lat="48.74472" lon="-3.26225">
        <ele>8.9</ele>
        <time>2021-03-28T13:03:46Z</time>
      </trkpt>
      <trkpt lat="48.74473" lon="-3.26227">
        <ele>8.7</ele>
        <time>2021-03-28T13:03:47Z</time>
      </trkpt>
      <trkpt lat="48.74474" lon="-3.26229">
        <ele>8.6</ele>
        <time>2021-03-28T13:03:49Z</time>
      </trkpt>
      <trkpt lat="48.74474" lon="-3.2623">
        <ele>8.4</ele>
        <time>2021-03-28T13:03:50Z</time>
      </trkpt>
      <trkpt lat="48.74475" lon="-3.26234">
        <ele>8.1</ele>
        <time>2021-03-28T13:03:52Z</time>
      </trkpt>
      <trkpt lat="48.74476" lon="-3.26235">
        <ele>8</ele>
        <time>2021-03-28T13:03:53Z</time>
      </trkpt>
      <trkpt lat="48.74477" lon="-3.26238">
        <ele>7.8</ele>
        <time>2021-03-28T13:03:55Z</time>
      </trkpt>
      <trkpt lat="48.74477" lon="-3.2624">
        <ele>7.6</ele>
        <time>2021-03-28T13:03:56Z</time>
      </trkpt>
      <trkpt lat="48.74477" lon="-3.26243">
        <ele>7.4</ele>
        <time>2021-03-28T13:03:58Z</time>
      </trkpt>
      <trkpt lat="48.74477" lon="-3.26246">
        <ele>7.2</ele>
        <time>2021-03-28T13:03:59Z</time>
      </trkpt>
      <trkpt lat="48.74478" lon="-3.26248">
        <ele>6.9</ele>
        <time>2021-03-28T13:04:00Z</time>
      </trkpt>
      <trkpt lat="48.74478" lon="-3.2625">
        <ele>6.2</ele>
        <time>2021-03-28T13:04:02Z</time>
      </trkpt>
      <trkpt lat="48.74476" lon="-3.26251">
        <ele>6.2</ele>
        <time>2021-03-28T13:04:03Z</time>
      </trkpt>
      <trkpt lat="48.74475" lon="-3.26252">
        <ele>6.2</ele>
        <time>2021-03-28T13:04:05Z</time>
      </trkpt>
      <trkpt lat="48.74474" lon="-3.26253">
        <ele>6.2</ele>
        <time>2021-03-28T13:04:06Z</time>
      </trkpt>
      <trkpt lat="48.74473" lon="-3.26256">
        <ele>6.3</ele>
        <time>2021-03-28T13:04:08Z</time>
      </trkpt>
      <trkpt lat="48.74472" lon="-3.26259">
        <ele>6.3</ele>
        <time>2021-03-28T13:04:09Z</time>
      </trkpt>
      <trkpt lat="48.74471" lon="-3.26262">
        <ele>6.3</ele>
        <time>2021-03-28T13:04:11Z</time>
      </trkpt>
      <trkpt lat="48.74471" lon="-3.26263">
        <ele>6.4</ele>
        <time>2021-03-28T13:04:12Z</time>
      </trkpt>
      <trkpt lat="48.74469" lon="-3.26267">
        <ele>6.4</ele>
        <time>2021-03-28T13:04:14Z</time>
      </trkpt>
      <trkpt lat="48.74469" lon="-3.26269">
        <ele>6.4</ele>
        <time>2021-03-28T13:04:15Z</time>
      </trkpt>
      <trkpt lat="48.74468" lon="-3.26271">
        <ele>6.5</ele>
        <time>2021-03-28T13:04:16Z</time>
      </trkpt>
      <trkpt lat="48.74467" lon="-3.26273">
        <ele>6.5</ele>
        <time>2021-03-28T13:04:18Z</time>
      </trkpt>
      <trkpt lat="48.74466" lon="-3.26274">
        <ele>6.5</ele>
        <time>2021-03-28T13:04:19Z</time>
      </trkpt>
      <trkpt lat="48.74465" lon="-3.26275">
        <ele>6.6</ele>
        <time>2021-03-28T13:04:20Z</time>
      </trkpt>
      <trkpt lat="48.74464" lon="-3.26278">
        <ele>6.6</ele>
        <time>2021-03-28T13:04:21Z</time>
      </trkpt>
      <trkpt lat="48.74464" lon="-3.2628">
        <ele>6.6</ele>
        <time>2021-03-28T13:04:23Z</time>
      </trkpt>
      <trkpt lat="48.74463" lon="-3.26281">
        <ele>6.7</ele>
        <time>2021-03-28T13:04:24Z</time>
      </trkpt>
      <trkpt lat="48.74463" lon="-3.26283">
        <ele>6.7</ele>
        <time>2021-03-28T13:04:25Z</time>
      </trkpt>
      <trkpt lat="48.74463" lon="-3.26284">
        <ele>6.7</ele>
        <time>2021-03-28T13:04:26Z</time>
      </trkpt>
      <trkpt lat="48.74463" lon="-3.26287">
        <ele>6.7</ele>
        <time>2021-03-28T13:04:27Z</time>
      </trkpt>
      <trkpt lat="48.74463" lon="-3.2629">
        <ele>6.8</ele>
        <time>2021-03-28T13:04:29Z</time>
      </trkpt>
      <trkpt lat="48.74465" lon="-3.26293">
        <ele>6.8</ele>
        <time>2021-03-28T13:04:31Z</time>
      </trkpt>
      <trkpt lat="48.74465" lon="-3.26294">
        <ele>6.8</ele>
        <time>2021-03-28T13:04:32Z</time>
      </trkpt>
      <trkpt lat="48.74465" lon="-3.26295">
        <ele>6.9</ele>
        <time>2021-03-28T13:04:33Z</time>
      </trkpt>
      <trkpt lat="48.74466" lon="-3.26298">
        <ele>6.9</ele>
        <time>2021-03-28T13:04:35Z</time>
      </trkpt>
      <trkpt lat="48.74466" lon="-3.263">
        <ele>6.9</ele>
        <time>2021-03-28T13:04:36Z</time>
      </trkpt>
      <trkpt lat="48.74465" lon="-3.26305">
        <ele>6.9</ele>
        <time>2021-03-28T13:04:38Z</time>
      </trkpt>
      <trkpt lat="48.74465" lon="-3.26307">
        <ele>6.9</ele>
        <time>2021-03-28T13:04:39Z</time>
      </trkpt>
      <trkpt lat="48.74465" lon="-3.2631">
        <ele>6.9</ele>
        <time>2021-03-28T13:04:41Z</time>
      </trkpt>
      <trkpt lat="48.74464" lon="-3.26312">
        <ele>6.5</ele>
        <time>2021-03-28T13:04:42Z</time>
      </trkpt>
      <trkpt lat="48.74462" lon="-3.26314">
        <ele>6.5</ele>
        <time>2021-03-28T13:04:44Z</time>
      </trkpt>
      <trkpt lat="48.74461" lon="-3.26316">
        <ele>6.5</ele>
        <time>2021-03-28T13:04:45Z</time>
      </trkpt>
      <trkpt lat="48.7446" lon="-3.26317">
        <ele>6.5</ele>
        <time>2021-03-28T13:04:47Z</time>
      </trkpt>
      <trkpt lat="48.74459" lon="-3.26319">
        <ele>6.5</ele>
        <time>2021-03-28T13:04:48Z</time>
      </trkpt>
      <trkpt lat="48.74457" lon="-3.26321">
        <ele>6.5</ele>
        <time>2021-03-28T13:04:49Z</time>
      </trkpt>
      <trkpt lat="48.74457" lon="-3.26321">
        <ele>6.5</ele>
        <time>2021-03-28T13:04:50Z</time>
      </trkpt>
      <trkpt lat="48.74456" lon="-3.26322">
        <ele>6.5</ele>
        <time>2021-03-28T13:04:52Z</time>
      </trkpt>
      <trkpt lat="48.74457" lon="-3.26325">
        <ele>6.5</ele>
        <time>2021-03-28T13:04:53Z</time>
      </trkpt>
      <trkpt lat="48.74458" lon="-3.26327">
        <ele>6.6</ele>
        <time>2021-03-28T13:04:55Z</time>
      </trkpt>
      <trkpt lat="48.74459" lon="-3.26328">
        <ele>6.6</ele>
        <time>2021-03-28T13:04:56Z</time>
      </trkpt>
      <trkpt lat="48.74461" lon="-3.26329">
        <ele>6.6</ele>
        <time>2021-03-28T13:04:57Z</time>
      </trkpt>
      <trkpt lat="48.74462" lon="-3.26331">
        <ele>6.7</ele>
        <time>2021-03-28T13:04:59Z</time>
      </trkpt>
      <trkpt lat="48.74463" lon="-3.26333">
        <ele>6.7</ele>
        <time>2021-03-28T13:05:00Z</time>
      </trkpt>
      <trkpt lat="48.74463" lon="-3.26335">
        <ele>6.7</ele>
        <time>2021-03-28T13:05:01Z</time>
      </trkpt>
      <trkpt lat="48.74463" lon="-3.26338">
        <ele>6.8</ele>
        <time>2021-03-28T13:05:03Z</time>
      </trkpt>
      <trkpt lat="48.74464" lon="-3.2634">
        <ele>6.8</ele>
        <time>2021-03-28T13:05:04Z</time>
      </trkpt>
      <trkpt lat="48.74465" lon="-3.26343">
        <ele>6.9</ele>
        <time>2021-03-28T13:05:06Z</time>
      </trkpt>
      <trkpt lat="48.74464" lon="-3.26345">
        <ele>6.9</ele>
        <time>2021-03-28T13:05:07Z</time>
      </trkpt>
      <trkpt lat="48.74466" lon="-3.26348">
        <ele>7</ele>
        <time>2021-03-28T13:05:09Z</time>
      </trkpt>
      <trkpt lat="48.74466" lon="-3.26349">
        <ele>7</ele>
        <time>2021-03-28T13:05:10Z</time>
      </trkpt>
      <trkpt lat="48.74466" lon="-3.26351">
        <ele>7</ele>
        <time>2021-03-28T13:05:11Z</time>
      </trkpt>
      <trkpt lat="48.74467" lon="-3.26355">
        <ele>7.1</ele>
        <time>2021-03-28T13:05:13Z</time>
      </trkpt>
      <trkpt lat="48.74468" lon="-3.26359">
        <ele>7.2</ele>
        <time>2021-03-28T13:05:14Z</time>
      </trkpt>
      <trkpt lat="48.74468" lon="-3.26361">
        <ele>7.3</ele>
        <time>2021-03-28T13:05:16Z</time>
      </trkpt>
      <trkpt lat="48.74468" lon="-3.26363">
        <ele>7.3</ele>
        <time>2021-03-28T13:05:17Z</time>
      </trkpt>
      <trkpt lat="48.74468" lon="-3.26365">
        <ele>7.3</ele>
        <time>2021-03-28T13:05:18Z</time>
      </trkpt>
      <trkpt lat="48.74469" lon="-3.26369">
        <ele>7.4</ele>
        <time>2021-03-28T13:05:20Z</time>
      </trkpt>
      <trkpt lat="48.7447" lon="-3.26372">
        <ele>7.5</ele>
        <time>2021-03-28T13:05:22Z</time>
      </trkpt>
      <trkpt lat="48.74471" lon="-3.26374">
        <ele>7.6</ele>
        <time>2021-03-28T13:05:23Z</time>
      </trkpt>
      <trkpt lat="48.74472" lon="-3.26376">
        <ele>7.6</ele>
        <time>2021-03-28T13:05:24Z</time>
      </trkpt>
      <trkpt lat="48.74472" lon="-3.26377">
        <ele>7.6</ele>
        <time>2021-03-28T13:05:26Z</time>
      </trkpt>
      <trkpt lat="48.74473" lon="-3.26379">
        <ele>7.7</ele>
        <time>2021-03-28T13:05:27Z</time>
      </trkpt>
      <trkpt lat="48.74475" lon="-3.26382">
        <ele>7.8</ele>
        <time>2021-03-28T13:05:29Z</time>
      </trkpt>
      <trkpt lat="48.74476" lon="-3.26383">
        <ele>7.8</ele>
        <time>2021-03-28T13:05:31Z</time>
      </trkpt>
      <trkpt lat="48.74477" lon="-3.26384">
        <ele>7.9</ele>
        <time>2021-03-28T13:05:32Z</time>
      </trkpt>
      <trkpt lat="48.74478" lon="-3.26384">
        <ele>7.9</ele>
        <time>2021-03-28T13:05:33Z</time>
      </trkpt>
      <trkpt lat="48.7448" lon="-3.26386">
        <ele>7.9</ele>
        <time>2021-03-28T13:05:35Z</time>
      </trkpt>
      <trkpt lat="48.74482" lon="-3.26388">
        <ele>8</ele>
        <time>2021-03-28T13:05:37Z</time>
      </trkpt>
      <trkpt lat="48.74484" lon="-3.2639">
        <ele>8.1</ele>
        <time>2021-03-28T13:05:39Z</time>
      </trkpt>
      <trkpt lat="48.74485" lon="-3.26391">
        <ele>8.1</ele>
        <time>2021-03-28T13:05:40Z</time>
      </trkpt>
      <trkpt lat="48.74486" lon="-3.26392">
        <ele>8.1</ele>
        <time>2021-03-28T13:05:42Z</time>
      </trkpt>
      <trkpt lat="48.74487" lon="-3.26395">
        <ele>8.2</ele>
        <time>2021-03-28T13:05:43Z</time>
      </trkpt>
      <trkpt lat="48.74487" lon="-3.26397">
        <ele>8.2</ele>
        <time>2021-03-28T13:05:44Z</time>
      </trkpt>
      <trkpt lat="48.74485" lon="-3.26403">
        <ele>8.4</ele>
        <time>2021-03-28T13:05:46Z</time>
      </trkpt>
      <trkpt lat="48.74485" lon="-3.26404">
        <ele>8.5</ele>
        <time>2021-03-28T13:05:47Z</time>
      </trkpt>
      <trkpt lat="48.74484" lon="-3.26409">
        <ele>8.9</ele>
        <time>2021-03-28T13:05:49Z</time>
      </trkpt>
      <trkpt lat="48.74483" lon="-3.2641">
        <ele>9</ele>
        <time>2021-03-28T13:05:50Z</time>
      </trkpt>
      <trkpt lat="48.74481" lon="-3.26411">
        <ele>9.2</ele>
        <time>2021-03-28T13:05:52Z</time>
      </trkpt>
      <trkpt lat="48.7448" lon="-3.26412">
        <ele>9.3</ele>
        <time>2021-03-28T13:05:53Z</time>
      </trkpt>
      <trkpt lat="48.74479" lon="-3.26412">
        <ele>9.4</ele>
        <time>2021-03-28T13:05:54Z</time>
      </trkpt>
      <trkpt lat="48.74478" lon="-3.26412">
        <ele>9.6</ele>
        <time>2021-03-28T13:05:55Z</time>
      </trkpt>
      <trkpt lat="48.74476" lon="-3.26412">
        <ele>9.8</ele>
        <time>2021-03-28T13:05:57Z</time>
      </trkpt>
      <trkpt lat="48.74475" lon="-3.26412">
        <ele>9.9</ele>
        <time>2021-03-28T13:05:58Z</time>
      </trkpt>
      <trkpt lat="48.74474" lon="-3.26412">
        <ele>10.1</ele>
        <time>2021-03-28T13:06:00Z</time>
      </trkpt>
      <trkpt lat="48.74474" lon="-3.26412">
        <ele>10.1</ele>
        <time>2021-03-28T13:06:01Z</time>
      </trkpt>
      <trkpt lat="48.74474" lon="-3.2641">
        <ele>10.2</ele>
        <time>2021-03-28T13:06:03Z</time>
      </trkpt>
      <trkpt lat="48.74474" lon="-3.2641">
        <ele>10.3</ele>
        <time>2021-03-28T13:06:04Z</time>
      </trkpt>
      <trkpt lat="48.74473" lon="-3.26411">
        <ele>10.4</ele>
        <time>2021-03-28T13:06:06Z</time>
      </trkpt>
      <trkpt lat="48.74473" lon="-3.26411">
        <ele>10.4</ele>
        <time>2021-03-28T13:06:08Z</time>
      </trkpt>
      <trkpt lat="48.74473" lon="-3.26411">
        <ele>10.4</ele>
        <time>2021-03-28T13:06:09Z</time>
      </trkpt>
      <trkpt lat="48.74473" lon="-3.26412">
        <ele>10.5</ele>
        <time>2021-03-28T13:06:11Z</time>
      </trkpt>
      <trkpt lat="48.74472" lon="-3.26412">
        <ele>10.7</ele>
        <time>2021-03-28T13:06:13Z</time>
      </trkpt>
      <trkpt lat="48.74469" lon="-3.26412">
        <ele>11.1</ele>
        <time>2021-03-28T13:06:14Z</time>
      </trkpt>
      <trkpt lat="48.74467" lon="-3.26412">
        <ele>11.2</ele>
        <time>2021-03-28T13:06:16Z</time>
      </trkpt>
      <trkpt lat="48.74466" lon="-3.26412">
        <ele>11.4</ele>
        <time>2021-03-28T13:06:18Z</time>
      </trkpt>
      <trkpt lat="48.74464" lon="-3.26412">
        <ele>11.6</ele>
        <time>2021-03-28T13:06:19Z</time>
      </trkpt>
      <trkpt lat="48.74461" lon="-3.26411">
        <ele>12</ele>
        <time>2021-03-28T13:06:21Z</time>
      </trkpt>
      <trkpt lat="48.7446" lon="-3.2641">
        <ele>12.1</ele>
        <time>2021-03-28T13:06:22Z</time>
      </trkpt>
      <trkpt lat="48.74459" lon="-3.2641">
        <ele>12.4</ele>
        <time>2021-03-28T13:06:23Z</time>
      </trkpt>
      <trkpt lat="48.74456" lon="-3.26409">
        <ele>12.7</ele>
        <time>2021-03-28T13:06:25Z</time>
      </trkpt>
      <trkpt lat="48.74454" lon="-3.26409">
        <ele>13</ele>
        <time>2021-03-28T13:06:26Z</time>
      </trkpt>
      <trkpt lat="48.74452" lon="-3.26409">
        <ele>13.2</ele>
        <time>2021-03-28T13:06:28Z</time>
      </trkpt>
      <trkpt lat="48.74451" lon="-3.2641">
        <ele>13.4</ele>
        <time>2021-03-28T13:06:29Z</time>
      </trkpt>
      <trkpt lat="48.74449" lon="-3.2641">
        <ele>13.7</ele>
        <time>2021-03-28T13:06:30Z</time>
      </trkpt>
      <trkpt lat="48.74447" lon="-3.26411">
        <ele>13.9</ele>
        <time>2021-03-28T13:06:32Z</time>
      </trkpt>
      <trkpt lat="48.74446" lon="-3.26412">
        <ele>14</ele>
        <time>2021-03-28T13:06:33Z</time>
      </trkpt>
      <trkpt lat="48.74445" lon="-3.26413">
        <ele>14.2</ele>
        <time>2021-03-28T13:06:34Z</time>
      </trkpt>
      <trkpt lat="48.74444" lon="-3.26414">
        <ele>14.4</ele>
        <time>2021-03-28T13:06:36Z</time>
      </trkpt>
      <trkpt lat="48.74443" lon="-3.26414">
        <ele>14.5</ele>
        <time>2021-03-28T13:06:37Z</time>
      </trkpt>
      <trkpt lat="48.74443" lon="-3.26415">
        <ele>14.6</ele>
        <time>2021-03-28T13:06:38Z</time>
      </trkpt>
      <trkpt lat="48.74442" lon="-3.26416">
        <ele>14.7</ele>
        <time>2021-03-28T13:06:39Z</time>
      </trkpt>
      <trkpt lat="48.7444" lon="-3.26417">
        <ele>15</ele>
        <time>2021-03-28T13:06:41Z</time>
      </trkpt>
      <trkpt lat="48.74438" lon="-3.26418">
        <ele>15.2</ele>
        <time>2021-03-28T13:06:42Z</time>
      </trkpt>
      <trkpt lat="48.74436" lon="-3.2642">
        <ele>15.5</ele>
        <time>2021-03-28T13:06:44Z</time>
      </trkpt>
      <trkpt lat="48.74434" lon="-3.26422">
        <ele>15.8</ele>
        <time>2021-03-28T13:06:45Z</time>
      </trkpt>
      <trkpt lat="48.74433" lon="-3.26423">
        <ele>15.9</ele>
        <time>2021-03-28T13:06:46Z</time>
      </trkpt>
      <trkpt lat="48.74431" lon="-3.26424">
        <ele>16.2</ele>
        <time>2021-03-28T13:06:48Z</time>
      </trkpt>
      <trkpt lat="48.7443" lon="-3.26425">
        <ele>16.3</ele>
        <time>2021-03-28T13:06:49Z</time>
      </trkpt>
      <trkpt lat="48.74428" lon="-3.26425">
        <ele>16.5</ele>
        <time>2021-03-28T13:06:50Z</time>
      </trkpt>
      <trkpt lat="48.74428" lon="-3.26426">
        <ele>16.6</ele>
        <time>2021-03-28T13:06:52Z</time>
      </trkpt>
      <trkpt lat="48.74426" lon="-3.26428">
        <ele>16.8</ele>
        <time>2021-03-28T13:06:53Z</time>
      </trkpt>
      <trkpt lat="48.74425" lon="-3.26428">
        <ele>17</ele>
        <time>2021-03-28T13:06:54Z</time>
      </trkpt>
      <trkpt lat="48.74424" lon="-3.26429">
        <ele>17.1</ele>
        <time>2021-03-28T13:06:56Z</time>
      </trkpt>
      <trkpt lat="48.74422" lon="-3.26429">
        <ele>17.3</ele>
        <time>2021-03-28T13:06:57Z</time>
      </trkpt>
      <trkpt lat="48.74421" lon="-3.26429">
        <ele>17.4</ele>
        <time>2021-03-28T13:06:58Z</time>
      </trkpt>
      <trkpt lat="48.74419" lon="-3.2643">
        <ele>17.6</ele>
        <time>2021-03-28T13:07:00Z</time>
      </trkpt>
      <trkpt lat="48.74415" lon="-3.26428">
        <ele>17.7</ele>
        <time>2021-03-28T13:07:02Z</time>
      </trkpt>
      <trkpt lat="48.74413" lon="-3.26426">
        <ele>17.7</ele>
        <time>2021-03-28T13:07:04Z</time>
      </trkpt>
      <trkpt lat="48.74412" lon="-3.26425">
        <ele>17.7</ele>
        <time>2021-03-28T13:07:06Z</time>
      </trkpt>
      <trkpt lat="48.7441" lon="-3.26424">
        <ele>17.7</ele>
        <time>2021-03-28T13:07:07Z</time>
      </trkpt>
      <trkpt lat="48.74407" lon="-3.26421">
        <ele>17.7</ele>
        <time>2021-03-28T13:07:09Z</time>
      </trkpt>
      <trkpt lat="48.74406" lon="-3.2642">
        <ele>17.7</ele>
        <time>2021-03-28T13:07:10Z</time>
      </trkpt>
      <trkpt lat="48.74405" lon="-3.26419">
        <ele>17.7</ele>
        <time>2021-03-28T13:07:12Z</time>
      </trkpt>
      <trkpt lat="48.74402" lon="-3.26418">
        <ele>17.7</ele>
        <time>2021-03-28T13:07:14Z</time>
      </trkpt>
      <trkpt lat="48.74401" lon="-3.26419">
        <ele>17.7</ele>
        <time>2021-03-28T13:07:15Z</time>
      </trkpt>
      <trkpt lat="48.74399" lon="-3.26418">
        <ele>17.7</ele>
        <time>2021-03-28T13:07:16Z</time>
      </trkpt>
      <trkpt lat="48.74397" lon="-3.26418">
        <ele>17.7</ele>
        <time>2021-03-28T13:07:18Z</time>
      </trkpt>
      <trkpt lat="48.74396" lon="-3.26418">
        <ele>17.7</ele>
        <time>2021-03-28T13:07:20Z</time>
      </trkpt>
      <trkpt lat="48.74394" lon="-3.26418">
        <ele>17.7</ele>
        <time>2021-03-28T13:07:21Z</time>
      </trkpt>
      <trkpt lat="48.74392" lon="-3.26417">
        <ele>17.7</ele>
        <time>2021-03-28T13:07:22Z</time>
      </trkpt>
      <trkpt lat="48.74391" lon="-3.26416">
        <ele>17.7</ele>
        <time>2021-03-28T13:07:24Z</time>
      </trkpt>
      <trkpt lat="48.7439" lon="-3.26415">
        <ele>17.7</ele>
        <time>2021-03-28T13:07:25Z</time>
      </trkpt>
      <trkpt lat="48.74388" lon="-3.26413">
        <ele>17.7</ele>
        <time>2021-03-28T13:07:27Z</time>
      </trkpt>
      <trkpt lat="48.74385" lon="-3.26411">
        <ele>17.7</ele>
        <time>2021-03-28T13:07:29Z</time>
      </trkpt>
      <trkpt lat="48.74384" lon="-3.26407">
        <ele>17.7</ele>
        <time>2021-03-28T13:07:31Z</time>
      </trkpt>
      <trkpt lat="48.74382" lon="-3.26403">
        <ele>17.6</ele>
        <time>2021-03-28T13:07:33Z</time>
      </trkpt>
      <trkpt lat="48.74381" lon="-3.26402">
        <ele>17.6</ele>
        <time>2021-03-28T13:07:34Z</time>
      </trkpt>
      <trkpt lat="48.74381" lon="-3.264">
        <ele>17.6</ele>
        <time>2021-03-28T13:07:36Z</time>
      </trkpt>
      <trkpt lat="48.74381" lon="-3.26399">
        <ele>17.6</ele>
        <time>2021-03-28T13:07:37Z</time>
      </trkpt>
      <trkpt lat="48.74381" lon="-3.26399">
        <ele>17.6</ele>
        <time>2021-03-28T13:07:39Z</time>
      </trkpt>
      <trkpt lat="48.74382" lon="-3.26399">
        <ele>17.6</ele>
        <time>2021-03-28T13:07:40Z</time>
      </trkpt>
      <trkpt lat="48.74382" lon="-3.26399">
        <ele>17.6</ele>
        <time>2021-03-28T13:07:42Z</time>
      </trkpt>
      <trkpt lat="48.74382" lon="-3.26399">
        <ele>17.6</ele>
        <time>2021-03-28T13:07:44Z</time>
      </trkpt>
      <trkpt lat="48.74383" lon="-3.264">
        <ele>17.6</ele>
        <time>2021-03-28T13:07:45Z</time>
      </trkpt>
      <trkpt lat="48.74384" lon="-3.26403">
        <ele>17.7</ele>
        <time>2021-03-28T13:07:47Z</time>
      </trkpt>
      <trkpt lat="48.74384" lon="-3.26405">
        <ele>17.7</ele>
        <time>2021-03-28T13:07:48Z</time>
      </trkpt>
      <trkpt lat="48.74385" lon="-3.26408">
        <ele>17.7</ele>
        <time>2021-03-28T13:07:49Z</time>
      </trkpt>
      <trkpt lat="48.74386" lon="-3.2641">
        <ele>17.7</ele>
        <time>2021-03-28T13:07:51Z</time>
      </trkpt>
      <trkpt lat="48.74387" lon="-3.26412">
        <ele>17.7</ele>
        <time>2021-03-28T13:07:52Z</time>
      </trkpt>
      <trkpt lat="48.74389" lon="-3.26414">
        <ele>17.7</ele>
        <time>2021-03-28T13:07:54Z</time>
      </trkpt>
      <trkpt lat="48.74391" lon="-3.26416">
        <ele>17.7</ele>
        <time>2021-03-28T13:07:56Z</time>
      </trkpt>
      <trkpt lat="48.74393" lon="-3.26418">
        <ele>17.7</ele>
        <time>2021-03-28T13:07:57Z</time>
      </trkpt>
      <trkpt lat="48.74394" lon="-3.26419">
        <ele>17.7</ele>
        <time>2021-03-28T13:07:58Z</time>
      </trkpt>
      <trkpt lat="48.74397" lon="-3.26421">
        <ele>17.7</ele>
        <time>2021-03-28T13:07:59Z</time>
      </trkpt>
      <trkpt lat="48.74398" lon="-3.26422">
        <ele>17.7</ele>
        <time>2021-03-28T13:08:00Z</time>
      </trkpt>
      <trkpt lat="48.744" lon="-3.26422">
        <ele>17.7</ele>
        <time>2021-03-28T13:08:02Z</time>
      </trkpt>
      <trkpt lat="48.74401" lon="-3.26423">
        <ele>17.7</ele>
        <time>2021-03-28T13:08:03Z</time>
      </trkpt>
      <trkpt lat="48.74402" lon="-3.26423">
        <ele>17.7</ele>
        <time>2021-03-28T13:08:04Z</time>
      </trkpt>
      <trkpt lat="48.74404" lon="-3.26422">
        <ele>17.7</ele>
        <time>2021-03-28T13:08:05Z</time>
      </trkpt>
      <trkpt lat="48.74405" lon="-3.26423">
        <ele>17.7</ele>
        <time>2021-03-28T13:08:07Z</time>
      </trkpt>
      <trkpt lat="48.74406" lon="-3.26423">
        <ele>17.7</ele>
        <time>2021-03-28T13:08:08Z</time>
      </trkpt>
      <trkpt lat="48.74408" lon="-3.26425">
        <ele>17.7</ele>
        <time>2021-03-28T13:08:10Z</time>
      </trkpt>
      <trkpt lat="48.7441" lon="-3.26426">
        <ele>17.7</ele>
        <time>2021-03-28T13:08:11Z</time>
      </trkpt>
      <trkpt lat="48.74412" lon="-3.26428">
        <ele>17.7</ele>
        <time>2021-03-28T13:08:13Z</time>
      </trkpt>
      <trkpt lat="48.74412" lon="-3.26428">
        <ele>17.7</ele>
        <time>2021-03-28T13:08:14Z</time>
      </trkpt>
      <trkpt lat="48.74413" lon="-3.26429">
        <ele>17.7</ele>
        <time>2021-03-28T13:08:16Z</time>
      </trkpt>
      <trkpt lat="48.74413" lon="-3.2643">
        <ele>17.7</ele>
        <time>2021-03-28T13:08:17Z</time>
      </trkpt>
      <trkpt lat="48.74413" lon="-3.26432">
        <ele>17.8</ele>
        <time>2021-03-28T13:08:19Z</time>
      </trkpt>
      <trkpt lat="48.74414" lon="-3.26433">
        <ele>17.8</ele>
        <time>2021-03-28T13:08:20Z</time>
      </trkpt>
      <trkpt lat="48.74413" lon="-3.26437">
        <ele>17.9</ele>
        <time>2021-03-28T13:08:22Z</time>
      </trkpt>
      <trkpt lat="48.74413" lon="-3.26439">
        <ele>17.9</ele>
        <time>2021-03-28T13:08:23Z</time>
      </trkpt>
      <trkpt lat="48.74412" lon="-3.26442">
        <ele>18</ele>
        <time>2021-03-28T13:08:25Z</time>
      </trkpt>
      <trkpt lat="48.74412" lon="-3.26444">
        <ele>18</ele>
        <time>2021-03-28T13:08:26Z</time>
      </trkpt>
      <trkpt lat="48.74412" lon="-3.26446">
        <ele>18</ele>
        <time>2021-03-28T13:08:27Z</time>
      </trkpt>
      <trkpt lat="48.74412" lon="-3.26449">
        <ele>18.1</ele>
        <time>2021-03-28T13:08:29Z</time>
      </trkpt>
      <trkpt lat="48.7441" lon="-3.26451">
        <ele>18.1</ele>
        <time>2021-03-28T13:08:30Z</time>
      </trkpt>
      <trkpt lat="48.74408" lon="-3.26456">
        <ele>18.2</ele>
        <time>2021-03-28T13:08:32Z</time>
      </trkpt>
      <trkpt lat="48.74407" lon="-3.26458">
        <ele>18.2</ele>
        <time>2021-03-28T13:08:33Z</time>
      </trkpt>
      <trkpt lat="48.74407" lon="-3.26459">
        <ele>18.3</ele>
        <time>2021-03-28T13:08:35Z</time>
      </trkpt>
      <trkpt lat="48.74406" lon="-3.26461">
        <ele>18.3</ele>
        <time>2021-03-28T13:08:36Z</time>
      </trkpt>
      <trkpt lat="48.74405" lon="-3.26462">
        <ele>18.3</ele>
        <time>2021-03-28T13:08:37Z</time>
      </trkpt>
      <trkpt lat="48.74405" lon="-3.26464">
        <ele>18.3</ele>
        <time>2021-03-28T13:08:38Z</time>
      </trkpt>
      <trkpt lat="48.74405" lon="-3.26465">
        <ele>18.4</ele>
        <time>2021-03-28T13:08:39Z</time>
      </trkpt>
      <trkpt lat="48.74404" lon="-3.26467">
        <ele>18.4</ele>
        <time>2021-03-28T13:08:41Z</time>
      </trkpt>
      <trkpt lat="48.74403" lon="-3.2647">
        <ele>18.4</ele>
        <time>2021-03-28T13:08:43Z</time>
      </trkpt>
      <trkpt lat="48.74402" lon="-3.26472">
        <ele>18.5</ele>
        <time>2021-03-28T13:08:45Z</time>
      </trkpt>
      <trkpt lat="48.74402" lon="-3.26474">
        <ele>18.5</ele>
        <time>2021-03-28T13:08:46Z</time>
      </trkpt>
      <trkpt lat="48.74401" lon="-3.26476">
        <ele>18.5</ele>
        <time>2021-03-28T13:08:48Z</time>
      </trkpt>
      <trkpt lat="48.74401" lon="-3.26476">
        <ele>18.5</ele>
        <time>2021-03-28T13:08:49Z</time>
      </trkpt>
      <trkpt lat="48.74401" lon="-3.26479">
        <ele>18.5</ele>
        <time>2021-03-28T13:08:50Z</time>
      </trkpt>
      <trkpt lat="48.744" lon="-3.26481">
        <ele>18.6</ele>
        <time>2021-03-28T13:08:51Z</time>
      </trkpt>
      <trkpt lat="48.744" lon="-3.26482">
        <ele>18.6</ele>
        <time>2021-03-28T13:08:53Z</time>
      </trkpt>
      <trkpt lat="48.74399" lon="-3.26483">
        <ele>18.6</ele>
        <time>2021-03-28T13:08:54Z</time>
      </trkpt>
      <trkpt lat="48.74398" lon="-3.26487">
        <ele>18.6</ele>
        <time>2021-03-28T13:08:55Z</time>
      </trkpt>
      <trkpt lat="48.74396" lon="-3.26489">
        <ele>18.6</ele>
        <time>2021-03-28T13:08:57Z</time>
      </trkpt>
      <trkpt lat="48.74395" lon="-3.26491">
        <ele>18.6</ele>
        <time>2021-03-28T13:08:58Z</time>
      </trkpt>
      <trkpt lat="48.74393" lon="-3.26493">
        <ele>18.6</ele>
        <time>2021-03-28T13:09:00Z</time>
      </trkpt>
      <trkpt lat="48.74392" lon="-3.26494">
        <ele>18.6</ele>
        <time>2021-03-28T13:09:01Z</time>
      </trkpt>
      <trkpt lat="48.74391" lon="-3.26495">
        <ele>18.6</ele>
        <time>2021-03-28T13:09:02Z</time>
      </trkpt>
      <trkpt lat="48.74389" lon="-3.26497">
        <ele>18.6</ele>
        <time>2021-03-28T13:09:04Z</time>
      </trkpt>
      <trkpt lat="48.74388" lon="-3.26498">
        <ele>18.6</ele>
        <time>2021-03-28T13:09:05Z</time>
      </trkpt>
      <trkpt lat="48.74388" lon="-3.26501">
        <ele>18.6</ele>
        <time>2021-03-28T13:09:07Z</time>
      </trkpt>
      <trkpt lat="48.74388" lon="-3.26503">
        <ele>18.6</ele>
        <time>2021-03-28T13:09:08Z</time>
      </trkpt>
      <trkpt lat="48.74387" lon="-3.26505">
        <ele>18.6</ele>
        <time>2021-03-28T13:09:09Z</time>
      </trkpt>
      <trkpt lat="48.74387" lon="-3.26507">
        <ele>18.6</ele>
        <time>2021-03-28T13:09:10Z</time>
      </trkpt>
      <trkpt lat="48.74386" lon="-3.26509">
        <ele>18.6</ele>
        <time>2021-03-28T13:09:12Z</time>
      </trkpt>
      <trkpt lat="48.74385" lon="-3.26512">
        <ele>18.5</ele>
        <time>2021-03-28T13:09:14Z</time>
      </trkpt>
      <trkpt lat="48.74384" lon="-3.26514">
        <ele>18.5</ele>
        <time>2021-03-28T13:09:15Z</time>
      </trkpt>
      <trkpt lat="48.74384" lon="-3.26516">
        <ele>18.5</ele>
        <time>2021-03-28T13:09:16Z</time>
      </trkpt>
      <trkpt lat="48.74383" lon="-3.26521">
        <ele>18.4</ele>
        <time>2021-03-28T13:09:18Z</time>
      </trkpt>
      <trkpt lat="48.74383" lon="-3.26522">
        <ele>18.4</ele>
        <time>2021-03-28T13:09:19Z</time>
      </trkpt>
      <trkpt lat="48.74382" lon="-3.26524">
        <ele>18.4</ele>
        <time>2021-03-28T13:09:21Z</time>
      </trkpt>
      <trkpt lat="48.74382" lon="-3.26526">
        <ele>18.4</ele>
        <time>2021-03-28T13:09:22Z</time>
      </trkpt>
      <trkpt lat="48.74381" lon="-3.26531">
        <ele>18.3</ele>
        <time>2021-03-28T13:09:23Z</time>
      </trkpt>
      <trkpt lat="48.7438" lon="-3.26532">
        <ele>18.3</ele>
        <time>2021-03-28T13:09:24Z</time>
      </trkpt>
      <trkpt lat="48.7438" lon="-3.26535">
        <ele>18.2</ele>
        <time>2021-03-28T13:09:26Z</time>
      </trkpt>
      <trkpt lat="48.7438" lon="-3.26536">
        <ele>18.2</ele>
        <time>2021-03-28T13:09:27Z</time>
      </trkpt>
      <trkpt lat="48.74379" lon="-3.26537">
        <ele>18.1</ele>
        <time>2021-03-28T13:09:28Z</time>
      </trkpt>
      <trkpt lat="48.74379" lon="-3.26541">
        <ele>18.1</ele>
        <time>2021-03-28T13:09:29Z</time>
      </trkpt>
      <trkpt lat="48.74378" lon="-3.26543">
        <ele>18</ele>
        <time>2021-03-28T13:09:31Z</time>
      </trkpt>
      <trkpt lat="48.74376" lon="-3.26546">
        <ele>17.9</ele>
        <time>2021-03-28T13:09:32Z</time>
      </trkpt>
      <trkpt lat="48.74376" lon="-3.26547">
        <ele>17.9</ele>
        <time>2021-03-28T13:09:33Z</time>
      </trkpt>
      <trkpt lat="48.74375" lon="-3.26549">
        <ele>17.8</ele>
        <time>2021-03-28T13:09:34Z</time>
      </trkpt>
      <trkpt lat="48.74374" lon="-3.26554">
        <ele>17.7</ele>
        <time>2021-03-28T13:09:36Z</time>
      </trkpt>
      <trkpt lat="48.74373" lon="-3.26556">
        <ele>17.6</ele>
        <time>2021-03-28T13:09:37Z</time>
      </trkpt>
      <trkpt lat="48.74373" lon="-3.26558">
        <ele>17.6</ele>
        <time>2021-03-28T13:09:38Z</time>
      </trkpt>
      <trkpt lat="48.74372" lon="-3.26561">
        <ele>17.5</ele>
        <time>2021-03-28T13:09:39Z</time>
      </trkpt>
      <trkpt lat="48.74372" lon="-3.26563">
        <ele>17.5</ele>
        <time>2021-03-28T13:09:41Z</time>
      </trkpt>
      <trkpt lat="48.74371" lon="-3.26566">
        <ele>17.4</ele>
        <time>2021-03-28T13:09:42Z</time>
      </trkpt>
      <trkpt lat="48.74371" lon="-3.26571">
        <ele>17.3</ele>
        <time>2021-03-28T13:09:44Z</time>
      </trkpt>
      <trkpt lat="48.74371" lon="-3.26574">
        <ele>17.3</ele>
        <time>2021-03-28T13:09:45Z</time>
      </trkpt>
      <trkpt lat="48.7437" lon="-3.26577">
        <ele>17.2</ele>
        <time>2021-03-28T13:09:47Z</time>
      </trkpt>
      <trkpt lat="48.74369" lon="-3.26582">
        <ele>17.2</ele>
        <time>2021-03-28T13:09:48Z</time>
      </trkpt>
      <trkpt lat="48.74369" lon="-3.26583">
        <ele>17.2</ele>
        <time>2021-03-28T13:09:49Z</time>
      </trkpt>
      <trkpt lat="48.74367" lon="-3.26586">
        <ele>17.1</ele>
        <time>2021-03-28T13:09:51Z</time>
      </trkpt>
      <trkpt lat="48.74366" lon="-3.26587">
        <ele>17.1</ele>
        <time>2021-03-28T13:09:52Z</time>
      </trkpt>
      <trkpt lat="48.74365" lon="-3.2659">
        <ele>17.1</ele>
        <time>2021-03-28T13:09:53Z</time>
      </trkpt>
      <trkpt lat="48.74363" lon="-3.26591">
        <ele>17.1</ele>
        <time>2021-03-28T13:09:55Z</time>
      </trkpt>
      <trkpt lat="48.74363" lon="-3.26593">
        <ele>17.1</ele>
        <time>2021-03-28T13:09:56Z</time>
      </trkpt>
      <trkpt lat="48.74362" lon="-3.26595">
        <ele>17</ele>
        <time>2021-03-28T13:09:57Z</time>
      </trkpt>
      <trkpt lat="48.74361" lon="-3.266">
        <ele>17</ele>
        <time>2021-03-28T13:09:58Z</time>
      </trkpt>
      <trkpt lat="48.74361" lon="-3.26602">
        <ele>17</ele>
        <time>2021-03-28T13:10:00Z</time>
      </trkpt>
      <trkpt lat="48.74361" lon="-3.26604">
        <ele>17</ele>
        <time>2021-03-28T13:10:01Z</time>
      </trkpt>
      <trkpt lat="48.74361" lon="-3.26606">
        <ele>17</ele>
        <time>2021-03-28T13:10:02Z</time>
      </trkpt>
      <trkpt lat="48.7436" lon="-3.26608">
        <ele>17</ele>
        <time>2021-03-28T13:10:03Z</time>
      </trkpt>
      <trkpt lat="48.7436" lon="-3.2661">
        <ele>17</ele>
        <time>2021-03-28T13:10:05Z</time>
      </trkpt>
      <trkpt lat="48.7436" lon="-3.26612">
        <ele>17</ele>
        <time>2021-03-28T13:10:06Z</time>
      </trkpt>
      <trkpt lat="48.7436" lon="-3.26617">
        <ele>17</ele>
        <time>2021-03-28T13:10:07Z</time>
      </trkpt>
      <trkpt lat="48.7436" lon="-3.26618">
        <ele>17</ele>
        <time>2021-03-28T13:10:08Z</time>
      </trkpt>
      <trkpt lat="48.7436" lon="-3.2662">
        <ele>17</ele>
        <time>2021-03-28T13:10:10Z</time>
      </trkpt>
      <trkpt lat="48.7436" lon="-3.26625">
        <ele>17</ele>
        <time>2021-03-28T13:10:12Z</time>
      </trkpt>
      <trkpt lat="48.74359" lon="-3.26628">
        <ele>17</ele>
        <time>2021-03-28T13:10:13Z</time>
      </trkpt>
      <trkpt lat="48.74359" lon="-3.26631">
        <ele>17</ele>
        <time>2021-03-28T13:10:15Z</time>
      </trkpt>
      <trkpt lat="48.74359" lon="-3.26633">
        <ele>17</ele>
        <time>2021-03-28T13:10:16Z</time>
      </trkpt>
      <trkpt lat="48.74359" lon="-3.26635">
        <ele>17</ele>
        <time>2021-03-28T13:10:17Z</time>
      </trkpt>
      <trkpt lat="48.74358" lon="-3.26638">
        <ele>17</ele>
        <time>2021-03-28T13:10:18Z</time>
      </trkpt>
      <trkpt lat="48.74358" lon="-3.2664">
        <ele>17</ele>
        <time>2021-03-28T13:10:19Z</time>
      </trkpt>
      <trkpt lat="48.74357" lon="-3.26643">
        <ele>17</ele>
        <time>2021-03-28T13:10:21Z</time>
      </trkpt>
      <trkpt lat="48.74357" lon="-3.26645">
        <ele>17</ele>
        <time>2021-03-28T13:10:22Z</time>
      </trkpt>
      <trkpt lat="48.74357" lon="-3.26648">
        <ele>17</ele>
        <time>2021-03-28T13:10:23Z</time>
      </trkpt>
      <trkpt lat="48.74357" lon="-3.2665">
        <ele>17</ele>
        <time>2021-03-28T13:10:24Z</time>
      </trkpt>
      <trkpt lat="48.74357" lon="-3.26652">
        <ele>17</ele>
        <time>2021-03-28T13:10:26Z</time>
      </trkpt>
      <trkpt lat="48.74357" lon="-3.26653">
        <ele>17</ele>
        <time>2021-03-28T13:10:27Z</time>
      </trkpt>
      <trkpt lat="48.74356" lon="-3.26657">
        <ele>17.1</ele>
        <time>2021-03-28T13:10:29Z</time>
      </trkpt>
      <trkpt lat="48.74356" lon="-3.26659">
        <ele>17.1</ele>
        <time>2021-03-28T13:10:30Z</time>
      </trkpt>
      <trkpt lat="48.74356" lon="-3.26661">
        <ele>17.1</ele>
        <time>2021-03-28T13:10:31Z</time>
      </trkpt>
      <trkpt lat="48.74356" lon="-3.26665">
        <ele>17.1</ele>
        <time>2021-03-28T13:10:33Z</time>
      </trkpt>
      <trkpt lat="48.74356" lon="-3.26667">
        <ele>17.1</ele>
        <time>2021-03-28T13:10:34Z</time>
      </trkpt>
      <trkpt lat="48.74356" lon="-3.26669">
        <ele>17.1</ele>
        <time>2021-03-28T13:10:35Z</time>
      </trkpt>
      <trkpt lat="48.74356" lon="-3.26673">
        <ele>17.1</ele>
        <time>2021-03-28T13:10:37Z</time>
      </trkpt>
      <trkpt lat="48.74356" lon="-3.26675">
        <ele>17.1</ele>
        <time>2021-03-28T13:10:38Z</time>
      </trkpt>
      <trkpt lat="48.74357" lon="-3.26683">
        <ele>17.2</ele>
        <time>2021-03-28T13:10:40Z</time>
      </trkpt>
      <trkpt lat="48.74357" lon="-3.26686">
        <ele>17.2</ele>
        <time>2021-03-28T13:10:42Z</time>
      </trkpt>
      <trkpt lat="48.74358" lon="-3.26688">
        <ele>17.2</ele>
        <time>2021-03-28T13:10:43Z</time>
      </trkpt>
      <trkpt lat="48.74358" lon="-3.26691">
        <ele>17.2</ele>
        <time>2021-03-28T13:10:44Z</time>
      </trkpt>
      <trkpt lat="48.74358" lon="-3.26696">
        <ele>17.2</ele>
        <time>2021-03-28T13:10:46Z</time>
      </trkpt>
      <trkpt lat="48.74359" lon="-3.26697">
        <ele>17.2</ele>
        <time>2021-03-28T13:10:47Z</time>
      </trkpt>
      <trkpt lat="48.74359" lon="-3.26702">
        <ele>17.3</ele>
        <time>2021-03-28T13:10:49Z</time>
      </trkpt>
      <trkpt lat="48.7436" lon="-3.26707">
        <ele>17.3</ele>
        <time>2021-03-28T13:10:51Z</time>
      </trkpt>
      <trkpt lat="48.7436" lon="-3.26708">
        <ele>17.3</ele>
        <time>2021-03-28T13:10:52Z</time>
      </trkpt>
      <trkpt lat="48.74361" lon="-3.26709">
        <ele>17.3</ele>
        <time>2021-03-28T13:10:53Z</time>
      </trkpt>
      <trkpt lat="48.74361" lon="-3.26709">
        <ele>17.3</ele>
        <time>2021-03-28T13:10:54Z</time>
      </trkpt>
      <trkpt lat="48.74361" lon="-3.26711">
        <ele>17.3</ele>
        <time>2021-03-28T13:10:56Z</time>
      </trkpt>
      <trkpt lat="48.74361" lon="-3.26713">
        <ele>17.3</ele>
        <time>2021-03-28T13:10:57Z</time>
      </trkpt>
      <trkpt lat="48.74361" lon="-3.26716">
        <ele>17.3</ele>
        <time>2021-03-28T13:10:58Z</time>
      </trkpt>
      <trkpt lat="48.74362" lon="-3.26717">
        <ele>17.3</ele>
        <time>2021-03-28T13:11:00Z</time>
      </trkpt>
      <trkpt lat="48.74362" lon="-3.26718">
        <ele>17.4</ele>
        <time>2021-03-28T13:11:01Z</time>
      </trkpt>
      <trkpt lat="48.74362" lon="-3.26722">
        <ele>17.4</ele>
        <time>2021-03-28T13:11:02Z</time>
      </trkpt>
      <trkpt lat="48.74362" lon="-3.26724">
        <ele>17.4</ele>
        <time>2021-03-28T13:11:04Z</time>
      </trkpt>
      <trkpt lat="48.74362" lon="-3.26725">
        <ele>17.4</ele>
        <time>2021-03-28T13:11:05Z</time>
      </trkpt>
      <trkpt lat="48.74361" lon="-3.26728">
        <ele>17.4</ele>
        <time>2021-03-28T13:11:06Z</time>
      </trkpt>
      <trkpt lat="48.74362" lon="-3.26731">
        <ele>17.4</ele>
        <time>2021-03-28T13:11:07Z</time>
      </trkpt>
      <trkpt lat="48.74362" lon="-3.26732">
        <ele>17.4</ele>
        <time>2021-03-28T13:11:09Z</time>
      </trkpt>
      <trkpt lat="48.74362" lon="-3.26735">
        <ele>17.5</ele>
        <time>2021-03-28T13:11:10Z</time>
      </trkpt>
      <trkpt lat="48.74362" lon="-3.26737">
        <ele>17.5</ele>
        <time>2021-03-28T13:11:11Z</time>
      </trkpt>
      <trkpt lat="48.74363" lon="-3.26742">
        <ele>17.5</ele>
        <time>2021-03-28T13:11:12Z</time>
      </trkpt>
      <trkpt lat="48.74364" lon="-3.26744">
        <ele>17.6</ele>
        <time>2021-03-28T13:11:14Z</time>
      </trkpt>
      <trkpt lat="48.74364" lon="-3.26746">
        <ele>17.6</ele>
        <time>2021-03-28T13:11:15Z</time>
      </trkpt>
      <trkpt lat="48.74365" lon="-3.26748">
        <ele>17.6</ele>
        <time>2021-03-28T13:11:16Z</time>
      </trkpt>
      <trkpt lat="48.74365" lon="-3.2675">
        <ele>17.6</ele>
        <time>2021-03-28T13:11:17Z</time>
      </trkpt>
      <trkpt lat="48.74365" lon="-3.26751">
        <ele>17.6</ele>
        <time>2021-03-28T13:11:19Z</time>
      </trkpt>
      <trkpt lat="48.74366" lon="-3.26753">
        <ele>17.6</ele>
        <time>2021-03-28T13:11:20Z</time>
      </trkpt>
      <trkpt lat="48.74366" lon="-3.26755">
        <ele>17.7</ele>
        <time>2021-03-28T13:11:21Z</time>
      </trkpt>
      <trkpt lat="48.74366" lon="-3.26757">
        <ele>17.7</ele>
        <time>2021-03-28T13:11:22Z</time>
      </trkpt>
      <trkpt lat="48.74366" lon="-3.26761">
        <ele>17.7</ele>
        <time>2021-03-28T13:11:24Z</time>
      </trkpt>
      <trkpt lat="48.74367" lon="-3.26765">
        <ele>17.8</ele>
        <time>2021-03-28T13:11:25Z</time>
      </trkpt>
      <trkpt lat="48.74367" lon="-3.26767">
        <ele>17.8</ele>
        <time>2021-03-28T13:11:26Z</time>
      </trkpt>
      <trkpt lat="48.74367" lon="-3.26768">
        <ele>17.8</ele>
        <time>2021-03-28T13:11:28Z</time>
      </trkpt>
      <trkpt lat="48.74367" lon="-3.26771">
        <ele>17.8</ele>
        <time>2021-03-28T13:11:29Z</time>
      </trkpt>
      <trkpt lat="48.74368" lon="-3.26775">
        <ele>17.9</ele>
        <time>2021-03-28T13:11:30Z</time>
      </trkpt>
      <trkpt lat="48.74368" lon="-3.26776">
        <ele>17.9</ele>
        <time>2021-03-28T13:11:31Z</time>
      </trkpt>
      <trkpt lat="48.74369" lon="-3.26778">
        <ele>17.9</ele>
        <time>2021-03-28T13:11:33Z</time>
      </trkpt>
      <trkpt lat="48.74369" lon="-3.26781">
        <ele>18</ele>
        <time>2021-03-28T13:11:34Z</time>
      </trkpt>
      <trkpt lat="48.7437" lon="-3.26785">
        <ele>18</ele>
        <time>2021-03-28T13:11:35Z</time>
      </trkpt>
      <trkpt lat="48.7437" lon="-3.26787">
        <ele>18</ele>
        <time>2021-03-28T13:11:36Z</time>
      </trkpt>
      <trkpt lat="48.74371" lon="-3.2679">
        <ele>18.1</ele>
        <time>2021-03-28T13:11:38Z</time>
      </trkpt>
      <trkpt lat="48.74371" lon="-3.26791">
        <ele>18.1</ele>
        <time>2021-03-28T13:11:39Z</time>
      </trkpt>
      <trkpt lat="48.74372" lon="-3.26792">
        <ele>18.2</ele>
        <time>2021-03-28T13:11:40Z</time>
      </trkpt>
      <trkpt lat="48.74372" lon="-3.26794">
        <ele>18.2</ele>
        <time>2021-03-28T13:11:41Z</time>
      </trkpt>
      <trkpt lat="48.74372" lon="-3.26796">
        <ele>18.2</ele>
        <time>2021-03-28T13:11:43Z</time>
      </trkpt>
      <trkpt lat="48.74372" lon="-3.26798">
        <ele>18.3</ele>
        <time>2021-03-28T13:11:44Z</time>
      </trkpt>
      <trkpt lat="48.74373" lon="-3.268">
        <ele>18.3</ele>
        <time>2021-03-28T13:11:46Z</time>
      </trkpt>
      <trkpt lat="48.74376" lon="-3.26803">
        <ele>18.4</ele>
        <time>2021-03-28T13:11:48Z</time>
      </trkpt>
      <trkpt lat="48.74377" lon="-3.26807">
        <ele>18.5</ele>
        <time>2021-03-28T13:11:49Z</time>
      </trkpt>
      <trkpt lat="48.74377" lon="-3.26809">
        <ele>18.6</ele>
        <time>2021-03-28T13:11:50Z</time>
      </trkpt>
      <trkpt lat="48.74378" lon="-3.26811">
        <ele>18.6</ele>
        <time>2021-03-28T13:11:52Z</time>
      </trkpt>
      <trkpt lat="48.74378" lon="-3.26813">
        <ele>18.7</ele>
        <time>2021-03-28T13:11:53Z</time>
      </trkpt>
      <trkpt lat="48.74378" lon="-3.26814">
        <ele>18.7</ele>
        <time>2021-03-28T13:11:54Z</time>
      </trkpt>
      <trkpt lat="48.74379" lon="-3.26816">
        <ele>18.7</ele>
        <time>2021-03-28T13:11:56Z</time>
      </trkpt>
      <trkpt lat="48.7438" lon="-3.26818">
        <ele>18.8</ele>
        <time>2021-03-28T13:11:58Z</time>
      </trkpt>
      <trkpt lat="48.7438" lon="-3.26818">
        <ele>18.8</ele>
        <time>2021-03-28T13:11:59Z</time>
      </trkpt>
      <trkpt lat="48.74379" lon="-3.26817">
        <ele>18.8</ele>
        <time>2021-03-28T13:12:01Z</time>
      </trkpt>
      <trkpt lat="48.74379" lon="-3.26817">
        <ele>18.9</ele>
        <time>2021-03-28T13:12:03Z</time>
      </trkpt>
      <trkpt lat="48.74379" lon="-3.26817">
        <ele>18.9</ele>
        <time>2021-03-28T13:12:05Z</time>
      </trkpt>
      <trkpt lat="48.74379" lon="-3.26817">
        <ele>18.9</ele>
        <time>2021-03-28T13:12:06Z</time>
      </trkpt>
      <trkpt lat="48.74379" lon="-3.26818">
        <ele>18.9</ele>
        <time>2021-03-28T13:12:08Z</time>
      </trkpt>
      <trkpt lat="48.74379" lon="-3.26817">
        <ele>18.9</ele>
        <time>2021-03-28T13:12:09Z</time>
      </trkpt>
      <trkpt lat="48.74379" lon="-3.26817">
        <ele>18.9</ele>
        <time>2021-03-28T13:12:11Z</time>
      </trkpt>
      <trkpt lat="48.74377" lon="-3.26816">
        <ele>19.3</ele>
        <time>2021-03-28T13:12:13Z</time>
      </trkpt>
      <trkpt lat="48.74375" lon="-3.26818">
        <ele>19.9</ele>
        <time>2021-03-28T13:12:14Z</time>
      </trkpt>
      <trkpt lat="48.74374" lon="-3.26819">
        <ele>20.5</ele>
        <time>2021-03-28T13:12:16Z</time>
      </trkpt>
      <trkpt lat="48.74371" lon="-3.26821">
        <ele>21.4</ele>
        <time>2021-03-28T13:12:17Z</time>
      </trkpt>
      <trkpt lat="48.74371" lon="-3.26822">
        <ele>22</ele>
        <time>2021-03-28T13:12:18Z</time>
      </trkpt>
      <trkpt lat="48.7437" lon="-3.26823">
        <ele>22</ele>
        <time>2021-03-28T13:12:20Z</time>
      </trkpt>
      <trkpt lat="48.74369" lon="-3.26823">
        <ele>22.1</ele>
        <time>2021-03-28T13:12:21Z</time>
      </trkpt>
      <trkpt lat="48.74367" lon="-3.26824">
        <ele>22.2</ele>
        <time>2021-03-28T13:12:23Z</time>
      </trkpt>
      <trkpt lat="48.74366" lon="-3.26824">
        <ele>22.3</ele>
        <time>2021-03-28T13:12:24Z</time>
      </trkpt>
      <trkpt lat="48.74364" lon="-3.26822">
        <ele>22.4</ele>
        <time>2021-03-28T13:12:26Z</time>
      </trkpt>
      <trkpt lat="48.74363" lon="-3.26822">
        <ele>22.5</ele>
        <time>2021-03-28T13:12:28Z</time>
      </trkpt>
      <trkpt lat="48.74361" lon="-3.26823">
        <ele>22.7</ele>
        <time>2021-03-28T13:12:29Z</time>
      </trkpt>
      <trkpt lat="48.7436" lon="-3.26823">
        <ele>22.7</ele>
        <time>2021-03-28T13:12:31Z</time>
      </trkpt>
      <trkpt lat="48.7436" lon="-3.26824">
        <ele>22.8</ele>
        <time>2021-03-28T13:12:32Z</time>
      </trkpt>
      <trkpt lat="48.74359" lon="-3.26825">
        <ele>22.8</ele>
        <time>2021-03-28T13:12:33Z</time>
      </trkpt>
      <trkpt lat="48.74358" lon="-3.26826">
        <ele>22.9</ele>
        <time>2021-03-28T13:12:35Z</time>
      </trkpt>
      <trkpt lat="48.74357" lon="-3.26828">
        <ele>23</ele>
        <time>2021-03-28T13:12:36Z</time>
      </trkpt>
      <trkpt lat="48.74356" lon="-3.26828">
        <ele>23.1</ele>
        <time>2021-03-28T13:12:38Z</time>
      </trkpt>
      <trkpt lat="48.74355" lon="-3.26829">
        <ele>23.2</ele>
        <time>2021-03-28T13:12:40Z</time>
      </trkpt>
      <trkpt lat="48.74354" lon="-3.26829">
        <ele>23.2</ele>
        <time>2021-03-28T13:12:41Z</time>
      </trkpt>
      <trkpt lat="48.74353" lon="-3.2683">
        <ele>23.3</ele>
        <time>2021-03-28T13:12:42Z</time>
      </trkpt>
      <trkpt lat="48.74351" lon="-3.26832">
        <ele>23.5</ele>
        <time>2021-03-28T13:12:44Z</time>
      </trkpt>
      <trkpt lat="48.7435" lon="-3.26833">
        <ele>23.5</ele>
        <time>2021-03-28T13:12:45Z</time>
      </trkpt>
      <trkpt lat="48.74349" lon="-3.26836">
        <ele>23.7</ele>
        <time>2021-03-28T13:12:47Z</time>
      </trkpt>
      <trkpt lat="48.74348" lon="-3.26836">
        <ele>23.8</ele>
        <time>2021-03-28T13:12:48Z</time>
      </trkpt>
      <trkpt lat="48.74346" lon="-3.26837">
        <ele>23.9</ele>
        <time>2021-03-28T13:12:50Z</time>
      </trkpt>
      <trkpt lat="48.74345" lon="-3.26838">
        <ele>24</ele>
        <time>2021-03-28T13:12:51Z</time>
      </trkpt>
      <trkpt lat="48.74344" lon="-3.26838">
        <ele>24.1</ele>
        <time>2021-03-28T13:12:53Z</time>
      </trkpt>
      <trkpt lat="48.74343" lon="-3.26839">
        <ele>24.2</ele>
        <time>2021-03-28T13:12:55Z</time>
      </trkpt>
      <trkpt lat="48.74341" lon="-3.26839">
        <ele>24.3</ele>
        <time>2021-03-28T13:12:56Z</time>
      </trkpt>
      <trkpt lat="48.7434" lon="-3.26841">
        <ele>24.5</ele>
        <time>2021-03-28T13:12:57Z</time>
      </trkpt>
      <trkpt lat="48.74338" lon="-3.26843">
        <ele>24.7</ele>
        <time>2021-03-28T13:12:59Z</time>
      </trkpt>
      <trkpt lat="48.74338" lon="-3.26844">
        <ele>24.8</ele>
        <time>2021-03-28T13:13:00Z</time>
      </trkpt>
      <trkpt lat="48.74336" lon="-3.26846">
        <ele>24.9</ele>
        <time>2021-03-28T13:13:02Z</time>
      </trkpt>
      <trkpt lat="48.74336" lon="-3.26847">
        <ele>25</ele>
        <time>2021-03-28T13:13:03Z</time>
      </trkpt>
      <trkpt lat="48.74335" lon="-3.26849">
        <ele>25.2</ele>
        <time>2021-03-28T13:13:04Z</time>
      </trkpt>
      <trkpt lat="48.74334" lon="-3.26851">
        <ele>25.3</ele>
        <time>2021-03-28T13:13:06Z</time>
      </trkpt>
      <trkpt lat="48.74332" lon="-3.26853">
        <ele>25.5</ele>
        <time>2021-03-28T13:13:07Z</time>
      </trkpt>
      <trkpt lat="48.74331" lon="-3.26854">
        <ele>25.6</ele>
        <time>2021-03-28T13:13:08Z</time>
      </trkpt>
      <trkpt lat="48.74331" lon="-3.26855">
        <ele>25.7</ele>
        <time>2021-03-28T13:13:10Z</time>
      </trkpt>
      <trkpt lat="48.7433" lon="-3.26856">
        <ele>25.8</ele>
        <time>2021-03-28T13:13:11Z</time>
      </trkpt>
      <trkpt lat="48.74329" lon="-3.26857">
        <ele>25.9</ele>
        <time>2021-03-28T13:13:12Z</time>
      </trkpt>
      <trkpt lat="48.74328" lon="-3.26858">
        <ele>25.9</ele>
        <time>2021-03-28T13:13:14Z</time>
      </trkpt>
      <trkpt lat="48.74327" lon="-3.26859">
        <ele>26</ele>
        <time>2021-03-28T13:13:15Z</time>
      </trkpt>
      <trkpt lat="48.74326" lon="-3.26861">
        <ele>26.1</ele>
        <time>2021-03-28T13:13:16Z</time>
      </trkpt>
      <trkpt lat="48.74326" lon="-3.26862">
        <ele>26.2</ele>
        <time>2021-03-28T13:13:18Z</time>
      </trkpt>
      <trkpt lat="48.74325" lon="-3.26863">
        <ele>26.3</ele>
        <time>2021-03-28T13:13:19Z</time>
      </trkpt>
      <trkpt lat="48.74324" lon="-3.26864">
        <ele>26.4</ele>
        <time>2021-03-28T13:13:20Z</time>
      </trkpt>
      <trkpt lat="48.74323" lon="-3.26865">
        <ele>26.5</ele>
        <time>2021-03-28T13:13:21Z</time>
      </trkpt>
      <trkpt lat="48.74322" lon="-3.26867">
        <ele>26.7</ele>
        <time>2021-03-28T13:13:22Z</time>
      </trkpt>
      <trkpt lat="48.74321" lon="-3.2687">
        <ele>26.8</ele>
        <time>2021-03-28T13:13:23Z</time>
      </trkpt>
      <trkpt lat="48.7432" lon="-3.26872">
        <ele>27</ele>
        <time>2021-03-28T13:13:25Z</time>
      </trkpt>
      <trkpt lat="48.74319" lon="-3.26874">
        <ele>27.1</ele>
        <time>2021-03-28T13:13:26Z</time>
      </trkpt>
      <trkpt lat="48.74319" lon="-3.26876">
        <ele>27.3</ele>
        <time>2021-03-28T13:13:28Z</time>
      </trkpt>
      <trkpt lat="48.74318" lon="-3.26879">
        <ele>27.4</ele>
        <time>2021-03-28T13:13:29Z</time>
      </trkpt>
      <trkpt lat="48.74318" lon="-3.26881">
        <ele>27.6</ele>
        <time>2021-03-28T13:13:31Z</time>
      </trkpt>
      <trkpt lat="48.74317" lon="-3.26883">
        <ele>27.7</ele>
        <time>2021-03-28T13:13:32Z</time>
      </trkpt>
      <trkpt lat="48.74317" lon="-3.26885">
        <ele>27.8</ele>
        <time>2021-03-28T13:13:33Z</time>
      </trkpt>
      <trkpt lat="48.74316" lon="-3.26888">
        <ele>27.9</ele>
        <time>2021-03-28T13:13:34Z</time>
      </trkpt>
      <trkpt lat="48.74316" lon="-3.26891">
        <ele>27.9</ele>
        <time>2021-03-28T13:13:35Z</time>
      </trkpt>
      <trkpt lat="48.74315" lon="-3.26892">
        <ele>27.9</ele>
        <time>2021-03-28T13:13:37Z</time>
      </trkpt>
      <trkpt lat="48.74315" lon="-3.26894">
        <ele>27.9</ele>
        <time>2021-03-28T13:13:38Z</time>
      </trkpt>
      <trkpt lat="48.74314" lon="-3.26898">
        <ele>27.9</ele>
        <time>2021-03-28T13:13:40Z</time>
      </trkpt>
      <trkpt lat="48.74314" lon="-3.26899">
        <ele>27.9</ele>
        <time>2021-03-28T13:13:41Z</time>
      </trkpt>
      <trkpt lat="48.74314" lon="-3.26901">
        <ele>27.9</ele>
        <time>2021-03-28T13:13:42Z</time>
      </trkpt>
      <trkpt lat="48.74313" lon="-3.26903">
        <ele>27.9</ele>
        <time>2021-03-28T13:13:44Z</time>
      </trkpt>
      <trkpt lat="48.74312" lon="-3.26904">
        <ele>27.9</ele>
        <time>2021-03-28T13:13:45Z</time>
      </trkpt>
      <trkpt lat="48.74312" lon="-3.26907">
        <ele>27.9</ele>
        <time>2021-03-28T13:13:46Z</time>
      </trkpt>
      <trkpt lat="48.74311" lon="-3.26908">
        <ele>27.9</ele>
        <time>2021-03-28T13:13:48Z</time>
      </trkpt>
      <trkpt lat="48.7431" lon="-3.26913">
        <ele>27.8</ele>
        <time>2021-03-28T13:13:50Z</time>
      </trkpt>
      <trkpt lat="48.74309" lon="-3.26915">
        <ele>27.8</ele>
        <time>2021-03-28T13:13:52Z</time>
      </trkpt>
      <trkpt lat="48.74308" lon="-3.26918">
        <ele>27.8</ele>
        <time>2021-03-28T13:13:54Z</time>
      </trkpt>
      <trkpt lat="48.74307" lon="-3.2692">
        <ele>27.8</ele>
        <time>2021-03-28T13:13:55Z</time>
      </trkpt>
      <trkpt lat="48.74305" lon="-3.26923">
        <ele>27.8</ele>
        <time>2021-03-28T13:13:57Z</time>
      </trkpt>
      <trkpt lat="48.74305" lon="-3.26925">
        <ele>27.8</ele>
        <time>2021-03-28T13:13:58Z</time>
      </trkpt>
      <trkpt lat="48.74305" lon="-3.26926">
        <ele>27.8</ele>
        <time>2021-03-28T13:13:59Z</time>
      </trkpt>
      <trkpt lat="48.74305" lon="-3.26928">
        <ele>27.9</ele>
        <time>2021-03-28T13:14:00Z</time>
      </trkpt>
      <trkpt lat="48.74305" lon="-3.2693">
        <ele>27.9</ele>
        <time>2021-03-28T13:14:02Z</time>
      </trkpt>
      <trkpt lat="48.74304" lon="-3.2693">
        <ele>27.9</ele>
        <time>2021-03-28T13:14:04Z</time>
      </trkpt>
      <trkpt lat="48.74303" lon="-3.2693">
        <ele>27.9</ele>
        <time>2021-03-28T13:14:05Z</time>
      </trkpt>
      <trkpt lat="48.74302" lon="-3.26931">
        <ele>27.9</ele>
        <time>2021-03-28T13:14:07Z</time>
      </trkpt>
      <trkpt lat="48.74301" lon="-3.26932">
        <ele>27.9</ele>
        <time>2021-03-28T13:14:08Z</time>
      </trkpt>
      <trkpt lat="48.74301" lon="-3.26932">
        <ele>27.9</ele>
        <time>2021-03-28T13:14:10Z</time>
      </trkpt>
      <trkpt lat="48.74301" lon="-3.26932">
        <ele>27.9</ele>
        <time>2021-03-28T13:14:11Z</time>
      </trkpt>
      <trkpt lat="48.74301" lon="-3.26932">
        <ele>27.9</ele>
        <time>2021-03-28T13:14:12Z</time>
      </trkpt>
      <trkpt lat="48.74301" lon="-3.26933">
        <ele>27.9</ele>
        <time>2021-03-28T13:14:14Z</time>
      </trkpt>
      <trkpt lat="48.74301" lon="-3.26933">
        <ele>27.9</ele>
        <time>2021-03-28T13:14:15Z</time>
      </trkpt>
      <trkpt lat="48.74301" lon="-3.26933">
        <ele>27.9</ele>
        <time>2021-03-28T13:14:17Z</time>
      </trkpt>
      <trkpt lat="48.74301" lon="-3.26933">
        <ele>27.9</ele>
        <time>2021-03-28T13:14:19Z</time>
      </trkpt>
      <trkpt lat="48.74301" lon="-3.26934">
        <ele>27.9</ele>
        <time>2021-03-28T13:14:20Z</time>
      </trkpt>
      <trkpt lat="48.74301" lon="-3.26934">
        <ele>27.9</ele>
        <time>2021-03-28T13:14:21Z</time>
      </trkpt>
      <trkpt lat="48.74301" lon="-3.26934">
        <ele>27.9</ele>
        <time>2021-03-28T13:14:23Z</time>
      </trkpt>
      <trkpt lat="48.74301" lon="-3.26934">
        <ele>27.9</ele>
        <time>2021-03-28T13:14:24Z</time>
      </trkpt>
      <trkpt lat="48.74301" lon="-3.26935">
        <ele>27.9</ele>
        <time>2021-03-28T13:14:26Z</time>
      </trkpt>
      <trkpt lat="48.74301" lon="-3.26935">
        <ele>27.9</ele>
        <time>2021-03-28T13:14:27Z</time>
      </trkpt>
      <trkpt lat="48.74302" lon="-3.26933">
        <ele>27.9</ele>
        <time>2021-03-28T13:14:28Z</time>
      </trkpt>
      <trkpt lat="48.74302" lon="-3.26931">
        <ele>27.9</ele>
        <time>2021-03-28T13:14:29Z</time>
      </trkpt>
      <trkpt lat="48.74301" lon="-3.2693">
        <ele>27.9</ele>
        <time>2021-03-28T13:14:31Z</time>
      </trkpt>
      <trkpt lat="48.74301" lon="-3.26928">
        <ele>27.9</ele>
        <time>2021-03-28T13:14:32Z</time>
      </trkpt>
      <trkpt lat="48.74302" lon="-3.26928">
        <ele>27.9</ele>
        <time>2021-03-28T13:14:33Z</time>
      </trkpt>
      <trkpt lat="48.74303" lon="-3.26928">
        <ele>27.9</ele>
        <time>2021-03-28T13:14:35Z</time>
      </trkpt>
      <trkpt lat="48.74303" lon="-3.26928">
        <ele>27.9</ele>
        <time>2021-03-28T13:14:36Z</time>
      </trkpt>
      <trkpt lat="48.74304" lon="-3.26929">
        <ele>27.9</ele>
        <time>2021-03-28T13:14:38Z</time>
      </trkpt>
      <trkpt lat="48.74304" lon="-3.26929">
        <ele>27.9</ele>
        <time>2021-03-28T13:14:39Z</time>
      </trkpt>
      <trkpt lat="48.74304" lon="-3.26929">
        <ele>27.9</ele>
        <time>2021-03-28T13:14:40Z</time>
      </trkpt>
      <trkpt lat="48.74304" lon="-3.2693">
        <ele>27.9</ele>
        <time>2021-03-28T13:14:43Z</time>
      </trkpt>
      <trkpt lat="48.74304" lon="-3.2693">
        <ele>27.9</ele>
        <time>2021-03-28T13:14:45Z</time>
      </trkpt>
      <trkpt lat="48.74305" lon="-3.26931">
        <ele>27.9</ele>
        <time>2021-03-28T13:14:47Z</time>
      </trkpt>
      <trkpt lat="48.74306" lon="-3.26932">
        <ele>27.9</ele>
        <time>2021-03-28T13:14:48Z</time>
      </trkpt>
      <trkpt lat="48.74306" lon="-3.26933">
        <ele>27.9</ele>
        <time>2021-03-28T13:14:50Z</time>
      </trkpt>
      <trkpt lat="48.74307" lon="-3.26934">
        <ele>27.9</ele>
        <time>2021-03-28T13:14:51Z</time>
      </trkpt>
      <trkpt lat="48.74307" lon="-3.26934">
        <ele>27.9</ele>
        <time>2021-03-28T13:14:53Z</time>
      </trkpt>
      <trkpt lat="48.74306" lon="-3.26934">
        <ele>27.9</ele>
        <time>2021-03-28T13:14:55Z</time>
      </trkpt>
      <trkpt lat="48.74306" lon="-3.26934">
        <ele>27.9</ele>
        <time>2021-03-28T13:14:56Z</time>
      </trkpt>
      <trkpt lat="48.74306" lon="-3.26934">
        <ele>27.9</ele>
        <time>2021-03-28T13:14:58Z</time>
      </trkpt>
      <trkpt lat="48.74306" lon="-3.26934">
        <ele>27.9</ele>
        <time>2021-03-28T13:15:00Z</time>
      </trkpt>
      <trkpt lat="48.74305" lon="-3.26934">
        <ele>27.9</ele>
        <time>2021-03-28T13:15:01Z</time>
      </trkpt>
      <trkpt lat="48.74306" lon="-3.26935">
        <ele>27.9</ele>
        <time>2021-03-28T13:15:03Z</time>
      </trkpt>
      <trkpt lat="48.74306" lon="-3.26934">
        <ele>27.9</ele>
        <time>2021-03-28T13:15:05Z</time>
      </trkpt>
      <trkpt lat="48.74306" lon="-3.26934">
        <ele>27.9</ele>
        <time>2021-03-28T13:15:07Z</time>
      </trkpt>
      <trkpt lat="48.74306" lon="-3.26934">
        <ele>27.9</ele>
        <time>2021-03-28T13:15:08Z</time>
      </trkpt>
      <trkpt lat="48.74306" lon="-3.26933">
        <ele>27.9</ele>
        <time>2021-03-28T13:15:10Z</time>
      </trkpt>
      <trkpt lat="48.74306" lon="-3.26933">
        <ele>27.9</ele>
        <time>2021-03-28T13:15:12Z</time>
      </trkpt>
      <trkpt lat="48.74306" lon="-3.26933">
        <ele>27.9</ele>
        <time>2021-03-28T13:15:13Z</time>
      </trkpt>
      <trkpt lat="48.74306" lon="-3.26933">
        <ele>27.9</ele>
        <time>2021-03-28T13:15:15Z</time>
      </trkpt>
      <trkpt lat="48.74306" lon="-3.26933">
        <ele>27.9</ele>
        <time>2021-03-28T13:15:17Z</time>
      </trkpt>
      <trkpt lat="48.74306" lon="-3.26933">
        <ele>27.9</ele>
        <time>2021-03-28T13:15:18Z</time>
      </trkpt>
      <trkpt lat="48.74306" lon="-3.26933">
        <ele>27.9</ele>
        <time>2021-03-28T13:15:20Z</time>
      </trkpt>
      <trkpt lat="48.74306" lon="-3.26933">
        <ele>27.9</ele>
        <time>2021-03-28T13:15:21Z</time>
      </trkpt>
      <trkpt lat="48.74306" lon="-3.26933">
        <ele>27.9</ele>
        <time>2021-03-28T13:15:23Z</time>
      </trkpt>
      <trkpt lat="48.74306" lon="-3.26933">
        <ele>27.9</ele>
        <time>2021-03-28T13:15:25Z</time>
      </trkpt>
      <trkpt lat="48.74306" lon="-3.26933">
        <ele>27.9</ele>
        <time>2021-03-28T13:15:26Z</time>
      </trkpt>
      <trkpt lat="48.74306" lon="-3.26933">
        <ele>27.9</ele>
        <time>2021-03-28T13:15:28Z</time>
      </trkpt>
      <trkpt lat="48.74306" lon="-3.26933">
        <ele>27.9</ele>
        <time>2021-03-28T13:15:29Z</time>
      </trkpt>
      <trkpt lat="48.74306" lon="-3.26933">
        <ele>27.9</ele>
        <time>2021-03-28T13:15:30Z</time>
      </trkpt>
      <trkpt lat="48.74306" lon="-3.26933">
        <ele>27.9</ele>
        <time>2021-03-28T13:15:32Z</time>
      </trkpt>
      <trkpt lat="48.74307" lon="-3.26933">
        <ele>27.9</ele>
        <time>2021-03-28T13:15:34Z</time>
      </trkpt>
      <trkpt lat="48.74307" lon="-3.26933">
        <ele>27.9</ele>
        <time>2021-03-28T13:15:35Z</time>
      </trkpt>
      <trkpt lat="48.74307" lon="-3.26933">
        <ele>27.9</ele>
        <time>2021-03-28T13:15:36Z</time>
      </trkpt>
      <trkpt lat="48.74307" lon="-3.26933">
        <ele>27.9</ele>
        <time>2021-03-28T13:15:38Z</time>
      </trkpt>
      <trkpt lat="48.74307" lon="-3.26933">
        <ele>27.9</ele>
        <time>2021-03-28T13:15:40Z</time>
      </trkpt>
      <trkpt lat="48.74307" lon="-3.26933">
        <ele>27.9</ele>
        <time>2021-03-28T13:15:42Z</time>
      </trkpt>
      <trkpt lat="48.74306" lon="-3.26932">
        <ele>27.9</ele>
        <time>2021-03-28T13:15:43Z</time>
      </trkpt>
      <trkpt lat="48.74306" lon="-3.26933">
        <ele>27.9</ele>
        <time>2021-03-28T13:15:44Z</time>
      </trkpt>
      <trkpt lat="48.74306" lon="-3.26933">
        <ele>27.9</ele>
        <time>2021-03-28T13:15:45Z</time>
      </trkpt>
      <trkpt lat="48.74306" lon="-3.26932">
        <ele>27.9</ele>
        <time>2021-03-28T13:15:47Z</time>
      </trkpt>
      <trkpt lat="48.74305" lon="-3.26932">
        <ele>27.9</ele>
        <time>2021-03-28T13:15:48Z</time>
      </trkpt>
      <trkpt lat="48.74305" lon="-3.26931">
        <ele>27.9</ele>
        <time>2021-03-28T13:15:50Z</time>
      </trkpt>
      <trkpt lat="48.74305" lon="-3.26931">
        <ele>27.9</ele>
        <time>2021-03-28T13:15:52Z</time>
      </trkpt>
      <trkpt lat="48.74304" lon="-3.2693">
        <ele>27.9</ele>
        <time>2021-03-28T13:15:53Z</time>
      </trkpt>
      <trkpt lat="48.74303" lon="-3.26931">
        <ele>27.9</ele>
        <time>2021-03-28T13:15:54Z</time>
      </trkpt>
      <trkpt lat="48.74303" lon="-3.2693">
        <ele>27.9</ele>
        <time>2021-03-28T13:15:56Z</time>
      </trkpt>
      <trkpt lat="48.74303" lon="-3.2693">
        <ele>27.9</ele>
        <time>2021-03-28T13:15:57Z</time>
      </trkpt>
      <trkpt lat="48.74302" lon="-3.26929">
        <ele>27.9</ele>
        <time>2021-03-28T13:15:59Z</time>
      </trkpt>
      <trkpt lat="48.74302" lon="-3.26929">
        <ele>27.9</ele>
        <time>2021-03-28T13:16:00Z</time>
      </trkpt>
      <trkpt lat="48.74302" lon="-3.26928">
        <ele>27.9</ele>
        <time>2021-03-28T13:16:01Z</time>
      </trkpt>
      <trkpt lat="48.74302" lon="-3.26928">
        <ele>27.9</ele>
        <time>2021-03-28T13:16:03Z</time>
      </trkpt>
      <trkpt lat="48.74301" lon="-3.26928">
        <ele>27.9</ele>
        <time>2021-03-28T13:16:05Z</time>
      </trkpt>
      <trkpt lat="48.74301" lon="-3.26928">
        <ele>27.9</ele>
        <time>2021-03-28T13:16:06Z</time>
      </trkpt>
      <trkpt lat="48.74301" lon="-3.26928">
        <ele>27.9</ele>
        <time>2021-03-28T13:16:07Z</time>
      </trkpt>
      <trkpt lat="48.74301" lon="-3.26928">
        <ele>27.9</ele>
        <time>2021-03-28T13:16:09Z</time>
      </trkpt>
      <trkpt lat="48.74301" lon="-3.26928">
        <ele>27.9</ele>
        <time>2021-03-28T13:16:10Z</time>
      </trkpt>
      <trkpt lat="48.74301" lon="-3.26928">
        <ele>27.9</ele>
        <time>2021-03-28T13:16:12Z</time>
      </trkpt>
      <trkpt lat="48.74301" lon="-3.26928">
        <ele>27.9</ele>
        <time>2021-03-28T13:16:14Z</time>
      </trkpt>
      <trkpt lat="48.74301" lon="-3.26928">
        <ele>27.9</ele>
        <time>2021-03-28T13:16:15Z</time>
      </trkpt>
      <trkpt lat="48.74301" lon="-3.26928">
        <ele>27.9</ele>
        <time>2021-03-28T13:16:16Z</time>
      </trkpt>
      <trkpt lat="48.74301" lon="-3.26928">
        <ele>27.9</ele>
        <time>2021-03-28T13:16:18Z</time>
      </trkpt>
      <trkpt lat="48.74301" lon="-3.26928">
        <ele>27.9</ele>
        <time>2021-03-28T13:16:19Z</time>
      </trkpt>
      <trkpt lat="48.74301" lon="-3.26928">
        <ele>27.9</ele>
        <time>2021-03-28T13:16:21Z</time>
      </trkpt>
      <trkpt lat="48.74301" lon="-3.26928">
        <ele>27.9</ele>
        <time>2021-03-28T13:16:23Z</time>
      </trkpt>
      <trkpt lat="48.74302" lon="-3.26928">
        <ele>27.9</ele>
        <time>2021-03-28T13:16:25Z</time>
      </trkpt>
      <trkpt lat="48.74302" lon="-3.26929">
        <ele>27.9</ele>
        <time>2021-03-28T13:16:26Z</time>
      </trkpt>
      <trkpt lat="48.74302" lon="-3.26928">
        <ele>27.9</ele>
        <time>2021-03-28T13:16:28Z</time>
      </trkpt>
      <trkpt lat="48.74302" lon="-3.26928">
        <ele>27.9</ele>
        <time>2021-03-28T13:16:29Z</time>
      </trkpt>
      <trkpt lat="48.74302" lon="-3.26928">
        <ele>27.9</ele>
        <time>2021-03-28T13:16:30Z</time>
      </trkpt>
      <trkpt lat="48.74302" lon="-3.26928">
        <ele>27.9</ele>
        <time>2021-03-28T13:16:32Z</time>
      </trkpt>
      <trkpt lat="48.74301" lon="-3.26928">
        <ele>27.9</ele>
        <time>2021-03-28T13:16:33Z</time>
      </trkpt>
      <trkpt lat="48.74301" lon="-3.26928">
        <ele>27.9</ele>
        <time>2021-03-28T13:16:35Z</time>
      </trkpt>
      <trkpt lat="48.74301" lon="-3.26928">
        <ele>27.9</ele>
        <time>2021-03-28T13:16:37Z</time>
      </trkpt>
      <trkpt lat="48.74301" lon="-3.26928">
        <ele>27.9</ele>
        <time>2021-03-28T13:16:39Z</time>
      </trkpt>
      <trkpt lat="48.74301" lon="-3.26928">
        <ele>27.9</ele>
        <time>2021-03-28T13:16:41Z</time>
      </trkpt>
      <trkpt lat="48.74301" lon="-3.26928">
        <ele>27.9</ele>
        <time>2021-03-28T13:16:43Z</time>
      </trkpt>
      <trkpt lat="48.74301" lon="-3.26928">
        <ele>27.9</ele>
        <time>2021-03-28T13:16:45Z</time>
      </trkpt>
      <trkpt lat="48.74301" lon="-3.26928">
        <ele>27.9</ele>
        <time>2021-03-28T13:16:46Z</time>
      </trkpt>
      <trkpt lat="48.74301" lon="-3.26928">
        <ele>27.9</ele>
        <time>2021-03-28T13:16:48Z</time>
      </trkpt>
      <trkpt lat="48.74301" lon="-3.26928">
        <ele>27.9</ele>
        <time>2021-03-28T13:16:50Z</time>
      </trkpt>
      <trkpt lat="48.74301" lon="-3.26928">
        <ele>27.9</ele>
        <time>2021-03-28T13:16:52Z</time>
      </trkpt>
      <trkpt lat="48.74301" lon="-3.26928">
        <ele>27.9</ele>
        <time>2021-03-28T13:16:54Z</time>
      </trkpt>
      <trkpt lat="48.74301" lon="-3.26928">
        <ele>27.9</ele>
        <time>2021-03-28T13:16:56Z</time>
      </trkpt>
      <trkpt lat="48.74301" lon="-3.26928">
        <ele>27.9</ele>
        <time>2021-03-28T13:16:58Z</time>
      </trkpt>
      <trkpt lat="48.74301" lon="-3.26928">
        <ele>27.9</ele>
        <time>2021-03-28T13:17:00Z</time>
      </trkpt>
      <trkpt lat="48.74301" lon="-3.26927">
        <ele>27.9</ele>
        <time>2021-03-28T13:17:02Z</time>
      </trkpt>
      <trkpt lat="48.74302" lon="-3.26927">
        <ele>27.9</ele>
        <time>2021-03-28T13:17:04Z</time>
      </trkpt>
      <trkpt lat="48.74302" lon="-3.26926">
        <ele>27.9</ele>
        <time>2021-03-28T13:17:06Z</time>
      </trkpt>
      <trkpt lat="48.74302" lon="-3.26926">
        <ele>27.9</ele>
        <time>2021-03-28T13:17:08Z</time>
      </trkpt>
      <trkpt lat="48.74302" lon="-3.26925">
        <ele>27.9</ele>
        <time>2021-03-28T13:17:09Z</time>
      </trkpt>
      <trkpt lat="48.74302" lon="-3.26925">
        <ele>27.9</ele>
        <time>2021-03-28T13:17:11Z</time>
      </trkpt>
      <trkpt lat="48.74302" lon="-3.26925">
        <ele>27.9</ele>
        <time>2021-03-28T13:17:13Z</time>
      </trkpt>
      <trkpt lat="48.74303" lon="-3.26923">
        <ele>27.9</ele>
        <time>2021-03-28T13:17:14Z</time>
      </trkpt>
      <trkpt lat="48.74303" lon="-3.2692">
        <ele>27.9</ele>
        <time>2021-03-28T13:17:16Z</time>
      </trkpt>
      <trkpt lat="48.74303" lon="-3.2692">
        <ele>27.9</ele>
        <time>2021-03-28T13:17:17Z</time>
      </trkpt>
      <trkpt lat="48.74303" lon="-3.26919">
        <ele>27.9</ele>
        <time>2021-03-28T13:17:18Z</time>
      </trkpt>
      <trkpt lat="48.74304" lon="-3.26918">
        <ele>27.9</ele>
        <time>2021-03-28T13:17:19Z</time>
      </trkpt>
      <trkpt lat="48.74304" lon="-3.26916">
        <ele>27.9</ele>
        <time>2021-03-28T13:17:21Z</time>
      </trkpt>
      <trkpt lat="48.74305" lon="-3.26912">
        <ele>27.9</ele>
        <time>2021-03-28T13:17:23Z</time>
      </trkpt>
      <trkpt lat="48.74306" lon="-3.26912">
        <ele>27.9</ele>
        <time>2021-03-28T13:17:24Z</time>
      </trkpt>
      <trkpt lat="48.74307" lon="-3.2691">
        <ele>27.9</ele>
        <time>2021-03-28T13:17:26Z</time>
      </trkpt>
      <trkpt lat="48.74308" lon="-3.26909">
        <ele>27.9</ele>
        <time>2021-03-28T13:17:27Z</time>
      </trkpt>
      <trkpt lat="48.7431" lon="-3.26907">
        <ele>27.9</ele>
        <time>2021-03-28T13:17:28Z</time>
      </trkpt>
      <trkpt lat="48.7431" lon="-3.26905">
        <ele>27.9</ele>
        <time>2021-03-28T13:17:30Z</time>
      </trkpt>
      <trkpt lat="48.7431" lon="-3.26903">
        <ele>27.9</ele>
        <time>2021-03-28T13:17:31Z</time>
      </trkpt>
      <trkpt lat="48.7431" lon="-3.269">
        <ele>27.9</ele>
        <time>2021-03-28T13:17:33Z</time>
      </trkpt>
      <trkpt lat="48.7431" lon="-3.26896">
        <ele>27.9</ele>
        <time>2021-03-28T13:17:35Z</time>
      </trkpt>
      <trkpt lat="48.74311" lon="-3.26895">
        <ele>27.9</ele>
        <time>2021-03-28T13:17:36Z</time>
      </trkpt>
      <trkpt lat="48.74311" lon="-3.26893">
        <ele>27.9</ele>
        <time>2021-03-28T13:17:37Z</time>
      </trkpt>
      <trkpt lat="48.74312" lon="-3.2689">
        <ele>27.9</ele>
        <time>2021-03-28T13:17:38Z</time>
      </trkpt>
      <trkpt lat="48.74312" lon="-3.26889">
        <ele>27.9</ele>
        <time>2021-03-28T13:17:39Z</time>
      </trkpt>
      <trkpt lat="48.74313" lon="-3.26888">
        <ele>27.9</ele>
        <time>2021-03-28T13:17:41Z</time>
      </trkpt>
      <trkpt lat="48.74313" lon="-3.26885">
        <ele>27.9</ele>
        <time>2021-03-28T13:17:43Z</time>
      </trkpt>
      <trkpt lat="48.74314" lon="-3.26884">
        <ele>27.9</ele>
        <time>2021-03-28T13:17:44Z</time>
      </trkpt>
      <trkpt lat="48.74315" lon="-3.26883">
        <ele>27.8</ele>
        <time>2021-03-28T13:17:45Z</time>
      </trkpt>
      <trkpt lat="48.74315" lon="-3.26882">
        <ele>27.7</ele>
        <time>2021-03-28T13:17:46Z</time>
      </trkpt>
      <trkpt lat="48.74316" lon="-3.2688">
        <ele>27.6</ele>
        <time>2021-03-28T13:17:48Z</time>
      </trkpt>
      <trkpt lat="48.74317" lon="-3.26879">
        <ele>27.5</ele>
        <time>2021-03-28T13:17:49Z</time>
      </trkpt>
      <trkpt lat="48.74317" lon="-3.26878">
        <ele>27.4</ele>
        <time>2021-03-28T13:17:50Z</time>
      </trkpt>
      <trkpt lat="48.74318" lon="-3.26877">
        <ele>27.4</ele>
        <time>2021-03-28T13:17:51Z</time>
      </trkpt>
      <trkpt lat="48.74319" lon="-3.26873">
        <ele>27.1</ele>
        <time>2021-03-28T13:17:53Z</time>
      </trkpt>
      <trkpt lat="48.7432" lon="-3.26872">
        <ele>27.1</ele>
        <time>2021-03-28T13:17:54Z</time>
      </trkpt>
      <trkpt lat="48.7432" lon="-3.2687">
        <ele>26.9</ele>
        <time>2021-03-28T13:17:55Z</time>
      </trkpt>
      <trkpt lat="48.74321" lon="-3.26869">
        <ele>26.8</ele>
        <time>2021-03-28T13:17:56Z</time>
      </trkpt>
      <trkpt lat="48.74322" lon="-3.26865">
        <ele>26.6</ele>
        <time>2021-03-28T13:17:58Z</time>
      </trkpt>
      <trkpt lat="48.74323" lon="-3.26864">
        <ele>26.5</ele>
        <time>2021-03-28T13:17:59Z</time>
      </trkpt>
      <trkpt lat="48.74323" lon="-3.26862">
        <ele>26.4</ele>
        <time>2021-03-28T13:18:00Z</time>
      </trkpt>
      <trkpt lat="48.74324" lon="-3.2686">
        <ele>26.3</ele>
        <time>2021-03-28T13:18:01Z</time>
      </trkpt>
      <trkpt lat="48.74325" lon="-3.26859">
        <ele>26.2</ele>
        <time>2021-03-28T13:18:02Z</time>
      </trkpt>
      <trkpt lat="48.74326" lon="-3.26857">
        <ele>26.1</ele>
        <time>2021-03-28T13:18:04Z</time>
      </trkpt>
      <trkpt lat="48.74326" lon="-3.26858">
        <ele>26.1</ele>
        <time>2021-03-28T13:18:05Z</time>
      </trkpt>
      <trkpt lat="48.74326" lon="-3.26857">
        <ele>26</ele>
        <time>2021-03-28T13:18:06Z</time>
      </trkpt>
      <trkpt lat="48.74326" lon="-3.26856">
        <ele>25.9</ele>
        <time>2021-03-28T13:18:08Z</time>
      </trkpt>
      <trkpt lat="48.74327" lon="-3.26854">
        <ele>25.8</ele>
        <time>2021-03-28T13:18:10Z</time>
      </trkpt>
      <trkpt lat="48.74328" lon="-3.26853">
        <ele>25.8</ele>
        <time>2021-03-28T13:18:11Z</time>
      </trkpt>
      <trkpt lat="48.74328" lon="-3.26852">
        <ele>25.7</ele>
        <time>2021-03-28T13:18:12Z</time>
      </trkpt>
      <trkpt lat="48.7433" lon="-3.2685">
        <ele>25.5</ele>
        <time>2021-03-28T13:18:14Z</time>
      </trkpt>
      <trkpt lat="48.74331" lon="-3.26848">
        <ele>25.3</ele>
        <time>2021-03-28T13:18:16Z</time>
      </trkpt>
      <trkpt lat="48.74334" lon="-3.26845">
        <ele>25</ele>
        <time>2021-03-28T13:18:18Z</time>
      </trkpt>
      <trkpt lat="48.74337" lon="-3.26844">
        <ele>24.8</ele>
        <time>2021-03-28T13:18:19Z</time>
      </trkpt>
      <trkpt lat="48.74339" lon="-3.26843">
        <ele>24.6</ele>
        <time>2021-03-28T13:18:21Z</time>
      </trkpt>
      <trkpt lat="48.74343" lon="-3.2684">
        <ele>24.3</ele>
        <time>2021-03-28T13:18:23Z</time>
      </trkpt>
      <trkpt lat="48.74344" lon="-3.2684">
        <ele>24.2</ele>
        <time>2021-03-28T13:18:24Z</time>
      </trkpt>
      <trkpt lat="48.74345" lon="-3.26839">
        <ele>24</ele>
        <time>2021-03-28T13:18:25Z</time>
      </trkpt>
      <trkpt lat="48.74347" lon="-3.26838">
        <ele>23.9</ele>
        <time>2021-03-28T13:18:26Z</time>
      </trkpt>
      <trkpt lat="48.7435" lon="-3.26836">
        <ele>23.7</ele>
        <time>2021-03-28T13:18:29Z</time>
      </trkpt>
      <trkpt lat="48.74352" lon="-3.26835">
        <ele>23.5</ele>
        <time>2021-03-28T13:18:30Z</time>
      </trkpt>
      <trkpt lat="48.74353" lon="-3.26834">
        <ele>23.4</ele>
        <time>2021-03-28T13:18:31Z</time>
      </trkpt>
      <trkpt lat="48.74354" lon="-3.26833">
        <ele>23.3</ele>
        <time>2021-03-28T13:18:33Z</time>
      </trkpt>
      <trkpt lat="48.74356" lon="-3.26832">
        <ele>23.3</ele>
        <time>2021-03-28T13:18:34Z</time>
      </trkpt>
      <trkpt lat="48.74356" lon="-3.26831">
        <ele>23.2</ele>
        <time>2021-03-28T13:18:35Z</time>
      </trkpt>
      <trkpt lat="48.74358" lon="-3.2683">
        <ele>23.1</ele>
        <time>2021-03-28T13:18:37Z</time>
      </trkpt>
      <trkpt lat="48.74359" lon="-3.2683">
        <ele>23</ele>
        <time>2021-03-28T13:18:38Z</time>
      </trkpt>
      <trkpt lat="48.7436" lon="-3.2683">
        <ele>23</ele>
        <time>2021-03-28T13:18:39Z</time>
      </trkpt>
      <trkpt lat="48.74361" lon="-3.2683">
        <ele>22.9</ele>
        <time>2021-03-28T13:18:40Z</time>
      </trkpt>
      <trkpt lat="48.74362" lon="-3.2683">
        <ele>22.8</ele>
        <time>2021-03-28T13:18:42Z</time>
      </trkpt>
      <trkpt lat="48.74363" lon="-3.26831">
        <ele>22.8</ele>
        <time>2021-03-28T13:18:44Z</time>
      </trkpt>
      <trkpt lat="48.74363" lon="-3.26833">
        <ele>22.7</ele>
        <time>2021-03-28T13:18:46Z</time>
      </trkpt>
      <trkpt lat="48.74363" lon="-3.26833">
        <ele>22.6</ele>
        <time>2021-03-28T13:18:47Z</time>
      </trkpt>
      <trkpt lat="48.74363" lon="-3.26832">
        <ele>22.6</ele>
        <time>2021-03-28T13:18:49Z</time>
      </trkpt>
      <trkpt lat="48.74363" lon="-3.26831">
        <ele>22.6</ele>
        <time>2021-03-28T13:18:50Z</time>
      </trkpt>
      <trkpt lat="48.74363" lon="-3.26831">
        <ele>22.5</ele>
        <time>2021-03-28T13:18:51Z</time>
      </trkpt>
      <trkpt lat="48.74364" lon="-3.26829">
        <ele>22.5</ele>
        <time>2021-03-28T13:18:52Z</time>
      </trkpt>
      <trkpt lat="48.74366" lon="-3.26828">
        <ele>22.3</ele>
        <time>2021-03-28T13:18:54Z</time>
      </trkpt>
      <trkpt lat="48.74368" lon="-3.26826">
        <ele>22.2</ele>
        <time>2021-03-28T13:18:55Z</time>
      </trkpt>
      <trkpt lat="48.74369" lon="-3.26826">
        <ele>22</ele>
        <time>2021-03-28T13:18:56Z</time>
      </trkpt>
      <trkpt lat="48.7437" lon="-3.26825">
        <ele>22</ele>
        <time>2021-03-28T13:18:57Z</time>
      </trkpt>
      <trkpt lat="48.74375" lon="-3.26826">
        <ele>19.1</ele>
        <time>2021-03-28T13:18:59Z</time>
      </trkpt>
      <trkpt lat="48.74376" lon="-3.26827">
        <ele>19.1</ele>
        <time>2021-03-28T13:19:01Z</time>
      </trkpt>
      <trkpt lat="48.74378" lon="-3.26827">
        <ele>19.2</ele>
        <time>2021-03-28T13:19:02Z</time>
      </trkpt>
      <trkpt lat="48.7438" lon="-3.26827">
        <ele>19.2</ele>
        <time>2021-03-28T13:19:03Z</time>
      </trkpt>
      <trkpt lat="48.74382" lon="-3.26828">
        <ele>19.3</ele>
        <time>2021-03-28T13:19:05Z</time>
      </trkpt>
      <trkpt lat="48.74384" lon="-3.26829">
        <ele>19.3</ele>
        <time>2021-03-28T13:19:06Z</time>
      </trkpt>
      <trkpt lat="48.74385" lon="-3.26829">
        <ele>19.4</ele>
        <time>2021-03-28T13:19:07Z</time>
      </trkpt>
      <trkpt lat="48.74387" lon="-3.26831">
        <ele>19.4</ele>
        <time>2021-03-28T13:19:09Z</time>
      </trkpt>
      <trkpt lat="48.74387" lon="-3.26832">
        <ele>19.4</ele>
        <time>2021-03-28T13:19:10Z</time>
      </trkpt>
      <trkpt lat="48.74388" lon="-3.26835">
        <ele>19.5</ele>
        <time>2021-03-28T13:19:11Z</time>
      </trkpt>
      <trkpt lat="48.74389" lon="-3.26837">
        <ele>19.5</ele>
        <time>2021-03-28T13:19:13Z</time>
      </trkpt>
      <trkpt lat="48.74389" lon="-3.26839">
        <ele>19.5</ele>
        <time>2021-03-28T13:19:14Z</time>
      </trkpt>
      <trkpt lat="48.7439" lon="-3.26841">
        <ele>19.6</ele>
        <time>2021-03-28T13:19:15Z</time>
      </trkpt>
      <trkpt lat="48.74392" lon="-3.26844">
        <ele>19.6</ele>
        <time>2021-03-28T13:19:17Z</time>
      </trkpt>
      <trkpt lat="48.74392" lon="-3.26844">
        <ele>19.6</ele>
        <time>2021-03-28T13:19:18Z</time>
      </trkpt>
      <trkpt lat="48.74393" lon="-3.26845">
        <ele>19.6</ele>
        <time>2021-03-28T13:19:19Z</time>
      </trkpt>
      <trkpt lat="48.74394" lon="-3.26848">
        <ele>19.6</ele>
        <time>2021-03-28T13:19:20Z</time>
      </trkpt>
      <trkpt lat="48.74395" lon="-3.2685">
        <ele>19.6</ele>
        <time>2021-03-28T13:19:22Z</time>
      </trkpt>
      <trkpt lat="48.74396" lon="-3.26852">
        <ele>19.6</ele>
        <time>2021-03-28T13:19:23Z</time>
      </trkpt>
      <trkpt lat="48.74397" lon="-3.26854">
        <ele>19.6</ele>
        <time>2021-03-28T13:19:24Z</time>
      </trkpt>
      <trkpt lat="48.74398" lon="-3.26856">
        <ele>19.6</ele>
        <time>2021-03-28T13:19:25Z</time>
      </trkpt>
      <trkpt lat="48.74399" lon="-3.26858">
        <ele>19.6</ele>
        <time>2021-03-28T13:19:27Z</time>
      </trkpt>
      <trkpt lat="48.744" lon="-3.2686">
        <ele>19.6</ele>
        <time>2021-03-28T13:19:28Z</time>
      </trkpt>
      <trkpt lat="48.74401" lon="-3.26862">
        <ele>19.6</ele>
        <time>2021-03-28T13:19:29Z</time>
      </trkpt>
      <trkpt lat="48.74403" lon="-3.26865">
        <ele>19.6</ele>
        <time>2021-03-28T13:19:30Z</time>
      </trkpt>
      <trkpt lat="48.74404" lon="-3.26867">
        <ele>19.6</ele>
        <time>2021-03-28T13:19:32Z</time>
      </trkpt>
      <trkpt lat="48.74405" lon="-3.26868">
        <ele>19.6</ele>
        <time>2021-03-28T13:19:33Z</time>
      </trkpt>
      <trkpt lat="48.74405" lon="-3.2687">
        <ele>19.6</ele>
        <time>2021-03-28T13:19:34Z</time>
      </trkpt>
      <trkpt lat="48.74406" lon="-3.26871">
        <ele>19.6</ele>
        <time>2021-03-28T13:19:35Z</time>
      </trkpt>
      <trkpt lat="48.74407" lon="-3.26873">
        <ele>19.6</ele>
        <time>2021-03-28T13:19:37Z</time>
      </trkpt>
      <trkpt lat="48.74408" lon="-3.26875">
        <ele>19.6</ele>
        <time>2021-03-28T13:19:38Z</time>
      </trkpt>
      <trkpt lat="48.74409" lon="-3.26878">
        <ele>19.6</ele>
        <time>2021-03-28T13:19:39Z</time>
      </trkpt>
      <trkpt lat="48.7441" lon="-3.2688">
        <ele>19.6</ele>
        <time>2021-03-28T13:19:40Z</time>
      </trkpt>
      <trkpt lat="48.74411" lon="-3.26881">
        <ele>19.6</ele>
        <time>2021-03-28T13:19:42Z</time>
      </trkpt>
      <trkpt lat="48.74413" lon="-3.26883">
        <ele>19.6</ele>
        <time>2021-03-28T13:19:43Z</time>
      </trkpt>
      <trkpt lat="48.74414" lon="-3.26885">
        <ele>19.6</ele>
        <time>2021-03-28T13:19:44Z</time>
      </trkpt>
      <trkpt lat="48.74415" lon="-3.26886">
        <ele>19.6</ele>
        <time>2021-03-28T13:19:45Z</time>
      </trkpt>
      <trkpt lat="48.74417" lon="-3.26889">
        <ele>19.6</ele>
        <time>2021-03-28T13:19:47Z</time>
      </trkpt>
      <trkpt lat="48.74417" lon="-3.2689">
        <ele>19.6</ele>
        <time>2021-03-28T13:19:48Z</time>
      </trkpt>
      <trkpt lat="48.74419" lon="-3.26893">
        <ele>19.6</ele>
        <time>2021-03-28T13:19:50Z</time>
      </trkpt>
      <trkpt lat="48.7442" lon="-3.26896">
        <ele>19.6</ele>
        <time>2021-03-28T13:19:51Z</time>
      </trkpt>
      <trkpt lat="48.74421" lon="-3.26898">
        <ele>19.6</ele>
        <time>2021-03-28T13:19:52Z</time>
      </trkpt>
      <trkpt lat="48.74422" lon="-3.269">
        <ele>19.6</ele>
        <time>2021-03-28T13:19:54Z</time>
      </trkpt>
      <trkpt lat="48.74423" lon="-3.26902">
        <ele>19.7</ele>
        <time>2021-03-28T13:19:55Z</time>
      </trkpt>
      <trkpt lat="48.74424" lon="-3.26904">
        <ele>19.7</ele>
        <time>2021-03-28T13:19:57Z</time>
      </trkpt>
      <trkpt lat="48.74425" lon="-3.26906">
        <ele>19.7</ele>
        <time>2021-03-28T13:19:58Z</time>
      </trkpt>
      <trkpt lat="48.74426" lon="-3.2691">
        <ele>19.7</ele>
        <time>2021-03-28T13:19:59Z</time>
      </trkpt>
      <trkpt lat="48.74426" lon="-3.26912">
        <ele>19.7</ele>
        <time>2021-03-28T13:20:00Z</time>
      </trkpt>
      <trkpt lat="48.74426" lon="-3.26913">
        <ele>19.7</ele>
        <time>2021-03-28T13:20:02Z</time>
      </trkpt>
      <trkpt lat="48.74427" lon="-3.26915">
        <ele>19.7</ele>
        <time>2021-03-28T13:20:03Z</time>
      </trkpt>
      <trkpt lat="48.74428" lon="-3.2692">
        <ele>19.7</ele>
        <time>2021-03-28T13:20:05Z</time>
      </trkpt>
      <trkpt lat="48.7443" lon="-3.26924">
        <ele>19.7</ele>
        <time>2021-03-28T13:20:07Z</time>
      </trkpt>
      <trkpt lat="48.7443" lon="-3.26925">
        <ele>19.7</ele>
        <time>2021-03-28T13:20:08Z</time>
      </trkpt>
      <trkpt lat="48.74431" lon="-3.26929">
        <ele>19.8</ele>
        <time>2021-03-28T13:20:10Z</time>
      </trkpt>
      <trkpt lat="48.74431" lon="-3.26932">
        <ele>19.8</ele>
        <time>2021-03-28T13:20:11Z</time>
      </trkpt>
      <trkpt lat="48.74432" lon="-3.26935">
        <ele>19.8</ele>
        <time>2021-03-28T13:20:13Z</time>
      </trkpt>
      <trkpt lat="48.74432" lon="-3.2694">
        <ele>19.8</ele>
        <time>2021-03-28T13:20:14Z</time>
      </trkpt>
      <trkpt lat="48.74433" lon="-3.26941">
        <ele>19.8</ele>
        <time>2021-03-28T13:20:15Z</time>
      </trkpt>
      <trkpt lat="48.74434" lon="-3.26944">
        <ele>19.9</ele>
        <time>2021-03-28T13:20:17Z</time>
      </trkpt>
      <trkpt lat="48.74434" lon="-3.26946">
        <ele>19.9</ele>
        <time>2021-03-28T13:20:18Z</time>
      </trkpt>
      <trkpt lat="48.74434" lon="-3.26947">
        <ele>19.9</ele>
        <time>2021-03-28T13:20:19Z</time>
      </trkpt>
      <trkpt lat="48.74435" lon="-3.26949">
        <ele>19.9</ele>
        <time>2021-03-28T13:20:20Z</time>
      </trkpt>
      <trkpt lat="48.74436" lon="-3.26951">
        <ele>20</ele>
        <time>2021-03-28T13:20:22Z</time>
      </trkpt>
      <trkpt lat="48.74437" lon="-3.26954">
        <ele>20</ele>
        <time>2021-03-28T13:20:23Z</time>
      </trkpt>
      <trkpt lat="48.74438" lon="-3.26955">
        <ele>20</ele>
        <time>2021-03-28T13:20:24Z</time>
      </trkpt>
      <trkpt lat="48.74439" lon="-3.26959">
        <ele>20.1</ele>
        <time>2021-03-28T13:20:26Z</time>
      </trkpt>
      <trkpt lat="48.7444" lon="-3.26961">
        <ele>20.1</ele>
        <time>2021-03-28T13:20:27Z</time>
      </trkpt>
      <trkpt lat="48.7444" lon="-3.26963">
        <ele>20.2</ele>
        <time>2021-03-28T13:20:28Z</time>
      </trkpt>
      <trkpt lat="48.74441" lon="-3.26966">
        <ele>20.2</ele>
        <time>2021-03-28T13:20:29Z</time>
      </trkpt>
      <trkpt lat="48.74441" lon="-3.26968">
        <ele>20.3</ele>
        <time>2021-03-28T13:20:31Z</time>
      </trkpt>
      <trkpt lat="48.74441" lon="-3.2697">
        <ele>20.3</ele>
        <time>2021-03-28T13:20:32Z</time>
      </trkpt>
      <trkpt lat="48.74441" lon="-3.26972">
        <ele>20.4</ele>
        <time>2021-03-28T13:20:33Z</time>
      </trkpt>
      <trkpt lat="48.74441" lon="-3.26974">
        <ele>20.4</ele>
        <time>2021-03-28T13:20:34Z</time>
      </trkpt>
      <trkpt lat="48.74441" lon="-3.26977">
        <ele>20.5</ele>
        <time>2021-03-28T13:20:35Z</time>
      </trkpt>
      <trkpt lat="48.74442" lon="-3.2698">
        <ele>20.5</ele>
        <time>2021-03-28T13:20:37Z</time>
      </trkpt>
      <trkpt lat="48.74442" lon="-3.26983">
        <ele>20.6</ele>
        <time>2021-03-28T13:20:38Z</time>
      </trkpt>
      <trkpt lat="48.74442" lon="-3.26985">
        <ele>20.6</ele>
        <time>2021-03-28T13:20:40Z</time>
      </trkpt>
      <trkpt lat="48.74441" lon="-3.26988">
        <ele>20.7</ele>
        <time>2021-03-28T13:20:41Z</time>
      </trkpt>
      <trkpt lat="48.74441" lon="-3.26989">
        <ele>20.7</ele>
        <time>2021-03-28T13:20:42Z</time>
      </trkpt>
      <trkpt lat="48.74441" lon="-3.26991">
        <ele>20.8</ele>
        <time>2021-03-28T13:20:44Z</time>
      </trkpt>
      <trkpt lat="48.74441" lon="-3.26993">
        <ele>20.8</ele>
        <time>2021-03-28T13:20:45Z</time>
      </trkpt>
      <trkpt lat="48.74441" lon="-3.26997">
        <ele>20.9</ele>
        <time>2021-03-28T13:20:47Z</time>
      </trkpt>
      <trkpt lat="48.74441" lon="-3.27001">
        <ele>20.9</ele>
        <time>2021-03-28T13:20:49Z</time>
      </trkpt>
      <trkpt lat="48.74442" lon="-3.27003">
        <ele>21</ele>
        <time>2021-03-28T13:20:51Z</time>
      </trkpt>
      <trkpt lat="48.74442" lon="-3.27005">
        <ele>21</ele>
        <time>2021-03-28T13:20:53Z</time>
      </trkpt>
      <trkpt lat="48.74443" lon="-3.27007">
        <ele>21</ele>
        <time>2021-03-28T13:20:54Z</time>
      </trkpt>
      <trkpt lat="48.74444" lon="-3.27009">
        <ele>21.1</ele>
        <time>2021-03-28T13:20:55Z</time>
      </trkpt>
      <trkpt lat="48.74445" lon="-3.27013">
        <ele>21.1</ele>
        <time>2021-03-28T13:20:57Z</time>
      </trkpt>
      <trkpt lat="48.74448" lon="-3.27016">
        <ele>21.2</ele>
        <time>2021-03-28T13:20:59Z</time>
      </trkpt>
      <trkpt lat="48.74449" lon="-3.27017">
        <ele>21.2</ele>
        <time>2021-03-28T13:21:00Z</time>
      </trkpt>
      <trkpt lat="48.7445" lon="-3.27019">
        <ele>21.2</ele>
        <time>2021-03-28T13:21:02Z</time>
      </trkpt>
      <trkpt lat="48.74452" lon="-3.27021">
        <ele>21.3</ele>
        <time>2021-03-28T13:21:04Z</time>
      </trkpt>
      <trkpt lat="48.74454" lon="-3.27023">
        <ele>21.3</ele>
        <time>2021-03-28T13:21:06Z</time>
      </trkpt>
      <trkpt lat="48.74455" lon="-3.27025">
        <ele>21.3</ele>
        <time>2021-03-28T13:21:07Z</time>
      </trkpt>
      <trkpt lat="48.74456" lon="-3.27031">
        <ele>21.3</ele>
        <time>2021-03-28T13:21:09Z</time>
      </trkpt>
      <trkpt lat="48.74456" lon="-3.27034">
        <ele>21.3</ele>
        <time>2021-03-28T13:21:10Z</time>
      </trkpt>
      <trkpt lat="48.74456" lon="-3.27036">
        <ele>21.4</ele>
        <time>2021-03-28T13:21:11Z</time>
      </trkpt>
      <trkpt lat="48.74456" lon="-3.2704">
        <ele>21.4</ele>
        <time>2021-03-28T13:21:12Z</time>
      </trkpt>
      <trkpt lat="48.74456" lon="-3.27042">
        <ele>21.4</ele>
        <time>2021-03-28T13:21:13Z</time>
      </trkpt>
      <trkpt lat="48.74456" lon="-3.27045">
        <ele>21.4</ele>
        <time>2021-03-28T13:21:15Z</time>
      </trkpt>
      <trkpt lat="48.74457" lon="-3.27047">
        <ele>21.4</ele>
        <time>2021-03-28T13:21:16Z</time>
      </trkpt>
      <trkpt lat="48.74457" lon="-3.27052">
        <ele>21.4</ele>
        <time>2021-03-28T13:21:18Z</time>
      </trkpt>
      <trkpt lat="48.74457" lon="-3.27054">
        <ele>21.4</ele>
        <time>2021-03-28T13:21:19Z</time>
      </trkpt>
      <trkpt lat="48.74458" lon="-3.27057">
        <ele>21.4</ele>
        <time>2021-03-28T13:21:20Z</time>
      </trkpt>
      <trkpt lat="48.74459" lon="-3.27061">
        <ele>21.4</ele>
        <time>2021-03-28T13:21:22Z</time>
      </trkpt>
      <trkpt lat="48.7446" lon="-3.27062">
        <ele>21.5</ele>
        <time>2021-03-28T13:21:23Z</time>
      </trkpt>
      <trkpt lat="48.74461" lon="-3.27066">
        <ele>21.5</ele>
        <time>2021-03-28T13:21:25Z</time>
      </trkpt>
      <trkpt lat="48.74461" lon="-3.27067">
        <ele>21.5</ele>
        <time>2021-03-28T13:21:26Z</time>
      </trkpt>
      <trkpt lat="48.74461" lon="-3.27067">
        <ele>21.5</ele>
        <time>2021-03-28T13:21:27Z</time>
      </trkpt>
      <trkpt lat="48.74461" lon="-3.27069">
        <ele>21.5</ele>
        <time>2021-03-28T13:21:28Z</time>
      </trkpt>
      <trkpt lat="48.74462" lon="-3.27072">
        <ele>21.5</ele>
        <time>2021-03-28T13:21:29Z</time>
      </trkpt>
      <trkpt lat="48.74464" lon="-3.27075">
        <ele>21.5</ele>
        <time>2021-03-28T13:21:30Z</time>
      </trkpt>
      <trkpt lat="48.74465" lon="-3.27077">
        <ele>21.5</ele>
        <time>2021-03-28T13:21:32Z</time>
      </trkpt>
      <trkpt lat="48.74465" lon="-3.27078">
        <ele>21.5</ele>
        <time>2021-03-28T13:21:33Z</time>
      </trkpt>
      <trkpt lat="48.74466" lon="-3.27079">
        <ele>21.5</ele>
        <time>2021-03-28T13:21:34Z</time>
      </trkpt>
      <trkpt lat="48.74467" lon="-3.2708">
        <ele>21.5</ele>
        <time>2021-03-28T13:21:35Z</time>
      </trkpt>
      <trkpt lat="48.74469" lon="-3.27084">
        <ele>21.5</ele>
        <time>2021-03-28T13:21:37Z</time>
      </trkpt>
      <trkpt lat="48.7447" lon="-3.27085">
        <ele>21.6</ele>
        <time>2021-03-28T13:21:38Z</time>
      </trkpt>
      <trkpt lat="48.7447" lon="-3.27087">
        <ele>21.6</ele>
        <time>2021-03-28T13:21:39Z</time>
      </trkpt>
      <trkpt lat="48.74471" lon="-3.2709">
        <ele>21.6</ele>
        <time>2021-03-28T13:21:41Z</time>
      </trkpt>
      <trkpt lat="48.74472" lon="-3.27091">
        <ele>21.6</ele>
        <time>2021-03-28T13:21:42Z</time>
      </trkpt>
      <trkpt lat="48.74473" lon="-3.27094">
        <ele>21.6</ele>
        <time>2021-03-28T13:21:43Z</time>
      </trkpt>
      <trkpt lat="48.74474" lon="-3.27095">
        <ele>21.6</ele>
        <time>2021-03-28T13:21:44Z</time>
      </trkpt>
      <trkpt lat="48.74474" lon="-3.27097">
        <ele>21.6</ele>
        <time>2021-03-28T13:21:45Z</time>
      </trkpt>
      <trkpt lat="48.74476" lon="-3.27101">
        <ele>21.7</ele>
        <time>2021-03-28T13:21:47Z</time>
      </trkpt>
      <trkpt lat="48.74476" lon="-3.27102">
        <ele>21.7</ele>
        <time>2021-03-28T13:21:48Z</time>
      </trkpt>
      <trkpt lat="48.74477" lon="-3.27107">
        <ele>21.7</ele>
        <time>2021-03-28T13:21:50Z</time>
      </trkpt>
      <trkpt lat="48.74478" lon="-3.27108">
        <ele>21.7</ele>
        <time>2021-03-28T13:21:51Z</time>
      </trkpt>
      <trkpt lat="48.7448" lon="-3.27112">
        <ele>21.8</ele>
        <time>2021-03-28T13:21:52Z</time>
      </trkpt>
      <trkpt lat="48.7448" lon="-3.27113">
        <ele>21.8</ele>
        <time>2021-03-28T13:21:53Z</time>
      </trkpt>
      <trkpt lat="48.74481" lon="-3.27115">
        <ele>21.8</ele>
        <time>2021-03-28T13:21:55Z</time>
      </trkpt>
      <trkpt lat="48.74482" lon="-3.27117">
        <ele>21.8</ele>
        <time>2021-03-28T13:21:56Z</time>
      </trkpt>
      <trkpt lat="48.74484" lon="-3.27121">
        <ele>21.8</ele>
        <time>2021-03-28T13:21:58Z</time>
      </trkpt>
      <trkpt lat="48.74484" lon="-3.27123">
        <ele>21.9</ele>
        <time>2021-03-28T13:21:59Z</time>
      </trkpt>
      <trkpt lat="48.74486" lon="-3.27127">
        <ele>21.9</ele>
        <time>2021-03-28T13:22:01Z</time>
      </trkpt>
      <trkpt lat="48.74487" lon="-3.27128">
        <ele>21.9</ele>
        <time>2021-03-28T13:22:02Z</time>
      </trkpt>
      <trkpt lat="48.74488" lon="-3.2713">
        <ele>21.9</ele>
        <time>2021-03-28T13:22:04Z</time>
      </trkpt>
      <trkpt lat="48.74488" lon="-3.27132">
        <ele>21.9</ele>
        <time>2021-03-28T13:22:05Z</time>
      </trkpt>
      <trkpt lat="48.74489" lon="-3.27134">
        <ele>22</ele>
        <time>2021-03-28T13:22:06Z</time>
      </trkpt>
      <trkpt lat="48.7449" lon="-3.27137">
        <ele>22</ele>
        <time>2021-03-28T13:22:07Z</time>
      </trkpt>
      <trkpt lat="48.7449" lon="-3.2714">
        <ele>22</ele>
        <time>2021-03-28T13:22:09Z</time>
      </trkpt>
      <trkpt lat="48.74491" lon="-3.27142">
        <ele>22</ele>
        <time>2021-03-28T13:22:10Z</time>
      </trkpt>
      <trkpt lat="48.74492" lon="-3.27146">
        <ele>22.1</ele>
        <time>2021-03-28T13:22:12Z</time>
      </trkpt>
      <trkpt lat="48.74492" lon="-3.27148">
        <ele>22.1</ele>
        <time>2021-03-28T13:22:13Z</time>
      </trkpt>
      <trkpt lat="48.74492" lon="-3.27151">
        <ele>22.1</ele>
        <time>2021-03-28T13:22:15Z</time>
      </trkpt>
      <trkpt lat="48.74493" lon="-3.27154">
        <ele>22.1</ele>
        <time>2021-03-28T13:22:16Z</time>
      </trkpt>
      <trkpt lat="48.74494" lon="-3.27156">
        <ele>22.1</ele>
        <time>2021-03-28T13:22:17Z</time>
      </trkpt>
      <trkpt lat="48.74496" lon="-3.2716">
        <ele>22.2</ele>
        <time>2021-03-28T13:22:19Z</time>
      </trkpt>
      <trkpt lat="48.74496" lon="-3.27161">
        <ele>22.2</ele>
        <time>2021-03-28T13:22:20Z</time>
      </trkpt>
      <trkpt lat="48.74497" lon="-3.27165">
        <ele>22.2</ele>
        <time>2021-03-28T13:22:22Z</time>
      </trkpt>
      <trkpt lat="48.74498" lon="-3.27168">
        <ele>22.2</ele>
        <time>2021-03-28T13:22:24Z</time>
      </trkpt>
      <trkpt lat="48.74498" lon="-3.27169">
        <ele>22.2</ele>
        <time>2021-03-28T13:22:25Z</time>
      </trkpt>
      <trkpt lat="48.74498" lon="-3.27172">
        <ele>22.2</ele>
        <time>2021-03-28T13:22:26Z</time>
      </trkpt>
      <trkpt lat="48.74499" lon="-3.27174">
        <ele>22.2</ele>
        <time>2021-03-28T13:22:27Z</time>
      </trkpt>
      <trkpt lat="48.74499" lon="-3.27175">
        <ele>22.3</ele>
        <time>2021-03-28T13:22:29Z</time>
      </trkpt>
      <trkpt lat="48.74499" lon="-3.27177">
        <ele>22.3</ele>
        <time>2021-03-28T13:22:30Z</time>
      </trkpt>
      <trkpt lat="48.745" lon="-3.27179">
        <ele>22.3</ele>
        <time>2021-03-28T13:22:31Z</time>
      </trkpt>
      <trkpt lat="48.74501" lon="-3.27181">
        <ele>22.3</ele>
        <time>2021-03-28T13:22:32Z</time>
      </trkpt>
      <trkpt lat="48.74502" lon="-3.27183">
        <ele>22.3</ele>
        <time>2021-03-28T13:22:34Z</time>
      </trkpt>
      <trkpt lat="48.74503" lon="-3.27185">
        <ele>22.3</ele>
        <time>2021-03-28T13:22:35Z</time>
      </trkpt>
      <trkpt lat="48.74503" lon="-3.27187">
        <ele>22.4</ele>
        <time>2021-03-28T13:22:36Z</time>
      </trkpt>
      <trkpt lat="48.74504" lon="-3.27189">
        <ele>22.4</ele>
        <time>2021-03-28T13:22:37Z</time>
      </trkpt>
      <trkpt lat="48.74505" lon="-3.27194">
        <ele>22.4</ele>
        <time>2021-03-28T13:22:39Z</time>
      </trkpt>
      <trkpt lat="48.74506" lon="-3.27195">
        <ele>22.4</ele>
        <time>2021-03-28T13:22:40Z</time>
      </trkpt>
      <trkpt lat="48.74507" lon="-3.27198">
        <ele>22.4</ele>
        <time>2021-03-28T13:22:42Z</time>
      </trkpt>
      <trkpt lat="48.74508" lon="-3.27203">
        <ele>22.5</ele>
        <time>2021-03-28T13:22:44Z</time>
      </trkpt>
      <trkpt lat="48.74509" lon="-3.27204">
        <ele>22.5</ele>
        <time>2021-03-28T13:22:45Z</time>
      </trkpt>
      <trkpt lat="48.7451" lon="-3.27206">
        <ele>22.5</ele>
        <time>2021-03-28T13:22:46Z</time>
      </trkpt>
      <trkpt lat="48.7451" lon="-3.27209">
        <ele>22.5</ele>
        <time>2021-03-28T13:22:48Z</time>
      </trkpt>
      <trkpt lat="48.74511" lon="-3.27211">
        <ele>22.5</ele>
        <time>2021-03-28T13:22:49Z</time>
      </trkpt>
      <trkpt lat="48.74512" lon="-3.27215">
        <ele>22.6</ele>
        <time>2021-03-28T13:22:50Z</time>
      </trkpt>
      <trkpt lat="48.74512" lon="-3.27218">
        <ele>22.6</ele>
        <time>2021-03-28T13:22:51Z</time>
      </trkpt>
      <trkpt lat="48.74513" lon="-3.27221">
        <ele>22.6</ele>
        <time>2021-03-28T13:22:53Z</time>
      </trkpt>
      <trkpt lat="48.74514" lon="-3.27222">
        <ele>22.6</ele>
        <time>2021-03-28T13:22:54Z</time>
      </trkpt>
      <trkpt lat="48.74514" lon="-3.27224">
        <ele>22.6</ele>
        <time>2021-03-28T13:22:55Z</time>
      </trkpt>
      <trkpt lat="48.74515" lon="-3.27225">
        <ele>22.6</ele>
        <time>2021-03-28T13:22:57Z</time>
      </trkpt>
      <trkpt lat="48.74515" lon="-3.27227">
        <ele>22.6</ele>
        <time>2021-03-28T13:22:58Z</time>
      </trkpt>
      <trkpt lat="48.74516" lon="-3.27231">
        <ele>22.7</ele>
        <time>2021-03-28T13:23:00Z</time>
      </trkpt>
      <trkpt lat="48.74517" lon="-3.27234">
        <ele>22.7</ele>
        <time>2021-03-28T13:23:02Z</time>
      </trkpt>
      <trkpt lat="48.74517" lon="-3.27235">
        <ele>22.7</ele>
        <time>2021-03-28T13:23:03Z</time>
      </trkpt>
      <trkpt lat="48.74517" lon="-3.27239">
        <ele>22.7</ele>
        <time>2021-03-28T13:23:05Z</time>
      </trkpt>
      <trkpt lat="48.74517" lon="-3.27241">
        <ele>22.7</ele>
        <time>2021-03-28T13:23:06Z</time>
      </trkpt>
      <trkpt lat="48.74517" lon="-3.27242">
        <ele>22.7</ele>
        <time>2021-03-28T13:23:07Z</time>
      </trkpt>
      <trkpt lat="48.74517" lon="-3.27246">
        <ele>22.8</ele>
        <time>2021-03-28T13:23:09Z</time>
      </trkpt>
      <trkpt lat="48.74517" lon="-3.27247">
        <ele>22.8</ele>
        <time>2021-03-28T13:23:10Z</time>
      </trkpt>
      <trkpt lat="48.74517" lon="-3.27249">
        <ele>22.8</ele>
        <time>2021-03-28T13:23:12Z</time>
      </trkpt>
      <trkpt lat="48.74517" lon="-3.27251">
        <ele>22.8</ele>
        <time>2021-03-28T13:23:13Z</time>
      </trkpt>
      <trkpt lat="48.74517" lon="-3.27256">
        <ele>22.8</ele>
        <time>2021-03-28T13:23:14Z</time>
      </trkpt>
      <trkpt lat="48.74517" lon="-3.27257">
        <ele>22.8</ele>
        <time>2021-03-28T13:23:15Z</time>
      </trkpt>
      <trkpt lat="48.74517" lon="-3.2726">
        <ele>22.8</ele>
        <time>2021-03-28T13:23:17Z</time>
      </trkpt>
      <trkpt lat="48.74518" lon="-3.27261">
        <ele>22.9</ele>
        <time>2021-03-28T13:23:18Z</time>
      </trkpt>
      <trkpt lat="48.74518" lon="-3.27262">
        <ele>22.9</ele>
        <time>2021-03-28T13:23:19Z</time>
      </trkpt>
      <trkpt lat="48.74518" lon="-3.27263">
        <ele>22.9</ele>
        <time>2021-03-28T13:23:20Z</time>
      </trkpt>
      <trkpt lat="48.74519" lon="-3.27265">
        <ele>22.9</ele>
        <time>2021-03-28T13:23:22Z</time>
      </trkpt>
      <trkpt lat="48.74519" lon="-3.27267">
        <ele>22.9</ele>
        <time>2021-03-28T13:23:23Z</time>
      </trkpt>
      <trkpt lat="48.7452" lon="-3.2727">
        <ele>22.9</ele>
        <time>2021-03-28T13:23:24Z</time>
      </trkpt>
      <trkpt lat="48.7452" lon="-3.27271">
        <ele>22.9</ele>
        <time>2021-03-28T13:23:25Z</time>
      </trkpt>
      <trkpt lat="48.7452" lon="-3.27272">
        <ele>22.9</ele>
        <time>2021-03-28T13:23:26Z</time>
      </trkpt>
      <trkpt lat="48.7452" lon="-3.27274">
        <ele>22.9</ele>
        <time>2021-03-28T13:23:27Z</time>
      </trkpt>
      <trkpt lat="48.7452" lon="-3.27277">
        <ele>22.9</ele>
        <time>2021-03-28T13:23:28Z</time>
      </trkpt>
      <trkpt lat="48.7452" lon="-3.2728">
        <ele>23</ele>
        <time>2021-03-28T13:23:29Z</time>
      </trkpt>
      <trkpt lat="48.7452" lon="-3.27282">
        <ele>23</ele>
        <time>2021-03-28T13:23:30Z</time>
      </trkpt>
      <trkpt lat="48.7452" lon="-3.27284">
        <ele>23</ele>
        <time>2021-03-28T13:23:32Z</time>
      </trkpt>
      <trkpt lat="48.7452" lon="-3.27286">
        <ele>23</ele>
        <time>2021-03-28T13:23:33Z</time>
      </trkpt>
      <trkpt lat="48.7452" lon="-3.27291">
        <ele>23.1</ele>
        <time>2021-03-28T13:23:35Z</time>
      </trkpt>
      <trkpt lat="48.74519" lon="-3.27294">
        <ele>23.1</ele>
        <time>2021-03-28T13:23:36Z</time>
      </trkpt>
      <trkpt lat="48.74519" lon="-3.27296">
        <ele>23.1</ele>
        <time>2021-03-28T13:23:37Z</time>
      </trkpt>
      <trkpt lat="48.74519" lon="-3.27301">
        <ele>23.1</ele>
        <time>2021-03-28T13:23:39Z</time>
      </trkpt>
      <trkpt lat="48.74519" lon="-3.27302">
        <ele>23.1</ele>
        <time>2021-03-28T13:23:40Z</time>
      </trkpt>
      <trkpt lat="48.74519" lon="-3.27305">
        <ele>23.2</ele>
        <time>2021-03-28T13:23:42Z</time>
      </trkpt>
      <trkpt lat="48.74519" lon="-3.27307">
        <ele>23.2</ele>
        <time>2021-03-28T13:23:43Z</time>
      </trkpt>
      <trkpt lat="48.74519" lon="-3.27309">
        <ele>23.2</ele>
        <time>2021-03-28T13:23:44Z</time>
      </trkpt>
      <trkpt lat="48.74518" lon="-3.27312">
        <ele>23.2</ele>
        <time>2021-03-28T13:23:45Z</time>
      </trkpt>
      <trkpt lat="48.74519" lon="-3.27314">
        <ele>23.2</ele>
        <time>2021-03-28T13:23:47Z</time>
      </trkpt>
      <trkpt lat="48.74519" lon="-3.27316">
        <ele>23.2</ele>
        <time>2021-03-28T13:23:48Z</time>
      </trkpt>
      <trkpt lat="48.74519" lon="-3.27317">
        <ele>23.3</ele>
        <time>2021-03-28T13:23:49Z</time>
      </trkpt>
      <trkpt lat="48.7452" lon="-3.2732">
        <ele>23.3</ele>
        <time>2021-03-28T13:23:50Z</time>
      </trkpt>
      <trkpt lat="48.7452" lon="-3.27321">
        <ele>23.3</ele>
        <time>2021-03-28T13:23:52Z</time>
      </trkpt>
      <trkpt lat="48.7452" lon="-3.27323">
        <ele>23.3</ele>
        <time>2021-03-28T13:23:53Z</time>
      </trkpt>
      <trkpt lat="48.7452" lon="-3.27324">
        <ele>23.3</ele>
        <time>2021-03-28T13:23:54Z</time>
      </trkpt>
      <trkpt lat="48.74521" lon="-3.27326">
        <ele>23.3</ele>
        <time>2021-03-28T13:23:55Z</time>
      </trkpt>
      <trkpt lat="48.74521" lon="-3.27328">
        <ele>23.3</ele>
        <time>2021-03-28T13:23:57Z</time>
      </trkpt>
      <trkpt lat="48.74521" lon="-3.2733">
        <ele>23.3</ele>
        <time>2021-03-28T13:23:58Z</time>
      </trkpt>
      <trkpt lat="48.74521" lon="-3.27333">
        <ele>23.4</ele>
        <time>2021-03-28T13:23:59Z</time>
      </trkpt>
      <trkpt lat="48.74521" lon="-3.27335">
        <ele>23.4</ele>
        <time>2021-03-28T13:24:00Z</time>
      </trkpt>
      <trkpt lat="48.74521" lon="-3.27338">
        <ele>23.4</ele>
        <time>2021-03-28T13:24:02Z</time>
      </trkpt>
      <trkpt lat="48.74521" lon="-3.2734">
        <ele>23.4</ele>
        <time>2021-03-28T13:24:03Z</time>
      </trkpt>
      <trkpt lat="48.7452" lon="-3.27343">
        <ele>23.4</ele>
        <time>2021-03-28T13:24:04Z</time>
      </trkpt>
      <trkpt lat="48.7452" lon="-3.27347">
        <ele>23.5</ele>
        <time>2021-03-28T13:24:06Z</time>
      </trkpt>
      <trkpt lat="48.7452" lon="-3.27349">
        <ele>23.5</ele>
        <time>2021-03-28T13:24:07Z</time>
      </trkpt>
      <trkpt lat="48.7452" lon="-3.27352">
        <ele>23.5</ele>
        <time>2021-03-28T13:24:09Z</time>
      </trkpt>
      <trkpt lat="48.7452" lon="-3.27356">
        <ele>23.6</ele>
        <time>2021-03-28T13:24:11Z</time>
      </trkpt>
      <trkpt lat="48.7452" lon="-3.27359">
        <ele>23.6</ele>
        <time>2021-03-28T13:24:12Z</time>
      </trkpt>
      <trkpt lat="48.7452" lon="-3.27361">
        <ele>23.7</ele>
        <time>2021-03-28T13:24:13Z</time>
      </trkpt>
      <trkpt lat="48.7452" lon="-3.27365">
        <ele>23.7</ele>
        <time>2021-03-28T13:24:14Z</time>
      </trkpt>
      <trkpt lat="48.7452" lon="-3.27368">
        <ele>23.8</ele>
        <time>2021-03-28T13:24:16Z</time>
      </trkpt>
      <trkpt lat="48.7452" lon="-3.2737">
        <ele>23.8</ele>
        <time>2021-03-28T13:24:17Z</time>
      </trkpt>
      <trkpt lat="48.7452" lon="-3.27372">
        <ele>23.8</ele>
        <time>2021-03-28T13:24:18Z</time>
      </trkpt>
      <trkpt lat="48.74521" lon="-3.27375">
        <ele>23.9</ele>
        <time>2021-03-28T13:24:20Z</time>
      </trkpt>
      <trkpt lat="48.74521" lon="-3.27377">
        <ele>23.9</ele>
        <time>2021-03-28T13:24:21Z</time>
      </trkpt>
      <trkpt lat="48.74522" lon="-3.27379">
        <ele>24</ele>
        <time>2021-03-28T13:24:22Z</time>
      </trkpt>
      <trkpt lat="48.74522" lon="-3.2738">
        <ele>24</ele>
        <time>2021-03-28T13:24:23Z</time>
      </trkpt>
      <trkpt lat="48.74524" lon="-3.27382">
        <ele>24</ele>
        <time>2021-03-28T13:24:25Z</time>
      </trkpt>
      <trkpt lat="48.74525" lon="-3.27384">
        <ele>24.1</ele>
        <time>2021-03-28T13:24:26Z</time>
      </trkpt>
      <trkpt lat="48.74526" lon="-3.27386">
        <ele>24.1</ele>
        <time>2021-03-28T13:24:27Z</time>
      </trkpt>
      <trkpt lat="48.74527" lon="-3.27388">
        <ele>24.2</ele>
        <time>2021-03-28T13:24:28Z</time>
      </trkpt>
      <trkpt lat="48.74528" lon="-3.27392">
        <ele>24.2</ele>
        <time>2021-03-28T13:24:30Z</time>
      </trkpt>
      <trkpt lat="48.74528" lon="-3.27396">
        <ele>24.3</ele>
        <time>2021-03-28T13:24:31Z</time>
      </trkpt>
      <trkpt lat="48.74529" lon="-3.274">
        <ele>24.4</ele>
        <time>2021-03-28T13:24:33Z</time>
      </trkpt>
      <trkpt lat="48.74529" lon="-3.27402">
        <ele>24.4</ele>
        <time>2021-03-28T13:24:34Z</time>
      </trkpt>
      <trkpt lat="48.74529" lon="-3.27406">
        <ele>24.5</ele>
        <time>2021-03-28T13:24:36Z</time>
      </trkpt>
      <trkpt lat="48.74529" lon="-3.2741">
        <ele>24.6</ele>
        <time>2021-03-28T13:24:37Z</time>
      </trkpt>
      <trkpt lat="48.74529" lon="-3.27412">
        <ele>24.6</ele>
        <time>2021-03-28T13:24:38Z</time>
      </trkpt>
      <trkpt lat="48.74528" lon="-3.27416">
        <ele>24.7</ele>
        <time>2021-03-28T13:24:40Z</time>
      </trkpt>
      <trkpt lat="48.74528" lon="-3.2742">
        <ele>24.8</ele>
        <time>2021-03-28T13:24:41Z</time>
      </trkpt>
      <trkpt lat="48.74528" lon="-3.27423">
        <ele>24.8</ele>
        <time>2021-03-28T13:24:42Z</time>
      </trkpt>
      <trkpt lat="48.74528" lon="-3.27425">
        <ele>24.9</ele>
        <time>2021-03-28T13:24:43Z</time>
      </trkpt>
      <trkpt lat="48.74528" lon="-3.27428">
        <ele>25</ele>
        <time>2021-03-28T13:24:45Z</time>
      </trkpt>
      <trkpt lat="48.74527" lon="-3.27432">
        <ele>25.1</ele>
        <time>2021-03-28T13:24:47Z</time>
      </trkpt>
      <trkpt lat="48.74527" lon="-3.27437">
        <ele>25.2</ele>
        <time>2021-03-28T13:24:49Z</time>
      </trkpt>
      <trkpt lat="48.74528" lon="-3.27439">
        <ele>25.3</ele>
        <time>2021-03-28T13:24:50Z</time>
      </trkpt>
      <trkpt lat="48.74528" lon="-3.27442">
        <ele>25.3</ele>
        <time>2021-03-28T13:24:51Z</time>
      </trkpt>
      <trkpt lat="48.74528" lon="-3.27443">
        <ele>25.4</ele>
        <time>2021-03-28T13:24:52Z</time>
      </trkpt>
      <trkpt lat="48.74528" lon="-3.27447">
        <ele>25.5</ele>
        <time>2021-03-28T13:24:54Z</time>
      </trkpt>
      <trkpt lat="48.74527" lon="-3.27449">
        <ele>25.5</ele>
        <time>2021-03-28T13:24:55Z</time>
      </trkpt>
      <trkpt lat="48.74527" lon="-3.27451">
        <ele>25.6</ele>
        <time>2021-03-28T13:24:56Z</time>
      </trkpt>
      <trkpt lat="48.74527" lon="-3.27452">
        <ele>25.7</ele>
        <time>2021-03-28T13:24:57Z</time>
      </trkpt>
      <trkpt lat="48.74527" lon="-3.27456">
        <ele>25.8</ele>
        <time>2021-03-28T13:24:59Z</time>
      </trkpt>
      <trkpt lat="48.74525" lon="-3.27462">
        <ele>26.1</ele>
        <time>2021-03-28T13:25:01Z</time>
      </trkpt>
      <trkpt lat="48.74524" lon="-3.27464">
        <ele>26.2</ele>
        <time>2021-03-28T13:25:03Z</time>
      </trkpt>
      <trkpt lat="48.74524" lon="-3.27467">
        <ele>26.3</ele>
        <time>2021-03-28T13:25:05Z</time>
      </trkpt>
      <trkpt lat="48.74524" lon="-3.27467">
        <ele>26.4</ele>
        <time>2021-03-28T13:25:07Z</time>
      </trkpt>
      <trkpt lat="48.74523" lon="-3.27468">
        <ele>26.4</ele>
        <time>2021-03-28T13:25:08Z</time>
      </trkpt>
      <trkpt lat="48.74523" lon="-3.2747">
        <ele>26.5</ele>
        <time>2021-03-28T13:25:09Z</time>
      </trkpt>
      <trkpt lat="48.74523" lon="-3.27474">
        <ele>26.7</ele>
        <time>2021-03-28T13:25:11Z</time>
      </trkpt>
      <trkpt lat="48.74523" lon="-3.27477">
        <ele>26.8</ele>
        <time>2021-03-28T13:25:12Z</time>
      </trkpt>
      <trkpt lat="48.74524" lon="-3.27479">
        <ele>26.9</ele>
        <time>2021-03-28T13:25:14Z</time>
      </trkpt>
      <trkpt lat="48.74525" lon="-3.27481">
        <ele>27</ele>
        <time>2021-03-28T13:25:15Z</time>
      </trkpt>
      <trkpt lat="48.74525" lon="-3.27484">
        <ele>27.1</ele>
        <time>2021-03-28T13:25:16Z</time>
      </trkpt>
      <trkpt lat="48.74526" lon="-3.27489">
        <ele>27.3</ele>
        <time>2021-03-28T13:25:18Z</time>
      </trkpt>
      <trkpt lat="48.74526" lon="-3.2749">
        <ele>27.4</ele>
        <time>2021-03-28T13:25:19Z</time>
      </trkpt>
      <trkpt lat="48.74527" lon="-3.27492">
        <ele>27.7</ele>
        <time>2021-03-28T13:25:20Z</time>
      </trkpt>
      <trkpt lat="48.74527" lon="-3.27495">
        <ele>27.7</ele>
        <time>2021-03-28T13:25:21Z</time>
      </trkpt>
      <trkpt lat="48.74527" lon="-3.27498">
        <ele>27.8</ele>
        <time>2021-03-28T13:25:22Z</time>
      </trkpt>
      <trkpt lat="48.74527" lon="-3.27502">
        <ele>27.9</ele>
        <time>2021-03-28T13:25:24Z</time>
      </trkpt>
      <trkpt lat="48.74527" lon="-3.27506">
        <ele>27.9</ele>
        <time>2021-03-28T13:25:25Z</time>
      </trkpt>
      <trkpt lat="48.74528" lon="-3.27508">
        <ele>28</ele>
        <time>2021-03-28T13:25:27Z</time>
      </trkpt>
      <trkpt lat="48.74529" lon="-3.27512">
        <ele>28.1</ele>
        <time>2021-03-28T13:25:28Z</time>
      </trkpt>
      <trkpt lat="48.74529" lon="-3.27513">
        <ele>28.1</ele>
        <time>2021-03-28T13:25:29Z</time>
      </trkpt>
      <trkpt lat="48.7453" lon="-3.27516">
        <ele>28.1</ele>
        <time>2021-03-28T13:25:30Z</time>
      </trkpt>
      <trkpt lat="48.74531" lon="-3.27519">
        <ele>28.2</ele>
        <time>2021-03-28T13:25:32Z</time>
      </trkpt>
      <trkpt lat="48.74532" lon="-3.27523">
        <ele>28.3</ele>
        <time>2021-03-28T13:25:33Z</time>
      </trkpt>
      <trkpt lat="48.74532" lon="-3.27524">
        <ele>28.3</ele>
        <time>2021-03-28T13:25:34Z</time>
      </trkpt>
      <trkpt lat="48.74533" lon="-3.27527">
        <ele>28.4</ele>
        <time>2021-03-28T13:25:36Z</time>
      </trkpt>
      <trkpt lat="48.74533" lon="-3.27529">
        <ele>28.4</ele>
        <time>2021-03-28T13:25:37Z</time>
      </trkpt>
      <trkpt lat="48.74534" lon="-3.27531">
        <ele>28.4</ele>
        <time>2021-03-28T13:25:38Z</time>
      </trkpt>
      <trkpt lat="48.74535" lon="-3.27534">
        <ele>28.5</ele>
        <time>2021-03-28T13:25:39Z</time>
      </trkpt>
      <trkpt lat="48.74535" lon="-3.27535">
        <ele>28.5</ele>
        <time>2021-03-28T13:25:41Z</time>
      </trkpt>
      <trkpt lat="48.74535" lon="-3.27538">
        <ele>28.6</ele>
        <time>2021-03-28T13:25:42Z</time>
      </trkpt>
      <trkpt lat="48.74536" lon="-3.2754">
        <ele>28.6</ele>
        <time>2021-03-28T13:25:43Z</time>
      </trkpt>
      <trkpt lat="48.74536" lon="-3.27542">
        <ele>28.7</ele>
        <time>2021-03-28T13:25:44Z</time>
      </trkpt>
      <trkpt lat="48.74537" lon="-3.27544">
        <ele>28.7</ele>
        <time>2021-03-28T13:25:45Z</time>
      </trkpt>
      <trkpt lat="48.74538" lon="-3.27548">
        <ele>28.8</ele>
        <time>2021-03-28T13:25:47Z</time>
      </trkpt>
      <trkpt lat="48.7454" lon="-3.27551">
        <ele>28.9</ele>
        <time>2021-03-28T13:25:48Z</time>
      </trkpt>
      <trkpt lat="48.7454" lon="-3.27553">
        <ele>29</ele>
        <time>2021-03-28T13:25:50Z</time>
      </trkpt>
      <trkpt lat="48.74541" lon="-3.27555">
        <ele>29.1</ele>
        <time>2021-03-28T13:25:51Z</time>
      </trkpt>
      <trkpt lat="48.74541" lon="-3.27557">
        <ele>29.2</ele>
        <time>2021-03-28T13:25:52Z</time>
      </trkpt>
      <trkpt lat="48.74542" lon="-3.27558">
        <ele>29.2</ele>
        <time>2021-03-28T13:25:53Z</time>
      </trkpt>
      <trkpt lat="48.74543" lon="-3.27561">
        <ele>29.3</ele>
        <time>2021-03-28T13:25:55Z</time>
      </trkpt>
      <trkpt lat="48.74544" lon="-3.27564">
        <ele>29.4</ele>
        <time>2021-03-28T13:25:56Z</time>
      </trkpt>
      <trkpt lat="48.74544" lon="-3.27566">
        <ele>29.5</ele>
        <time>2021-03-28T13:25:57Z</time>
      </trkpt>
      <trkpt lat="48.74545" lon="-3.27568">
        <ele>29.6</ele>
        <time>2021-03-28T13:25:59Z</time>
      </trkpt>
      <trkpt lat="48.74545" lon="-3.2757">
        <ele>29.7</ele>
        <time>2021-03-28T13:26:00Z</time>
      </trkpt>
      <trkpt lat="48.74546" lon="-3.27572">
        <ele>29.8</ele>
        <time>2021-03-28T13:26:01Z</time>
      </trkpt>
      <trkpt lat="48.74547" lon="-3.27576">
        <ele>29.9</ele>
        <time>2021-03-28T13:26:03Z</time>
      </trkpt>
      <trkpt lat="48.74548" lon="-3.27578">
        <ele>30</ele>
        <time>2021-03-28T13:26:04Z</time>
      </trkpt>
      <trkpt lat="48.74549" lon="-3.2758">
        <ele>30.1</ele>
        <time>2021-03-28T13:26:05Z</time>
      </trkpt>
      <trkpt lat="48.74549" lon="-3.27582">
        <ele>30.2</ele>
        <time>2021-03-28T13:26:06Z</time>
      </trkpt>
      <trkpt lat="48.7455" lon="-3.27584">
        <ele>30.3</ele>
        <time>2021-03-28T13:26:08Z</time>
      </trkpt>
      <trkpt lat="48.7455" lon="-3.27586">
        <ele>30.3</ele>
        <time>2021-03-28T13:26:09Z</time>
      </trkpt>
      <trkpt lat="48.74551" lon="-3.2759">
        <ele>30.5</ele>
        <time>2021-03-28T13:26:11Z</time>
      </trkpt>
      <trkpt lat="48.74553" lon="-3.27594">
        <ele>30.7</ele>
        <time>2021-03-28T13:26:13Z</time>
      </trkpt>
      <trkpt lat="48.74553" lon="-3.27596">
        <ele>30.8</ele>
        <time>2021-03-28T13:26:14Z</time>
      </trkpt>
      <trkpt lat="48.74554" lon="-3.276">
        <ele>30.9</ele>
        <time>2021-03-28T13:26:15Z</time>
      </trkpt>
      <trkpt lat="48.74554" lon="-3.27601">
        <ele>31</ele>
        <time>2021-03-28T13:26:16Z</time>
      </trkpt>
      <trkpt lat="48.74555" lon="-3.27604">
        <ele>31.1</ele>
        <time>2021-03-28T13:26:18Z</time>
      </trkpt>
      <trkpt lat="48.74556" lon="-3.27606">
        <ele>31.2</ele>
        <time>2021-03-28T13:26:19Z</time>
      </trkpt>
      <trkpt lat="48.74557" lon="-3.27608">
        <ele>31.3</ele>
        <time>2021-03-28T13:26:20Z</time>
      </trkpt>
      <trkpt lat="48.74558" lon="-3.27611">
        <ele>31.5</ele>
        <time>2021-03-28T13:26:21Z</time>
      </trkpt>
      <trkpt lat="48.74558" lon="-3.27612">
        <ele>31.5</ele>
        <time>2021-03-28T13:26:23Z</time>
      </trkpt>
      <trkpt lat="48.74559" lon="-3.27616">
        <ele>31.7</ele>
        <time>2021-03-28T13:26:25Z</time>
      </trkpt>
      <trkpt lat="48.74559" lon="-3.27617">
        <ele>31.7</ele>
        <time>2021-03-28T13:26:26Z</time>
      </trkpt>
      <trkpt lat="48.7456" lon="-3.2762">
        <ele>31.9</ele>
        <time>2021-03-28T13:26:28Z</time>
      </trkpt>
      <trkpt lat="48.7456" lon="-3.27623">
        <ele>32</ele>
        <time>2021-03-28T13:26:29Z</time>
      </trkpt>
      <trkpt lat="48.74561" lon="-3.27625">
        <ele>32.1</ele>
        <time>2021-03-28T13:26:30Z</time>
      </trkpt>
      <trkpt lat="48.74562" lon="-3.27627">
        <ele>32.2</ele>
        <time>2021-03-28T13:26:31Z</time>
      </trkpt>
      <trkpt lat="48.74563" lon="-3.27629">
        <ele>32.3</ele>
        <time>2021-03-28T13:26:33Z</time>
      </trkpt>
      <trkpt lat="48.74563" lon="-3.27631">
        <ele>32.4</ele>
        <time>2021-03-28T13:26:34Z</time>
      </trkpt>
      <trkpt lat="48.74563" lon="-3.27633">
        <ele>32.4</ele>
        <time>2021-03-28T13:26:35Z</time>
      </trkpt>
      <trkpt lat="48.74563" lon="-3.27635">
        <ele>32.5</ele>
        <time>2021-03-28T13:26:37Z</time>
      </trkpt>
      <trkpt lat="48.74563" lon="-3.27637">
        <ele>32.6</ele>
        <time>2021-03-28T13:26:38Z</time>
      </trkpt>
      <trkpt lat="48.74563" lon="-3.27639">
        <ele>32.7</ele>
        <time>2021-03-28T13:26:39Z</time>
      </trkpt>
      <trkpt lat="48.74564" lon="-3.27641">
        <ele>32.8</ele>
        <time>2021-03-28T13:26:40Z</time>
      </trkpt>
      <trkpt lat="48.74564" lon="-3.27644">
        <ele>32.9</ele>
        <time>2021-03-28T13:26:42Z</time>
      </trkpt>
      <trkpt lat="48.74565" lon="-3.27647">
        <ele>33</ele>
        <time>2021-03-28T13:26:44Z</time>
      </trkpt>
      <trkpt lat="48.74566" lon="-3.2765">
        <ele>33.1</ele>
        <time>2021-03-28T13:26:46Z</time>
      </trkpt>
      <trkpt lat="48.74566" lon="-3.27653">
        <ele>33.2</ele>
        <time>2021-03-28T13:26:47Z</time>
      </trkpt>
      <trkpt lat="48.74567" lon="-3.27655">
        <ele>33.3</ele>
        <time>2021-03-28T13:26:48Z</time>
      </trkpt>
      <trkpt lat="48.74568" lon="-3.27658">
        <ele>33.4</ele>
        <time>2021-03-28T13:26:49Z</time>
      </trkpt>
      <trkpt lat="48.74569" lon="-3.2766">
        <ele>33.5</ele>
        <time>2021-03-28T13:26:50Z</time>
      </trkpt>
      <trkpt lat="48.74571" lon="-3.27663">
        <ele>33.6</ele>
        <time>2021-03-28T13:26:52Z</time>
      </trkpt>
      <trkpt lat="48.74572" lon="-3.27664">
        <ele>33.7</ele>
        <time>2021-03-28T13:26:53Z</time>
      </trkpt>
      <trkpt lat="48.74573" lon="-3.27667">
        <ele>33.8</ele>
        <time>2021-03-28T13:26:54Z</time>
      </trkpt>
      <trkpt lat="48.74574" lon="-3.27669">
        <ele>33.9</ele>
        <time>2021-03-28T13:26:56Z</time>
      </trkpt>
      <trkpt lat="48.74574" lon="-3.27671">
        <ele>33.9</ele>
        <time>2021-03-28T13:26:57Z</time>
      </trkpt>
      <trkpt lat="48.74576" lon="-3.27675">
        <ele>34.1</ele>
        <time>2021-03-28T13:26:59Z</time>
      </trkpt>
      <trkpt lat="48.74576" lon="-3.2768">
        <ele>34.2</ele>
        <time>2021-03-28T13:27:01Z</time>
      </trkpt>
      <trkpt lat="48.74577" lon="-3.27681">
        <ele>34.2</ele>
        <time>2021-03-28T13:27:02Z</time>
      </trkpt>
      <trkpt lat="48.74578" lon="-3.27685">
        <ele>34.4</ele>
        <time>2021-03-28T13:27:04Z</time>
      </trkpt>
      <trkpt lat="48.74579" lon="-3.27687">
        <ele>34.5</ele>
        <time>2021-03-28T13:27:06Z</time>
      </trkpt>
      <trkpt lat="48.7458" lon="-3.2769">
        <ele>34.5</ele>
        <time>2021-03-28T13:27:07Z</time>
      </trkpt>
      <trkpt lat="48.74581" lon="-3.27694">
        <ele>34.7</ele>
        <time>2021-03-28T13:27:08Z</time>
      </trkpt>
      <trkpt lat="48.74581" lon="-3.27695">
        <ele>34.7</ele>
        <time>2021-03-28T13:27:09Z</time>
      </trkpt>
      <trkpt lat="48.74582" lon="-3.27697">
        <ele>34.8</ele>
        <time>2021-03-28T13:27:11Z</time>
      </trkpt>
      <trkpt lat="48.74582" lon="-3.27699">
        <ele>34.8</ele>
        <time>2021-03-28T13:27:12Z</time>
      </trkpt>
      <trkpt lat="48.74584" lon="-3.27702">
        <ele>34.9</ele>
        <time>2021-03-28T13:27:13Z</time>
      </trkpt>
      <trkpt lat="48.74585" lon="-3.27705">
        <ele>35</ele>
        <time>2021-03-28T13:27:15Z</time>
      </trkpt>
      <trkpt lat="48.74585" lon="-3.27706">
        <ele>35.1</ele>
        <time>2021-03-28T13:27:16Z</time>
      </trkpt>
      <trkpt lat="48.74587" lon="-3.2771">
        <ele>35.2</ele>
        <time>2021-03-28T13:27:18Z</time>
      </trkpt>
      <trkpt lat="48.74588" lon="-3.27712">
        <ele>35.3</ele>
        <time>2021-03-28T13:27:19Z</time>
      </trkpt>
      <trkpt lat="48.7459" lon="-3.27716">
        <ele>35.4</ele>
        <time>2021-03-28T13:27:21Z</time>
      </trkpt>
      <trkpt lat="48.74592" lon="-3.2772">
        <ele>35.6</ele>
        <time>2021-03-28T13:27:22Z</time>
      </trkpt>
      <trkpt lat="48.74593" lon="-3.27721">
        <ele>35.6</ele>
        <time>2021-03-28T13:27:23Z</time>
      </trkpt>
      <trkpt lat="48.74595" lon="-3.27724">
        <ele>35.7</ele>
        <time>2021-03-28T13:27:25Z</time>
      </trkpt>
      <trkpt lat="48.74596" lon="-3.27726">
        <ele>35.8</ele>
        <time>2021-03-28T13:27:26Z</time>
      </trkpt>
      <trkpt lat="48.74598" lon="-3.27731">
        <ele>35.9</ele>
        <time>2021-03-28T13:27:28Z</time>
      </trkpt>
      <trkpt lat="48.74599" lon="-3.27733">
        <ele>36</ele>
        <time>2021-03-28T13:27:30Z</time>
      </trkpt>
      <trkpt lat="48.746" lon="-3.27735">
        <ele>36</ele>
        <time>2021-03-28T13:27:31Z</time>
      </trkpt>
      <trkpt lat="48.74601" lon="-3.27738">
        <ele>36.1</ele>
        <time>2021-03-28T13:27:33Z</time>
      </trkpt>
      <trkpt lat="48.74602" lon="-3.2774">
        <ele>36.1</ele>
        <time>2021-03-28T13:27:34Z</time>
      </trkpt>
      <trkpt lat="48.74602" lon="-3.27742">
        <ele>36.2</ele>
        <time>2021-03-28T13:27:36Z</time>
      </trkpt>
      <trkpt lat="48.74603" lon="-3.27746">
        <ele>36.3</ele>
        <time>2021-03-28T13:27:38Z</time>
      </trkpt>
      <trkpt lat="48.74604" lon="-3.27749">
        <ele>36.4</ele>
        <time>2021-03-28T13:27:40Z</time>
      </trkpt>
      <trkpt lat="48.74605" lon="-3.27751">
        <ele>36.4</ele>
        <time>2021-03-28T13:27:41Z</time>
      </trkpt>
      <trkpt lat="48.74606" lon="-3.27753">
        <ele>36.5</ele>
        <time>2021-03-28T13:27:42Z</time>
      </trkpt>
      <trkpt lat="48.74606" lon="-3.27755">
        <ele>36.5</ele>
        <time>2021-03-28T13:27:43Z</time>
      </trkpt>
      <trkpt lat="48.74607" lon="-3.27758">
        <ele>36.6</ele>
        <time>2021-03-28T13:27:45Z</time>
      </trkpt>
      <trkpt lat="48.74608" lon="-3.2776">
        <ele>36.6</ele>
        <time>2021-03-28T13:27:46Z</time>
      </trkpt>
      <trkpt lat="48.74609" lon="-3.27763">
        <ele>36.7</ele>
        <time>2021-03-28T13:27:47Z</time>
      </trkpt>
      <trkpt lat="48.74611" lon="-3.27767">
        <ele>36.8</ele>
        <time>2021-03-28T13:27:48Z</time>
      </trkpt>
      <trkpt lat="48.74611" lon="-3.27769">
        <ele>36.8</ele>
        <time>2021-03-28T13:27:50Z</time>
      </trkpt>
      <trkpt lat="48.74612" lon="-3.27771">
        <ele>36.9</ele>
        <time>2021-03-28T13:27:51Z</time>
      </trkpt>
      <trkpt lat="48.74613" lon="-3.27773">
        <ele>36.9</ele>
        <time>2021-03-28T13:27:52Z</time>
      </trkpt>
      <trkpt lat="48.74614" lon="-3.27775">
        <ele>36.9</ele>
        <time>2021-03-28T13:27:53Z</time>
      </trkpt>
      <trkpt lat="48.74614" lon="-3.27777">
        <ele>36.9</ele>
        <time>2021-03-28T13:27:55Z</time>
      </trkpt>
      <trkpt lat="48.74615" lon="-3.27779">
        <ele>37</ele>
        <time>2021-03-28T13:27:56Z</time>
      </trkpt>
      <trkpt lat="48.74615" lon="-3.27781">
        <ele>37</ele>
        <time>2021-03-28T13:27:57Z</time>
      </trkpt>
      <trkpt lat="48.74616" lon="-3.27784">
        <ele>37.1</ele>
        <time>2021-03-28T13:27:58Z</time>
      </trkpt>
      <trkpt lat="48.74617" lon="-3.27786">
        <ele>37.1</ele>
        <time>2021-03-28T13:28:00Z</time>
      </trkpt>
      <trkpt lat="48.74617" lon="-3.27787">
        <ele>37.1</ele>
        <time>2021-03-28T13:28:01Z</time>
      </trkpt>
      <trkpt lat="48.74619" lon="-3.27791">
        <ele>37.2</ele>
        <time>2021-03-28T13:28:02Z</time>
      </trkpt>
      <trkpt lat="48.7462" lon="-3.27792">
        <ele>37.2</ele>
        <time>2021-03-28T13:28:03Z</time>
      </trkpt>
      <trkpt lat="48.74621" lon="-3.27794">
        <ele>37.2</ele>
        <time>2021-03-28T13:28:05Z</time>
      </trkpt>
      <trkpt lat="48.74621" lon="-3.27796">
        <ele>37.3</ele>
        <time>2021-03-28T13:28:06Z</time>
      </trkpt>
      <trkpt lat="48.74622" lon="-3.27798">
        <ele>37.3</ele>
        <time>2021-03-28T13:28:07Z</time>
      </trkpt>
      <trkpt lat="48.74623" lon="-3.278">
        <ele>37.4</ele>
        <time>2021-03-28T13:28:09Z</time>
      </trkpt>
      <trkpt lat="48.74624" lon="-3.27804">
        <ele>37.4</ele>
        <time>2021-03-28T13:28:11Z</time>
      </trkpt>
      <trkpt lat="48.74626" lon="-3.27807">
        <ele>37.5</ele>
        <time>2021-03-28T13:28:13Z</time>
      </trkpt>
      <trkpt lat="48.74627" lon="-3.27808">
        <ele>37.5</ele>
        <time>2021-03-28T13:28:14Z</time>
      </trkpt>
      <trkpt lat="48.74628" lon="-3.27811">
        <ele>37.6</ele>
        <time>2021-03-28T13:28:16Z</time>
      </trkpt>
      <trkpt lat="48.74629" lon="-3.27813">
        <ele>37.6</ele>
        <time>2021-03-28T13:28:17Z</time>
      </trkpt>
      <trkpt lat="48.74629" lon="-3.27815">
        <ele>37.7</ele>
        <time>2021-03-28T13:28:18Z</time>
      </trkpt>
      <trkpt lat="48.74629" lon="-3.27816">
        <ele>37.7</ele>
        <time>2021-03-28T13:28:19Z</time>
      </trkpt>
      <trkpt lat="48.7463" lon="-3.2782">
        <ele>37.8</ele>
        <time>2021-03-28T13:28:21Z</time>
      </trkpt>
      <trkpt lat="48.74632" lon="-3.27824">
        <ele>37.8</ele>
        <time>2021-03-28T13:28:22Z</time>
      </trkpt>
      <trkpt lat="48.74633" lon="-3.27825">
        <ele>37.8</ele>
        <time>2021-03-28T13:28:23Z</time>
      </trkpt>
      <trkpt lat="48.74634" lon="-3.27828">
        <ele>37.9</ele>
        <time>2021-03-28T13:28:25Z</time>
      </trkpt>
      <trkpt lat="48.74634" lon="-3.27829">
        <ele>37.9</ele>
        <time>2021-03-28T13:28:26Z</time>
      </trkpt>
      <trkpt lat="48.74635" lon="-3.2783">
        <ele>37.9</ele>
        <time>2021-03-28T13:28:27Z</time>
      </trkpt>
      <trkpt lat="48.74635" lon="-3.27832">
        <ele>37.9</ele>
        <time>2021-03-28T13:28:28Z</time>
      </trkpt>
      <trkpt lat="48.74635" lon="-3.27834">
        <ele>38</ele>
        <time>2021-03-28T13:28:29Z</time>
      </trkpt>
      <trkpt lat="48.74636" lon="-3.27836">
        <ele>38</ele>
        <time>2021-03-28T13:28:31Z</time>
      </trkpt>
      <trkpt lat="48.74636" lon="-3.27839">
        <ele>38</ele>
        <time>2021-03-28T13:28:32Z</time>
      </trkpt>
      <trkpt lat="48.74638" lon="-3.27845">
        <ele>38.1</ele>
        <time>2021-03-28T13:28:34Z</time>
      </trkpt>
      <trkpt lat="48.74639" lon="-3.27847">
        <ele>38.1</ele>
        <time>2021-03-28T13:28:36Z</time>
      </trkpt>
      <trkpt lat="48.74639" lon="-3.2785">
        <ele>38.1</ele>
        <time>2021-03-28T13:28:37Z</time>
      </trkpt>
      <trkpt lat="48.74639" lon="-3.27852">
        <ele>38.2</ele>
        <time>2021-03-28T13:28:38Z</time>
      </trkpt>
      <trkpt lat="48.7464" lon="-3.27854">
        <ele>38.2</ele>
        <time>2021-03-28T13:28:39Z</time>
      </trkpt>
      <trkpt lat="48.74641" lon="-3.27857">
        <ele>38.2</ele>
        <time>2021-03-28T13:28:41Z</time>
      </trkpt>
      <trkpt lat="48.74641" lon="-3.27859">
        <ele>38.2</ele>
        <time>2021-03-28T13:28:42Z</time>
      </trkpt>
      <trkpt lat="48.74643" lon="-3.27863">
        <ele>38.3</ele>
        <time>2021-03-28T13:28:43Z</time>
      </trkpt>
      <trkpt lat="48.74644" lon="-3.27864">
        <ele>38.3</ele>
        <time>2021-03-28T13:28:44Z</time>
      </trkpt>
      <trkpt lat="48.74644" lon="-3.27866">
        <ele>38.3</ele>
        <time>2021-03-28T13:28:46Z</time>
      </trkpt>
      <trkpt lat="48.74645" lon="-3.27868">
        <ele>38.3</ele>
        <time>2021-03-28T13:28:47Z</time>
      </trkpt>
      <trkpt lat="48.74647" lon="-3.27874">
        <ele>38.4</ele>
        <time>2021-03-28T13:28:49Z</time>
      </trkpt>
      <trkpt lat="48.74648" lon="-3.27875">
        <ele>38.4</ele>
        <time>2021-03-28T13:28:50Z</time>
      </trkpt>
      <trkpt lat="48.74648" lon="-3.27876">
        <ele>38.4</ele>
        <time>2021-03-28T13:28:51Z</time>
      </trkpt>
      <trkpt lat="48.74649" lon="-3.27878">
        <ele>38.4</ele>
        <time>2021-03-28T13:28:52Z</time>
      </trkpt>
      <trkpt lat="48.7465" lon="-3.27882">
        <ele>38.4</ele>
        <time>2021-03-28T13:28:54Z</time>
      </trkpt>
      <trkpt lat="48.74651" lon="-3.27883">
        <ele>38.4</ele>
        <time>2021-03-28T13:28:55Z</time>
      </trkpt>
      <trkpt lat="48.74652" lon="-3.27887">
        <ele>38.5</ele>
        <time>2021-03-28T13:28:57Z</time>
      </trkpt>
      <trkpt lat="48.74652" lon="-3.27888">
        <ele>38.5</ele>
        <time>2021-03-28T13:28:58Z</time>
      </trkpt>
      <trkpt lat="48.74654" lon="-3.27892">
        <ele>38.5</ele>
        <time>2021-03-28T13:29:00Z</time>
      </trkpt>
      <trkpt lat="48.74654" lon="-3.27894">
        <ele>38.5</ele>
        <time>2021-03-28T13:29:01Z</time>
      </trkpt>
      <trkpt lat="48.74655" lon="-3.27896">
        <ele>38.6</ele>
        <time>2021-03-28T13:29:02Z</time>
      </trkpt>
      <trkpt lat="48.74657" lon="-3.279">
        <ele>38.6</ele>
        <time>2021-03-28T13:29:04Z</time>
      </trkpt>
      <trkpt lat="48.74657" lon="-3.27902">
        <ele>38.6</ele>
        <time>2021-03-28T13:29:05Z</time>
      </trkpt>
      <trkpt lat="48.74658" lon="-3.27904">
        <ele>38.7</ele>
        <time>2021-03-28T13:29:06Z</time>
      </trkpt>
      <trkpt lat="48.74659" lon="-3.27907">
        <ele>38.7</ele>
        <time>2021-03-28T13:29:08Z</time>
      </trkpt>
      <trkpt lat="48.7466" lon="-3.2791">
        <ele>38.7</ele>
        <time>2021-03-28T13:29:09Z</time>
      </trkpt>
      <trkpt lat="48.74661" lon="-3.27912">
        <ele>38.8</ele>
        <time>2021-03-28T13:29:10Z</time>
      </trkpt>
      <trkpt lat="48.74662" lon="-3.27914">
        <ele>38.8</ele>
        <time>2021-03-28T13:29:11Z</time>
      </trkpt>
      <trkpt lat="48.74662" lon="-3.27917">
        <ele>38.8</ele>
        <time>2021-03-28T13:29:13Z</time>
      </trkpt>
      <trkpt lat="48.74663" lon="-3.27919">
        <ele>38.8</ele>
        <time>2021-03-28T13:29:14Z</time>
      </trkpt>
      <trkpt lat="48.74664" lon="-3.27923">
        <ele>38.9</ele>
        <time>2021-03-28T13:29:16Z</time>
      </trkpt>
      <trkpt lat="48.74666" lon="-3.27926">
        <ele>38.9</ele>
        <time>2021-03-28T13:29:17Z</time>
      </trkpt>
      <trkpt lat="48.74667" lon="-3.27927">
        <ele>38.9</ele>
        <time>2021-03-28T13:29:19Z</time>
      </trkpt>
      <trkpt lat="48.74667" lon="-3.27929">
        <ele>38.9</ele>
        <time>2021-03-28T13:29:20Z</time>
      </trkpt>
      <trkpt lat="48.74668" lon="-3.27931">
        <ele>38.9</ele>
        <time>2021-03-28T13:29:21Z</time>
      </trkpt>
      <trkpt lat="48.74669" lon="-3.27933">
        <ele>39</ele>
        <time>2021-03-28T13:29:22Z</time>
      </trkpt>
      <trkpt lat="48.7467" lon="-3.27935">
        <ele>39</ele>
        <time>2021-03-28T13:29:24Z</time>
      </trkpt>
      <trkpt lat="48.74671" lon="-3.27937">
        <ele>39</ele>
        <time>2021-03-28T13:29:25Z</time>
      </trkpt>
      <trkpt lat="48.74672" lon="-3.2794">
        <ele>39</ele>
        <time>2021-03-28T13:29:27Z</time>
      </trkpt>
      <trkpt lat="48.74673" lon="-3.27944">
        <ele>39</ele>
        <time>2021-03-28T13:29:29Z</time>
      </trkpt>
      <trkpt lat="48.74674" lon="-3.27946">
        <ele>39.1</ele>
        <time>2021-03-28T13:29:30Z</time>
      </trkpt>
      <trkpt lat="48.74675" lon="-3.27948">
        <ele>39.1</ele>
        <time>2021-03-28T13:29:31Z</time>
      </trkpt>
      <trkpt lat="48.74676" lon="-3.2795">
        <ele>39.1</ele>
        <time>2021-03-28T13:29:32Z</time>
      </trkpt>
      <trkpt lat="48.74678" lon="-3.27952">
        <ele>39.1</ele>
        <time>2021-03-28T13:29:33Z</time>
      </trkpt>
      <trkpt lat="48.7468" lon="-3.27956">
        <ele>39.1</ele>
        <time>2021-03-28T13:29:35Z</time>
      </trkpt>
      <trkpt lat="48.7468" lon="-3.27957">
        <ele>39.1</ele>
        <time>2021-03-28T13:29:36Z</time>
      </trkpt>
      <trkpt lat="48.74683" lon="-3.27961">
        <ele>39.1</ele>
        <time>2021-03-28T13:29:37Z</time>
      </trkpt>
      <trkpt lat="48.74684" lon="-3.27963">
        <ele>39.2</ele>
        <time>2021-03-28T13:29:38Z</time>
      </trkpt>
      <trkpt lat="48.74685" lon="-3.27964">
        <ele>39.2</ele>
        <time>2021-03-28T13:29:39Z</time>
      </trkpt>
      <trkpt lat="48.74685" lon="-3.27967">
        <ele>39.2</ele>
        <time>2021-03-28T13:29:41Z</time>
      </trkpt>
      <trkpt lat="48.74687" lon="-3.27971">
        <ele>39.2</ele>
        <time>2021-03-28T13:29:43Z</time>
      </trkpt>
      <trkpt lat="48.74688" lon="-3.27973">
        <ele>39.2</ele>
        <time>2021-03-28T13:29:44Z</time>
      </trkpt>
      <trkpt lat="48.7469" lon="-3.27975">
        <ele>39.2</ele>
        <time>2021-03-28T13:29:46Z</time>
      </trkpt>
      <trkpt lat="48.74691" lon="-3.27978">
        <ele>39.2</ele>
        <time>2021-03-28T13:29:47Z</time>
      </trkpt>
      <trkpt lat="48.74693" lon="-3.2798">
        <ele>39.2</ele>
        <time>2021-03-28T13:29:49Z</time>
      </trkpt>
      <trkpt lat="48.74694" lon="-3.27983">
        <ele>39.2</ele>
        <time>2021-03-28T13:29:51Z</time>
      </trkpt>
      <trkpt lat="48.74695" lon="-3.27985">
        <ele>39.2</ele>
        <time>2021-03-28T13:29:52Z</time>
      </trkpt>
      <trkpt lat="48.74698" lon="-3.27991">
        <ele>39.2</ele>
        <time>2021-03-28T13:29:54Z</time>
      </trkpt>
      <trkpt lat="48.74699" lon="-3.27992">
        <ele>39.2</ele>
        <time>2021-03-28T13:29:56Z</time>
      </trkpt>
      <trkpt lat="48.747" lon="-3.27994">
        <ele>39.2</ele>
        <time>2021-03-28T13:29:57Z</time>
      </trkpt>
      <trkpt lat="48.74702" lon="-3.27996">
        <ele>39.2</ele>
        <time>2021-03-28T13:29:58Z</time>
      </trkpt>
      <trkpt lat="48.74703" lon="-3.27997">
        <ele>39.2</ele>
        <time>2021-03-28T13:29:59Z</time>
      </trkpt>
      <trkpt lat="48.74704" lon="-3.27998">
        <ele>39.2</ele>
        <time>2021-03-28T13:30:01Z</time>
      </trkpt>
      <trkpt lat="48.74704" lon="-3.27999">
        <ele>39.2</ele>
        <time>2021-03-28T13:30:02Z</time>
      </trkpt>
      <trkpt lat="48.74705" lon="-3.28001">
        <ele>39.2</ele>
        <time>2021-03-28T13:30:03Z</time>
      </trkpt>
      <trkpt lat="48.74707" lon="-3.28004">
        <ele>39.2</ele>
        <time>2021-03-28T13:30:05Z</time>
      </trkpt>
      <trkpt lat="48.74708" lon="-3.28006">
        <ele>39.2</ele>
        <time>2021-03-28T13:30:06Z</time>
      </trkpt>
      <trkpt lat="48.7471" lon="-3.28009">
        <ele>39.2</ele>
        <time>2021-03-28T13:30:08Z</time>
      </trkpt>
      <trkpt lat="48.74712" lon="-3.28012">
        <ele>39.1</ele>
        <time>2021-03-28T13:30:10Z</time>
      </trkpt>
      <trkpt lat="48.74713" lon="-3.28014">
        <ele>39.1</ele>
        <time>2021-03-28T13:30:11Z</time>
      </trkpt>
      <trkpt lat="48.74714" lon="-3.28017">
        <ele>39.1</ele>
        <time>2021-03-28T13:30:13Z</time>
      </trkpt>
      <trkpt lat="48.74715" lon="-3.28018">
        <ele>39</ele>
        <time>2021-03-28T13:30:14Z</time>
      </trkpt>
      <trkpt lat="48.74716" lon="-3.28021">
        <ele>39</ele>
        <time>2021-03-28T13:30:15Z</time>
      </trkpt>
      <trkpt lat="48.74717" lon="-3.28023">
        <ele>39</ele>
        <time>2021-03-28T13:30:16Z</time>
      </trkpt>
      <trkpt lat="48.74718" lon="-3.28024">
        <ele>39</ele>
        <time>2021-03-28T13:30:17Z</time>
      </trkpt>
      <trkpt lat="48.74719" lon="-3.28025">
        <ele>39</ele>
        <time>2021-03-28T13:30:19Z</time>
      </trkpt>
      <trkpt lat="48.74719" lon="-3.28027">
        <ele>38.9</ele>
        <time>2021-03-28T13:30:20Z</time>
      </trkpt>
      <trkpt lat="48.7472" lon="-3.28028">
        <ele>38.9</ele>
        <time>2021-03-28T13:30:21Z</time>
      </trkpt>
      <trkpt lat="48.74721" lon="-3.28031">
        <ele>38.9</ele>
        <time>2021-03-28T13:30:22Z</time>
      </trkpt>
      <trkpt lat="48.74722" lon="-3.28033">
        <ele>38.8</ele>
        <time>2021-03-28T13:30:24Z</time>
      </trkpt>
      <trkpt lat="48.74722" lon="-3.28034">
        <ele>38.8</ele>
        <time>2021-03-28T13:30:25Z</time>
      </trkpt>
      <trkpt lat="48.74724" lon="-3.28036">
        <ele>38.8</ele>
        <time>2021-03-28T13:30:26Z</time>
      </trkpt>
      <trkpt lat="48.74725" lon="-3.28038">
        <ele>38.7</ele>
        <time>2021-03-28T13:30:27Z</time>
      </trkpt>
      <trkpt lat="48.74726" lon="-3.2804">
        <ele>38.7</ele>
        <time>2021-03-28T13:30:29Z</time>
      </trkpt>
      <trkpt lat="48.74727" lon="-3.28042">
        <ele>38.6</ele>
        <time>2021-03-28T13:30:30Z</time>
      </trkpt>
      <trkpt lat="48.74728" lon="-3.28045">
        <ele>38.5</ele>
        <time>2021-03-28T13:30:32Z</time>
      </trkpt>
      <trkpt lat="48.74729" lon="-3.28047">
        <ele>38.5</ele>
        <time>2021-03-28T13:30:33Z</time>
      </trkpt>
      <trkpt lat="48.7473" lon="-3.2805">
        <ele>38.4</ele>
        <time>2021-03-28T13:30:35Z</time>
      </trkpt>
      <trkpt lat="48.74731" lon="-3.28052">
        <ele>38.4</ele>
        <time>2021-03-28T13:30:36Z</time>
      </trkpt>
      <trkpt lat="48.74733" lon="-3.28056">
        <ele>38.3</ele>
        <time>2021-03-28T13:30:38Z</time>
      </trkpt>
      <trkpt lat="48.74734" lon="-3.28059">
        <ele>38.2</ele>
        <time>2021-03-28T13:30:39Z</time>
      </trkpt>
      <trkpt lat="48.74735" lon="-3.28061">
        <ele>38.2</ele>
        <time>2021-03-28T13:30:40Z</time>
      </trkpt>
      <trkpt lat="48.74735" lon="-3.28063">
        <ele>38.2</ele>
        <time>2021-03-28T13:30:41Z</time>
      </trkpt>
      <trkpt lat="48.74737" lon="-3.28066">
        <ele>38.1</ele>
        <time>2021-03-28T13:30:43Z</time>
      </trkpt>
      <trkpt lat="48.74738" lon="-3.28067">
        <ele>38.1</ele>
        <time>2021-03-28T13:30:44Z</time>
      </trkpt>
      <trkpt lat="48.74739" lon="-3.2807">
        <ele>38</ele>
        <time>2021-03-28T13:30:46Z</time>
      </trkpt>
      <trkpt lat="48.74739" lon="-3.28072">
        <ele>38</ele>
        <time>2021-03-28T13:30:47Z</time>
      </trkpt>
      <trkpt lat="48.7474" lon="-3.28077">
        <ele>37.9</ele>
        <time>2021-03-28T13:30:49Z</time>
      </trkpt>
      <trkpt lat="48.7474" lon="-3.28078">
        <ele>37.9</ele>
        <time>2021-03-28T13:30:50Z</time>
      </trkpt>
      <trkpt lat="48.74741" lon="-3.2808">
        <ele>37.8</ele>
        <time>2021-03-28T13:30:51Z</time>
      </trkpt>
      <trkpt lat="48.74742" lon="-3.28083">
        <ele>37.8</ele>
        <time>2021-03-28T13:30:53Z</time>
      </trkpt>
      <trkpt lat="48.74742" lon="-3.28085">
        <ele>37.8</ele>
        <time>2021-03-28T13:30:54Z</time>
      </trkpt>
      <trkpt lat="48.74743" lon="-3.28088">
        <ele>37.7</ele>
        <time>2021-03-28T13:30:55Z</time>
      </trkpt>
      <trkpt lat="48.74745" lon="-3.28091">
        <ele>37.7</ele>
        <time>2021-03-28T13:30:57Z</time>
      </trkpt>
      <trkpt lat="48.74746" lon="-3.28093">
        <ele>37.6</ele>
        <time>2021-03-28T13:30:58Z</time>
      </trkpt>
      <trkpt lat="48.74747" lon="-3.28097">
        <ele>37.6</ele>
        <time>2021-03-28T13:31:00Z</time>
      </trkpt>
      <trkpt lat="48.74748" lon="-3.28099">
        <ele>37.6</ele>
        <time>2021-03-28T13:31:01Z</time>
      </trkpt>
      <trkpt lat="48.74749" lon="-3.28101">
        <ele>37.6</ele>
        <time>2021-03-28T13:31:02Z</time>
      </trkpt>
      <trkpt lat="48.7475" lon="-3.28103">
        <ele>37.5</ele>
        <time>2021-03-28T13:31:04Z</time>
      </trkpt>
      <trkpt lat="48.74751" lon="-3.28104">
        <ele>37.5</ele>
        <time>2021-03-28T13:31:05Z</time>
      </trkpt>
      <trkpt lat="48.74752" lon="-3.28106">
        <ele>37.5</ele>
        <time>2021-03-28T13:31:07Z</time>
      </trkpt>
      <trkpt lat="48.74753" lon="-3.28107">
        <ele>37.5</ele>
        <time>2021-03-28T13:31:08Z</time>
      </trkpt>
      <trkpt lat="48.74754" lon="-3.28109">
        <ele>37.5</ele>
        <time>2021-03-28T13:31:09Z</time>
      </trkpt>
      <trkpt lat="48.74755" lon="-3.28111">
        <ele>37.4</ele>
        <time>2021-03-28T13:31:10Z</time>
      </trkpt>
      <trkpt lat="48.74756" lon="-3.28113">
        <ele>37.4</ele>
        <time>2021-03-28T13:31:12Z</time>
      </trkpt>
      <trkpt lat="48.74756" lon="-3.28115">
        <ele>37.4</ele>
        <time>2021-03-28T13:31:13Z</time>
      </trkpt>
      <trkpt lat="48.74757" lon="-3.28116">
        <ele>37.4</ele>
        <time>2021-03-28T13:31:14Z</time>
      </trkpt>
      <trkpt lat="48.74757" lon="-3.28119">
        <ele>37.4</ele>
        <time>2021-03-28T13:31:15Z</time>
      </trkpt>
      <trkpt lat="48.74758" lon="-3.28122">
        <ele>37.3</ele>
        <time>2021-03-28T13:31:17Z</time>
      </trkpt>
      <trkpt lat="48.74758" lon="-3.28124">
        <ele>37.3</ele>
        <time>2021-03-28T13:31:18Z</time>
      </trkpt>
      <trkpt lat="48.74759" lon="-3.28127">
        <ele>37.3</ele>
        <time>2021-03-28T13:31:19Z</time>
      </trkpt>
      <trkpt lat="48.74759" lon="-3.28128">
        <ele>37.3</ele>
        <time>2021-03-28T13:31:20Z</time>
      </trkpt>
      <trkpt lat="48.74761" lon="-3.28131">
        <ele>37.3</ele>
        <time>2021-03-28T13:31:21Z</time>
      </trkpt>
      <trkpt lat="48.74762" lon="-3.28132">
        <ele>37.2</ele>
        <time>2021-03-28T13:31:23Z</time>
      </trkpt>
      <trkpt lat="48.74763" lon="-3.28133">
        <ele>37.2</ele>
        <time>2021-03-28T13:31:24Z</time>
      </trkpt>
      <trkpt lat="48.74764" lon="-3.28135">
        <ele>37.2</ele>
        <time>2021-03-28T13:31:25Z</time>
      </trkpt>
      <trkpt lat="48.74766" lon="-3.28137">
        <ele>37.2</ele>
        <time>2021-03-28T13:31:26Z</time>
      </trkpt>
      <trkpt lat="48.74767" lon="-3.28138">
        <ele>37.2</ele>
        <time>2021-03-28T13:31:28Z</time>
      </trkpt>
      <trkpt lat="48.74768" lon="-3.2814">
        <ele>37.1</ele>
        <time>2021-03-28T13:31:29Z</time>
      </trkpt>
      <trkpt lat="48.74768" lon="-3.28142">
        <ele>37.1</ele>
        <time>2021-03-28T13:31:30Z</time>
      </trkpt>
      <trkpt lat="48.7477" lon="-3.28144">
        <ele>37.1</ele>
        <time>2021-03-28T13:31:31Z</time>
      </trkpt>
      <trkpt lat="48.74771" lon="-3.28146">
        <ele>37.1</ele>
        <time>2021-03-28T13:31:33Z</time>
      </trkpt>
      <trkpt lat="48.74772" lon="-3.28148">
        <ele>37.1</ele>
        <time>2021-03-28T13:31:34Z</time>
      </trkpt>
      <trkpt lat="48.74773" lon="-3.28152">
        <ele>37</ele>
        <time>2021-03-28T13:31:35Z</time>
      </trkpt>
      <trkpt lat="48.74774" lon="-3.28153">
        <ele>37</ele>
        <time>2021-03-28T13:31:36Z</time>
      </trkpt>
      <trkpt lat="48.74775" lon="-3.28155">
        <ele>37</ele>
        <time>2021-03-28T13:31:38Z</time>
      </trkpt>
      <trkpt lat="48.74776" lon="-3.28157">
        <ele>36.9</ele>
        <time>2021-03-28T13:31:39Z</time>
      </trkpt>
      <trkpt lat="48.74777" lon="-3.28159">
        <ele>36.9</ele>
        <time>2021-03-28T13:31:40Z</time>
      </trkpt>
      <trkpt lat="48.74778" lon="-3.28162">
        <ele>36.9</ele>
        <time>2021-03-28T13:31:42Z</time>
      </trkpt>
      <trkpt lat="48.74779" lon="-3.28164">
        <ele>36.8</ele>
        <time>2021-03-28T13:31:43Z</time>
      </trkpt>
      <trkpt lat="48.7478" lon="-3.28166">
        <ele>36.8</ele>
        <time>2021-03-28T13:31:44Z</time>
      </trkpt>
      <trkpt lat="48.74782" lon="-3.28169">
        <ele>36.8</ele>
        <time>2021-03-28T13:31:45Z</time>
      </trkpt>
      <trkpt lat="48.74784" lon="-3.28172">
        <ele>36.7</ele>
        <time>2021-03-28T13:31:47Z</time>
      </trkpt>
      <trkpt lat="48.74784" lon="-3.28173">
        <ele>36.7</ele>
        <time>2021-03-28T13:31:48Z</time>
      </trkpt>
      <trkpt lat="48.74785" lon="-3.28174">
        <ele>36.7</ele>
        <time>2021-03-28T13:31:49Z</time>
      </trkpt>
      <trkpt lat="48.74786" lon="-3.28176">
        <ele>36.7</ele>
        <time>2021-03-28T13:31:50Z</time>
      </trkpt>
      <trkpt lat="48.74787" lon="-3.28178">
        <ele>36.6</ele>
        <time>2021-03-28T13:31:51Z</time>
      </trkpt>
      <trkpt lat="48.74788" lon="-3.28181">
        <ele>36.6</ele>
        <time>2021-03-28T13:31:53Z</time>
      </trkpt>
      <trkpt lat="48.74789" lon="-3.28183">
        <ele>36.6</ele>
        <time>2021-03-28T13:31:54Z</time>
      </trkpt>
      <trkpt lat="48.7479" lon="-3.28185">
        <ele>36.6</ele>
        <time>2021-03-28T13:31:55Z</time>
      </trkpt>
      <trkpt lat="48.7479" lon="-3.28187">
        <ele>36.5</ele>
        <time>2021-03-28T13:31:56Z</time>
      </trkpt>
      <trkpt lat="48.74792" lon="-3.28191">
        <ele>36.5</ele>
        <time>2021-03-28T13:31:58Z</time>
      </trkpt>
      <trkpt lat="48.74792" lon="-3.28192">
        <ele>36.5</ele>
        <time>2021-03-28T13:31:59Z</time>
      </trkpt>
      <trkpt lat="48.74793" lon="-3.28195">
        <ele>36.5</ele>
        <time>2021-03-28T13:32:00Z</time>
      </trkpt>
      <trkpt lat="48.74794" lon="-3.28196">
        <ele>36.4</ele>
        <time>2021-03-28T13:32:02Z</time>
      </trkpt>
      <trkpt lat="48.74795" lon="-3.28198">
        <ele>36.4</ele>
        <time>2021-03-28T13:32:03Z</time>
      </trkpt>
      <trkpt lat="48.74797" lon="-3.282">
        <ele>36.4</ele>
        <time>2021-03-28T13:32:04Z</time>
      </trkpt>
      <trkpt lat="48.74798" lon="-3.28202">
        <ele>36.4</ele>
        <time>2021-03-28T13:32:05Z</time>
      </trkpt>
      <trkpt lat="48.74799" lon="-3.28204">
        <ele>36.4</ele>
        <time>2021-03-28T13:32:07Z</time>
      </trkpt>
      <trkpt lat="48.748" lon="-3.28205">
        <ele>36.4</ele>
        <time>2021-03-28T13:32:08Z</time>
      </trkpt>
      <trkpt lat="48.74802" lon="-3.28208">
        <ele>36.4</ele>
        <time>2021-03-28T13:32:10Z</time>
      </trkpt>
      <trkpt lat="48.74805" lon="-3.28208">
        <ele>36.5</ele>
        <time>2021-03-28T13:32:11Z</time>
      </trkpt>
      <trkpt lat="48.74806" lon="-3.28208">
        <ele>36.5</ele>
        <time>2021-03-28T13:32:13Z</time>
      </trkpt>
      <trkpt lat="48.74807" lon="-3.28208">
        <ele>36.5</ele>
        <time>2021-03-28T13:32:15Z</time>
      </trkpt>
      <trkpt lat="48.74809" lon="-3.28208">
        <ele>36.5</ele>
        <time>2021-03-28T13:32:16Z</time>
      </trkpt>
      <trkpt lat="48.7481" lon="-3.28208">
        <ele>36.5</ele>
        <time>2021-03-28T13:32:18Z</time>
      </trkpt>
      <trkpt lat="48.74813" lon="-3.28209">
        <ele>36.6</ele>
        <time>2021-03-28T13:32:20Z</time>
      </trkpt>
      <trkpt lat="48.74814" lon="-3.28209">
        <ele>36.6</ele>
        <time>2021-03-28T13:32:21Z</time>
      </trkpt>
      <trkpt lat="48.74817" lon="-3.28208">
        <ele>36.6</ele>
        <time>2021-03-28T13:32:23Z</time>
      </trkpt>
      <trkpt lat="48.74819" lon="-3.28207">
        <ele>36.6</ele>
        <time>2021-03-28T13:32:25Z</time>
      </trkpt>
      <trkpt lat="48.7482" lon="-3.28207">
        <ele>36.6</ele>
        <time>2021-03-28T13:32:26Z</time>
      </trkpt>
      <trkpt lat="48.74823" lon="-3.28207">
        <ele>36.6</ele>
        <time>2021-03-28T13:32:27Z</time>
      </trkpt>
      <trkpt lat="48.74824" lon="-3.28208">
        <ele>36.7</ele>
        <time>2021-03-28T13:32:28Z</time>
      </trkpt>
      <trkpt lat="48.74826" lon="-3.28207">
        <ele>36.7</ele>
        <time>2021-03-28T13:32:30Z</time>
      </trkpt>
      <trkpt lat="48.74827" lon="-3.28207">
        <ele>36.7</ele>
        <time>2021-03-28T13:32:31Z</time>
      </trkpt>
      <trkpt lat="48.74829" lon="-3.28207">
        <ele>36.7</ele>
        <time>2021-03-28T13:32:32Z</time>
      </trkpt>
      <trkpt lat="48.74831" lon="-3.28207">
        <ele>36.7</ele>
        <time>2021-03-28T13:32:34Z</time>
      </trkpt>
      <trkpt lat="48.74832" lon="-3.28207">
        <ele>36.7</ele>
        <time>2021-03-28T13:32:35Z</time>
      </trkpt>
      <trkpt lat="48.74834" lon="-3.28207">
        <ele>36.7</ele>
        <time>2021-03-28T13:32:36Z</time>
      </trkpt>
      <trkpt lat="48.74836" lon="-3.28207">
        <ele>36.7</ele>
        <time>2021-03-28T13:32:38Z</time>
      </trkpt>
      <trkpt lat="48.74837" lon="-3.28206">
        <ele>36.8</ele>
        <time>2021-03-28T13:32:39Z</time>
      </trkpt>
      <trkpt lat="48.74838" lon="-3.28206">
        <ele>36.8</ele>
        <time>2021-03-28T13:32:40Z</time>
      </trkpt>
      <trkpt lat="48.7484" lon="-3.28206">
        <ele>36.8</ele>
        <time>2021-03-28T13:32:41Z</time>
      </trkpt>
      <trkpt lat="48.74841" lon="-3.28206">
        <ele>36.8</ele>
        <time>2021-03-28T13:32:43Z</time>
      </trkpt>
      <trkpt lat="48.74843" lon="-3.28206">
        <ele>36.8</ele>
        <time>2021-03-28T13:32:44Z</time>
      </trkpt>
      <trkpt lat="48.74844" lon="-3.28206">
        <ele>36.8</ele>
        <time>2021-03-28T13:32:45Z</time>
      </trkpt>
      <trkpt lat="48.74845" lon="-3.28207">
        <ele>36.8</ele>
        <time>2021-03-28T13:32:46Z</time>
      </trkpt>
      <trkpt lat="48.74846" lon="-3.28207">
        <ele>36.8</ele>
        <time>2021-03-28T13:32:47Z</time>
      </trkpt>
      <trkpt lat="48.74847" lon="-3.28207">
        <ele>36.8</ele>
        <time>2021-03-28T13:32:49Z</time>
      </trkpt>
      <trkpt lat="48.74849" lon="-3.28208">
        <ele>36.8</ele>
        <time>2021-03-28T13:32:50Z</time>
      </trkpt>
      <trkpt lat="48.7485" lon="-3.28208">
        <ele>36.8</ele>
        <time>2021-03-28T13:32:51Z</time>
      </trkpt>
      <trkpt lat="48.74854" lon="-3.28209">
        <ele>36.8</ele>
        <time>2021-03-28T13:32:53Z</time>
      </trkpt>
      <trkpt lat="48.74854" lon="-3.28209">
        <ele>36.8</ele>
        <time>2021-03-28T13:32:54Z</time>
      </trkpt>
      <trkpt lat="48.74856" lon="-3.28209">
        <ele>36.8</ele>
        <time>2021-03-28T13:32:55Z</time>
      </trkpt>
      <trkpt lat="48.74857" lon="-3.28209">
        <ele>36.8</ele>
        <time>2021-03-28T13:32:56Z</time>
      </trkpt>
      <trkpt lat="48.74858" lon="-3.28209">
        <ele>36.8</ele>
        <time>2021-03-28T13:32:57Z</time>
      </trkpt>
      <trkpt lat="48.74861" lon="-3.28209">
        <ele>36.8</ele>
        <time>2021-03-28T13:32:59Z</time>
      </trkpt>
      <trkpt lat="48.74862" lon="-3.28209">
        <ele>36.7</ele>
        <time>2021-03-28T13:33:00Z</time>
      </trkpt>
      <trkpt lat="48.74864" lon="-3.28208">
        <ele>36.7</ele>
        <time>2021-03-28T13:33:01Z</time>
      </trkpt>
      <trkpt lat="48.74866" lon="-3.28207">
        <ele>36.7</ele>
        <time>2021-03-28T13:33:03Z</time>
      </trkpt>
      <trkpt lat="48.74868" lon="-3.28207">
        <ele>36.7</ele>
        <time>2021-03-28T13:33:04Z</time>
      </trkpt>
      <trkpt lat="48.74869" lon="-3.28206">
        <ele>36.7</ele>
        <time>2021-03-28T13:33:05Z</time>
      </trkpt>
      <trkpt lat="48.74869" lon="-3.28206">
        <ele>36.7</ele>
        <time>2021-03-28T13:33:06Z</time>
      </trkpt>
      <trkpt lat="48.74871" lon="-3.28206">
        <ele>36.6</ele>
        <time>2021-03-28T13:33:07Z</time>
      </trkpt>
      <trkpt lat="48.74873" lon="-3.28204">
        <ele>36.6</ele>
        <time>2021-03-28T13:33:09Z</time>
      </trkpt>
      <trkpt lat="48.74874" lon="-3.28204">
        <ele>36.6</ele>
        <time>2021-03-28T13:33:10Z</time>
      </trkpt>
      <trkpt lat="48.74876" lon="-3.28203">
        <ele>36.6</ele>
        <time>2021-03-28T13:33:11Z</time>
      </trkpt>
      <trkpt lat="48.74878" lon="-3.28202">
        <ele>36.5</ele>
        <time>2021-03-28T13:33:12Z</time>
      </trkpt>
      <trkpt lat="48.74879" lon="-3.28202">
        <ele>36.5</ele>
        <time>2021-03-28T13:33:14Z</time>
      </trkpt>
      <trkpt lat="48.7488" lon="-3.28202">
        <ele>36.5</ele>
        <time>2021-03-28T13:33:15Z</time>
      </trkpt>
      <trkpt lat="48.74882" lon="-3.28202">
        <ele>36.5</ele>
        <time>2021-03-28T13:33:16Z</time>
      </trkpt>
      <trkpt lat="48.74884" lon="-3.28201">
        <ele>36.4</ele>
        <time>2021-03-28T13:33:17Z</time>
      </trkpt>
      <trkpt lat="48.74885" lon="-3.28201">
        <ele>36.4</ele>
        <time>2021-03-28T13:33:19Z</time>
      </trkpt>
      <trkpt lat="48.74886" lon="-3.28201">
        <ele>36.4</ele>
        <time>2021-03-28T13:33:20Z</time>
      </trkpt>
      <trkpt lat="48.74888" lon="-3.282">
        <ele>36.4</ele>
        <time>2021-03-28T13:33:21Z</time>
      </trkpt>
      <trkpt lat="48.74891" lon="-3.28199">
        <ele>36.3</ele>
        <time>2021-03-28T13:33:23Z</time>
      </trkpt>
      <trkpt lat="48.74892" lon="-3.28198">
        <ele>36.3</ele>
        <time>2021-03-28T13:33:24Z</time>
      </trkpt>
      <trkpt lat="48.74894" lon="-3.28197">
        <ele>36.3</ele>
        <time>2021-03-28T13:33:25Z</time>
      </trkpt>
      <trkpt lat="48.74895" lon="-3.28197">
        <ele>36.3</ele>
        <time>2021-03-28T13:33:27Z</time>
      </trkpt>
      <trkpt lat="48.74898" lon="-3.28194">
        <ele>36.2</ele>
        <time>2021-03-28T13:33:29Z</time>
      </trkpt>
      <trkpt lat="48.74899" lon="-3.28193">
        <ele>36.2</ele>
        <time>2021-03-28T13:33:30Z</time>
      </trkpt>
      <trkpt lat="48.74901" lon="-3.28193">
        <ele>36.2</ele>
        <time>2021-03-28T13:33:31Z</time>
      </trkpt>
      <trkpt lat="48.74902" lon="-3.28192">
        <ele>36.2</ele>
        <time>2021-03-28T13:33:32Z</time>
      </trkpt>
      <trkpt lat="48.74904" lon="-3.28192">
        <ele>36.1</ele>
        <time>2021-03-28T13:33:33Z</time>
      </trkpt>
      <trkpt lat="48.74905" lon="-3.28192">
        <ele>36.1</ele>
        <time>2021-03-28T13:33:34Z</time>
      </trkpt>
      <trkpt lat="48.74907" lon="-3.28192">
        <ele>36.1</ele>
        <time>2021-03-28T13:33:36Z</time>
      </trkpt>
      <trkpt lat="48.74909" lon="-3.28193">
        <ele>36</ele>
        <time>2021-03-28T13:33:37Z</time>
      </trkpt>
      <trkpt lat="48.74912" lon="-3.28193">
        <ele>36</ele>
        <time>2021-03-28T13:33:39Z</time>
      </trkpt>
      <trkpt lat="48.74913" lon="-3.28194">
        <ele>36</ele>
        <time>2021-03-28T13:33:40Z</time>
      </trkpt>
      <trkpt lat="48.74915" lon="-3.28197">
        <ele>35.9</ele>
        <time>2021-03-28T13:33:41Z</time>
      </trkpt>
      <trkpt lat="48.74916" lon="-3.28198">
        <ele>35.9</ele>
        <time>2021-03-28T13:33:42Z</time>
      </trkpt>
      <trkpt lat="48.74917" lon="-3.282">
        <ele>35.9</ele>
        <time>2021-03-28T13:33:44Z</time>
      </trkpt>
      <trkpt lat="48.74918" lon="-3.28202">
        <ele>35.8</ele>
        <time>2021-03-28T13:33:45Z</time>
      </trkpt>
      <trkpt lat="48.74921" lon="-3.28204">
        <ele>35.8</ele>
        <time>2021-03-28T13:33:46Z</time>
      </trkpt>
      <trkpt lat="48.74924" lon="-3.28204">
        <ele>35.7</ele>
        <time>2021-03-28T13:33:47Z</time>
      </trkpt>
      <trkpt lat="48.74926" lon="-3.28205">
        <ele>35.7</ele>
        <time>2021-03-28T13:33:49Z</time>
      </trkpt>
      <trkpt lat="48.74927" lon="-3.28205">
        <ele>35.6</ele>
        <time>2021-03-28T13:33:50Z</time>
      </trkpt>
      <trkpt lat="48.74929" lon="-3.28205">
        <ele>35.6</ele>
        <time>2021-03-28T13:33:51Z</time>
      </trkpt>
      <trkpt lat="48.74931" lon="-3.28205">
        <ele>35.6</ele>
        <time>2021-03-28T13:33:52Z</time>
      </trkpt>
      <trkpt lat="48.74933" lon="-3.28205">
        <ele>35.5</ele>
        <time>2021-03-28T13:33:54Z</time>
      </trkpt>
      <trkpt lat="48.74936" lon="-3.28206">
        <ele>35.4</ele>
        <time>2021-03-28T13:33:55Z</time>
      </trkpt>
      <trkpt lat="48.74937" lon="-3.28206">
        <ele>35.4</ele>
        <time>2021-03-28T13:33:56Z</time>
      </trkpt>
      <trkpt lat="48.7494" lon="-3.28207">
        <ele>35.3</ele>
        <time>2021-03-28T13:33:57Z</time>
      </trkpt>
      <trkpt lat="48.74943" lon="-3.28207">
        <ele>35.3</ele>
        <time>2021-03-28T13:33:59Z</time>
      </trkpt>
      <trkpt lat="48.74944" lon="-3.28207">
        <ele>35.2</ele>
        <time>2021-03-28T13:34:00Z</time>
      </trkpt>
      <trkpt lat="48.74946" lon="-3.28207">
        <ele>35.2</ele>
        <time>2021-03-28T13:34:01Z</time>
      </trkpt>
      <trkpt lat="48.74947" lon="-3.28208">
        <ele>35.2</ele>
        <time>2021-03-28T13:34:02Z</time>
      </trkpt>
      <trkpt lat="48.7495" lon="-3.28208">
        <ele>35.1</ele>
        <time>2021-03-28T13:34:04Z</time>
      </trkpt>
      <trkpt lat="48.74953" lon="-3.28208">
        <ele>35</ele>
        <time>2021-03-28T13:34:06Z</time>
      </trkpt>
      <trkpt lat="48.74955" lon="-3.28208">
        <ele>35</ele>
        <time>2021-03-28T13:34:07Z</time>
      </trkpt>
      <trkpt lat="48.74956" lon="-3.28208">
        <ele>34.9</ele>
        <time>2021-03-28T13:34:08Z</time>
      </trkpt>
      <trkpt lat="48.74958" lon="-3.28208">
        <ele>34.9</ele>
        <time>2021-03-28T13:34:10Z</time>
      </trkpt>
      <trkpt lat="48.74959" lon="-3.28208">
        <ele>34.9</ele>
        <time>2021-03-28T13:34:11Z</time>
      </trkpt>
      <trkpt lat="48.74961" lon="-3.28208">
        <ele>34.8</ele>
        <time>2021-03-28T13:34:12Z</time>
      </trkpt>
      <trkpt lat="48.74963" lon="-3.28208">
        <ele>34.7</ele>
        <time>2021-03-28T13:34:14Z</time>
      </trkpt>
      <trkpt lat="48.74965" lon="-3.28209">
        <ele>34.7</ele>
        <time>2021-03-28T13:34:16Z</time>
      </trkpt>
      <trkpt lat="48.74966" lon="-3.28209">
        <ele>34.7</ele>
        <time>2021-03-28T13:34:17Z</time>
      </trkpt>
      <trkpt lat="48.74969" lon="-3.28209">
        <ele>34.6</ele>
        <time>2021-03-28T13:34:18Z</time>
      </trkpt>
      <trkpt lat="48.7497" lon="-3.2821">
        <ele>34.5</ele>
        <time>2021-03-28T13:34:19Z</time>
      </trkpt>
      <trkpt lat="48.74974" lon="-3.2821">
        <ele>34.4</ele>
        <time>2021-03-28T13:34:21Z</time>
      </trkpt>
      <trkpt lat="48.74975" lon="-3.2821">
        <ele>34.4</ele>
        <time>2021-03-28T13:34:22Z</time>
      </trkpt>
      <trkpt lat="48.74978" lon="-3.28209">
        <ele>34.3</ele>
        <time>2021-03-28T13:34:24Z</time>
      </trkpt>
      <trkpt lat="48.74979" lon="-3.28209">
        <ele>34.3</ele>
        <time>2021-03-28T13:34:25Z</time>
      </trkpt>
      <trkpt lat="48.74983" lon="-3.28209">
        <ele>34.1</ele>
        <time>2021-03-28T13:34:27Z</time>
      </trkpt>
      <trkpt lat="48.74984" lon="-3.28208">
        <ele>34.1</ele>
        <time>2021-03-28T13:34:28Z</time>
      </trkpt>
      <trkpt lat="48.74986" lon="-3.28209">
        <ele>34</ele>
        <time>2021-03-28T13:34:30Z</time>
      </trkpt>
      <trkpt lat="48.74988" lon="-3.28211">
        <ele>34</ele>
        <time>2021-03-28T13:34:32Z</time>
      </trkpt>
      <trkpt lat="48.74989" lon="-3.28212">
        <ele>33.9</ele>
        <time>2021-03-28T13:34:33Z</time>
      </trkpt>
      <trkpt lat="48.74988" lon="-3.28214">
        <ele>33.9</ele>
        <time>2021-03-28T13:34:34Z</time>
      </trkpt>
      <trkpt lat="48.74989" lon="-3.28216">
        <ele>33.9</ele>
        <time>2021-03-28T13:34:35Z</time>
      </trkpt>
      <trkpt lat="48.7499" lon="-3.28219">
        <ele>33.8</ele>
        <time>2021-03-28T13:34:37Z</time>
      </trkpt>
      <trkpt lat="48.74991" lon="-3.2822">
        <ele>33.7</ele>
        <time>2021-03-28T13:34:38Z</time>
      </trkpt>
      <trkpt lat="48.74992" lon="-3.28221">
        <ele>33.7</ele>
        <time>2021-03-28T13:34:39Z</time>
      </trkpt>
      <trkpt lat="48.74993" lon="-3.28223">
        <ele>33.7</ele>
        <time>2021-03-28T13:34:41Z</time>
      </trkpt>
      <trkpt lat="48.74995" lon="-3.28225">
        <ele>33.7</ele>
        <time>2021-03-28T13:34:43Z</time>
      </trkpt>
      <trkpt lat="48.74996" lon="-3.28226">
        <ele>33.7</ele>
        <time>2021-03-28T13:34:44Z</time>
      </trkpt>
      <trkpt lat="48.74999" lon="-3.28227">
        <ele>33.7</ele>
        <time>2021-03-28T13:34:46Z</time>
      </trkpt>
      <trkpt lat="48.75" lon="-3.28227">
        <ele>33.7</ele>
        <time>2021-03-28T13:34:47Z</time>
      </trkpt>
      <trkpt lat="48.75003" lon="-3.28227">
        <ele>33.7</ele>
        <time>2021-03-28T13:34:49Z</time>
      </trkpt>
      <trkpt lat="48.75005" lon="-3.28229">
        <ele>33.7</ele>
        <time>2021-03-28T13:34:51Z</time>
      </trkpt>
      <trkpt lat="48.75007" lon="-3.28231">
        <ele>33.7</ele>
        <time>2021-03-28T13:34:53Z</time>
      </trkpt>
      <trkpt lat="48.75009" lon="-3.28232">
        <ele>33.7</ele>
        <time>2021-03-28T13:34:54Z</time>
      </trkpt>
      <trkpt lat="48.7501" lon="-3.28233">
        <ele>33.7</ele>
        <time>2021-03-28T13:34:55Z</time>
      </trkpt>
      <trkpt lat="48.75012" lon="-3.28234">
        <ele>33.7</ele>
        <time>2021-03-28T13:34:57Z</time>
      </trkpt>
      <trkpt lat="48.75013" lon="-3.28235">
        <ele>33.7</ele>
        <time>2021-03-28T13:34:58Z</time>
      </trkpt>
      <trkpt lat="48.75014" lon="-3.28236">
        <ele>33.7</ele>
        <time>2021-03-28T13:34:59Z</time>
      </trkpt>
      <trkpt lat="48.75016" lon="-3.28238">
        <ele>33.7</ele>
        <time>2021-03-28T13:35:01Z</time>
      </trkpt>
      <trkpt lat="48.75018" lon="-3.28238">
        <ele>33.7</ele>
        <time>2021-03-28T13:35:03Z</time>
      </trkpt>
      <trkpt lat="48.7502" lon="-3.2824">
        <ele>33.7</ele>
        <time>2021-03-28T13:35:04Z</time>
      </trkpt>
      <trkpt lat="48.75021" lon="-3.28241">
        <ele>33.7</ele>
        <time>2021-03-28T13:35:06Z</time>
      </trkpt>
      <trkpt lat="48.75022" lon="-3.28242">
        <ele>33.7</ele>
        <time>2021-03-28T13:35:07Z</time>
      </trkpt>
      <trkpt lat="48.75022" lon="-3.28243">
        <ele>33.7</ele>
        <time>2021-03-28T13:35:08Z</time>
      </trkpt>
    </trkseg>
  </trk>
</gpx>